<?xml version="1.0" encoding="UTF-8" standalone="no" ?>
<gpx xmlns="http://www.topografix.com/GPX/1/1" xmlns:xsi="http://www.w3.org/2001/XMLSchema-instance" xsi:schemaLocation="http://www.topografix.com/GPX/1/1 http://www.topografix.com/GPX/1/1/gpx.xsd" version="1.1" creator="VisuGPX - https://www.visugpx.com">
  <metadata>
    <name>Col de la Schlucht - Hohneck - lac de la Lande </name>
  </metadata>
  <trk>
    <name><![CDATA[2022-10-09 11:05:32]]></name>
    <extensions>
      <line xmlns="http://www.topografix.com/GPX/gpx_style/0/2">
        <color>0000FF</color>
        <width>4</width>
      </line>
    </extensions>
    <trkseg>
      <trkpt lat="48.06372" lon="7.02255">
        <ele>1141.8000488281</ele>
        <time>2022-10-09T09:05:32.000Z</time>
      </trkpt>
      <trkpt lat="48.06372" lon="7.02256">
        <ele>1141.8000488281</ele>
        <time>2022-10-09T09:05:38.000Z</time>
      </trkpt>
      <trkpt lat="48.06372" lon="7.02256">
        <ele>1141.8000488281</ele>
        <time>2022-10-09T09:05:41.000Z</time>
      </trkpt>
      <trkpt lat="48.06372" lon="7.02256">
        <ele>1141.4000244141</ele>
        <time>2022-10-09T09:05:47.000Z</time>
      </trkpt>
      <trkpt lat="48.06372" lon="7.02256">
        <ele>1141.8000488281</ele>
        <time>2022-10-09T09:05:51.000Z</time>
      </trkpt>
      <trkpt lat="48.06372" lon="7.02256">
        <ele>1141.8000488281</ele>
        <time>2022-10-09T09:05:54.000Z</time>
      </trkpt>
      <trkpt lat="48.06372" lon="7.02256">
        <ele>1141.8000488281</ele>
        <time>2022-10-09T09:05:55.000Z</time>
      </trkpt>
      <trkpt lat="48.06372" lon="7.02256">
        <ele>1142</ele>
        <time>2022-10-09T09:05:56.000Z</time>
      </trkpt>
      <trkpt lat="48.06372" lon="7.02259">
        <ele>1142.1999511719</ele>
        <time>2022-10-09T09:05:59.000Z</time>
      </trkpt>
      <trkpt lat="48.06373" lon="7.02268">
        <ele>1142.4000244141</ele>
        <time>2022-10-09T09:06:02.000Z</time>
      </trkpt>
      <trkpt lat="48.06372" lon="7.02278">
        <ele>1142</ele>
        <time>2022-10-09T09:06:06.000Z</time>
      </trkpt>
      <trkpt lat="48.06372" lon="7.02286">
        <ele>1141.5999755859</ele>
        <time>2022-10-09T09:06:12.000Z</time>
      </trkpt>
      <trkpt lat="48.06372" lon="7.0229">
        <ele>1141.8000488281</ele>
        <time>2022-10-09T09:06:17.000Z</time>
      </trkpt>
      <trkpt lat="48.06375" lon="7.02294">
        <ele>1141.8000488281</ele>
        <time>2022-10-09T09:06:24.000Z</time>
      </trkpt>
      <trkpt lat="48.06376" lon="7.02296">
        <ele>1141.5999755859</ele>
        <time>2022-10-09T09:06:26.000Z</time>
      </trkpt>
      <trkpt lat="48.06376" lon="7.02297">
        <ele>1141.5999755859</ele>
        <time>2022-10-09T09:06:28.000Z</time>
      </trkpt>
      <trkpt lat="48.06376" lon="7.02301">
        <ele>1141.5999755859</ele>
        <time>2022-10-09T09:06:33.000Z</time>
      </trkpt>
      <trkpt lat="48.06371" lon="7.02302">
        <ele>1142.4000244141</ele>
        <time>2022-10-09T09:06:40.000Z</time>
      </trkpt>
      <trkpt lat="48.0637" lon="7.02302">
        <ele>1142.5999755859</ele>
        <time>2022-10-09T09:06:41.000Z</time>
      </trkpt>
      <trkpt lat="48.06367" lon="7.02302">
        <ele>1142.4000244141</ele>
        <time>2022-10-09T09:06:44.000Z</time>
      </trkpt>
      <trkpt lat="48.06368" lon="7.02305">
        <ele>1142</ele>
        <time>2022-10-09T09:06:47.000Z</time>
      </trkpt>
      <trkpt lat="48.06369" lon="7.02312">
        <ele>1142.1999511719</ele>
        <time>2022-10-09T09:06:53.000Z</time>
      </trkpt>
      <trkpt lat="48.0637" lon="7.02314">
        <ele>1142.1999511719</ele>
        <time>2022-10-09T09:06:54.000Z</time>
      </trkpt>
      <trkpt lat="48.06369" lon="7.02322">
        <ele>1142.1999511719</ele>
        <time>2022-10-09T09:06:58.000Z</time>
      </trkpt>
      <trkpt lat="48.06368" lon="7.02325">
        <ele>1142.4000244141</ele>
        <time>2022-10-09T09:07:00.000Z</time>
      </trkpt>
      <trkpt lat="48.06367" lon="7.02327">
        <ele>1142.4000244141</ele>
        <time>2022-10-09T09:07:01.000Z</time>
      </trkpt>
      <trkpt lat="48.06363" lon="7.02327">
        <ele>1142</ele>
        <time>2022-10-09T09:07:05.000Z</time>
      </trkpt>
      <trkpt lat="48.06362" lon="7.02327">
        <ele>1142</ele>
        <time>2022-10-09T09:07:06.000Z</time>
      </trkpt>
      <trkpt lat="48.0636" lon="7.02328">
        <ele>1142.1999511719</ele>
        <time>2022-10-09T09:07:12.000Z</time>
      </trkpt>
      <trkpt lat="48.0636" lon="7.0233">
        <ele>1142</ele>
        <time>2022-10-09T09:07:18.000Z</time>
      </trkpt>
      <trkpt lat="48.0636" lon="7.0233">
        <ele>1141.8000488281</ele>
        <time>2022-10-09T09:07:19.000Z</time>
      </trkpt>
      <trkpt lat="48.0636" lon="7.0233">
        <ele>1142</ele>
        <time>2022-10-09T09:07:39.000Z</time>
      </trkpt>
      <trkpt lat="48.0636" lon="7.02331">
        <ele>1142</ele>
        <time>2022-10-09T09:07:45.000Z</time>
      </trkpt>
      <trkpt lat="48.0636" lon="7.02331">
        <ele>1142</ele>
        <time>2022-10-09T09:07:54.000Z</time>
      </trkpt>
      <trkpt lat="48.06361" lon="7.02331">
        <ele>1142.1999511719</ele>
        <time>2022-10-09T09:07:57.000Z</time>
      </trkpt>
      <trkpt lat="48.06362" lon="7.02331">
        <ele>1142</ele>
        <time>2022-10-09T09:08:06.000Z</time>
      </trkpt>
      <trkpt lat="48.0636" lon="7.02323">
        <ele>1142</ele>
        <time>2022-10-09T09:08:17.000Z</time>
      </trkpt>
      <trkpt lat="48.06355" lon="7.02304">
        <ele>1142.8000488281</ele>
        <time>2022-10-09T09:08:26.000Z</time>
      </trkpt>
      <trkpt lat="48.06352" lon="7.02298">
        <ele>1143.1999511719</ele>
        <time>2022-10-09T09:08:30.000Z</time>
      </trkpt>
      <trkpt lat="48.06352" lon="7.02296">
        <ele>1141.8000488281</ele>
        <time>2022-10-09T09:08:31.000Z</time>
      </trkpt>
      <trkpt lat="48.06348" lon="7.02289">
        <ele>1141.5999755859</ele>
        <time>2022-10-09T09:08:36.000Z</time>
      </trkpt>
      <trkpt lat="48.06342" lon="7.02278">
        <ele>1142.8000488281</ele>
        <time>2022-10-09T09:08:45.000Z</time>
      </trkpt>
      <trkpt lat="48.06337" lon="7.0227">
        <ele>1143.1999511719</ele>
        <time>2022-10-09T09:08:52.000Z</time>
      </trkpt>
      <trkpt lat="48.06336" lon="7.02266">
        <ele>1143.5999755859</ele>
        <time>2022-10-09T09:08:55.000Z</time>
      </trkpt>
      <trkpt lat="48.06335" lon="7.02265">
        <ele>1144</ele>
        <time>2022-10-09T09:08:56.000Z</time>
      </trkpt>
      <trkpt lat="48.06333" lon="7.02262">
        <ele>1144.1999511719</ele>
        <time>2022-10-09T09:09:00.000Z</time>
      </trkpt>
      <trkpt lat="48.06333" lon="7.02261">
        <ele>1144.4000244141</ele>
        <time>2022-10-09T09:09:01.000Z</time>
      </trkpt>
      <trkpt lat="48.06329" lon="7.02257">
        <ele>1145</ele>
        <time>2022-10-09T09:09:06.000Z</time>
      </trkpt>
      <trkpt lat="48.06328" lon="7.02257">
        <ele>1145</ele>
        <time>2022-10-09T09:09:07.000Z</time>
      </trkpt>
      <trkpt lat="48.06324" lon="7.02255">
        <ele>1145.4000244141</ele>
        <time>2022-10-09T09:09:12.000Z</time>
      </trkpt>
      <trkpt lat="48.06322" lon="7.02252">
        <ele>1146.1999511719</ele>
        <time>2022-10-09T09:09:18.000Z</time>
      </trkpt>
      <trkpt lat="48.06319" lon="7.02253">
        <ele>1145.5999755859</ele>
        <time>2022-10-09T09:09:26.000Z</time>
      </trkpt>
      <trkpt lat="48.06317" lon="7.02252">
        <ele>1145.5999755859</ele>
        <time>2022-10-09T09:09:27.000Z</time>
      </trkpt>
      <trkpt lat="48.06309" lon="7.0224">
        <ele>1146.4000244141</ele>
        <time>2022-10-09T09:09:36.000Z</time>
      </trkpt>
      <trkpt lat="48.06306" lon="7.02237">
        <ele>1145.4000244141</ele>
        <time>2022-10-09T09:09:39.000Z</time>
      </trkpt>
      <trkpt lat="48.06304" lon="7.02233">
        <ele>1145.8000488281</ele>
        <time>2022-10-09T09:09:43.000Z</time>
      </trkpt>
      <trkpt lat="48.06303" lon="7.02232">
        <ele>1146</ele>
        <time>2022-10-09T09:09:44.000Z</time>
      </trkpt>
      <trkpt lat="48.06296" lon="7.02224">
        <ele>1146.8000488281</ele>
        <time>2022-10-09T09:09:51.000Z</time>
      </trkpt>
      <trkpt lat="48.06293" lon="7.02221">
        <ele>1147.1999511719</ele>
        <time>2022-10-09T09:09:54.000Z</time>
      </trkpt>
      <trkpt lat="48.06291" lon="7.02217">
        <ele>1147.4000244141</ele>
        <time>2022-10-09T09:09:57.000Z</time>
      </trkpt>
      <trkpt lat="48.0629" lon="7.02215">
        <ele>1147.1999511719</ele>
        <time>2022-10-09T09:09:58.000Z</time>
      </trkpt>
      <trkpt lat="48.06287" lon="7.02212">
        <ele>1147.1999511719</ele>
        <time>2022-10-09T09:10:01.000Z</time>
      </trkpt>
      <trkpt lat="48.06285" lon="7.0221">
        <ele>1147.5999755859</ele>
        <time>2022-10-09T09:10:06.000Z</time>
      </trkpt>
      <trkpt lat="48.06287" lon="7.02209">
        <ele>1147.8000488281</ele>
        <time>2022-10-09T09:10:08.000Z</time>
      </trkpt>
      <trkpt lat="48.06287" lon="7.02205">
        <ele>1147.8000488281</ele>
        <time>2022-10-09T09:10:11.000Z</time>
      </trkpt>
      <trkpt lat="48.06285" lon="7.02202">
        <ele>1147.8000488281</ele>
        <time>2022-10-09T09:10:14.000Z</time>
      </trkpt>
      <trkpt lat="48.0628" lon="7.022">
        <ele>1148</ele>
        <time>2022-10-09T09:10:23.000Z</time>
      </trkpt>
      <trkpt lat="48.0628" lon="7.022">
        <ele>1148.1999511719</ele>
        <time>2022-10-09T09:10:26.000Z</time>
      </trkpt>
      <trkpt lat="48.06282" lon="7.02199">
        <ele>1148.4000244141</ele>
        <time>2022-10-09T09:10:31.000Z</time>
      </trkpt>
      <trkpt lat="48.06286" lon="7.02201">
        <ele>1148</ele>
        <time>2022-10-09T09:10:40.000Z</time>
      </trkpt>
      <trkpt lat="48.06288" lon="7.02202">
        <ele>1147.8000488281</ele>
        <time>2022-10-09T09:10:41.000Z</time>
      </trkpt>
      <trkpt lat="48.06294" lon="7.02208">
        <ele>1147.1999511719</ele>
        <time>2022-10-09T09:10:48.000Z</time>
      </trkpt>
      <trkpt lat="48.063" lon="7.02213">
        <ele>1147.8000488281</ele>
        <time>2022-10-09T09:10:54.000Z</time>
      </trkpt>
      <trkpt lat="48.06306" lon="7.0222">
        <ele>1146.4000244141</ele>
        <time>2022-10-09T09:11:02.000Z</time>
      </trkpt>
      <trkpt lat="48.06307" lon="7.0222">
        <ele>1146.1999511719</ele>
        <time>2022-10-09T09:11:03.000Z</time>
      </trkpt>
      <trkpt lat="48.0631" lon="7.02222">
        <ele>1146</ele>
        <time>2022-10-09T09:11:06.000Z</time>
      </trkpt>
      <trkpt lat="48.06314" lon="7.02226">
        <ele>1146</ele>
        <time>2022-10-09T09:11:10.000Z</time>
      </trkpt>
      <trkpt lat="48.0632" lon="7.02234">
        <ele>1145</ele>
        <time>2022-10-09T09:11:17.000Z</time>
      </trkpt>
      <trkpt lat="48.0632" lon="7.02235">
        <ele>1145.1999511719</ele>
        <time>2022-10-09T09:11:18.000Z</time>
      </trkpt>
      <trkpt lat="48.06327" lon="7.02245">
        <ele>1145</ele>
        <time>2022-10-09T09:11:26.000Z</time>
      </trkpt>
      <trkpt lat="48.0633" lon="7.02247">
        <ele>1144.5999755859</ele>
        <time>2022-10-09T09:11:30.000Z</time>
      </trkpt>
      <trkpt lat="48.06334" lon="7.0225">
        <ele>1144.1999511719</ele>
        <time>2022-10-09T09:11:34.000Z</time>
      </trkpt>
      <trkpt lat="48.06335" lon="7.02252">
        <ele>1144.1999511719</ele>
        <time>2022-10-09T09:11:36.000Z</time>
      </trkpt>
      <trkpt lat="48.06337" lon="7.02254">
        <ele>1144</ele>
        <time>2022-10-09T09:11:40.000Z</time>
      </trkpt>
      <trkpt lat="48.06338" lon="7.02256">
        <ele>1143.4000244141</ele>
        <time>2022-10-09T09:11:43.000Z</time>
      </trkpt>
      <trkpt lat="48.0634" lon="7.02258">
        <ele>1143</ele>
        <time>2022-10-09T09:11:46.000Z</time>
      </trkpt>
      <trkpt lat="48.06343" lon="7.02259">
        <ele>1143.1999511719</ele>
        <time>2022-10-09T09:11:50.000Z</time>
      </trkpt>
      <trkpt lat="48.06343" lon="7.02261">
        <ele>1142.8000488281</ele>
        <time>2022-10-09T09:11:58.000Z</time>
      </trkpt>
      <trkpt lat="48.0634" lon="7.02264">
        <ele>1143</ele>
        <time>2022-10-09T09:12:05.000Z</time>
      </trkpt>
      <trkpt lat="48.06345" lon="7.02266">
        <ele>1142.5999755859</ele>
        <time>2022-10-09T09:12:11.000Z</time>
      </trkpt>
      <trkpt lat="48.06346" lon="7.02267">
        <ele>1142.4000244141</ele>
        <time>2022-10-09T09:12:12.000Z</time>
      </trkpt>
      <trkpt lat="48.06347" lon="7.02269">
        <ele>1141.8000488281</ele>
        <time>2022-10-09T09:12:14.000Z</time>
      </trkpt>
      <trkpt lat="48.06347" lon="7.02269">
        <ele>1141.5999755859</ele>
        <time>2022-10-09T09:12:16.000Z</time>
      </trkpt>
      <trkpt lat="48.06348" lon="7.02269">
        <ele>1141.5999755859</ele>
        <time>2022-10-09T09:12:18.000Z</time>
      </trkpt>
      <trkpt lat="48.06347" lon="7.02271">
        <ele>1142</ele>
        <time>2022-10-09T09:12:24.000Z</time>
      </trkpt>
      <trkpt lat="48.06349" lon="7.02275">
        <ele>1141.8000488281</ele>
        <time>2022-10-09T09:12:28.000Z</time>
      </trkpt>
      <trkpt lat="48.06353" lon="7.02279">
        <ele>1141.4000244141</ele>
        <time>2022-10-09T09:12:31.000Z</time>
      </trkpt>
      <trkpt lat="48.06356" lon="7.02282">
        <ele>1141.1999511719</ele>
        <time>2022-10-09T09:12:34.000Z</time>
      </trkpt>
      <trkpt lat="48.06356" lon="7.02282">
        <ele>1141.1999511719</ele>
        <time>2022-10-09T09:12:37.000Z</time>
      </trkpt>
      <trkpt lat="48.06354" lon="7.02283">
        <ele>1141</ele>
        <time>2022-10-09T09:12:45.000Z</time>
      </trkpt>
      <trkpt lat="48.06354" lon="7.02284">
        <ele>1140.8000488281</ele>
        <time>2022-10-09T09:12:58.000Z</time>
      </trkpt>
      <trkpt lat="48.06351" lon="7.0228">
        <ele>1141</ele>
        <time>2022-10-09T09:13:01.000Z</time>
      </trkpt>
      <trkpt lat="48.06345" lon="7.02274">
        <ele>1142</ele>
        <time>2022-10-09T09:13:06.000Z</time>
      </trkpt>
      <trkpt lat="48.06344" lon="7.02272">
        <ele>1142</ele>
        <time>2022-10-09T09:13:07.000Z</time>
      </trkpt>
      <trkpt lat="48.06342" lon="7.02271">
        <ele>1142.1999511719</ele>
        <time>2022-10-09T09:13:08.000Z</time>
      </trkpt>
      <trkpt lat="48.06341" lon="7.0227">
        <ele>1142.4000244141</ele>
        <time>2022-10-09T09:13:09.000Z</time>
      </trkpt>
      <trkpt lat="48.0634" lon="7.02268">
        <ele>1143.1999511719</ele>
        <time>2022-10-09T09:13:11.000Z</time>
      </trkpt>
      <trkpt lat="48.06336" lon="7.02262">
        <ele>1143.1999511719</ele>
        <time>2022-10-09T09:13:16.000Z</time>
      </trkpt>
      <trkpt lat="48.06336" lon="7.02261">
        <ele>1143.1999511719</ele>
        <time>2022-10-09T09:13:17.000Z</time>
      </trkpt>
      <trkpt lat="48.06335" lon="7.0226">
        <ele>1144</ele>
        <time>2022-10-09T09:13:18.000Z</time>
      </trkpt>
      <trkpt lat="48.06334" lon="7.02259">
        <ele>1144</ele>
        <time>2022-10-09T09:13:19.000Z</time>
      </trkpt>
      <trkpt lat="48.06332" lon="7.02257">
        <ele>1144.1999511719</ele>
        <time>2022-10-09T09:13:21.000Z</time>
      </trkpt>
      <trkpt lat="48.06331" lon="7.02257">
        <ele>1144.1999511719</ele>
        <time>2022-10-09T09:13:22.000Z</time>
      </trkpt>
      <trkpt lat="48.06331" lon="7.02257">
        <ele>1144.5999755859</ele>
        <time>2022-10-09T09:13:26.000Z</time>
      </trkpt>
      <trkpt lat="48.06331" lon="7.02257">
        <ele>1144.8000488281</ele>
        <time>2022-10-09T09:13:28.000Z</time>
      </trkpt>
      <trkpt lat="48.06328" lon="7.02259">
        <ele>1144.8000488281</ele>
        <time>2022-10-09T09:13:32.000Z</time>
      </trkpt>
      <trkpt lat="48.06326" lon="7.02265">
        <ele>1145.1999511719</ele>
        <time>2022-10-09T09:13:36.000Z</time>
      </trkpt>
      <trkpt lat="48.06325" lon="7.02268">
        <ele>1145.4000244141</ele>
        <time>2022-10-09T09:13:38.000Z</time>
      </trkpt>
      <trkpt lat="48.06324" lon="7.02268">
        <ele>1146.4000244141</ele>
        <time>2022-10-09T09:13:40.000Z</time>
      </trkpt>
      <trkpt lat="48.06321" lon="7.02269">
        <ele>1146.8000488281</ele>
        <time>2022-10-09T09:13:44.000Z</time>
      </trkpt>
      <trkpt lat="48.06319" lon="7.0227">
        <ele>1147.5999755859</ele>
        <time>2022-10-09T09:13:47.000Z</time>
      </trkpt>
      <trkpt lat="48.06318" lon="7.0227">
        <ele>1148.1999511719</ele>
        <time>2022-10-09T09:13:50.000Z</time>
      </trkpt>
      <trkpt lat="48.06318" lon="7.0227">
        <ele>1148.4000244141</ele>
        <time>2022-10-09T09:13:51.000Z</time>
      </trkpt>
      <trkpt lat="48.06317" lon="7.02271">
        <ele>1148.8000488281</ele>
        <time>2022-10-09T09:13:52.000Z</time>
      </trkpt>
      <trkpt lat="48.06317" lon="7.02271">
        <ele>1149.8000488281</ele>
        <time>2022-10-09T09:13:56.000Z</time>
      </trkpt>
      <trkpt lat="48.06318" lon="7.02273">
        <ele>1150.1999511719</ele>
        <time>2022-10-09T09:13:58.000Z</time>
      </trkpt>
      <trkpt lat="48.06319" lon="7.02275">
        <ele>1150.1999511719</ele>
        <time>2022-10-09T09:14:00.000Z</time>
      </trkpt>
      <trkpt lat="48.06321" lon="7.02281">
        <ele>1150.1999511719</ele>
        <time>2022-10-09T09:14:05.000Z</time>
      </trkpt>
      <trkpt lat="48.06322" lon="7.02283">
        <ele>1149.8000488281</ele>
        <time>2022-10-09T09:14:07.000Z</time>
      </trkpt>
      <trkpt lat="48.06325" lon="7.02292">
        <ele>1150</ele>
        <time>2022-10-09T09:14:13.000Z</time>
      </trkpt>
      <trkpt lat="48.06325" lon="7.02294">
        <ele>1150.5999755859</ele>
        <time>2022-10-09T09:14:18.000Z</time>
      </trkpt>
      <trkpt lat="48.06324" lon="7.02296">
        <ele>1150.4000244141</ele>
        <time>2022-10-09T09:14:19.000Z</time>
      </trkpt>
      <trkpt lat="48.06324" lon="7.02297">
        <ele>1150.4000244141</ele>
        <time>2022-10-09T09:14:20.000Z</time>
      </trkpt>
      <trkpt lat="48.06326" lon="7.02299">
        <ele>1150.1999511719</ele>
        <time>2022-10-09T09:14:21.000Z</time>
      </trkpt>
      <trkpt lat="48.06325" lon="7.02301">
        <ele>1150.4000244141</ele>
        <time>2022-10-09T09:14:24.000Z</time>
      </trkpt>
      <trkpt lat="48.06321" lon="7.02305">
        <ele>1151</ele>
        <time>2022-10-09T09:14:31.000Z</time>
      </trkpt>
      <trkpt lat="48.0632" lon="7.02306">
        <ele>1151</ele>
        <time>2022-10-09T09:14:32.000Z</time>
      </trkpt>
      <trkpt lat="48.0632" lon="7.02307">
        <ele>1151</ele>
        <time>2022-10-09T09:14:33.000Z</time>
      </trkpt>
      <trkpt lat="48.06318" lon="7.0231">
        <ele>1151.5999755859</ele>
        <time>2022-10-09T09:14:37.000Z</time>
      </trkpt>
      <trkpt lat="48.06318" lon="7.02312">
        <ele>1152.1999511719</ele>
        <time>2022-10-09T09:14:40.000Z</time>
      </trkpt>
      <trkpt lat="48.06315" lon="7.02316">
        <ele>1152.8000488281</ele>
        <time>2022-10-09T09:14:44.000Z</time>
      </trkpt>
      <trkpt lat="48.06312" lon="7.02316">
        <ele>1153</ele>
        <time>2022-10-09T09:14:48.000Z</time>
      </trkpt>
      <trkpt lat="48.06309" lon="7.02319">
        <ele>1153</ele>
        <time>2022-10-09T09:14:52.000Z</time>
      </trkpt>
      <trkpt lat="48.06308" lon="7.02319">
        <ele>1153.1999511719</ele>
        <time>2022-10-09T09:14:53.000Z</time>
      </trkpt>
      <trkpt lat="48.06308" lon="7.0232">
        <ele>1153.4000244141</ele>
        <time>2022-10-09T09:14:54.000Z</time>
      </trkpt>
      <trkpt lat="48.06307" lon="7.02319">
        <ele>1154</ele>
        <time>2022-10-09T09:14:58.000Z</time>
      </trkpt>
      <trkpt lat="48.06306" lon="7.02317">
        <ele>1154.4000244141</ele>
        <time>2022-10-09T09:15:00.000Z</time>
      </trkpt>
      <trkpt lat="48.06305" lon="7.02317">
        <ele>1154.5999755859</ele>
        <time>2022-10-09T09:15:07.000Z</time>
      </trkpt>
      <trkpt lat="48.06305" lon="7.02323">
        <ele>1154.5999755859</ele>
        <time>2022-10-09T09:15:15.000Z</time>
      </trkpt>
      <trkpt lat="48.06304" lon="7.02321">
        <ele>1155.1999511719</ele>
        <time>2022-10-09T09:15:23.000Z</time>
      </trkpt>
      <trkpt lat="48.06303" lon="7.0232">
        <ele>1155.4000244141</ele>
        <time>2022-10-09T09:15:25.000Z</time>
      </trkpt>
      <trkpt lat="48.06303" lon="7.0232">
        <ele>1155.4000244141</ele>
        <time>2022-10-09T09:15:26.000Z</time>
      </trkpt>
      <trkpt lat="48.06303" lon="7.0232">
        <ele>1155.5999755859</ele>
        <time>2022-10-09T09:15:33.000Z</time>
      </trkpt>
      <trkpt lat="48.06303" lon="7.0232">
        <ele>1155.5999755859</ele>
        <time>2022-10-09T09:15:40.000Z</time>
      </trkpt>
      <trkpt lat="48.06303" lon="7.0232">
        <ele>1155.5999755859</ele>
        <time>2022-10-09T09:15:42.000Z</time>
      </trkpt>
      <trkpt lat="48.06303" lon="7.02321">
        <ele>1155.1999511719</ele>
        <time>2022-10-09T09:15:48.000Z</time>
      </trkpt>
      <trkpt lat="48.06303" lon="7.02321">
        <ele>1155.1999511719</ele>
        <time>2022-10-09T09:15:52.000Z</time>
      </trkpt>
      <trkpt lat="48.06302" lon="7.02325">
        <ele>1155.4000244141</ele>
        <time>2022-10-09T09:15:56.000Z</time>
      </trkpt>
      <trkpt lat="48.06298" lon="7.02329">
        <ele>1156.4000244141</ele>
        <time>2022-10-09T09:16:08.000Z</time>
      </trkpt>
      <trkpt lat="48.06298" lon="7.02329">
        <ele>1156.5999755859</ele>
        <time>2022-10-09T09:16:09.000Z</time>
      </trkpt>
      <trkpt lat="48.06288" lon="7.02332">
        <ele>1157.4000244141</ele>
        <time>2022-10-09T09:16:15.000Z</time>
      </trkpt>
      <trkpt lat="48.06286" lon="7.02333">
        <ele>1157.5999755859</ele>
        <time>2022-10-09T09:16:16.000Z</time>
      </trkpt>
      <trkpt lat="48.06279" lon="7.02337">
        <ele>1157.8000488281</ele>
        <time>2022-10-09T09:16:19.000Z</time>
      </trkpt>
      <trkpt lat="48.06275" lon="7.02341">
        <ele>1158</ele>
        <time>2022-10-09T09:16:22.000Z</time>
      </trkpt>
      <trkpt lat="48.0627" lon="7.02343">
        <ele>1158.4000244141</ele>
        <time>2022-10-09T09:16:26.000Z</time>
      </trkpt>
      <trkpt lat="48.06268" lon="7.02344">
        <ele>1158.5999755859</ele>
        <time>2022-10-09T09:16:29.000Z</time>
      </trkpt>
      <trkpt lat="48.06267" lon="7.02344">
        <ele>1158.5999755859</ele>
        <time>2022-10-09T09:16:30.000Z</time>
      </trkpt>
      <trkpt lat="48.06255" lon="7.02354">
        <ele>1158.8000488281</ele>
        <time>2022-10-09T09:16:39.000Z</time>
      </trkpt>
      <trkpt lat="48.06246" lon="7.02359">
        <ele>1158.5999755859</ele>
        <time>2022-10-09T09:16:47.000Z</time>
      </trkpt>
      <trkpt lat="48.06242" lon="7.0236">
        <ele>1158.5999755859</ele>
        <time>2022-10-09T09:16:53.000Z</time>
      </trkpt>
      <trkpt lat="48.06239" lon="7.02361">
        <ele>1158.8000488281</ele>
        <time>2022-10-09T09:16:57.000Z</time>
      </trkpt>
      <trkpt lat="48.06234" lon="7.02366">
        <ele>1159.4000244141</ele>
        <time>2022-10-09T09:17:01.000Z</time>
      </trkpt>
      <trkpt lat="48.06233" lon="7.02367">
        <ele>1159.4000244141</ele>
        <time>2022-10-09T09:17:02.000Z</time>
      </trkpt>
      <trkpt lat="48.06231" lon="7.0237">
        <ele>1159.5999755859</ele>
        <time>2022-10-09T09:17:04.000Z</time>
      </trkpt>
      <trkpt lat="48.06229" lon="7.02373">
        <ele>1159.5999755859</ele>
        <time>2022-10-09T09:17:06.000Z</time>
      </trkpt>
      <trkpt lat="48.06228" lon="7.02375">
        <ele>1159.8000488281</ele>
        <time>2022-10-09T09:17:07.000Z</time>
      </trkpt>
      <trkpt lat="48.06226" lon="7.0238">
        <ele>1160.1999511719</ele>
        <time>2022-10-09T09:17:12.000Z</time>
      </trkpt>
      <trkpt lat="48.06226" lon="7.02381">
        <ele>1160.4000244141</ele>
        <time>2022-10-09T09:17:13.000Z</time>
      </trkpt>
      <trkpt lat="48.06226" lon="7.02384">
        <ele>1160.5999755859</ele>
        <time>2022-10-09T09:17:15.000Z</time>
      </trkpt>
      <trkpt lat="48.06222" lon="7.02388">
        <ele>1161</ele>
        <time>2022-10-09T09:17:19.000Z</time>
      </trkpt>
      <trkpt lat="48.06222" lon="7.02392">
        <ele>1161.5999755859</ele>
        <time>2022-10-09T09:17:22.000Z</time>
      </trkpt>
      <trkpt lat="48.06221" lon="7.02398">
        <ele>1162.4000244141</ele>
        <time>2022-10-09T09:17:27.000Z</time>
      </trkpt>
      <trkpt lat="48.0622" lon="7.02403">
        <ele>1162.5999755859</ele>
        <time>2022-10-09T09:17:32.000Z</time>
      </trkpt>
      <trkpt lat="48.0622" lon="7.02405">
        <ele>1162.8000488281</ele>
        <time>2022-10-09T09:17:33.000Z</time>
      </trkpt>
      <trkpt lat="48.0622" lon="7.02408">
        <ele>1163.1999511719</ele>
        <time>2022-10-09T09:17:35.000Z</time>
      </trkpt>
      <trkpt lat="48.06218" lon="7.02412">
        <ele>1163.4000244141</ele>
        <time>2022-10-09T09:17:37.000Z</time>
      </trkpt>
      <trkpt lat="48.06213" lon="7.02418">
        <ele>1163.8000488281</ele>
        <time>2022-10-09T09:17:43.000Z</time>
      </trkpt>
      <trkpt lat="48.06208" lon="7.02417">
        <ele>1164.1999511719</ele>
        <time>2022-10-09T09:17:49.000Z</time>
      </trkpt>
      <trkpt lat="48.06198" lon="7.02408">
        <ele>1164.8000488281</ele>
        <time>2022-10-09T09:17:56.000Z</time>
      </trkpt>
      <trkpt lat="48.06197" lon="7.02406">
        <ele>1165</ele>
        <time>2022-10-09T09:17:58.000Z</time>
      </trkpt>
      <trkpt lat="48.06193" lon="7.02403">
        <ele>1165</ele>
        <time>2022-10-09T09:18:05.000Z</time>
      </trkpt>
      <trkpt lat="48.06188" lon="7.024">
        <ele>1165.5999755859</ele>
        <time>2022-10-09T09:18:12.000Z</time>
      </trkpt>
      <trkpt lat="48.06185" lon="7.02403">
        <ele>1166</ele>
        <time>2022-10-09T09:18:16.000Z</time>
      </trkpt>
      <trkpt lat="48.06181" lon="7.02411">
        <ele>1166.5999755859</ele>
        <time>2022-10-09T09:18:22.000Z</time>
      </trkpt>
      <trkpt lat="48.06179" lon="7.02411">
        <ele>1167.1999511719</ele>
        <time>2022-10-09T09:18:26.000Z</time>
      </trkpt>
      <trkpt lat="48.06178" lon="7.02412">
        <ele>1167.4000244141</ele>
        <time>2022-10-09T09:18:28.000Z</time>
      </trkpt>
      <trkpt lat="48.06172" lon="7.02419">
        <ele>1168.1999511719</ele>
        <time>2022-10-09T09:18:34.000Z</time>
      </trkpt>
      <trkpt lat="48.06171" lon="7.0242">
        <ele>1168.1999511719</ele>
        <time>2022-10-09T09:18:35.000Z</time>
      </trkpt>
      <trkpt lat="48.06169" lon="7.02428">
        <ele>1168.5999755859</ele>
        <time>2022-10-09T09:18:41.000Z</time>
      </trkpt>
      <trkpt lat="48.06166" lon="7.02436">
        <ele>1169.4000244141</ele>
        <time>2022-10-09T09:18:46.000Z</time>
      </trkpt>
      <trkpt lat="48.06164" lon="7.02441">
        <ele>1170</ele>
        <time>2022-10-09T09:18:49.000Z</time>
      </trkpt>
      <trkpt lat="48.06162" lon="7.02446">
        <ele>1170.4000244141</ele>
        <time>2022-10-09T09:18:55.000Z</time>
      </trkpt>
      <trkpt lat="48.06157" lon="7.02452">
        <ele>1171.4000244141</ele>
        <time>2022-10-09T09:19:02.000Z</time>
      </trkpt>
      <trkpt lat="48.06156" lon="7.02453">
        <ele>1171.5999755859</ele>
        <time>2022-10-09T09:19:03.000Z</time>
      </trkpt>
      <trkpt lat="48.0615" lon="7.0246">
        <ele>1172.4000244141</ele>
        <time>2022-10-09T09:19:11.000Z</time>
      </trkpt>
      <trkpt lat="48.06149" lon="7.02463">
        <ele>1172.5999755859</ele>
        <time>2022-10-09T09:19:13.000Z</time>
      </trkpt>
      <trkpt lat="48.06149" lon="7.02464">
        <ele>1172.5999755859</ele>
        <time>2022-10-09T09:19:14.000Z</time>
      </trkpt>
      <trkpt lat="48.06146" lon="7.02467">
        <ele>1173.1999511719</ele>
        <time>2022-10-09T09:19:19.000Z</time>
      </trkpt>
      <trkpt lat="48.06145" lon="7.0247">
        <ele>1173.5999755859</ele>
        <time>2022-10-09T09:19:21.000Z</time>
      </trkpt>
      <trkpt lat="48.06144" lon="7.02472">
        <ele>1173.8000488281</ele>
        <time>2022-10-09T09:19:22.000Z</time>
      </trkpt>
      <trkpt lat="48.06142" lon="7.02475">
        <ele>1174.1999511719</ele>
        <time>2022-10-09T09:19:25.000Z</time>
      </trkpt>
      <trkpt lat="48.06138" lon="7.02483">
        <ele>1174.5999755859</ele>
        <time>2022-10-09T09:19:31.000Z</time>
      </trkpt>
      <trkpt lat="48.06137" lon="7.02485">
        <ele>1174.8000488281</ele>
        <time>2022-10-09T09:19:32.000Z</time>
      </trkpt>
      <trkpt lat="48.06129" lon="7.02496">
        <ele>1175.5999755859</ele>
        <time>2022-10-09T09:19:40.000Z</time>
      </trkpt>
      <trkpt lat="48.06128" lon="7.02498">
        <ele>1175.8000488281</ele>
        <time>2022-10-09T09:19:41.000Z</time>
      </trkpt>
      <trkpt lat="48.06123" lon="7.02498">
        <ele>1176.1999511719</ele>
        <time>2022-10-09T09:19:46.000Z</time>
      </trkpt>
      <trkpt lat="48.06122" lon="7.02499">
        <ele>1176.1999511719</ele>
        <time>2022-10-09T09:19:47.000Z</time>
      </trkpt>
      <trkpt lat="48.06116" lon="7.02501">
        <ele>1176.8000488281</ele>
        <time>2022-10-09T09:19:52.000Z</time>
      </trkpt>
      <trkpt lat="48.06114" lon="7.02503">
        <ele>1177</ele>
        <time>2022-10-09T09:19:54.000Z</time>
      </trkpt>
      <trkpt lat="48.06107" lon="7.02504">
        <ele>1177.8000488281</ele>
        <time>2022-10-09T09:20:01.000Z</time>
      </trkpt>
      <trkpt lat="48.06099" lon="7.02504">
        <ele>1178.5999755859</ele>
        <time>2022-10-09T09:20:09.000Z</time>
      </trkpt>
      <trkpt lat="48.06097" lon="7.02506">
        <ele>1179</ele>
        <time>2022-10-09T09:20:14.000Z</time>
      </trkpt>
      <trkpt lat="48.06096" lon="7.02506">
        <ele>1179.4000244141</ele>
        <time>2022-10-09T09:20:15.000Z</time>
      </trkpt>
      <trkpt lat="48.06096" lon="7.02506">
        <ele>1179.5999755859</ele>
        <time>2022-10-09T09:20:16.000Z</time>
      </trkpt>
      <trkpt lat="48.06092" lon="7.02508">
        <ele>1179.8000488281</ele>
        <time>2022-10-09T09:20:21.000Z</time>
      </trkpt>
      <trkpt lat="48.06088" lon="7.0251">
        <ele>1180</ele>
        <time>2022-10-09T09:20:25.000Z</time>
      </trkpt>
      <trkpt lat="48.06087" lon="7.02509">
        <ele>1180.1999511719</ele>
        <time>2022-10-09T09:20:26.000Z</time>
      </trkpt>
      <trkpt lat="48.06087" lon="7.02508">
        <ele>1180.1999511719</ele>
        <time>2022-10-09T09:20:27.000Z</time>
      </trkpt>
      <trkpt lat="48.06085" lon="7.02506">
        <ele>1180.5999755859</ele>
        <time>2022-10-09T09:20:32.000Z</time>
      </trkpt>
      <trkpt lat="48.06081" lon="7.02505">
        <ele>1181.4000244141</ele>
        <time>2022-10-09T09:20:37.000Z</time>
      </trkpt>
      <trkpt lat="48.06078" lon="7.02502">
        <ele>1182</ele>
        <time>2022-10-09T09:20:41.000Z</time>
      </trkpt>
      <trkpt lat="48.06074" lon="7.02497">
        <ele>1182.1999511719</ele>
        <time>2022-10-09T09:20:48.000Z</time>
      </trkpt>
      <trkpt lat="48.06071" lon="7.02497">
        <ele>1182.4000244141</ele>
        <time>2022-10-09T09:20:51.000Z</time>
      </trkpt>
      <trkpt lat="48.06069" lon="7.02494">
        <ele>1182.5999755859</ele>
        <time>2022-10-09T09:20:53.000Z</time>
      </trkpt>
      <trkpt lat="48.06068" lon="7.0249">
        <ele>1183.4000244141</ele>
        <time>2022-10-09T09:20:56.000Z</time>
      </trkpt>
      <trkpt lat="48.06066" lon="7.02484">
        <ele>1184.1999511719</ele>
        <time>2022-10-09T09:20:59.000Z</time>
      </trkpt>
      <trkpt lat="48.06065" lon="7.02483">
        <ele>1184.5999755859</ele>
        <time>2022-10-09T09:21:00.000Z</time>
      </trkpt>
      <trkpt lat="48.06062" lon="7.02477">
        <ele>1185.4000244141</ele>
        <time>2022-10-09T09:21:05.000Z</time>
      </trkpt>
      <trkpt lat="48.06061" lon="7.02476">
        <ele>1185.5999755859</ele>
        <time>2022-10-09T09:21:06.000Z</time>
      </trkpt>
      <trkpt lat="48.06057" lon="7.02472">
        <ele>1186.4000244141</ele>
        <time>2022-10-09T09:21:11.000Z</time>
      </trkpt>
      <trkpt lat="48.06055" lon="7.0247">
        <ele>1186.5999755859</ele>
        <time>2022-10-09T09:21:13.000Z</time>
      </trkpt>
      <trkpt lat="48.06051" lon="7.02463">
        <ele>1187.1999511719</ele>
        <time>2022-10-09T09:21:19.000Z</time>
      </trkpt>
      <trkpt lat="48.0605" lon="7.02458">
        <ele>1187.8000488281</ele>
        <time>2022-10-09T09:21:23.000Z</time>
      </trkpt>
      <trkpt lat="48.06048" lon="7.02456">
        <ele>1188.1999511719</ele>
        <time>2022-10-09T09:21:27.000Z</time>
      </trkpt>
      <trkpt lat="48.06048" lon="7.02455">
        <ele>1188.4000244141</ele>
        <time>2022-10-09T09:21:28.000Z</time>
      </trkpt>
      <trkpt lat="48.06048" lon="7.02453">
        <ele>1188.8000488281</ele>
        <time>2022-10-09T09:21:30.000Z</time>
      </trkpt>
      <trkpt lat="48.06046" lon="7.0245">
        <ele>1189</ele>
        <time>2022-10-09T09:21:32.000Z</time>
      </trkpt>
      <trkpt lat="48.06038" lon="7.02441">
        <ele>1190.1999511719</ele>
        <time>2022-10-09T09:21:39.000Z</time>
      </trkpt>
      <trkpt lat="48.06035" lon="7.02435">
        <ele>1191</ele>
        <time>2022-10-09T09:21:44.000Z</time>
      </trkpt>
      <trkpt lat="48.06034" lon="7.02435">
        <ele>1191.1999511719</ele>
        <time>2022-10-09T09:21:45.000Z</time>
      </trkpt>
      <trkpt lat="48.06031" lon="7.02432">
        <ele>1191.4000244141</ele>
        <time>2022-10-09T09:21:50.000Z</time>
      </trkpt>
      <trkpt lat="48.0603" lon="7.02431">
        <ele>1191.5999755859</ele>
        <time>2022-10-09T09:21:51.000Z</time>
      </trkpt>
      <trkpt lat="48.06024" lon="7.02424">
        <ele>1191.8000488281</ele>
        <time>2022-10-09T09:21:59.000Z</time>
      </trkpt>
      <trkpt lat="48.06023" lon="7.02423">
        <ele>1192.4000244141</ele>
        <time>2022-10-09T09:22:00.000Z</time>
      </trkpt>
      <trkpt lat="48.06019" lon="7.02419">
        <ele>1193</ele>
        <time>2022-10-09T09:22:05.000Z</time>
      </trkpt>
      <trkpt lat="48.06019" lon="7.02418">
        <ele>1193</ele>
        <time>2022-10-09T09:22:06.000Z</time>
      </trkpt>
      <trkpt lat="48.06015" lon="7.02416">
        <ele>1193.4000244141</ele>
        <time>2022-10-09T09:22:12.000Z</time>
      </trkpt>
      <trkpt lat="48.06015" lon="7.02416">
        <ele>1193.4000244141</ele>
        <time>2022-10-09T09:22:13.000Z</time>
      </trkpt>
      <trkpt lat="48.06013" lon="7.02415">
        <ele>1194</ele>
        <time>2022-10-09T09:22:16.000Z</time>
      </trkpt>
      <trkpt lat="48.06012" lon="7.02415">
        <ele>1194.1999511719</ele>
        <time>2022-10-09T09:22:17.000Z</time>
      </trkpt>
      <trkpt lat="48.06012" lon="7.02414">
        <ele>1194.4000244141</ele>
        <time>2022-10-09T09:22:18.000Z</time>
      </trkpt>
      <trkpt lat="48.06011" lon="7.02415">
        <ele>1194.4000244141</ele>
        <time>2022-10-09T09:22:19.000Z</time>
      </trkpt>
      <trkpt lat="48.06009" lon="7.02414">
        <ele>1194.8000488281</ele>
        <time>2022-10-09T09:22:22.000Z</time>
      </trkpt>
      <trkpt lat="48.06007" lon="7.02413">
        <ele>1195</ele>
        <time>2022-10-09T09:22:26.000Z</time>
      </trkpt>
      <trkpt lat="48.06" lon="7.02411">
        <ele>1195.1999511719</ele>
        <time>2022-10-09T09:22:33.000Z</time>
      </trkpt>
      <trkpt lat="48.05996" lon="7.02409">
        <ele>1195.4000244141</ele>
        <time>2022-10-09T09:22:36.000Z</time>
      </trkpt>
      <trkpt lat="48.05994" lon="7.02409">
        <ele>1195.5999755859</ele>
        <time>2022-10-09T09:22:39.000Z</time>
      </trkpt>
      <trkpt lat="48.05983" lon="7.02406">
        <ele>1196.4000244141</ele>
        <time>2022-10-09T09:22:48.000Z</time>
      </trkpt>
      <trkpt lat="48.05982" lon="7.02406">
        <ele>1196.5999755859</ele>
        <time>2022-10-09T09:22:50.000Z</time>
      </trkpt>
      <trkpt lat="48.05977" lon="7.02405">
        <ele>1197</ele>
        <time>2022-10-09T09:22:56.000Z</time>
      </trkpt>
      <trkpt lat="48.05972" lon="7.02406">
        <ele>1197.1999511719</ele>
        <time>2022-10-09T09:23:02.000Z</time>
      </trkpt>
      <trkpt lat="48.05971" lon="7.02404">
        <ele>1197.5999755859</ele>
        <time>2022-10-09T09:23:04.000Z</time>
      </trkpt>
      <trkpt lat="48.05967" lon="7.02401">
        <ele>1198.8000488281</ele>
        <time>2022-10-09T09:23:09.000Z</time>
      </trkpt>
      <trkpt lat="48.05966" lon="7.024">
        <ele>1199</ele>
        <time>2022-10-09T09:23:10.000Z</time>
      </trkpt>
      <trkpt lat="48.05964" lon="7.024">
        <ele>1199.4000244141</ele>
        <time>2022-10-09T09:23:12.000Z</time>
      </trkpt>
      <trkpt lat="48.05962" lon="7.02399">
        <ele>1199.5999755859</ele>
        <time>2022-10-09T09:23:14.000Z</time>
      </trkpt>
      <trkpt lat="48.05961" lon="7.02398">
        <ele>1199.8000488281</ele>
        <time>2022-10-09T09:23:16.000Z</time>
      </trkpt>
      <trkpt lat="48.05958" lon="7.02395">
        <ele>1200.1999511719</ele>
        <time>2022-10-09T09:23:21.000Z</time>
      </trkpt>
      <trkpt lat="48.05958" lon="7.02393">
        <ele>1200</ele>
        <time>2022-10-09T09:23:28.000Z</time>
      </trkpt>
      <trkpt lat="48.05953" lon="7.0239">
        <ele>1200.8000488281</ele>
        <time>2022-10-09T09:23:35.000Z</time>
      </trkpt>
      <trkpt lat="48.05951" lon="7.02388">
        <ele>1200.8000488281</ele>
        <time>2022-10-09T09:23:36.000Z</time>
      </trkpt>
      <trkpt lat="48.05945" lon="7.02385">
        <ele>1200.8000488281</ele>
        <time>2022-10-09T09:23:42.000Z</time>
      </trkpt>
      <trkpt lat="48.05939" lon="7.02384">
        <ele>1200.1999511719</ele>
        <time>2022-10-09T09:23:51.000Z</time>
      </trkpt>
      <trkpt lat="48.05938" lon="7.02385">
        <ele>1199.5999755859</ele>
        <time>2022-10-09T09:23:54.000Z</time>
      </trkpt>
      <trkpt lat="48.05935" lon="7.02387">
        <ele>1198.8000488281</ele>
        <time>2022-10-09T09:23:58.000Z</time>
      </trkpt>
      <trkpt lat="48.05933" lon="7.02391">
        <ele>1198.5999755859</ele>
        <time>2022-10-09T09:24:02.000Z</time>
      </trkpt>
      <trkpt lat="48.05931" lon="7.02392">
        <ele>1198.4000244141</ele>
        <time>2022-10-09T09:24:04.000Z</time>
      </trkpt>
      <trkpt lat="48.05928" lon="7.0239">
        <ele>1197.4000244141</ele>
        <time>2022-10-09T09:24:07.000Z</time>
      </trkpt>
      <trkpt lat="48.05926" lon="7.02392">
        <ele>1196.5999755859</ele>
        <time>2022-10-09T09:24:09.000Z</time>
      </trkpt>
      <trkpt lat="48.05925" lon="7.02393">
        <ele>1196.4000244141</ele>
        <time>2022-10-09T09:24:10.000Z</time>
      </trkpt>
      <trkpt lat="48.05925" lon="7.02395">
        <ele>1196.4000244141</ele>
        <time>2022-10-09T09:24:11.000Z</time>
      </trkpt>
      <trkpt lat="48.05923" lon="7.02397">
        <ele>1196.4000244141</ele>
        <time>2022-10-09T09:24:14.000Z</time>
      </trkpt>
      <trkpt lat="48.05923" lon="7.02397">
        <ele>1196.4000244141</ele>
        <time>2022-10-09T09:24:17.000Z</time>
      </trkpt>
      <trkpt lat="48.05923" lon="7.02398">
        <ele>1196.5999755859</ele>
        <time>2022-10-09T09:24:28.000Z</time>
      </trkpt>
      <trkpt lat="48.05923" lon="7.02397">
        <ele>1196.5999755859</ele>
        <time>2022-10-09T09:24:50.000Z</time>
      </trkpt>
      <trkpt lat="48.05923" lon="7.02397">
        <ele>1196</ele>
        <time>2022-10-09T09:25:11.000Z</time>
      </trkpt>
      <trkpt lat="48.05918" lon="7.02394">
        <ele>1196.5999755859</ele>
        <time>2022-10-09T09:25:48.000Z</time>
      </trkpt>
      <trkpt lat="48.05921" lon="7.02395">
        <ele>1197.5999755859</ele>
        <time>2022-10-09T09:26:00.000Z</time>
      </trkpt>
      <trkpt lat="48.05924" lon="7.02392">
        <ele>1198.5999755859</ele>
        <time>2022-10-09T09:26:03.000Z</time>
      </trkpt>
      <trkpt lat="48.05928" lon="7.02387">
        <ele>1199.4000244141</ele>
        <time>2022-10-09T09:26:07.000Z</time>
      </trkpt>
      <trkpt lat="48.05929" lon="7.02386">
        <ele>1199.8000488281</ele>
        <time>2022-10-09T09:26:08.000Z</time>
      </trkpt>
      <trkpt lat="48.05931" lon="7.02382">
        <ele>1201.1999511719</ele>
        <time>2022-10-09T09:26:13.000Z</time>
      </trkpt>
      <trkpt lat="48.05932" lon="7.02381">
        <ele>1201.5999755859</ele>
        <time>2022-10-09T09:26:15.000Z</time>
      </trkpt>
      <trkpt lat="48.05932" lon="7.02378">
        <ele>1202.4000244141</ele>
        <time>2022-10-09T09:26:18.000Z</time>
      </trkpt>
      <trkpt lat="48.05932" lon="7.02375">
        <ele>1203.1999511719</ele>
        <time>2022-10-09T09:26:21.000Z</time>
      </trkpt>
      <trkpt lat="48.05933" lon="7.02373">
        <ele>1203.5999755859</ele>
        <time>2022-10-09T09:26:23.000Z</time>
      </trkpt>
      <trkpt lat="48.05933" lon="7.02367">
        <ele>1204.4000244141</ele>
        <time>2022-10-09T09:26:27.000Z</time>
      </trkpt>
      <trkpt lat="48.05933" lon="7.02366">
        <ele>1204.4000244141</ele>
        <time>2022-10-09T09:26:28.000Z</time>
      </trkpt>
      <trkpt lat="48.05933" lon="7.02364">
        <ele>1204.5999755859</ele>
        <time>2022-10-09T09:26:31.000Z</time>
      </trkpt>
      <trkpt lat="48.05933" lon="7.02363">
        <ele>1204.4000244141</ele>
        <time>2022-10-09T09:26:33.000Z</time>
      </trkpt>
      <trkpt lat="48.05932" lon="7.02363">
        <ele>1204.5999755859</ele>
        <time>2022-10-09T09:26:35.000Z</time>
      </trkpt>
      <trkpt lat="48.05931" lon="7.02362">
        <ele>1204.5999755859</ele>
        <time>2022-10-09T09:26:36.000Z</time>
      </trkpt>
      <trkpt lat="48.05929" lon="7.02359">
        <ele>1204.5999755859</ele>
        <time>2022-10-09T09:26:38.000Z</time>
      </trkpt>
      <trkpt lat="48.05928" lon="7.02357">
        <ele>1204.8000488281</ele>
        <time>2022-10-09T09:26:39.000Z</time>
      </trkpt>
      <trkpt lat="48.05926" lon="7.02355">
        <ele>1205</ele>
        <time>2022-10-09T09:26:42.000Z</time>
      </trkpt>
      <trkpt lat="48.05922" lon="7.02354">
        <ele>1205.1999511719</ele>
        <time>2022-10-09T09:26:46.000Z</time>
      </trkpt>
      <trkpt lat="48.0592" lon="7.02359">
        <ele>1205.1999511719</ele>
        <time>2022-10-09T09:26:49.000Z</time>
      </trkpt>
      <trkpt lat="48.05919" lon="7.02359">
        <ele>1205.4000244141</ele>
        <time>2022-10-09T09:26:52.000Z</time>
      </trkpt>
      <trkpt lat="48.05919" lon="7.02359">
        <ele>1205.4000244141</ele>
        <time>2022-10-09T09:26:53.000Z</time>
      </trkpt>
      <trkpt lat="48.05918" lon="7.02359">
        <ele>1205.1999511719</ele>
        <time>2022-10-09T09:26:55.000Z</time>
      </trkpt>
      <trkpt lat="48.05911" lon="7.02353">
        <ele>1205.4000244141</ele>
        <time>2022-10-09T09:27:03.000Z</time>
      </trkpt>
      <trkpt lat="48.05909" lon="7.02349">
        <ele>1205.5999755859</ele>
        <time>2022-10-09T09:27:07.000Z</time>
      </trkpt>
      <trkpt lat="48.05905" lon="7.02345">
        <ele>1205.4000244141</ele>
        <time>2022-10-09T09:27:11.000Z</time>
      </trkpt>
      <trkpt lat="48.05904" lon="7.02344">
        <ele>1205.1999511719</ele>
        <time>2022-10-09T09:27:12.000Z</time>
      </trkpt>
      <trkpt lat="48.05898" lon="7.02337">
        <ele>1205.4000244141</ele>
        <time>2022-10-09T09:27:20.000Z</time>
      </trkpt>
      <trkpt lat="48.05894" lon="7.02335">
        <ele>1205</ele>
        <time>2022-10-09T09:27:25.000Z</time>
      </trkpt>
      <trkpt lat="48.05893" lon="7.02335">
        <ele>1205</ele>
        <time>2022-10-09T09:27:26.000Z</time>
      </trkpt>
      <trkpt lat="48.05888" lon="7.02331">
        <ele>1205.1999511719</ele>
        <time>2022-10-09T09:27:30.000Z</time>
      </trkpt>
      <trkpt lat="48.05887" lon="7.02329">
        <ele>1205.1999511719</ele>
        <time>2022-10-09T09:27:32.000Z</time>
      </trkpt>
      <trkpt lat="48.0588" lon="7.02331">
        <ele>1205</ele>
        <time>2022-10-09T09:27:39.000Z</time>
      </trkpt>
      <trkpt lat="48.05879" lon="7.02331">
        <ele>1205</ele>
        <time>2022-10-09T09:27:40.000Z</time>
      </trkpt>
      <trkpt lat="48.05875" lon="7.02332">
        <ele>1205.1999511719</ele>
        <time>2022-10-09T09:27:43.000Z</time>
      </trkpt>
      <trkpt lat="48.05872" lon="7.02331">
        <ele>1205.4000244141</ele>
        <time>2022-10-09T09:27:45.000Z</time>
      </trkpt>
      <trkpt lat="48.05864" lon="7.02327">
        <ele>1206</ele>
        <time>2022-10-09T09:27:53.000Z</time>
      </trkpt>
      <trkpt lat="48.05856" lon="7.02324">
        <ele>1206.4000244141</ele>
        <time>2022-10-09T09:28:01.000Z</time>
      </trkpt>
      <trkpt lat="48.05854" lon="7.02326">
        <ele>1206.5999755859</ele>
        <time>2022-10-09T09:28:05.000Z</time>
      </trkpt>
      <trkpt lat="48.0585" lon="7.02326">
        <ele>1206.8000488281</ele>
        <time>2022-10-09T09:28:08.000Z</time>
      </trkpt>
      <trkpt lat="48.05846" lon="7.02321">
        <ele>1207.8000488281</ele>
        <time>2022-10-09T09:28:13.000Z</time>
      </trkpt>
      <trkpt lat="48.0584" lon="7.02321">
        <ele>1207.8000488281</ele>
        <time>2022-10-09T09:28:20.000Z</time>
      </trkpt>
      <trkpt lat="48.05837" lon="7.02322">
        <ele>1208.5999755859</ele>
        <time>2022-10-09T09:28:23.000Z</time>
      </trkpt>
      <trkpt lat="48.05837" lon="7.02323">
        <ele>1208.8000488281</ele>
        <time>2022-10-09T09:28:24.000Z</time>
      </trkpt>
      <trkpt lat="48.05833" lon="7.02322">
        <ele>1209.8000488281</ele>
        <time>2022-10-09T09:28:29.000Z</time>
      </trkpt>
      <trkpt lat="48.05832" lon="7.02321">
        <ele>1210.1999511719</ele>
        <time>2022-10-09T09:28:31.000Z</time>
      </trkpt>
      <trkpt lat="48.05835" lon="7.02319">
        <ele>1210.1999511719</ele>
        <time>2022-10-09T09:28:37.000Z</time>
      </trkpt>
      <trkpt lat="48.05835" lon="7.02319">
        <ele>1211</ele>
        <time>2022-10-09T09:28:45.000Z</time>
      </trkpt>
      <trkpt lat="48.05834" lon="7.02318">
        <ele>1211.5999755859</ele>
        <time>2022-10-09T09:28:53.000Z</time>
      </trkpt>
      <trkpt lat="48.05831" lon="7.02317">
        <ele>1210</ele>
        <time>2022-10-09T09:28:55.000Z</time>
      </trkpt>
      <trkpt lat="48.05822" lon="7.02315">
        <ele>1210.1999511719</ele>
        <time>2022-10-09T09:28:59.000Z</time>
      </trkpt>
      <trkpt lat="48.05814" lon="7.0231">
        <ele>1210.8000488281</ele>
        <time>2022-10-09T09:29:03.000Z</time>
      </trkpt>
      <trkpt lat="48.0581" lon="7.02309">
        <ele>1211.1999511719</ele>
        <time>2022-10-09T09:29:07.000Z</time>
      </trkpt>
      <trkpt lat="48.05801" lon="7.02311">
        <ele>1211.8000488281</ele>
        <time>2022-10-09T09:29:17.000Z</time>
      </trkpt>
      <trkpt lat="48.05799" lon="7.02313">
        <ele>1212</ele>
        <time>2022-10-09T09:29:19.000Z</time>
      </trkpt>
      <trkpt lat="48.05793" lon="7.0232">
        <ele>1212.8000488281</ele>
        <time>2022-10-09T09:29:28.000Z</time>
      </trkpt>
      <trkpt lat="48.05791" lon="7.02321">
        <ele>1213</ele>
        <time>2022-10-09T09:29:29.000Z</time>
      </trkpt>
      <trkpt lat="48.05786" lon="7.02323">
        <ele>1214</ele>
        <time>2022-10-09T09:29:35.000Z</time>
      </trkpt>
      <trkpt lat="48.05784" lon="7.02324">
        <ele>1214.1999511719</ele>
        <time>2022-10-09T09:29:37.000Z</time>
      </trkpt>
      <trkpt lat="48.0578" lon="7.02329">
        <ele>1215.1999511719</ele>
        <time>2022-10-09T09:29:42.000Z</time>
      </trkpt>
      <trkpt lat="48.05779" lon="7.02327">
        <ele>1215.5999755859</ele>
        <time>2022-10-09T09:29:45.000Z</time>
      </trkpt>
      <trkpt lat="48.0578" lon="7.02323">
        <ele>1216</ele>
        <time>2022-10-09T09:29:52.000Z</time>
      </trkpt>
      <trkpt lat="48.05779" lon="7.02327">
        <ele>1216.1999511719</ele>
        <time>2022-10-09T09:29:58.000Z</time>
      </trkpt>
      <trkpt lat="48.0578" lon="7.02327">
        <ele>1216.1999511719</ele>
        <time>2022-10-09T09:30:00.000Z</time>
      </trkpt>
      <trkpt lat="48.05778" lon="7.0233">
        <ele>1216.1999511719</ele>
        <time>2022-10-09T09:30:04.000Z</time>
      </trkpt>
      <trkpt lat="48.05778" lon="7.02338">
        <ele>1216.4000244141</ele>
        <time>2022-10-09T09:30:10.000Z</time>
      </trkpt>
      <trkpt lat="48.05769" lon="7.02346">
        <ele>1217.1999511719</ele>
        <time>2022-10-09T09:30:19.000Z</time>
      </trkpt>
      <trkpt lat="48.05767" lon="7.02354">
        <ele>1217.5999755859</ele>
        <time>2022-10-09T09:30:25.000Z</time>
      </trkpt>
      <trkpt lat="48.05763" lon="7.0236">
        <ele>1218</ele>
        <time>2022-10-09T09:30:30.000Z</time>
      </trkpt>
      <trkpt lat="48.05761" lon="7.02361">
        <ele>1218.1999511719</ele>
        <time>2022-10-09T09:30:32.000Z</time>
      </trkpt>
      <trkpt lat="48.0576" lon="7.02362">
        <ele>1218.1999511719</ele>
        <time>2022-10-09T09:30:33.000Z</time>
      </trkpt>
      <trkpt lat="48.05757" lon="7.0237">
        <ele>1219.1999511719</ele>
        <time>2022-10-09T09:30:39.000Z</time>
      </trkpt>
      <trkpt lat="48.05755" lon="7.02375">
        <ele>1219.4000244141</ele>
        <time>2022-10-09T09:30:43.000Z</time>
      </trkpt>
      <trkpt lat="48.05752" lon="7.02379">
        <ele>1220</ele>
        <time>2022-10-09T09:30:47.000Z</time>
      </trkpt>
      <trkpt lat="48.0575" lon="7.02382">
        <ele>1220.4000244141</ele>
        <time>2022-10-09T09:30:51.000Z</time>
      </trkpt>
      <trkpt lat="48.0575" lon="7.02384">
        <ele>1220.4000244141</ele>
        <time>2022-10-09T09:30:52.000Z</time>
      </trkpt>
      <trkpt lat="48.05746" lon="7.02388">
        <ele>1220.5999755859</ele>
        <time>2022-10-09T09:30:56.000Z</time>
      </trkpt>
      <trkpt lat="48.05742" lon="7.02392">
        <ele>1221.1999511719</ele>
        <time>2022-10-09T09:31:02.000Z</time>
      </trkpt>
      <trkpt lat="48.05741" lon="7.02392">
        <ele>1221.1999511719</ele>
        <time>2022-10-09T09:31:03.000Z</time>
      </trkpt>
      <trkpt lat="48.05738" lon="7.02393">
        <ele>1221.5999755859</ele>
        <time>2022-10-09T09:31:06.000Z</time>
      </trkpt>
      <trkpt lat="48.05736" lon="7.02395">
        <ele>1221.8000488281</ele>
        <time>2022-10-09T09:31:10.000Z</time>
      </trkpt>
      <trkpt lat="48.05732" lon="7.02395">
        <ele>1222</ele>
        <time>2022-10-09T09:31:15.000Z</time>
      </trkpt>
      <trkpt lat="48.05732" lon="7.02397">
        <ele>1222</ele>
        <time>2022-10-09T09:31:16.000Z</time>
      </trkpt>
      <trkpt lat="48.05728" lon="7.02399">
        <ele>1222.5999755859</ele>
        <time>2022-10-09T09:31:20.000Z</time>
      </trkpt>
      <trkpt lat="48.05725" lon="7.02399">
        <ele>1223</ele>
        <time>2022-10-09T09:31:23.000Z</time>
      </trkpt>
      <trkpt lat="48.05725" lon="7.02399">
        <ele>1223.1999511719</ele>
        <time>2022-10-09T09:31:24.000Z</time>
      </trkpt>
      <trkpt lat="48.05723" lon="7.024">
        <ele>1223.5999755859</ele>
        <time>2022-10-09T09:31:29.000Z</time>
      </trkpt>
      <trkpt lat="48.05723" lon="7.02398">
        <ele>1223.8000488281</ele>
        <time>2022-10-09T09:31:30.000Z</time>
      </trkpt>
      <trkpt lat="48.05723" lon="7.02398">
        <ele>1223.8000488281</ele>
        <time>2022-10-09T09:31:31.000Z</time>
      </trkpt>
      <trkpt lat="48.05719" lon="7.024">
        <ele>1224</ele>
        <time>2022-10-09T09:31:35.000Z</time>
      </trkpt>
      <trkpt lat="48.05719" lon="7.024">
        <ele>1224.1999511719</ele>
        <time>2022-10-09T09:31:36.000Z</time>
      </trkpt>
      <trkpt lat="48.05718" lon="7.024">
        <ele>1224.4000244141</ele>
        <time>2022-10-09T09:31:37.000Z</time>
      </trkpt>
      <trkpt lat="48.05716" lon="7.02401">
        <ele>1224.5999755859</ele>
        <time>2022-10-09T09:31:39.000Z</time>
      </trkpt>
      <trkpt lat="48.0571" lon="7.02403">
        <ele>1225.5999755859</ele>
        <time>2022-10-09T09:31:46.000Z</time>
      </trkpt>
      <trkpt lat="48.05709" lon="7.02404">
        <ele>1225.8000488281</ele>
        <time>2022-10-09T09:31:47.000Z</time>
      </trkpt>
      <trkpt lat="48.05704" lon="7.02407">
        <ele>1226</ele>
        <time>2022-10-09T09:31:52.000Z</time>
      </trkpt>
      <trkpt lat="48.05701" lon="7.02408">
        <ele>1226.5999755859</ele>
        <time>2022-10-09T09:31:56.000Z</time>
      </trkpt>
      <trkpt lat="48.05699" lon="7.02409">
        <ele>1226.8000488281</ele>
        <time>2022-10-09T09:31:58.000Z</time>
      </trkpt>
      <trkpt lat="48.057" lon="7.02409">
        <ele>1227</ele>
        <time>2022-10-09T09:32:02.000Z</time>
      </trkpt>
      <trkpt lat="48.05696" lon="7.0241">
        <ele>1227.4000244141</ele>
        <time>2022-10-09T09:32:09.000Z</time>
      </trkpt>
      <trkpt lat="48.05694" lon="7.02411">
        <ele>1227.8000488281</ele>
        <time>2022-10-09T09:32:12.000Z</time>
      </trkpt>
      <trkpt lat="48.05693" lon="7.02412">
        <ele>1228</ele>
        <time>2022-10-09T09:32:14.000Z</time>
      </trkpt>
      <trkpt lat="48.05689" lon="7.02414">
        <ele>1228.5999755859</ele>
        <time>2022-10-09T09:32:18.000Z</time>
      </trkpt>
      <trkpt lat="48.05685" lon="7.02416">
        <ele>1229</ele>
        <time>2022-10-09T09:32:21.000Z</time>
      </trkpt>
      <trkpt lat="48.05683" lon="7.02422">
        <ele>1229.1999511719</ele>
        <time>2022-10-09T09:32:24.000Z</time>
      </trkpt>
      <trkpt lat="48.05681" lon="7.02424">
        <ele>1229.8000488281</ele>
        <time>2022-10-09T09:32:28.000Z</time>
      </trkpt>
      <trkpt lat="48.05679" lon="7.02425">
        <ele>1230</ele>
        <time>2022-10-09T09:32:30.000Z</time>
      </trkpt>
      <trkpt lat="48.05677" lon="7.02427">
        <ele>1230.1999511719</ele>
        <time>2022-10-09T09:32:32.000Z</time>
      </trkpt>
      <trkpt lat="48.05675" lon="7.02428">
        <ele>1230.5999755859</ele>
        <time>2022-10-09T09:32:34.000Z</time>
      </trkpt>
      <trkpt lat="48.05674" lon="7.0243">
        <ele>1231</ele>
        <time>2022-10-09T09:32:37.000Z</time>
      </trkpt>
      <trkpt lat="48.05673" lon="7.0243">
        <ele>1231.1999511719</ele>
        <time>2022-10-09T09:32:38.000Z</time>
      </trkpt>
      <trkpt lat="48.05672" lon="7.02432">
        <ele>1231.4000244141</ele>
        <time>2022-10-09T09:32:40.000Z</time>
      </trkpt>
      <trkpt lat="48.0567" lon="7.02434">
        <ele>1231.5999755859</ele>
        <time>2022-10-09T09:32:42.000Z</time>
      </trkpt>
      <trkpt lat="48.05667" lon="7.02435">
        <ele>1231.8000488281</ele>
        <time>2022-10-09T09:32:45.000Z</time>
      </trkpt>
      <trkpt lat="48.05667" lon="7.02436">
        <ele>1232</ele>
        <time>2022-10-09T09:32:46.000Z</time>
      </trkpt>
      <trkpt lat="48.05666" lon="7.02436">
        <ele>1232.1999511719</ele>
        <time>2022-10-09T09:32:47.000Z</time>
      </trkpt>
      <trkpt lat="48.05663" lon="7.02436">
        <ele>1232.5999755859</ele>
        <time>2022-10-09T09:32:50.000Z</time>
      </trkpt>
      <trkpt lat="48.05658" lon="7.02433">
        <ele>1233.1999511719</ele>
        <time>2022-10-09T09:32:57.000Z</time>
      </trkpt>
      <trkpt lat="48.05657" lon="7.02433">
        <ele>1233.4000244141</ele>
        <time>2022-10-09T09:33:03.000Z</time>
      </trkpt>
      <trkpt lat="48.05655" lon="7.02434">
        <ele>1233.8000488281</ele>
        <time>2022-10-09T09:33:10.000Z</time>
      </trkpt>
      <trkpt lat="48.05653" lon="7.02434">
        <ele>1234.1999511719</ele>
        <time>2022-10-09T09:33:12.000Z</time>
      </trkpt>
      <trkpt lat="48.05648" lon="7.02431">
        <ele>1234.8000488281</ele>
        <time>2022-10-09T09:33:18.000Z</time>
      </trkpt>
      <trkpt lat="48.05645" lon="7.02429">
        <ele>1235.1999511719</ele>
        <time>2022-10-09T09:33:22.000Z</time>
      </trkpt>
      <trkpt lat="48.05642" lon="7.02429">
        <ele>1235.5999755859</ele>
        <time>2022-10-09T09:33:24.000Z</time>
      </trkpt>
      <trkpt lat="48.05639" lon="7.02428">
        <ele>1235.5999755859</ele>
        <time>2022-10-09T09:33:26.000Z</time>
      </trkpt>
      <trkpt lat="48.05638" lon="7.02428">
        <ele>1236</ele>
        <time>2022-10-09T09:33:29.000Z</time>
      </trkpt>
      <trkpt lat="48.05637" lon="7.02428">
        <ele>1236</ele>
        <time>2022-10-09T09:33:32.000Z</time>
      </trkpt>
      <trkpt lat="48.05634" lon="7.02427">
        <ele>1236</ele>
        <time>2022-10-09T09:33:35.000Z</time>
      </trkpt>
      <trkpt lat="48.05632" lon="7.02425">
        <ele>1236.1999511719</ele>
        <time>2022-10-09T09:33:37.000Z</time>
      </trkpt>
      <trkpt lat="48.05626" lon="7.02421">
        <ele>1237</ele>
        <time>2022-10-09T09:33:44.000Z</time>
      </trkpt>
      <trkpt lat="48.0562" lon="7.02418">
        <ele>1237.4000244141</ele>
        <time>2022-10-09T09:33:49.000Z</time>
      </trkpt>
      <trkpt lat="48.05618" lon="7.02416">
        <ele>1237.5999755859</ele>
        <time>2022-10-09T09:33:52.000Z</time>
      </trkpt>
      <trkpt lat="48.05615" lon="7.02412">
        <ele>1238</ele>
        <time>2022-10-09T09:33:55.000Z</time>
      </trkpt>
      <trkpt lat="48.05609" lon="7.02407">
        <ele>1238</ele>
        <time>2022-10-09T09:33:59.000Z</time>
      </trkpt>
      <trkpt lat="48.05608" lon="7.02407">
        <ele>1238</ele>
        <time>2022-10-09T09:34:00.000Z</time>
      </trkpt>
      <trkpt lat="48.05603" lon="7.02403">
        <ele>1238.1999511719</ele>
        <time>2022-10-09T09:34:06.000Z</time>
      </trkpt>
      <trkpt lat="48.05599" lon="7.024">
        <ele>1238.4000244141</ele>
        <time>2022-10-09T09:34:11.000Z</time>
      </trkpt>
      <trkpt lat="48.05598" lon="7.02398">
        <ele>1238.5999755859</ele>
        <time>2022-10-09T09:34:13.000Z</time>
      </trkpt>
      <trkpt lat="48.05593" lon="7.02396">
        <ele>1238.4000244141</ele>
        <time>2022-10-09T09:34:20.000Z</time>
      </trkpt>
      <trkpt lat="48.0559" lon="7.02389">
        <ele>1238.4000244141</ele>
        <time>2022-10-09T09:34:27.000Z</time>
      </trkpt>
      <trkpt lat="48.05588" lon="7.02386">
        <ele>1238.1999511719</ele>
        <time>2022-10-09T09:34:29.000Z</time>
      </trkpt>
      <trkpt lat="48.05588" lon="7.02385">
        <ele>1238.1999511719</ele>
        <time>2022-10-09T09:34:30.000Z</time>
      </trkpt>
      <trkpt lat="48.05587" lon="7.02381">
        <ele>1238.1999511719</ele>
        <time>2022-10-09T09:34:33.000Z</time>
      </trkpt>
      <trkpt lat="48.05584" lon="7.02379">
        <ele>1238</ele>
        <time>2022-10-09T09:34:36.000Z</time>
      </trkpt>
      <trkpt lat="48.05583" lon="7.02378">
        <ele>1238</ele>
        <time>2022-10-09T09:34:37.000Z</time>
      </trkpt>
      <trkpt lat="48.05582" lon="7.02377">
        <ele>1237.8000488281</ele>
        <time>2022-10-09T09:34:39.000Z</time>
      </trkpt>
      <trkpt lat="48.05577" lon="7.02372">
        <ele>1237.5999755859</ele>
        <time>2022-10-09T09:34:45.000Z</time>
      </trkpt>
      <trkpt lat="48.05576" lon="7.02371">
        <ele>1237.5999755859</ele>
        <time>2022-10-09T09:34:46.000Z</time>
      </trkpt>
      <trkpt lat="48.05575" lon="7.0237">
        <ele>1237.4000244141</ele>
        <time>2022-10-09T09:34:48.000Z</time>
      </trkpt>
      <trkpt lat="48.05574" lon="7.02369">
        <ele>1237.4000244141</ele>
        <time>2022-10-09T09:34:49.000Z</time>
      </trkpt>
      <trkpt lat="48.05571" lon="7.02365">
        <ele>1237</ele>
        <time>2022-10-09T09:34:53.000Z</time>
      </trkpt>
      <trkpt lat="48.05567" lon="7.02359">
        <ele>1236.1999511719</ele>
        <time>2022-10-09T09:35:00.000Z</time>
      </trkpt>
      <trkpt lat="48.05562" lon="7.02352">
        <ele>1235.5999755859</ele>
        <time>2022-10-09T09:35:06.000Z</time>
      </trkpt>
      <trkpt lat="48.05561" lon="7.02351">
        <ele>1235.4000244141</ele>
        <time>2022-10-09T09:35:07.000Z</time>
      </trkpt>
      <trkpt lat="48.05559" lon="7.02349">
        <ele>1235.1999511719</ele>
        <time>2022-10-09T09:35:09.000Z</time>
      </trkpt>
      <trkpt lat="48.05554" lon="7.02344">
        <ele>1235</ele>
        <time>2022-10-09T09:35:13.000Z</time>
      </trkpt>
      <trkpt lat="48.05546" lon="7.02333">
        <ele>1234.5999755859</ele>
        <time>2022-10-09T09:35:19.000Z</time>
      </trkpt>
      <trkpt lat="48.05544" lon="7.02333">
        <ele>1234.4000244141</ele>
        <time>2022-10-09T09:35:21.000Z</time>
      </trkpt>
      <trkpt lat="48.05538" lon="7.0233">
        <ele>1234.5999755859</ele>
        <time>2022-10-09T09:35:26.000Z</time>
      </trkpt>
      <trkpt lat="48.05536" lon="7.02327">
        <ele>1234.5999755859</ele>
        <time>2022-10-09T09:35:28.000Z</time>
      </trkpt>
      <trkpt lat="48.05533" lon="7.02321">
        <ele>1234.1999511719</ele>
        <time>2022-10-09T09:35:32.000Z</time>
      </trkpt>
      <trkpt lat="48.0553" lon="7.02314">
        <ele>1233.5999755859</ele>
        <time>2022-10-09T09:35:37.000Z</time>
      </trkpt>
      <trkpt lat="48.05529" lon="7.02312">
        <ele>1233.5999755859</ele>
        <time>2022-10-09T09:35:38.000Z</time>
      </trkpt>
      <trkpt lat="48.05522" lon="7.02298">
        <ele>1233.1999511719</ele>
        <time>2022-10-09T09:35:48.000Z</time>
      </trkpt>
      <trkpt lat="48.05519" lon="7.02295">
        <ele>1233.1999511719</ele>
        <time>2022-10-09T09:35:52.000Z</time>
      </trkpt>
      <trkpt lat="48.05519" lon="7.02294">
        <ele>1233.1999511719</ele>
        <time>2022-10-09T09:35:54.000Z</time>
      </trkpt>
      <trkpt lat="48.05517" lon="7.02294">
        <ele>1233.5999755859</ele>
        <time>2022-10-09T09:36:07.000Z</time>
      </trkpt>
      <trkpt lat="48.05514" lon="7.02282">
        <ele>1233.1999511719</ele>
        <time>2022-10-09T09:36:13.000Z</time>
      </trkpt>
      <trkpt lat="48.05513" lon="7.02282">
        <ele>1233</ele>
        <time>2022-10-09T09:36:14.000Z</time>
      </trkpt>
      <trkpt lat="48.05509" lon="7.02275">
        <ele>1233.4000244141</ele>
        <time>2022-10-09T09:36:20.000Z</time>
      </trkpt>
      <trkpt lat="48.05508" lon="7.02273">
        <ele>1233.1999511719</ele>
        <time>2022-10-09T09:36:22.000Z</time>
      </trkpt>
      <trkpt lat="48.05499" lon="7.02265">
        <ele>1233.1999511719</ele>
        <time>2022-10-09T09:36:30.000Z</time>
      </trkpt>
      <trkpt lat="48.0549" lon="7.02257">
        <ele>1233.4000244141</ele>
        <time>2022-10-09T09:36:38.000Z</time>
      </trkpt>
      <trkpt lat="48.05483" lon="7.02249">
        <ele>1233.5999755859</ele>
        <time>2022-10-09T09:36:47.000Z</time>
      </trkpt>
      <trkpt lat="48.05479" lon="7.02249">
        <ele>1233.5999755859</ele>
        <time>2022-10-09T09:36:53.000Z</time>
      </trkpt>
      <trkpt lat="48.0548" lon="7.02248">
        <ele>1233.8000488281</ele>
        <time>2022-10-09T09:36:57.000Z</time>
      </trkpt>
      <trkpt lat="48.0548" lon="7.02247">
        <ele>1234</ele>
        <time>2022-10-09T09:37:01.000Z</time>
      </trkpt>
      <trkpt lat="48.05473" lon="7.02243">
        <ele>1233.1999511719</ele>
        <time>2022-10-09T09:37:07.000Z</time>
      </trkpt>
      <trkpt lat="48.05464" lon="7.02237">
        <ele>1233.1999511719</ele>
        <time>2022-10-09T09:37:16.000Z</time>
      </trkpt>
      <trkpt lat="48.05455" lon="7.02233">
        <ele>1233.1999511719</ele>
        <time>2022-10-09T09:37:23.000Z</time>
      </trkpt>
      <trkpt lat="48.0545" lon="7.02231">
        <ele>1233.4000244141</ele>
        <time>2022-10-09T09:37:28.000Z</time>
      </trkpt>
      <trkpt lat="48.05446" lon="7.02228">
        <ele>1233.1999511719</ele>
        <time>2022-10-09T09:37:31.000Z</time>
      </trkpt>
      <trkpt lat="48.05445" lon="7.02225">
        <ele>1233.1999511719</ele>
        <time>2022-10-09T09:37:33.000Z</time>
      </trkpt>
      <trkpt lat="48.05441" lon="7.02223">
        <ele>1233.4000244141</ele>
        <time>2022-10-09T09:37:37.000Z</time>
      </trkpt>
      <trkpt lat="48.05437" lon="7.02219">
        <ele>1233.4000244141</ele>
        <time>2022-10-09T09:37:42.000Z</time>
      </trkpt>
      <trkpt lat="48.05432" lon="7.02213">
        <ele>1233.4000244141</ele>
        <time>2022-10-09T09:37:48.000Z</time>
      </trkpt>
      <trkpt lat="48.05426" lon="7.02206">
        <ele>1233.4000244141</ele>
        <time>2022-10-09T09:37:55.000Z</time>
      </trkpt>
      <trkpt lat="48.05417" lon="7.022">
        <ele>1233.4000244141</ele>
        <time>2022-10-09T09:38:01.000Z</time>
      </trkpt>
      <trkpt lat="48.05412" lon="7.02195">
        <ele>1233.4000244141</ele>
        <time>2022-10-09T09:38:04.000Z</time>
      </trkpt>
      <trkpt lat="48.05411" lon="7.02193">
        <ele>1233.4000244141</ele>
        <time>2022-10-09T09:38:06.000Z</time>
      </trkpt>
      <trkpt lat="48.05408" lon="7.02187">
        <ele>1233.4000244141</ele>
        <time>2022-10-09T09:38:11.000Z</time>
      </trkpt>
      <trkpt lat="48.05407" lon="7.02188">
        <ele>1233.4000244141</ele>
        <time>2022-10-09T09:38:12.000Z</time>
      </trkpt>
      <trkpt lat="48.05406" lon="7.02188">
        <ele>1233.1999511719</ele>
        <time>2022-10-09T09:38:13.000Z</time>
      </trkpt>
      <trkpt lat="48.05401" lon="7.02185">
        <ele>1233</ele>
        <time>2022-10-09T09:38:17.000Z</time>
      </trkpt>
      <trkpt lat="48.05393" lon="7.02177">
        <ele>1233.1999511719</ele>
        <time>2022-10-09T09:38:25.000Z</time>
      </trkpt>
      <trkpt lat="48.0539" lon="7.02173">
        <ele>1233.1999511719</ele>
        <time>2022-10-09T09:38:28.000Z</time>
      </trkpt>
      <trkpt lat="48.05383" lon="7.02164">
        <ele>1233</ele>
        <time>2022-10-09T09:38:34.000Z</time>
      </trkpt>
      <trkpt lat="48.05378" lon="7.02159">
        <ele>1232.8000488281</ele>
        <time>2022-10-09T09:38:39.000Z</time>
      </trkpt>
      <trkpt lat="48.05377" lon="7.02158">
        <ele>1232.8000488281</ele>
        <time>2022-10-09T09:38:40.000Z</time>
      </trkpt>
      <trkpt lat="48.05373" lon="7.02155">
        <ele>1232.5999755859</ele>
        <time>2022-10-09T09:38:44.000Z</time>
      </trkpt>
      <trkpt lat="48.05371" lon="7.02153">
        <ele>1232.5999755859</ele>
        <time>2022-10-09T09:38:46.000Z</time>
      </trkpt>
      <trkpt lat="48.05365" lon="7.02147">
        <ele>1232.1999511719</ele>
        <time>2022-10-09T09:38:52.000Z</time>
      </trkpt>
      <trkpt lat="48.05363" lon="7.02145">
        <ele>1232.1999511719</ele>
        <time>2022-10-09T09:38:54.000Z</time>
      </trkpt>
      <trkpt lat="48.05357" lon="7.0214">
        <ele>1231.8000488281</ele>
        <time>2022-10-09T09:39:00.000Z</time>
      </trkpt>
      <trkpt lat="48.05351" lon="7.02134">
        <ele>1231.5999755859</ele>
        <time>2022-10-09T09:39:06.000Z</time>
      </trkpt>
      <trkpt lat="48.05347" lon="7.02129">
        <ele>1231.5999755859</ele>
        <time>2022-10-09T09:39:10.000Z</time>
      </trkpt>
      <trkpt lat="48.05344" lon="7.02127">
        <ele>1231.1999511719</ele>
        <time>2022-10-09T09:39:14.000Z</time>
      </trkpt>
      <trkpt lat="48.05343" lon="7.02126">
        <ele>1231</ele>
        <time>2022-10-09T09:39:15.000Z</time>
      </trkpt>
      <trkpt lat="48.05337" lon="7.02121">
        <ele>1231</ele>
        <time>2022-10-09T09:39:21.000Z</time>
      </trkpt>
      <trkpt lat="48.05333" lon="7.02117">
        <ele>1230.5999755859</ele>
        <time>2022-10-09T09:39:25.000Z</time>
      </trkpt>
      <trkpt lat="48.05328" lon="7.02112">
        <ele>1230</ele>
        <time>2022-10-09T09:39:30.000Z</time>
      </trkpt>
      <trkpt lat="48.05325" lon="7.02111">
        <ele>1229.8000488281</ele>
        <time>2022-10-09T09:39:32.000Z</time>
      </trkpt>
      <trkpt lat="48.05321" lon="7.02107">
        <ele>1229.5999755859</ele>
        <time>2022-10-09T09:39:36.000Z</time>
      </trkpt>
      <trkpt lat="48.05315" lon="7.02102">
        <ele>1229</ele>
        <time>2022-10-09T09:39:42.000Z</time>
      </trkpt>
      <trkpt lat="48.0531" lon="7.02096">
        <ele>1228.8000488281</ele>
        <time>2022-10-09T09:39:47.000Z</time>
      </trkpt>
      <trkpt lat="48.05308" lon="7.02094">
        <ele>1228.8000488281</ele>
        <time>2022-10-09T09:39:49.000Z</time>
      </trkpt>
      <trkpt lat="48.05304" lon="7.0209">
        <ele>1228.5999755859</ele>
        <time>2022-10-09T09:39:52.000Z</time>
      </trkpt>
      <trkpt lat="48.053" lon="7.02086">
        <ele>1228.1999511719</ele>
        <time>2022-10-09T09:39:56.000Z</time>
      </trkpt>
      <trkpt lat="48.05298" lon="7.02084">
        <ele>1228</ele>
        <time>2022-10-09T09:39:58.000Z</time>
      </trkpt>
      <trkpt lat="48.05297" lon="7.02083">
        <ele>1227.8000488281</ele>
        <time>2022-10-09T09:39:59.000Z</time>
      </trkpt>
      <trkpt lat="48.05295" lon="7.02081">
        <ele>1227.5999755859</ele>
        <time>2022-10-09T09:40:01.000Z</time>
      </trkpt>
      <trkpt lat="48.05287" lon="7.02075">
        <ele>1227</ele>
        <time>2022-10-09T09:40:08.000Z</time>
      </trkpt>
      <trkpt lat="48.0528" lon="7.02069">
        <ele>1226.8000488281</ele>
        <time>2022-10-09T09:40:14.000Z</time>
      </trkpt>
      <trkpt lat="48.05277" lon="7.02066">
        <ele>1226.5999755859</ele>
        <time>2022-10-09T09:40:17.000Z</time>
      </trkpt>
      <trkpt lat="48.05262" lon="7.02053">
        <ele>1226.1999511719</ele>
        <time>2022-10-09T09:40:30.000Z</time>
      </trkpt>
      <trkpt lat="48.0525" lon="7.0204">
        <ele>1225.8000488281</ele>
        <time>2022-10-09T09:40:42.000Z</time>
      </trkpt>
      <trkpt lat="48.05249" lon="7.02039">
        <ele>1225.5999755859</ele>
        <time>2022-10-09T09:40:43.000Z</time>
      </trkpt>
      <trkpt lat="48.05242" lon="7.02034">
        <ele>1225.1999511719</ele>
        <time>2022-10-09T09:40:49.000Z</time>
      </trkpt>
      <trkpt lat="48.05238" lon="7.02031">
        <ele>1225.4000244141</ele>
        <time>2022-10-09T09:40:53.000Z</time>
      </trkpt>
      <trkpt lat="48.05229" lon="7.02023">
        <ele>1224.8000488281</ele>
        <time>2022-10-09T09:41:02.000Z</time>
      </trkpt>
      <trkpt lat="48.05226" lon="7.0202">
        <ele>1225</ele>
        <time>2022-10-09T09:41:05.000Z</time>
      </trkpt>
      <trkpt lat="48.05222" lon="7.02015">
        <ele>1225.1999511719</ele>
        <time>2022-10-09T09:41:10.000Z</time>
      </trkpt>
      <trkpt lat="48.0522" lon="7.02013">
        <ele>1225.1999511719</ele>
        <time>2022-10-09T09:41:12.000Z</time>
      </trkpt>
      <trkpt lat="48.05214" lon="7.02006">
        <ele>1225.4000244141</ele>
        <time>2022-10-09T09:41:18.000Z</time>
      </trkpt>
      <trkpt lat="48.0521" lon="7.01999">
        <ele>1225.4000244141</ele>
        <time>2022-10-09T09:41:23.000Z</time>
      </trkpt>
      <trkpt lat="48.05204" lon="7.01989">
        <ele>1225.5999755859</ele>
        <time>2022-10-09T09:41:31.000Z</time>
      </trkpt>
      <trkpt lat="48.05202" lon="7.01987">
        <ele>1225.8000488281</ele>
        <time>2022-10-09T09:41:33.000Z</time>
      </trkpt>
      <trkpt lat="48.05199" lon="7.01985">
        <ele>1225.5999755859</ele>
        <time>2022-10-09T09:41:38.000Z</time>
      </trkpt>
      <trkpt lat="48.05199" lon="7.01986">
        <ele>1225.4000244141</ele>
        <time>2022-10-09T09:41:39.000Z</time>
      </trkpt>
      <trkpt lat="48.05198" lon="7.01985">
        <ele>1225.4000244141</ele>
        <time>2022-10-09T09:41:43.000Z</time>
      </trkpt>
      <trkpt lat="48.05196" lon="7.01986">
        <ele>1225.4000244141</ele>
        <time>2022-10-09T09:41:48.000Z</time>
      </trkpt>
      <trkpt lat="48.05189" lon="7.0198">
        <ele>1225.4000244141</ele>
        <time>2022-10-09T09:41:56.000Z</time>
      </trkpt>
      <trkpt lat="48.05189" lon="7.01979">
        <ele>1225.5999755859</ele>
        <time>2022-10-09T09:41:57.000Z</time>
      </trkpt>
      <trkpt lat="48.05188" lon="7.01978">
        <ele>1225.8000488281</ele>
        <time>2022-10-09T09:42:01.000Z</time>
      </trkpt>
      <trkpt lat="48.05186" lon="7.0197">
        <ele>1225.8000488281</ele>
        <time>2022-10-09T09:42:09.000Z</time>
      </trkpt>
      <trkpt lat="48.05186" lon="7.01965">
        <ele>1225.8000488281</ele>
        <time>2022-10-09T09:42:11.000Z</time>
      </trkpt>
      <trkpt lat="48.05185" lon="7.01961">
        <ele>1225.8000488281</ele>
        <time>2022-10-09T09:42:14.000Z</time>
      </trkpt>
      <trkpt lat="48.05182" lon="7.01955">
        <ele>1225.8000488281</ele>
        <time>2022-10-09T09:42:18.000Z</time>
      </trkpt>
      <trkpt lat="48.05181" lon="7.01953">
        <ele>1225.8000488281</ele>
        <time>2022-10-09T09:42:20.000Z</time>
      </trkpt>
      <trkpt lat="48.05179" lon="7.0195">
        <ele>1225.8000488281</ele>
        <time>2022-10-09T09:42:22.000Z</time>
      </trkpt>
      <trkpt lat="48.05177" lon="7.01948">
        <ele>1226</ele>
        <time>2022-10-09T09:42:24.000Z</time>
      </trkpt>
      <trkpt lat="48.05174" lon="7.01943">
        <ele>1225.8000488281</ele>
        <time>2022-10-09T09:42:28.000Z</time>
      </trkpt>
      <trkpt lat="48.05173" lon="7.01943">
        <ele>1225.8000488281</ele>
        <time>2022-10-09T09:42:29.000Z</time>
      </trkpt>
      <trkpt lat="48.0517" lon="7.01946">
        <ele>1225.1999511719</ele>
        <time>2022-10-09T09:42:36.000Z</time>
      </trkpt>
      <trkpt lat="48.05169" lon="7.01948">
        <ele>1225.8000488281</ele>
        <time>2022-10-09T09:42:43.000Z</time>
      </trkpt>
      <trkpt lat="48.05169" lon="7.01948">
        <ele>1225.8000488281</ele>
        <time>2022-10-09T09:42:45.000Z</time>
      </trkpt>
      <trkpt lat="48.05168" lon="7.01942">
        <ele>1226.1999511719</ele>
        <time>2022-10-09T09:43:11.000Z</time>
      </trkpt>
      <trkpt lat="48.05168" lon="7.01938">
        <ele>1226.1999511719</ele>
        <time>2022-10-09T09:43:18.000Z</time>
      </trkpt>
      <trkpt lat="48.05167" lon="7.01936">
        <ele>1226.1999511719</ele>
        <time>2022-10-09T09:43:20.000Z</time>
      </trkpt>
      <trkpt lat="48.05167" lon="7.01921">
        <ele>1226.1999511719</ele>
        <time>2022-10-09T09:43:28.000Z</time>
      </trkpt>
      <trkpt lat="48.05164" lon="7.01911">
        <ele>1226.5999755859</ele>
        <time>2022-10-09T09:43:33.000Z</time>
      </trkpt>
      <trkpt lat="48.05164" lon="7.019">
        <ele>1226.8000488281</ele>
        <time>2022-10-09T09:43:38.000Z</time>
      </trkpt>
      <trkpt lat="48.05163" lon="7.01894">
        <ele>1226.8000488281</ele>
        <time>2022-10-09T09:43:41.000Z</time>
      </trkpt>
      <trkpt lat="48.05165" lon="7.01886">
        <ele>1226.5999755859</ele>
        <time>2022-10-09T09:43:45.000Z</time>
      </trkpt>
      <trkpt lat="48.05165" lon="7.01875">
        <ele>1227.1999511719</ele>
        <time>2022-10-09T09:43:51.000Z</time>
      </trkpt>
      <trkpt lat="48.05166" lon="7.01867">
        <ele>1227.8000488281</ele>
        <time>2022-10-09T09:43:56.000Z</time>
      </trkpt>
      <trkpt lat="48.05166" lon="7.01865">
        <ele>1227.8000488281</ele>
        <time>2022-10-09T09:43:57.000Z</time>
      </trkpt>
      <trkpt lat="48.05166" lon="7.01857">
        <ele>1227.8000488281</ele>
        <time>2022-10-09T09:44:01.000Z</time>
      </trkpt>
      <trkpt lat="48.05167" lon="7.01854">
        <ele>1227.8000488281</ele>
        <time>2022-10-09T09:44:03.000Z</time>
      </trkpt>
      <trkpt lat="48.05167" lon="7.01852">
        <ele>1227.8000488281</ele>
        <time>2022-10-09T09:44:04.000Z</time>
      </trkpt>
      <trkpt lat="48.05167" lon="7.0185">
        <ele>1227.8000488281</ele>
        <time>2022-10-09T09:44:05.000Z</time>
      </trkpt>
      <trkpt lat="48.05168" lon="7.01845">
        <ele>1228</ele>
        <time>2022-10-09T09:44:08.000Z</time>
      </trkpt>
      <trkpt lat="48.05168" lon="7.01833">
        <ele>1228.1999511719</ele>
        <time>2022-10-09T09:44:15.000Z</time>
      </trkpt>
      <trkpt lat="48.05169" lon="7.01826">
        <ele>1228.4000244141</ele>
        <time>2022-10-09T09:44:19.000Z</time>
      </trkpt>
      <trkpt lat="48.05169" lon="7.01819">
        <ele>1228.8000488281</ele>
        <time>2022-10-09T09:44:23.000Z</time>
      </trkpt>
      <trkpt lat="48.05169" lon="7.01811">
        <ele>1229.1999511719</ele>
        <time>2022-10-09T09:44:27.000Z</time>
      </trkpt>
      <trkpt lat="48.0517" lon="7.01798">
        <ele>1229.8000488281</ele>
        <time>2022-10-09T09:44:34.000Z</time>
      </trkpt>
      <trkpt lat="48.05172" lon="7.01793">
        <ele>1229.8000488281</ele>
        <time>2022-10-09T09:44:37.000Z</time>
      </trkpt>
      <trkpt lat="48.05173" lon="7.0178">
        <ele>1230</ele>
        <time>2022-10-09T09:44:45.000Z</time>
      </trkpt>
      <trkpt lat="48.05174" lon="7.01771">
        <ele>1230.1999511719</ele>
        <time>2022-10-09T09:44:50.000Z</time>
      </trkpt>
      <trkpt lat="48.05174" lon="7.01769">
        <ele>1230.1999511719</ele>
        <time>2022-10-09T09:44:51.000Z</time>
      </trkpt>
      <trkpt lat="48.05175" lon="7.01762">
        <ele>1230.4000244141</ele>
        <time>2022-10-09T09:44:55.000Z</time>
      </trkpt>
      <trkpt lat="48.05176" lon="7.01749">
        <ele>1230.8000488281</ele>
        <time>2022-10-09T09:45:02.000Z</time>
      </trkpt>
      <trkpt lat="48.05176" lon="7.01748">
        <ele>1230.8000488281</ele>
        <time>2022-10-09T09:45:04.000Z</time>
      </trkpt>
      <trkpt lat="48.05176" lon="7.01746">
        <ele>1230.8000488281</ele>
        <time>2022-10-09T09:45:06.000Z</time>
      </trkpt>
      <trkpt lat="48.05176" lon="7.01738">
        <ele>1230.8000488281</ele>
        <time>2022-10-09T09:45:10.000Z</time>
      </trkpt>
      <trkpt lat="48.05178" lon="7.01722">
        <ele>1231.4000244141</ele>
        <time>2022-10-09T09:45:19.000Z</time>
      </trkpt>
      <trkpt lat="48.05178" lon="7.01717">
        <ele>1231.4000244141</ele>
        <time>2022-10-09T09:45:22.000Z</time>
      </trkpt>
      <trkpt lat="48.05178" lon="7.01714">
        <ele>1231.4000244141</ele>
        <time>2022-10-09T09:45:23.000Z</time>
      </trkpt>
      <trkpt lat="48.05179" lon="7.01702">
        <ele>1231.4000244141</ele>
        <time>2022-10-09T09:45:30.000Z</time>
      </trkpt>
      <trkpt lat="48.05179" lon="7.01694">
        <ele>1231.5999755859</ele>
        <time>2022-10-09T09:45:34.000Z</time>
      </trkpt>
      <trkpt lat="48.0518" lon="7.01677">
        <ele>1231.8000488281</ele>
        <time>2022-10-09T09:45:43.000Z</time>
      </trkpt>
      <trkpt lat="48.0518" lon="7.01673">
        <ele>1232</ele>
        <time>2022-10-09T09:45:45.000Z</time>
      </trkpt>
      <trkpt lat="48.05182" lon="7.01661">
        <ele>1232.4000244141</ele>
        <time>2022-10-09T09:45:52.000Z</time>
      </trkpt>
      <trkpt lat="48.05183" lon="7.01654">
        <ele>1232.4000244141</ele>
        <time>2022-10-09T09:45:56.000Z</time>
      </trkpt>
      <trkpt lat="48.05185" lon="7.01653">
        <ele>1232.4000244141</ele>
        <time>2022-10-09T09:45:58.000Z</time>
      </trkpt>
      <trkpt lat="48.05186" lon="7.01651">
        <ele>1232.5999755859</ele>
        <time>2022-10-09T09:46:03.000Z</time>
      </trkpt>
      <trkpt lat="48.05187" lon="7.01649">
        <ele>1232.4000244141</ele>
        <time>2022-10-09T09:46:12.000Z</time>
      </trkpt>
      <trkpt lat="48.05186" lon="7.01649">
        <ele>1232.4000244141</ele>
        <time>2022-10-09T09:46:19.000Z</time>
      </trkpt>
      <trkpt lat="48.05182" lon="7.01643">
        <ele>1232.1999511719</ele>
        <time>2022-10-09T09:46:25.000Z</time>
      </trkpt>
      <trkpt lat="48.05183" lon="7.01642">
        <ele>1232.8000488281</ele>
        <time>2022-10-09T09:46:27.000Z</time>
      </trkpt>
      <trkpt lat="48.05183" lon="7.01642">
        <ele>1233</ele>
        <time>2022-10-09T09:46:28.000Z</time>
      </trkpt>
      <trkpt lat="48.05183" lon="7.01643">
        <ele>1233</ele>
        <time>2022-10-09T09:46:29.000Z</time>
      </trkpt>
      <trkpt lat="48.05184" lon="7.01641">
        <ele>1233.4000244141</ele>
        <time>2022-10-09T09:46:36.000Z</time>
      </trkpt>
      <trkpt lat="48.05184" lon="7.01641">
        <ele>1233.4000244141</ele>
        <time>2022-10-09T09:46:37.000Z</time>
      </trkpt>
      <trkpt lat="48.05184" lon="7.0164">
        <ele>1233</ele>
        <time>2022-10-09T09:46:54.000Z</time>
      </trkpt>
      <trkpt lat="48.05181" lon="7.01631">
        <ele>1232.8000488281</ele>
        <time>2022-10-09T09:46:58.000Z</time>
      </trkpt>
      <trkpt lat="48.05178" lon="7.01616">
        <ele>1233</ele>
        <time>2022-10-09T09:47:06.000Z</time>
      </trkpt>
      <trkpt lat="48.05171" lon="7.01611">
        <ele>1232.8000488281</ele>
        <time>2022-10-09T09:47:13.000Z</time>
      </trkpt>
      <trkpt lat="48.0517" lon="7.01611">
        <ele>1232.8000488281</ele>
        <time>2022-10-09T09:47:14.000Z</time>
      </trkpt>
      <trkpt lat="48.05161" lon="7.01608">
        <ele>1233.8000488281</ele>
        <time>2022-10-09T09:47:22.000Z</time>
      </trkpt>
      <trkpt lat="48.0516" lon="7.01608">
        <ele>1234</ele>
        <time>2022-10-09T09:47:23.000Z</time>
      </trkpt>
      <trkpt lat="48.05155" lon="7.01607">
        <ele>1234</ele>
        <time>2022-10-09T09:47:27.000Z</time>
      </trkpt>
      <trkpt lat="48.05153" lon="7.01607">
        <ele>1234</ele>
        <time>2022-10-09T09:47:29.000Z</time>
      </trkpt>
      <trkpt lat="48.05152" lon="7.01607">
        <ele>1234</ele>
        <time>2022-10-09T09:47:30.000Z</time>
      </trkpt>
      <trkpt lat="48.05152" lon="7.01606">
        <ele>1234</ele>
        <time>2022-10-09T09:47:31.000Z</time>
      </trkpt>
      <trkpt lat="48.05151" lon="7.01607">
        <ele>1234.1999511719</ele>
        <time>2022-10-09T09:47:33.000Z</time>
      </trkpt>
      <trkpt lat="48.05151" lon="7.01608">
        <ele>1234.1999511719</ele>
        <time>2022-10-09T09:47:34.000Z</time>
      </trkpt>
      <trkpt lat="48.0515" lon="7.01608">
        <ele>1234.1999511719</ele>
        <time>2022-10-09T09:47:36.000Z</time>
      </trkpt>
      <trkpt lat="48.05147" lon="7.01604">
        <ele>1234.1999511719</ele>
        <time>2022-10-09T09:47:39.000Z</time>
      </trkpt>
      <trkpt lat="48.05144" lon="7.016">
        <ele>1234</ele>
        <time>2022-10-09T09:47:43.000Z</time>
      </trkpt>
      <trkpt lat="48.05142" lon="7.01601">
        <ele>1234</ele>
        <time>2022-10-09T09:47:47.000Z</time>
      </trkpt>
      <trkpt lat="48.05139" lon="7.016">
        <ele>1234</ele>
        <time>2022-10-09T09:47:49.000Z</time>
      </trkpt>
      <trkpt lat="48.05136" lon="7.016">
        <ele>1234.1999511719</ele>
        <time>2022-10-09T09:47:53.000Z</time>
      </trkpt>
      <trkpt lat="48.05135" lon="7.016">
        <ele>1234.4000244141</ele>
        <time>2022-10-09T09:47:54.000Z</time>
      </trkpt>
      <trkpt lat="48.05132" lon="7.01599">
        <ele>1234.4000244141</ele>
        <time>2022-10-09T09:47:56.000Z</time>
      </trkpt>
      <trkpt lat="48.05131" lon="7.01601">
        <ele>1234.5999755859</ele>
        <time>2022-10-09T09:47:58.000Z</time>
      </trkpt>
      <trkpt lat="48.05131" lon="7.01602">
        <ele>1234.8000488281</ele>
        <time>2022-10-09T09:48:00.000Z</time>
      </trkpt>
      <trkpt lat="48.0513" lon="7.01602">
        <ele>1235</ele>
        <time>2022-10-09T09:48:01.000Z</time>
      </trkpt>
      <trkpt lat="48.05128" lon="7.01602">
        <ele>1235.1999511719</ele>
        <time>2022-10-09T09:48:04.000Z</time>
      </trkpt>
      <trkpt lat="48.05121" lon="7.016">
        <ele>1235.1999511719</ele>
        <time>2022-10-09T09:48:09.000Z</time>
      </trkpt>
      <trkpt lat="48.05118" lon="7.01599">
        <ele>1235.4000244141</ele>
        <time>2022-10-09T09:48:11.000Z</time>
      </trkpt>
      <trkpt lat="48.05116" lon="7.01598">
        <ele>1235.4000244141</ele>
        <time>2022-10-09T09:48:13.000Z</time>
      </trkpt>
      <trkpt lat="48.05107" lon="7.01599">
        <ele>1235.8000488281</ele>
        <time>2022-10-09T09:48:21.000Z</time>
      </trkpt>
      <trkpt lat="48.05106" lon="7.01599">
        <ele>1236</ele>
        <time>2022-10-09T09:48:22.000Z</time>
      </trkpt>
      <trkpt lat="48.05099" lon="7.01597">
        <ele>1236.1999511719</ele>
        <time>2022-10-09T09:48:28.000Z</time>
      </trkpt>
      <trkpt lat="48.05096" lon="7.01597">
        <ele>1236</ele>
        <time>2022-10-09T09:48:31.000Z</time>
      </trkpt>
      <trkpt lat="48.05095" lon="7.01597">
        <ele>1236</ele>
        <time>2022-10-09T09:48:32.000Z</time>
      </trkpt>
      <trkpt lat="48.05089" lon="7.01599">
        <ele>1236.5999755859</ele>
        <time>2022-10-09T09:48:37.000Z</time>
      </trkpt>
      <trkpt lat="48.05088" lon="7.01598">
        <ele>1236.8000488281</ele>
        <time>2022-10-09T09:48:38.000Z</time>
      </trkpt>
      <trkpt lat="48.05086" lon="7.01597">
        <ele>1237</ele>
        <time>2022-10-09T09:48:40.000Z</time>
      </trkpt>
      <trkpt lat="48.05085" lon="7.01596">
        <ele>1237.1999511719</ele>
        <time>2022-10-09T09:48:41.000Z</time>
      </trkpt>
      <trkpt lat="48.05082" lon="7.01595">
        <ele>1237.1999511719</ele>
        <time>2022-10-09T09:48:46.000Z</time>
      </trkpt>
      <trkpt lat="48.0508" lon="7.01595">
        <ele>1237.1999511719</ele>
        <time>2022-10-09T09:48:48.000Z</time>
      </trkpt>
      <trkpt lat="48.05076" lon="7.01593">
        <ele>1237.4000244141</ele>
        <time>2022-10-09T09:48:51.000Z</time>
      </trkpt>
      <trkpt lat="48.05073" lon="7.01591">
        <ele>1237.8000488281</ele>
        <time>2022-10-09T09:48:54.000Z</time>
      </trkpt>
      <trkpt lat="48.0507" lon="7.01589">
        <ele>1238.1999511719</ele>
        <time>2022-10-09T09:48:57.000Z</time>
      </trkpt>
      <trkpt lat="48.05068" lon="7.01587">
        <ele>1238.4000244141</ele>
        <time>2022-10-09T09:48:59.000Z</time>
      </trkpt>
      <trkpt lat="48.05065" lon="7.01587">
        <ele>1238.4000244141</ele>
        <time>2022-10-09T09:49:01.000Z</time>
      </trkpt>
      <trkpt lat="48.05059" lon="7.01585">
        <ele>1238.4000244141</ele>
        <time>2022-10-09T09:49:05.000Z</time>
      </trkpt>
      <trkpt lat="48.05058" lon="7.01585">
        <ele>1238.4000244141</ele>
        <time>2022-10-09T09:49:06.000Z</time>
      </trkpt>
      <trkpt lat="48.05054" lon="7.01582">
        <ele>1238.5999755859</ele>
        <time>2022-10-09T09:49:09.000Z</time>
      </trkpt>
      <trkpt lat="48.05051" lon="7.0158">
        <ele>1238.5999755859</ele>
        <time>2022-10-09T09:49:12.000Z</time>
      </trkpt>
      <trkpt lat="48.0505" lon="7.0158">
        <ele>1238.5999755859</ele>
        <time>2022-10-09T09:49:13.000Z</time>
      </trkpt>
      <trkpt lat="48.05047" lon="7.01579">
        <ele>1239</ele>
        <time>2022-10-09T09:49:16.000Z</time>
      </trkpt>
      <trkpt lat="48.05041" lon="7.01576">
        <ele>1239.1999511719</ele>
        <time>2022-10-09T09:49:22.000Z</time>
      </trkpt>
      <trkpt lat="48.0504" lon="7.01576">
        <ele>1239.1999511719</ele>
        <time>2022-10-09T09:49:23.000Z</time>
      </trkpt>
      <trkpt lat="48.05032" lon="7.01572">
        <ele>1240</ele>
        <time>2022-10-09T09:49:30.000Z</time>
      </trkpt>
      <trkpt lat="48.0503" lon="7.01571">
        <ele>1240.1999511719</ele>
        <time>2022-10-09T09:49:32.000Z</time>
      </trkpt>
      <trkpt lat="48.0503" lon="7.01572">
        <ele>1240.5999755859</ele>
        <time>2022-10-09T09:49:35.000Z</time>
      </trkpt>
      <trkpt lat="48.05031" lon="7.01572">
        <ele>1240.5999755859</ele>
        <time>2022-10-09T09:49:36.000Z</time>
      </trkpt>
      <trkpt lat="48.05034" lon="7.01572">
        <ele>1240.5999755859</ele>
        <time>2022-10-09T09:49:38.000Z</time>
      </trkpt>
      <trkpt lat="48.05033" lon="7.01572">
        <ele>1240.5999755859</ele>
        <time>2022-10-09T09:49:39.000Z</time>
      </trkpt>
      <trkpt lat="48.05031" lon="7.01572">
        <ele>1240.4000244141</ele>
        <time>2022-10-09T09:49:41.000Z</time>
      </trkpt>
      <trkpt lat="48.0503" lon="7.01571">
        <ele>1240.4000244141</ele>
        <time>2022-10-09T09:49:42.000Z</time>
      </trkpt>
      <trkpt lat="48.05029" lon="7.01571">
        <ele>1240.5999755859</ele>
        <time>2022-10-09T09:49:43.000Z</time>
      </trkpt>
      <trkpt lat="48.05027" lon="7.01568">
        <ele>1240.5999755859</ele>
        <time>2022-10-09T09:49:47.000Z</time>
      </trkpt>
      <trkpt lat="48.05026" lon="7.01568">
        <ele>1240.5999755859</ele>
        <time>2022-10-09T09:49:48.000Z</time>
      </trkpt>
      <trkpt lat="48.05023" lon="7.01567">
        <ele>1240.5999755859</ele>
        <time>2022-10-09T09:49:50.000Z</time>
      </trkpt>
      <trkpt lat="48.05017" lon="7.01565">
        <ele>1241</ele>
        <time>2022-10-09T09:49:55.000Z</time>
      </trkpt>
      <trkpt lat="48.05015" lon="7.01564">
        <ele>1241.4000244141</ele>
        <time>2022-10-09T09:49:56.000Z</time>
      </trkpt>
      <trkpt lat="48.05014" lon="7.01564">
        <ele>1241.5999755859</ele>
        <time>2022-10-09T09:49:57.000Z</time>
      </trkpt>
      <trkpt lat="48.05013" lon="7.01564">
        <ele>1241.8000488281</ele>
        <time>2022-10-09T09:49:58.000Z</time>
      </trkpt>
      <trkpt lat="48.05009" lon="7.01564">
        <ele>1242.1999511719</ele>
        <time>2022-10-09T09:50:01.000Z</time>
      </trkpt>
      <trkpt lat="48.05008" lon="7.01563">
        <ele>1242.5999755859</ele>
        <time>2022-10-09T09:50:02.000Z</time>
      </trkpt>
      <trkpt lat="48.05003" lon="7.01562">
        <ele>1243.4000244141</ele>
        <time>2022-10-09T09:50:06.000Z</time>
      </trkpt>
      <trkpt lat="48.05002" lon="7.01562">
        <ele>1243.8000488281</ele>
        <time>2022-10-09T09:50:07.000Z</time>
      </trkpt>
      <trkpt lat="48.05002" lon="7.01562">
        <ele>1244</ele>
        <time>2022-10-09T09:50:09.000Z</time>
      </trkpt>
      <trkpt lat="48.05" lon="7.01562">
        <ele>1244</ele>
        <time>2022-10-09T09:50:11.000Z</time>
      </trkpt>
      <trkpt lat="48.04995" lon="7.01561">
        <ele>1244</ele>
        <time>2022-10-09T09:50:14.000Z</time>
      </trkpt>
      <trkpt lat="48.04993" lon="7.0156">
        <ele>1244</ele>
        <time>2022-10-09T09:50:16.000Z</time>
      </trkpt>
      <trkpt lat="48.04983" lon="7.01557">
        <ele>1244.4000244141</ele>
        <time>2022-10-09T09:50:22.000Z</time>
      </trkpt>
      <trkpt lat="48.04982" lon="7.01555">
        <ele>1244.5999755859</ele>
        <time>2022-10-09T09:50:24.000Z</time>
      </trkpt>
      <trkpt lat="48.04978" lon="7.0155">
        <ele>1244.5999755859</ele>
        <time>2022-10-09T09:50:28.000Z</time>
      </trkpt>
      <trkpt lat="48.04977" lon="7.01549">
        <ele>1244.8000488281</ele>
        <time>2022-10-09T09:50:30.000Z</time>
      </trkpt>
      <trkpt lat="48.04976" lon="7.01549">
        <ele>1244.8000488281</ele>
        <time>2022-10-09T09:50:32.000Z</time>
      </trkpt>
      <trkpt lat="48.04977" lon="7.01549">
        <ele>1244.8000488281</ele>
        <time>2022-10-09T09:50:34.000Z</time>
      </trkpt>
      <trkpt lat="48.04977" lon="7.01549">
        <ele>1244.8000488281</ele>
        <time>2022-10-09T09:50:35.000Z</time>
      </trkpt>
      <trkpt lat="48.04974" lon="7.01548">
        <ele>1244.8000488281</ele>
        <time>2022-10-09T09:50:40.000Z</time>
      </trkpt>
      <trkpt lat="48.04972" lon="7.01547">
        <ele>1245</ele>
        <time>2022-10-09T09:50:42.000Z</time>
      </trkpt>
      <trkpt lat="48.04969" lon="7.01546">
        <ele>1245.1999511719</ele>
        <time>2022-10-09T09:50:46.000Z</time>
      </trkpt>
      <trkpt lat="48.04964" lon="7.01545">
        <ele>1245.5999755859</ele>
        <time>2022-10-09T09:50:51.000Z</time>
      </trkpt>
      <trkpt lat="48.04961" lon="7.01544">
        <ele>1245.8000488281</ele>
        <time>2022-10-09T09:50:56.000Z</time>
      </trkpt>
      <trkpt lat="48.04959" lon="7.01543">
        <ele>1246</ele>
        <time>2022-10-09T09:50:58.000Z</time>
      </trkpt>
      <trkpt lat="48.04957" lon="7.01543">
        <ele>1246</ele>
        <time>2022-10-09T09:51:00.000Z</time>
      </trkpt>
      <trkpt lat="48.04955" lon="7.01544">
        <ele>1246.1999511719</ele>
        <time>2022-10-09T09:51:01.000Z</time>
      </trkpt>
      <trkpt lat="48.04951" lon="7.01539">
        <ele>1246.5999755859</ele>
        <time>2022-10-09T09:51:05.000Z</time>
      </trkpt>
      <trkpt lat="48.04945" lon="7.01535">
        <ele>1246.8000488281</ele>
        <time>2022-10-09T09:51:12.000Z</time>
      </trkpt>
      <trkpt lat="48.04941" lon="7.0153">
        <ele>1246.5999755859</ele>
        <time>2022-10-09T09:51:18.000Z</time>
      </trkpt>
      <trkpt lat="48.04936" lon="7.01527">
        <ele>1246.4000244141</ele>
        <time>2022-10-09T09:51:25.000Z</time>
      </trkpt>
      <trkpt lat="48.04933" lon="7.01526">
        <ele>1246.8000488281</ele>
        <time>2022-10-09T09:51:28.000Z</time>
      </trkpt>
      <trkpt lat="48.0493" lon="7.01524">
        <ele>1247.8000488281</ele>
        <time>2022-10-09T09:51:31.000Z</time>
      </trkpt>
      <trkpt lat="48.04928" lon="7.01522">
        <ele>1248.4000244141</ele>
        <time>2022-10-09T09:51:33.000Z</time>
      </trkpt>
      <trkpt lat="48.04925" lon="7.01519">
        <ele>1248.8000488281</ele>
        <time>2022-10-09T09:51:37.000Z</time>
      </trkpt>
      <trkpt lat="48.04924" lon="7.01518">
        <ele>1249</ele>
        <time>2022-10-09T09:51:39.000Z</time>
      </trkpt>
      <trkpt lat="48.04922" lon="7.01517">
        <ele>1249.1999511719</ele>
        <time>2022-10-09T09:51:41.000Z</time>
      </trkpt>
      <trkpt lat="48.04921" lon="7.01516">
        <ele>1249.4000244141</ele>
        <time>2022-10-09T09:51:42.000Z</time>
      </trkpt>
      <trkpt lat="48.04915" lon="7.01512">
        <ele>1249.5999755859</ele>
        <time>2022-10-09T09:51:49.000Z</time>
      </trkpt>
      <trkpt lat="48.0491" lon="7.01509">
        <ele>1250</ele>
        <time>2022-10-09T09:51:54.000Z</time>
      </trkpt>
      <trkpt lat="48.04908" lon="7.01508">
        <ele>1250.4000244141</ele>
        <time>2022-10-09T09:51:57.000Z</time>
      </trkpt>
      <trkpt lat="48.04904" lon="7.01507">
        <ele>1251</ele>
        <time>2022-10-09T09:52:01.000Z</time>
      </trkpt>
      <trkpt lat="48.04901" lon="7.01504">
        <ele>1251.5999755859</ele>
        <time>2022-10-09T09:52:05.000Z</time>
      </trkpt>
      <trkpt lat="48.04899" lon="7.01504">
        <ele>1252.1999511719</ele>
        <time>2022-10-09T09:52:07.000Z</time>
      </trkpt>
      <trkpt lat="48.04898" lon="7.01503">
        <ele>1252.1999511719</ele>
        <time>2022-10-09T09:52:08.000Z</time>
      </trkpt>
      <trkpt lat="48.04898" lon="7.01501">
        <ele>1252.8000488281</ele>
        <time>2022-10-09T09:52:12.000Z</time>
      </trkpt>
      <trkpt lat="48.04892" lon="7.01498">
        <ele>1253.1999511719</ele>
        <time>2022-10-09T09:52:19.000Z</time>
      </trkpt>
      <trkpt lat="48.04884" lon="7.01492">
        <ele>1254</ele>
        <time>2022-10-09T09:52:27.000Z</time>
      </trkpt>
      <trkpt lat="48.04884" lon="7.01492">
        <ele>1254.4000244141</ele>
        <time>2022-10-09T09:52:28.000Z</time>
      </trkpt>
      <trkpt lat="48.0488" lon="7.01488">
        <ele>1255.5999755859</ele>
        <time>2022-10-09T09:52:33.000Z</time>
      </trkpt>
      <trkpt lat="48.04878" lon="7.01484">
        <ele>1256</ele>
        <time>2022-10-09T09:52:37.000Z</time>
      </trkpt>
      <trkpt lat="48.04875" lon="7.01482">
        <ele>1256.5999755859</ele>
        <time>2022-10-09T09:52:41.000Z</time>
      </trkpt>
      <trkpt lat="48.0487" lon="7.01482">
        <ele>1257.8000488281</ele>
        <time>2022-10-09T09:52:47.000Z</time>
      </trkpt>
      <trkpt lat="48.04864" lon="7.01478">
        <ele>1258.1999511719</ele>
        <time>2022-10-09T09:52:55.000Z</time>
      </trkpt>
      <trkpt lat="48.04858" lon="7.01474">
        <ele>1258.8000488281</ele>
        <time>2022-10-09T09:53:01.000Z</time>
      </trkpt>
      <trkpt lat="48.04855" lon="7.01472">
        <ele>1259.4000244141</ele>
        <time>2022-10-09T09:53:04.000Z</time>
      </trkpt>
      <trkpt lat="48.04852" lon="7.0147">
        <ele>1259.8000488281</ele>
        <time>2022-10-09T09:53:08.000Z</time>
      </trkpt>
      <trkpt lat="48.04851" lon="7.01469">
        <ele>1259.8000488281</ele>
        <time>2022-10-09T09:53:09.000Z</time>
      </trkpt>
      <trkpt lat="48.04852" lon="7.01468">
        <ele>1259.8000488281</ele>
        <time>2022-10-09T09:53:12.000Z</time>
      </trkpt>
      <trkpt lat="48.04851" lon="7.01464">
        <ele>1259.8000488281</ele>
        <time>2022-10-09T09:53:16.000Z</time>
      </trkpt>
      <trkpt lat="48.04853" lon="7.01459">
        <ele>1260.1999511719</ele>
        <time>2022-10-09T09:53:25.000Z</time>
      </trkpt>
      <trkpt lat="48.04851" lon="7.01462">
        <ele>1260</ele>
        <time>2022-10-09T09:53:33.000Z</time>
      </trkpt>
      <trkpt lat="48.04846" lon="7.01465">
        <ele>1260.4000244141</ele>
        <time>2022-10-09T09:53:37.000Z</time>
      </trkpt>
      <trkpt lat="48.04845" lon="7.01464">
        <ele>1261</ele>
        <time>2022-10-09T09:53:40.000Z</time>
      </trkpt>
      <trkpt lat="48.04843" lon="7.01464">
        <ele>1261.1999511719</ele>
        <time>2022-10-09T09:53:42.000Z</time>
      </trkpt>
      <trkpt lat="48.04839" lon="7.01462">
        <ele>1261.8000488281</ele>
        <time>2022-10-09T09:53:48.000Z</time>
      </trkpt>
      <trkpt lat="48.04836" lon="7.0146">
        <ele>1262</ele>
        <time>2022-10-09T09:53:51.000Z</time>
      </trkpt>
      <trkpt lat="48.04831" lon="7.01454">
        <ele>1262.4000244141</ele>
        <time>2022-10-09T09:53:57.000Z</time>
      </trkpt>
      <trkpt lat="48.04826" lon="7.01453">
        <ele>1262.5999755859</ele>
        <time>2022-10-09T09:54:04.000Z</time>
      </trkpt>
      <trkpt lat="48.04825" lon="7.01454">
        <ele>1262.8000488281</ele>
        <time>2022-10-09T09:54:06.000Z</time>
      </trkpt>
      <trkpt lat="48.04824" lon="7.01455">
        <ele>1263.1999511719</ele>
        <time>2022-10-09T09:54:08.000Z</time>
      </trkpt>
      <trkpt lat="48.04821" lon="7.01455">
        <ele>1263.5999755859</ele>
        <time>2022-10-09T09:54:12.000Z</time>
      </trkpt>
      <trkpt lat="48.04819" lon="7.01455">
        <ele>1263.8000488281</ele>
        <time>2022-10-09T09:54:15.000Z</time>
      </trkpt>
      <trkpt lat="48.04818" lon="7.01455">
        <ele>1263.8000488281</ele>
        <time>2022-10-09T09:54:16.000Z</time>
      </trkpt>
      <trkpt lat="48.04816" lon="7.01454">
        <ele>1264.1999511719</ele>
        <time>2022-10-09T09:54:20.000Z</time>
      </trkpt>
      <trkpt lat="48.0481" lon="7.01452">
        <ele>1264.8000488281</ele>
        <time>2022-10-09T09:54:27.000Z</time>
      </trkpt>
      <trkpt lat="48.04805" lon="7.01451">
        <ele>1265.1999511719</ele>
        <time>2022-10-09T09:54:32.000Z</time>
      </trkpt>
      <trkpt lat="48.048" lon="7.01451">
        <ele>1266</ele>
        <time>2022-10-09T09:54:37.000Z</time>
      </trkpt>
      <trkpt lat="48.04797" lon="7.0145">
        <ele>1266.4000244141</ele>
        <time>2022-10-09T09:54:39.000Z</time>
      </trkpt>
      <trkpt lat="48.04795" lon="7.01451">
        <ele>1266.5999755859</ele>
        <time>2022-10-09T09:54:41.000Z</time>
      </trkpt>
      <trkpt lat="48.04796" lon="7.0145">
        <ele>1266.8000488281</ele>
        <time>2022-10-09T09:54:43.000Z</time>
      </trkpt>
      <trkpt lat="48.04797" lon="7.0145">
        <ele>1267</ele>
        <time>2022-10-09T09:54:44.000Z</time>
      </trkpt>
      <trkpt lat="48.04798" lon="7.01449">
        <ele>1267.4000244141</ele>
        <time>2022-10-09T09:54:47.000Z</time>
      </trkpt>
      <trkpt lat="48.048" lon="7.01447">
        <ele>1267.5999755859</ele>
        <time>2022-10-09T09:54:51.000Z</time>
      </trkpt>
      <trkpt lat="48.048" lon="7.01447">
        <ele>1266.5999755859</ele>
        <time>2022-10-09T09:55:06.000Z</time>
      </trkpt>
      <trkpt lat="48.04801" lon="7.01446">
        <ele>1267</ele>
        <time>2022-10-09T09:55:13.000Z</time>
      </trkpt>
      <trkpt lat="48.04801" lon="7.01446">
        <ele>1267</ele>
        <time>2022-10-09T09:55:18.000Z</time>
      </trkpt>
      <trkpt lat="48.04797" lon="7.01448">
        <ele>1266.4000244141</ele>
        <time>2022-10-09T09:55:27.000Z</time>
      </trkpt>
      <trkpt lat="48.04786" lon="7.01457">
        <ele>1267.5999755859</ele>
        <time>2022-10-09T09:55:36.000Z</time>
      </trkpt>
      <trkpt lat="48.04779" lon="7.01465">
        <ele>1268</ele>
        <time>2022-10-09T09:55:44.000Z</time>
      </trkpt>
      <trkpt lat="48.04774" lon="7.01469">
        <ele>1268.5999755859</ele>
        <time>2022-10-09T09:55:49.000Z</time>
      </trkpt>
      <trkpt lat="48.04771" lon="7.01472">
        <ele>1269.4000244141</ele>
        <time>2022-10-09T09:55:52.000Z</time>
      </trkpt>
      <trkpt lat="48.0477" lon="7.01474">
        <ele>1269.8000488281</ele>
        <time>2022-10-09T09:55:53.000Z</time>
      </trkpt>
      <trkpt lat="48.04763" lon="7.01481">
        <ele>1270.5999755859</ele>
        <time>2022-10-09T09:56:00.000Z</time>
      </trkpt>
      <trkpt lat="48.04761" lon="7.01484">
        <ele>1270.8000488281</ele>
        <time>2022-10-09T09:56:03.000Z</time>
      </trkpt>
      <trkpt lat="48.04756" lon="7.01489">
        <ele>1270.8000488281</ele>
        <time>2022-10-09T09:56:10.000Z</time>
      </trkpt>
      <trkpt lat="48.04752" lon="7.01493">
        <ele>1271.1999511719</ele>
        <time>2022-10-09T09:56:14.000Z</time>
      </trkpt>
      <trkpt lat="48.04749" lon="7.01493">
        <ele>1271.4000244141</ele>
        <time>2022-10-09T09:56:17.000Z</time>
      </trkpt>
      <trkpt lat="48.04747" lon="7.01493">
        <ele>1271.5999755859</ele>
        <time>2022-10-09T09:56:19.000Z</time>
      </trkpt>
      <trkpt lat="48.04745" lon="7.01493">
        <ele>1271.5999755859</ele>
        <time>2022-10-09T09:56:21.000Z</time>
      </trkpt>
      <trkpt lat="48.04743" lon="7.01492">
        <ele>1272</ele>
        <time>2022-10-09T09:56:23.000Z</time>
      </trkpt>
      <trkpt lat="48.04731" lon="7.01489">
        <ele>1271.8000488281</ele>
        <time>2022-10-09T09:56:33.000Z</time>
      </trkpt>
      <trkpt lat="48.04725" lon="7.01484">
        <ele>1272.8000488281</ele>
        <time>2022-10-09T09:56:40.000Z</time>
      </trkpt>
      <trkpt lat="48.04724" lon="7.01483">
        <ele>1273</ele>
        <time>2022-10-09T09:56:41.000Z</time>
      </trkpt>
      <trkpt lat="48.04723" lon="7.01481">
        <ele>1273.1999511719</ele>
        <time>2022-10-09T09:56:42.000Z</time>
      </trkpt>
      <trkpt lat="48.04717" lon="7.01472">
        <ele>1274</ele>
        <time>2022-10-09T09:56:50.000Z</time>
      </trkpt>
      <trkpt lat="48.04716" lon="7.01471">
        <ele>1274.1999511719</ele>
        <time>2022-10-09T09:56:51.000Z</time>
      </trkpt>
      <trkpt lat="48.04714" lon="7.01468">
        <ele>1273.5999755859</ele>
        <time>2022-10-09T09:56:54.000Z</time>
      </trkpt>
      <trkpt lat="48.04707" lon="7.01459">
        <ele>1273.5999755859</ele>
        <time>2022-10-09T09:57:03.000Z</time>
      </trkpt>
      <trkpt lat="48.04707" lon="7.01459">
        <ele>1273</ele>
        <time>2022-10-09T09:57:06.000Z</time>
      </trkpt>
      <trkpt lat="48.04707" lon="7.01459">
        <ele>1272.8000488281</ele>
        <time>2022-10-09T09:57:08.000Z</time>
      </trkpt>
      <trkpt lat="48.04707" lon="7.01459">
        <ele>1272.5999755859</ele>
        <time>2022-10-09T09:57:09.000Z</time>
      </trkpt>
      <trkpt lat="48.04707" lon="7.01459">
        <ele>1273.1999511719</ele>
        <time>2022-10-09T09:57:15.000Z</time>
      </trkpt>
      <trkpt lat="48.04707" lon="7.01459">
        <ele>1275.4000244141</ele>
        <time>2022-10-09T09:57:25.000Z</time>
      </trkpt>
      <trkpt lat="48.04705" lon="7.01455">
        <ele>1275.5999755859</ele>
        <time>2022-10-09T09:57:36.000Z</time>
      </trkpt>
      <trkpt lat="48.04704" lon="7.01452">
        <ele>1275.8000488281</ele>
        <time>2022-10-09T09:57:38.000Z</time>
      </trkpt>
      <trkpt lat="48.04703" lon="7.0145">
        <ele>1275.8000488281</ele>
        <time>2022-10-09T09:57:39.000Z</time>
      </trkpt>
      <trkpt lat="48.04699" lon="7.01441">
        <ele>1275.8000488281</ele>
        <time>2022-10-09T09:57:45.000Z</time>
      </trkpt>
      <trkpt lat="48.04698" lon="7.01438">
        <ele>1276</ele>
        <time>2022-10-09T09:57:47.000Z</time>
      </trkpt>
      <trkpt lat="48.04697" lon="7.01435">
        <ele>1276</ele>
        <time>2022-10-09T09:57:49.000Z</time>
      </trkpt>
      <trkpt lat="48.04692" lon="7.01426">
        <ele>1275.8000488281</ele>
        <time>2022-10-09T09:57:55.000Z</time>
      </trkpt>
      <trkpt lat="48.04691" lon="7.01422">
        <ele>1275.8000488281</ele>
        <time>2022-10-09T09:57:58.000Z</time>
      </trkpt>
      <trkpt lat="48.04689" lon="7.0142">
        <ele>1275.8000488281</ele>
        <time>2022-10-09T09:57:59.000Z</time>
      </trkpt>
      <trkpt lat="48.04687" lon="7.01416">
        <ele>1275.8000488281</ele>
        <time>2022-10-09T09:58:02.000Z</time>
      </trkpt>
      <trkpt lat="48.04684" lon="7.01407">
        <ele>1276</ele>
        <time>2022-10-09T09:58:09.000Z</time>
      </trkpt>
      <trkpt lat="48.04678" lon="7.014">
        <ele>1275.5999755859</ele>
        <time>2022-10-09T09:58:15.000Z</time>
      </trkpt>
      <trkpt lat="48.04673" lon="7.01394">
        <ele>1276.4000244141</ele>
        <time>2022-10-09T09:58:20.000Z</time>
      </trkpt>
      <trkpt lat="48.04672" lon="7.01393">
        <ele>1276.4000244141</ele>
        <time>2022-10-09T09:58:21.000Z</time>
      </trkpt>
      <trkpt lat="48.04663" lon="7.01385">
        <ele>1276.5999755859</ele>
        <time>2022-10-09T09:58:30.000Z</time>
      </trkpt>
      <trkpt lat="48.04662" lon="7.01384">
        <ele>1276.4000244141</ele>
        <time>2022-10-09T09:58:31.000Z</time>
      </trkpt>
      <trkpt lat="48.04651" lon="7.01377">
        <ele>1276.1999511719</ele>
        <time>2022-10-09T09:58:42.000Z</time>
      </trkpt>
      <trkpt lat="48.04642" lon="7.01371">
        <ele>1277</ele>
        <time>2022-10-09T09:58:51.000Z</time>
      </trkpt>
      <trkpt lat="48.04641" lon="7.0137">
        <ele>1277.1999511719</ele>
        <time>2022-10-09T09:58:52.000Z</time>
      </trkpt>
      <trkpt lat="48.04639" lon="7.01369">
        <ele>1277.4000244141</ele>
        <time>2022-10-09T09:58:57.000Z</time>
      </trkpt>
      <trkpt lat="48.04634" lon="7.01368">
        <ele>1277.1999511719</ele>
        <time>2022-10-09T09:59:03.000Z</time>
      </trkpt>
      <trkpt lat="48.04627" lon="7.01363">
        <ele>1276.1999511719</ele>
        <time>2022-10-09T09:59:11.000Z</time>
      </trkpt>
      <trkpt lat="48.0462" lon="7.01361">
        <ele>1276.5999755859</ele>
        <time>2022-10-09T09:59:18.000Z</time>
      </trkpt>
      <trkpt lat="48.04615" lon="7.01357">
        <ele>1277.5999755859</ele>
        <time>2022-10-09T09:59:23.000Z</time>
      </trkpt>
      <trkpt lat="48.04614" lon="7.01357">
        <ele>1279</ele>
        <time>2022-10-09T09:59:25.000Z</time>
      </trkpt>
      <trkpt lat="48.04614" lon="7.01356">
        <ele>1279.1999511719</ele>
        <time>2022-10-09T09:59:26.000Z</time>
      </trkpt>
      <trkpt lat="48.04616" lon="7.01357">
        <ele>1279</ele>
        <time>2022-10-09T09:59:36.000Z</time>
      </trkpt>
      <trkpt lat="48.04616" lon="7.01357">
        <ele>1278.1999511719</ele>
        <time>2022-10-09T09:59:38.000Z</time>
      </trkpt>
      <trkpt lat="48.04616" lon="7.01357">
        <ele>1278.4000244141</ele>
        <time>2022-10-09T09:59:47.000Z</time>
      </trkpt>
      <trkpt lat="48.04616" lon="7.01357">
        <ele>1279</ele>
        <time>2022-10-09T09:59:48.000Z</time>
      </trkpt>
      <trkpt lat="48.04616" lon="7.01357">
        <ele>1280.1999511719</ele>
        <time>2022-10-09T09:59:51.000Z</time>
      </trkpt>
      <trkpt lat="48.04613" lon="7.01355">
        <ele>1280.1999511719</ele>
        <time>2022-10-09T09:59:53.000Z</time>
      </trkpt>
      <trkpt lat="48.04606" lon="7.01349">
        <ele>1280.1999511719</ele>
        <time>2022-10-09T10:00:00.000Z</time>
      </trkpt>
      <trkpt lat="48.04605" lon="7.01348">
        <ele>1280.1999511719</ele>
        <time>2022-10-09T10:00:01.000Z</time>
      </trkpt>
      <trkpt lat="48.04597" lon="7.01343">
        <ele>1281</ele>
        <time>2022-10-09T10:00:09.000Z</time>
      </trkpt>
      <trkpt lat="48.04589" lon="7.01338">
        <ele>1281.1999511719</ele>
        <time>2022-10-09T10:00:15.000Z</time>
      </trkpt>
      <trkpt lat="48.04583" lon="7.01332">
        <ele>1282</ele>
        <time>2022-10-09T10:00:21.000Z</time>
      </trkpt>
      <trkpt lat="48.04579" lon="7.0133">
        <ele>1282.1999511719</ele>
        <time>2022-10-09T10:00:24.000Z</time>
      </trkpt>
      <trkpt lat="48.04575" lon="7.01323">
        <ele>1282.4000244141</ele>
        <time>2022-10-09T10:00:29.000Z</time>
      </trkpt>
      <trkpt lat="48.04573" lon="7.01321">
        <ele>1282.5999755859</ele>
        <time>2022-10-09T10:00:31.000Z</time>
      </trkpt>
      <trkpt lat="48.04569" lon="7.01322">
        <ele>1282.8000488281</ele>
        <time>2022-10-09T10:00:35.000Z</time>
      </trkpt>
      <trkpt lat="48.04563" lon="7.01318">
        <ele>1283</ele>
        <time>2022-10-09T10:00:41.000Z</time>
      </trkpt>
      <trkpt lat="48.04562" lon="7.01317">
        <ele>1283.1999511719</ele>
        <time>2022-10-09T10:00:42.000Z</time>
      </trkpt>
      <trkpt lat="48.04561" lon="7.01316">
        <ele>1283.4000244141</ele>
        <time>2022-10-09T10:00:43.000Z</time>
      </trkpt>
      <trkpt lat="48.0456" lon="7.01314">
        <ele>1283.8000488281</ele>
        <time>2022-10-09T10:00:45.000Z</time>
      </trkpt>
      <trkpt lat="48.04559" lon="7.01313">
        <ele>1284</ele>
        <time>2022-10-09T10:00:46.000Z</time>
      </trkpt>
      <trkpt lat="48.04558" lon="7.01313">
        <ele>1284</ele>
        <time>2022-10-09T10:00:47.000Z</time>
      </trkpt>
      <trkpt lat="48.04557" lon="7.01312">
        <ele>1284.1999511719</ele>
        <time>2022-10-09T10:00:48.000Z</time>
      </trkpt>
      <trkpt lat="48.04556" lon="7.01312">
        <ele>1284.5999755859</ele>
        <time>2022-10-09T10:00:49.000Z</time>
      </trkpt>
      <trkpt lat="48.04556" lon="7.0131">
        <ele>1285.4000244141</ele>
        <time>2022-10-09T10:00:52.000Z</time>
      </trkpt>
      <trkpt lat="48.04556" lon="7.0131">
        <ele>1285.5999755859</ele>
        <time>2022-10-09T10:00:54.000Z</time>
      </trkpt>
      <trkpt lat="48.04551" lon="7.01305">
        <ele>1285.4000244141</ele>
        <time>2022-10-09T10:01:05.000Z</time>
      </trkpt>
      <trkpt lat="48.04551" lon="7.01305">
        <ele>1285.5999755859</ele>
        <time>2022-10-09T10:01:06.000Z</time>
      </trkpt>
      <trkpt lat="48.04546" lon="7.01301">
        <ele>1286</ele>
        <time>2022-10-09T10:01:11.000Z</time>
      </trkpt>
      <trkpt lat="48.0454" lon="7.01295">
        <ele>1286.8000488281</ele>
        <time>2022-10-09T10:01:18.000Z</time>
      </trkpt>
      <trkpt lat="48.04538" lon="7.01294">
        <ele>1287.1999511719</ele>
        <time>2022-10-09T10:01:21.000Z</time>
      </trkpt>
      <trkpt lat="48.04534" lon="7.01291">
        <ele>1288</ele>
        <time>2022-10-09T10:01:26.000Z</time>
      </trkpt>
      <trkpt lat="48.04533" lon="7.0129">
        <ele>1288.4000244141</ele>
        <time>2022-10-09T10:01:28.000Z</time>
      </trkpt>
      <trkpt lat="48.04532" lon="7.01289">
        <ele>1288.4000244141</ele>
        <time>2022-10-09T10:01:29.000Z</time>
      </trkpt>
      <trkpt lat="48.0453" lon="7.01288">
        <ele>1288.4000244141</ele>
        <time>2022-10-09T10:01:31.000Z</time>
      </trkpt>
      <trkpt lat="48.04525" lon="7.01288">
        <ele>1286.8000488281</ele>
        <time>2022-10-09T10:01:37.000Z</time>
      </trkpt>
      <trkpt lat="48.04525" lon="7.01288">
        <ele>1286.4000244141</ele>
        <time>2022-10-09T10:01:38.000Z</time>
      </trkpt>
      <trkpt lat="48.04524" lon="7.01288">
        <ele>1286</ele>
        <time>2022-10-09T10:01:44.000Z</time>
      </trkpt>
      <trkpt lat="48.04525" lon="7.01286">
        <ele>1286.1999511719</ele>
        <time>2022-10-09T10:01:50.000Z</time>
      </trkpt>
      <trkpt lat="48.04525" lon="7.01287">
        <ele>1286.8000488281</ele>
        <time>2022-10-09T10:02:01.000Z</time>
      </trkpt>
      <trkpt lat="48.04525" lon="7.01287">
        <ele>1286.5999755859</ele>
        <time>2022-10-09T10:02:06.000Z</time>
      </trkpt>
      <trkpt lat="48.04525" lon="7.01287">
        <ele>1286.5999755859</ele>
        <time>2022-10-09T10:02:07.000Z</time>
      </trkpt>
      <trkpt lat="48.04525" lon="7.01287">
        <ele>1288</ele>
        <time>2022-10-09T10:02:11.000Z</time>
      </trkpt>
      <trkpt lat="48.04525" lon="7.01287">
        <ele>1289.1999511719</ele>
        <time>2022-10-09T10:02:19.000Z</time>
      </trkpt>
      <trkpt lat="48.04524" lon="7.01287">
        <ele>1289.4000244141</ele>
        <time>2022-10-09T10:02:29.000Z</time>
      </trkpt>
      <trkpt lat="48.04524" lon="7.01287">
        <ele>1289.4000244141</ele>
        <time>2022-10-09T10:02:32.000Z</time>
      </trkpt>
      <trkpt lat="48.04523" lon="7.01287">
        <ele>1290.1999511719</ele>
        <time>2022-10-09T10:02:40.000Z</time>
      </trkpt>
      <trkpt lat="48.04523" lon="7.01287">
        <ele>1290.5999755859</ele>
        <time>2022-10-09T10:02:43.000Z</time>
      </trkpt>
      <trkpt lat="48.04523" lon="7.01287">
        <ele>1292.4000244141</ele>
        <time>2022-10-09T10:02:46.000Z</time>
      </trkpt>
      <trkpt lat="48.04521" lon="7.01285">
        <ele>1293.4000244141</ele>
        <time>2022-10-09T10:02:48.000Z</time>
      </trkpt>
      <trkpt lat="48.04519" lon="7.01283">
        <ele>1293.5999755859</ele>
        <time>2022-10-09T10:02:50.000Z</time>
      </trkpt>
      <trkpt lat="48.04508" lon="7.01273">
        <ele>1293</ele>
        <time>2022-10-09T10:02:58.000Z</time>
      </trkpt>
      <trkpt lat="48.04503" lon="7.0127">
        <ele>1292.1999511719</ele>
        <time>2022-10-09T10:03:00.000Z</time>
      </trkpt>
      <trkpt lat="48.04501" lon="7.01268">
        <ele>1291.8000488281</ele>
        <time>2022-10-09T10:03:01.000Z</time>
      </trkpt>
      <trkpt lat="48.04494" lon="7.01264">
        <ele>1291</ele>
        <time>2022-10-09T10:03:04.000Z</time>
      </trkpt>
      <trkpt lat="48.04489" lon="7.0126">
        <ele>1292.1999511719</ele>
        <time>2022-10-09T10:03:07.000Z</time>
      </trkpt>
      <trkpt lat="48.04487" lon="7.01258">
        <ele>1293.1999511719</ele>
        <time>2022-10-09T10:03:09.000Z</time>
      </trkpt>
      <trkpt lat="48.04486" lon="7.01258">
        <ele>1293.8000488281</ele>
        <time>2022-10-09T10:03:10.000Z</time>
      </trkpt>
      <trkpt lat="48.04485" lon="7.01258">
        <ele>1294.1999511719</ele>
        <time>2022-10-09T10:03:11.000Z</time>
      </trkpt>
      <trkpt lat="48.04484" lon="7.01257">
        <ele>1294</ele>
        <time>2022-10-09T10:03:12.000Z</time>
      </trkpt>
      <trkpt lat="48.04479" lon="7.01253">
        <ele>1294.4000244141</ele>
        <time>2022-10-09T10:03:17.000Z</time>
      </trkpt>
      <trkpt lat="48.04478" lon="7.01252">
        <ele>1294.4000244141</ele>
        <time>2022-10-09T10:03:18.000Z</time>
      </trkpt>
      <trkpt lat="48.04477" lon="7.01252">
        <ele>1295</ele>
        <time>2022-10-09T10:03:19.000Z</time>
      </trkpt>
      <trkpt lat="48.04473" lon="7.01249">
        <ele>1295.8000488281</ele>
        <time>2022-10-09T10:03:23.000Z</time>
      </trkpt>
      <trkpt lat="48.04471" lon="7.01247">
        <ele>1296.1999511719</ele>
        <time>2022-10-09T10:03:25.000Z</time>
      </trkpt>
      <trkpt lat="48.04465" lon="7.01242">
        <ele>1296.4000244141</ele>
        <time>2022-10-09T10:03:31.000Z</time>
      </trkpt>
      <trkpt lat="48.0446" lon="7.01239">
        <ele>1296</ele>
        <time>2022-10-09T10:03:37.000Z</time>
      </trkpt>
      <trkpt lat="48.04458" lon="7.01237">
        <ele>1296.5999755859</ele>
        <time>2022-10-09T10:03:41.000Z</time>
      </trkpt>
      <trkpt lat="48.04458" lon="7.01237">
        <ele>1295.1999511719</ele>
        <time>2022-10-09T10:03:43.000Z</time>
      </trkpt>
      <trkpt lat="48.04456" lon="7.01235">
        <ele>1295.8000488281</ele>
        <time>2022-10-09T10:03:52.000Z</time>
      </trkpt>
      <trkpt lat="48.04456" lon="7.01235">
        <ele>1296.1999511719</ele>
        <time>2022-10-09T10:03:53.000Z</time>
      </trkpt>
      <trkpt lat="48.04455" lon="7.01234">
        <ele>1297.8000488281</ele>
        <time>2022-10-09T10:04:06.000Z</time>
      </trkpt>
      <trkpt lat="48.04451" lon="7.0123">
        <ele>1298.8000488281</ele>
        <time>2022-10-09T10:04:09.000Z</time>
      </trkpt>
      <trkpt lat="48.0445" lon="7.01229">
        <ele>1299</ele>
        <time>2022-10-09T10:04:10.000Z</time>
      </trkpt>
      <trkpt lat="48.04448" lon="7.01227">
        <ele>1299.1999511719</ele>
        <time>2022-10-09T10:04:12.000Z</time>
      </trkpt>
      <trkpt lat="48.04447" lon="7.01226">
        <ele>1299.1999511719</ele>
        <time>2022-10-09T10:04:13.000Z</time>
      </trkpt>
      <trkpt lat="48.04446" lon="7.01225">
        <ele>1299</ele>
        <time>2022-10-09T10:04:15.000Z</time>
      </trkpt>
      <trkpt lat="48.04444" lon="7.01226">
        <ele>1299.4000244141</ele>
        <time>2022-10-09T10:04:22.000Z</time>
      </trkpt>
      <trkpt lat="48.04443" lon="7.01226">
        <ele>1300</ele>
        <time>2022-10-09T10:04:23.000Z</time>
      </trkpt>
      <trkpt lat="48.04441" lon="7.01224">
        <ele>1301.1999511719</ele>
        <time>2022-10-09T10:04:25.000Z</time>
      </trkpt>
      <trkpt lat="48.04441" lon="7.01224">
        <ele>1302</ele>
        <time>2022-10-09T10:04:28.000Z</time>
      </trkpt>
      <trkpt lat="48.0444" lon="7.01225">
        <ele>1302.4000244141</ele>
        <time>2022-10-09T10:04:32.000Z</time>
      </trkpt>
      <trkpt lat="48.0444" lon="7.01225">
        <ele>1302.4000244141</ele>
        <time>2022-10-09T10:04:33.000Z</time>
      </trkpt>
      <trkpt lat="48.0444" lon="7.01225">
        <ele>1302</ele>
        <time>2022-10-09T10:04:36.000Z</time>
      </trkpt>
      <trkpt lat="48.04441" lon="7.01224">
        <ele>1301.4000244141</ele>
        <time>2022-10-09T10:04:40.000Z</time>
      </trkpt>
      <trkpt lat="48.04441" lon="7.01224">
        <ele>1301.5999755859</ele>
        <time>2022-10-09T10:04:42.000Z</time>
      </trkpt>
      <trkpt lat="48.04441" lon="7.01224">
        <ele>1301.5999755859</ele>
        <time>2022-10-09T10:04:46.000Z</time>
      </trkpt>
      <trkpt lat="48.04437" lon="7.01217">
        <ele>1302</ele>
        <time>2022-10-09T10:05:04.000Z</time>
      </trkpt>
      <trkpt lat="48.04435" lon="7.01215">
        <ele>1302</ele>
        <time>2022-10-09T10:05:07.000Z</time>
      </trkpt>
      <trkpt lat="48.04432" lon="7.01211">
        <ele>1301.8000488281</ele>
        <time>2022-10-09T10:05:10.000Z</time>
      </trkpt>
      <trkpt lat="48.04423" lon="7.01207">
        <ele>1301.8000488281</ele>
        <time>2022-10-09T10:05:18.000Z</time>
      </trkpt>
      <trkpt lat="48.0442" lon="7.01206">
        <ele>1301.5999755859</ele>
        <time>2022-10-09T10:05:24.000Z</time>
      </trkpt>
      <trkpt lat="48.04416" lon="7.01206">
        <ele>1301.4000244141</ele>
        <time>2022-10-09T10:05:30.000Z</time>
      </trkpt>
      <trkpt lat="48.04415" lon="7.01207">
        <ele>1301.8000488281</ele>
        <time>2022-10-09T10:05:31.000Z</time>
      </trkpt>
      <trkpt lat="48.04407" lon="7.01211">
        <ele>1303</ele>
        <time>2022-10-09T10:05:38.000Z</time>
      </trkpt>
      <trkpt lat="48.04404" lon="7.01212">
        <ele>1302.4000244141</ele>
        <time>2022-10-09T10:05:41.000Z</time>
      </trkpt>
      <trkpt lat="48.04402" lon="7.01212">
        <ele>1301.1999511719</ele>
        <time>2022-10-09T10:05:42.000Z</time>
      </trkpt>
      <trkpt lat="48.044" lon="7.01211">
        <ele>1300</ele>
        <time>2022-10-09T10:05:44.000Z</time>
      </trkpt>
      <trkpt lat="48.04392" lon="7.01209">
        <ele>1299.8000488281</ele>
        <time>2022-10-09T10:05:51.000Z</time>
      </trkpt>
      <trkpt lat="48.04383" lon="7.01204">
        <ele>1299</ele>
        <time>2022-10-09T10:05:59.000Z</time>
      </trkpt>
      <trkpt lat="48.04374" lon="7.012">
        <ele>1298</ele>
        <time>2022-10-09T10:06:08.000Z</time>
      </trkpt>
      <trkpt lat="48.04373" lon="7.01199">
        <ele>1297.8000488281</ele>
        <time>2022-10-09T10:06:09.000Z</time>
      </trkpt>
      <trkpt lat="48.04363" lon="7.01196">
        <ele>1297.5999755859</ele>
        <time>2022-10-09T10:06:18.000Z</time>
      </trkpt>
      <trkpt lat="48.04362" lon="7.01196">
        <ele>1297.5999755859</ele>
        <time>2022-10-09T10:06:20.000Z</time>
      </trkpt>
      <trkpt lat="48.04362" lon="7.01196">
        <ele>1297.5999755859</ele>
        <time>2022-10-09T10:06:21.000Z</time>
      </trkpt>
      <trkpt lat="48.04359" lon="7.01196">
        <ele>1297.5999755859</ele>
        <time>2022-10-09T10:06:23.000Z</time>
      </trkpt>
      <trkpt lat="48.04358" lon="7.01195">
        <ele>1297.5999755859</ele>
        <time>2022-10-09T10:06:24.000Z</time>
      </trkpt>
      <trkpt lat="48.04353" lon="7.01195">
        <ele>1296.5999755859</ele>
        <time>2022-10-09T10:06:28.000Z</time>
      </trkpt>
      <trkpt lat="48.0435" lon="7.01196">
        <ele>1295.1999511719</ele>
        <time>2022-10-09T10:06:31.000Z</time>
      </trkpt>
      <trkpt lat="48.04345" lon="7.01196">
        <ele>1294.8000488281</ele>
        <time>2022-10-09T10:06:35.000Z</time>
      </trkpt>
      <trkpt lat="48.04342" lon="7.01195">
        <ele>1295.4000244141</ele>
        <time>2022-10-09T10:06:38.000Z</time>
      </trkpt>
      <trkpt lat="48.04342" lon="7.01195">
        <ele>1297.1999511719</ele>
        <time>2022-10-09T10:06:39.000Z</time>
      </trkpt>
      <trkpt lat="48.04341" lon="7.01194">
        <ele>1298.1999511719</ele>
        <time>2022-10-09T10:06:40.000Z</time>
      </trkpt>
      <trkpt lat="48.04342" lon="7.01194">
        <ele>1299.4000244141</ele>
        <time>2022-10-09T10:06:42.000Z</time>
      </trkpt>
      <trkpt lat="48.04341" lon="7.01194">
        <ele>1299.8000488281</ele>
        <time>2022-10-09T10:06:45.000Z</time>
      </trkpt>
      <trkpt lat="48.0434" lon="7.01195">
        <ele>1298</ele>
        <time>2022-10-09T10:06:47.000Z</time>
      </trkpt>
      <trkpt lat="48.04337" lon="7.01194">
        <ele>1296.5999755859</ele>
        <time>2022-10-09T10:06:49.000Z</time>
      </trkpt>
      <trkpt lat="48.04336" lon="7.01194">
        <ele>1295.8000488281</ele>
        <time>2022-10-09T10:06:50.000Z</time>
      </trkpt>
      <trkpt lat="48.04331" lon="7.01195">
        <ele>1297.8000488281</ele>
        <time>2022-10-09T10:06:54.000Z</time>
      </trkpt>
      <trkpt lat="48.04328" lon="7.01194">
        <ele>1298.4000244141</ele>
        <time>2022-10-09T10:06:57.000Z</time>
      </trkpt>
      <trkpt lat="48.04327" lon="7.01194">
        <ele>1298.8000488281</ele>
        <time>2022-10-09T10:06:58.000Z</time>
      </trkpt>
      <trkpt lat="48.04323" lon="7.01193">
        <ele>1300</ele>
        <time>2022-10-09T10:07:01.000Z</time>
      </trkpt>
      <trkpt lat="48.04318" lon="7.01191">
        <ele>1301.1999511719</ele>
        <time>2022-10-09T10:07:06.000Z</time>
      </trkpt>
      <trkpt lat="48.04317" lon="7.0119">
        <ele>1302.4000244141</ele>
        <time>2022-10-09T10:07:07.000Z</time>
      </trkpt>
      <trkpt lat="48.04314" lon="7.01188">
        <ele>1303.5999755859</ele>
        <time>2022-10-09T10:07:09.000Z</time>
      </trkpt>
      <trkpt lat="48.04308" lon="7.01182">
        <ele>1303.5999755859</ele>
        <time>2022-10-09T10:07:16.000Z</time>
      </trkpt>
      <trkpt lat="48.04303" lon="7.01177">
        <ele>1303</ele>
        <time>2022-10-09T10:07:21.000Z</time>
      </trkpt>
      <trkpt lat="48.043" lon="7.01174">
        <ele>1302.8000488281</ele>
        <time>2022-10-09T10:07:24.000Z</time>
      </trkpt>
      <trkpt lat="48.04291" lon="7.01171">
        <ele>1303.8000488281</ele>
        <time>2022-10-09T10:07:33.000Z</time>
      </trkpt>
      <trkpt lat="48.04287" lon="7.01169">
        <ele>1305</ele>
        <time>2022-10-09T10:07:37.000Z</time>
      </trkpt>
      <trkpt lat="48.04285" lon="7.01167">
        <ele>1306</ele>
        <time>2022-10-09T10:07:39.000Z</time>
      </trkpt>
      <trkpt lat="48.04282" lon="7.01166">
        <ele>1306.4000244141</ele>
        <time>2022-10-09T10:07:41.000Z</time>
      </trkpt>
      <trkpt lat="48.04281" lon="7.01165">
        <ele>1306.1999511719</ele>
        <time>2022-10-09T10:07:42.000Z</time>
      </trkpt>
      <trkpt lat="48.0428" lon="7.01164">
        <ele>1306.1999511719</ele>
        <time>2022-10-09T10:07:43.000Z</time>
      </trkpt>
      <trkpt lat="48.04274" lon="7.01158">
        <ele>1305</ele>
        <time>2022-10-09T10:07:49.000Z</time>
      </trkpt>
      <trkpt lat="48.0427" lon="7.01156">
        <ele>1304</ele>
        <time>2022-10-09T10:07:54.000Z</time>
      </trkpt>
      <trkpt lat="48.0427" lon="7.01156">
        <ele>1303.4000244141</ele>
        <time>2022-10-09T10:07:55.000Z</time>
      </trkpt>
      <trkpt lat="48.04269" lon="7.01158">
        <ele>1304.5999755859</ele>
        <time>2022-10-09T10:08:01.000Z</time>
      </trkpt>
      <trkpt lat="48.0427" lon="7.01158">
        <ele>1304.8000488281</ele>
        <time>2022-10-09T10:08:02.000Z</time>
      </trkpt>
      <trkpt lat="48.04269" lon="7.01157">
        <ele>1305.5999755859</ele>
        <time>2022-10-09T10:08:05.000Z</time>
      </trkpt>
      <trkpt lat="48.04267" lon="7.01156">
        <ele>1304.5999755859</ele>
        <time>2022-10-09T10:08:08.000Z</time>
      </trkpt>
      <trkpt lat="48.04265" lon="7.01154">
        <ele>1304.4000244141</ele>
        <time>2022-10-09T10:08:11.000Z</time>
      </trkpt>
      <trkpt lat="48.0426" lon="7.01152">
        <ele>1302.4000244141</ele>
        <time>2022-10-09T10:08:17.000Z</time>
      </trkpt>
      <trkpt lat="48.04259" lon="7.01152">
        <ele>1301.4000244141</ele>
        <time>2022-10-09T10:08:19.000Z</time>
      </trkpt>
      <trkpt lat="48.04259" lon="7.01151">
        <ele>1301.1999511719</ele>
        <time>2022-10-09T10:08:20.000Z</time>
      </trkpt>
      <trkpt lat="48.04255" lon="7.0115">
        <ele>1302.5999755859</ele>
        <time>2022-10-09T10:08:24.000Z</time>
      </trkpt>
      <trkpt lat="48.04254" lon="7.0115">
        <ele>1303.1999511719</ele>
        <time>2022-10-09T10:08:25.000Z</time>
      </trkpt>
      <trkpt lat="48.04251" lon="7.01149">
        <ele>1303.4000244141</ele>
        <time>2022-10-09T10:08:28.000Z</time>
      </trkpt>
      <trkpt lat="48.04249" lon="7.01147">
        <ele>1301.5999755859</ele>
        <time>2022-10-09T10:08:31.000Z</time>
      </trkpt>
      <trkpt lat="48.04245" lon="7.01146">
        <ele>1300.8000488281</ele>
        <time>2022-10-09T10:08:36.000Z</time>
      </trkpt>
      <trkpt lat="48.04241" lon="7.01144">
        <ele>1300.5999755859</ele>
        <time>2022-10-09T10:08:40.000Z</time>
      </trkpt>
      <trkpt lat="48.0424" lon="7.01144">
        <ele>1300.4000244141</ele>
        <time>2022-10-09T10:08:41.000Z</time>
      </trkpt>
      <trkpt lat="48.04236" lon="7.01142">
        <ele>1299.4000244141</ele>
        <time>2022-10-09T10:08:45.000Z</time>
      </trkpt>
      <trkpt lat="48.04235" lon="7.01141">
        <ele>1299.1999511719</ele>
        <time>2022-10-09T10:08:46.000Z</time>
      </trkpt>
      <trkpt lat="48.0423" lon="7.01136">
        <ele>1299.1999511719</ele>
        <time>2022-10-09T10:08:52.000Z</time>
      </trkpt>
      <trkpt lat="48.04226" lon="7.01135">
        <ele>1299.1999511719</ele>
        <time>2022-10-09T10:08:56.000Z</time>
      </trkpt>
      <trkpt lat="48.04223" lon="7.01132">
        <ele>1298</ele>
        <time>2022-10-09T10:08:59.000Z</time>
      </trkpt>
      <trkpt lat="48.04219" lon="7.0113">
        <ele>1296.8000488281</ele>
        <time>2022-10-09T10:09:03.000Z</time>
      </trkpt>
      <trkpt lat="48.04216" lon="7.01128">
        <ele>1296.5999755859</ele>
        <time>2022-10-09T10:09:06.000Z</time>
      </trkpt>
      <trkpt lat="48.04211" lon="7.01126">
        <ele>1296.5999755859</ele>
        <time>2022-10-09T10:09:11.000Z</time>
      </trkpt>
      <trkpt lat="48.0421" lon="7.01126">
        <ele>1296.5999755859</ele>
        <time>2022-10-09T10:09:12.000Z</time>
      </trkpt>
      <trkpt lat="48.04205" lon="7.01124">
        <ele>1295.8000488281</ele>
        <time>2022-10-09T10:09:16.000Z</time>
      </trkpt>
      <trkpt lat="48.04202" lon="7.01122">
        <ele>1295</ele>
        <time>2022-10-09T10:09:19.000Z</time>
      </trkpt>
      <trkpt lat="48.04192" lon="7.01116">
        <ele>1295.1999511719</ele>
        <time>2022-10-09T10:09:28.000Z</time>
      </trkpt>
      <trkpt lat="48.04193" lon="7.01116">
        <ele>1294.8000488281</ele>
        <time>2022-10-09T10:09:30.000Z</time>
      </trkpt>
      <trkpt lat="48.04193" lon="7.01115">
        <ele>1294.5999755859</ele>
        <time>2022-10-09T10:09:31.000Z</time>
      </trkpt>
      <trkpt lat="48.04189" lon="7.01114">
        <ele>1293.5999755859</ele>
        <time>2022-10-09T10:09:38.000Z</time>
      </trkpt>
      <trkpt lat="48.04183" lon="7.01111">
        <ele>1293.4000244141</ele>
        <time>2022-10-09T10:09:43.000Z</time>
      </trkpt>
      <trkpt lat="48.04177" lon="7.0111">
        <ele>1293.1999511719</ele>
        <time>2022-10-09T10:09:48.000Z</time>
      </trkpt>
      <trkpt lat="48.04172" lon="7.01109">
        <ele>1293.1999511719</ele>
        <time>2022-10-09T10:09:56.000Z</time>
      </trkpt>
      <trkpt lat="48.04172" lon="7.01109">
        <ele>1292.1999511719</ele>
        <time>2022-10-09T10:09:58.000Z</time>
      </trkpt>
      <trkpt lat="48.04172" lon="7.01109">
        <ele>1292.5999755859</ele>
        <time>2022-10-09T10:10:01.000Z</time>
      </trkpt>
      <trkpt lat="48.04171" lon="7.01108">
        <ele>1293</ele>
        <time>2022-10-09T10:10:05.000Z</time>
      </trkpt>
      <trkpt lat="48.0417" lon="7.01108">
        <ele>1292.8000488281</ele>
        <time>2022-10-09T10:10:11.000Z</time>
      </trkpt>
      <trkpt lat="48.04164" lon="7.01102">
        <ele>1293.4000244141</ele>
        <time>2022-10-09T10:10:32.000Z</time>
      </trkpt>
      <trkpt lat="48.04152" lon="7.01095">
        <ele>1294.1999511719</ele>
        <time>2022-10-09T10:10:42.000Z</time>
      </trkpt>
      <trkpt lat="48.04151" lon="7.01095">
        <ele>1294.1999511719</ele>
        <time>2022-10-09T10:10:43.000Z</time>
      </trkpt>
      <trkpt lat="48.04145" lon="7.01091">
        <ele>1294.8000488281</ele>
        <time>2022-10-09T10:10:49.000Z</time>
      </trkpt>
      <trkpt lat="48.04142" lon="7.0109">
        <ele>1294.4000244141</ele>
        <time>2022-10-09T10:10:56.000Z</time>
      </trkpt>
      <trkpt lat="48.0414" lon="7.0109">
        <ele>1294.5999755859</ele>
        <time>2022-10-09T10:11:02.000Z</time>
      </trkpt>
      <trkpt lat="48.0414" lon="7.0109">
        <ele>1294.5999755859</ele>
        <time>2022-10-09T10:11:05.000Z</time>
      </trkpt>
      <trkpt lat="48.04137" lon="7.01084">
        <ele>1293.8000488281</ele>
        <time>2022-10-09T10:11:19.000Z</time>
      </trkpt>
      <trkpt lat="48.04129" lon="7.01079">
        <ele>1293.5999755859</ele>
        <time>2022-10-09T10:11:26.000Z</time>
      </trkpt>
      <trkpt lat="48.04123" lon="7.01078">
        <ele>1293.5999755859</ele>
        <time>2022-10-09T10:11:33.000Z</time>
      </trkpt>
      <trkpt lat="48.04119" lon="7.01076">
        <ele>1293.1999511719</ele>
        <time>2022-10-09T10:11:37.000Z</time>
      </trkpt>
      <trkpt lat="48.04115" lon="7.01076">
        <ele>1293</ele>
        <time>2022-10-09T10:11:41.000Z</time>
      </trkpt>
      <trkpt lat="48.04115" lon="7.01075">
        <ele>1293</ele>
        <time>2022-10-09T10:11:42.000Z</time>
      </trkpt>
      <trkpt lat="48.04115" lon="7.01076">
        <ele>1293</ele>
        <time>2022-10-09T10:11:46.000Z</time>
      </trkpt>
      <trkpt lat="48.04114" lon="7.01075">
        <ele>1293</ele>
        <time>2022-10-09T10:11:47.000Z</time>
      </trkpt>
      <trkpt lat="48.04114" lon="7.01075">
        <ele>1293.4000244141</ele>
        <time>2022-10-09T10:11:53.000Z</time>
      </trkpt>
      <trkpt lat="48.04107" lon="7.01075">
        <ele>1292.8000488281</ele>
        <time>2022-10-09T10:12:02.000Z</time>
      </trkpt>
      <trkpt lat="48.04104" lon="7.01075">
        <ele>1292.4000244141</ele>
        <time>2022-10-09T10:12:04.000Z</time>
      </trkpt>
      <trkpt lat="48.04101" lon="7.01076">
        <ele>1292</ele>
        <time>2022-10-09T10:12:07.000Z</time>
      </trkpt>
      <trkpt lat="48.04101" lon="7.01076">
        <ele>1291.8000488281</ele>
        <time>2022-10-09T10:12:08.000Z</time>
      </trkpt>
      <trkpt lat="48.04098" lon="7.01078">
        <ele>1291.5999755859</ele>
        <time>2022-10-09T10:12:15.000Z</time>
      </trkpt>
      <trkpt lat="48.04097" lon="7.01078">
        <ele>1291.5999755859</ele>
        <time>2022-10-09T10:12:16.000Z</time>
      </trkpt>
      <trkpt lat="48.04089" lon="7.0108">
        <ele>1292.1999511719</ele>
        <time>2022-10-09T10:12:22.000Z</time>
      </trkpt>
      <trkpt lat="48.04088" lon="7.0108">
        <ele>1292</ele>
        <time>2022-10-09T10:12:23.000Z</time>
      </trkpt>
      <trkpt lat="48.04084" lon="7.0108">
        <ele>1291.8000488281</ele>
        <time>2022-10-09T10:12:26.000Z</time>
      </trkpt>
      <trkpt lat="48.04073" lon="7.01082">
        <ele>1291</ele>
        <time>2022-10-09T10:12:35.000Z</time>
      </trkpt>
      <trkpt lat="48.04072" lon="7.01082">
        <ele>1291</ele>
        <time>2022-10-09T10:12:36.000Z</time>
      </trkpt>
      <trkpt lat="48.0407" lon="7.01083">
        <ele>1290.8000488281</ele>
        <time>2022-10-09T10:12:38.000Z</time>
      </trkpt>
      <trkpt lat="48.04069" lon="7.01083">
        <ele>1290.8000488281</ele>
        <time>2022-10-09T10:12:39.000Z</time>
      </trkpt>
      <trkpt lat="48.04068" lon="7.01084">
        <ele>1291</ele>
        <time>2022-10-09T10:12:40.000Z</time>
      </trkpt>
      <trkpt lat="48.04063" lon="7.01087">
        <ele>1291.1999511719</ele>
        <time>2022-10-09T10:12:44.000Z</time>
      </trkpt>
      <trkpt lat="48.04052" lon="7.01091">
        <ele>1292</ele>
        <time>2022-10-09T10:12:53.000Z</time>
      </trkpt>
      <trkpt lat="48.04049" lon="7.01091">
        <ele>1292.4000244141</ele>
        <time>2022-10-09T10:12:56.000Z</time>
      </trkpt>
      <trkpt lat="48.04044" lon="7.0109">
        <ele>1292.4000244141</ele>
        <time>2022-10-09T10:13:00.000Z</time>
      </trkpt>
      <trkpt lat="48.04041" lon="7.01089">
        <ele>1291.8000488281</ele>
        <time>2022-10-09T10:13:02.000Z</time>
      </trkpt>
      <trkpt lat="48.04036" lon="7.01087">
        <ele>1291.5999755859</ele>
        <time>2022-10-09T10:13:07.000Z</time>
      </trkpt>
      <trkpt lat="48.04027" lon="7.01084">
        <ele>1291.4000244141</ele>
        <time>2022-10-09T10:13:17.000Z</time>
      </trkpt>
      <trkpt lat="48.04025" lon="7.01085">
        <ele>1291</ele>
        <time>2022-10-09T10:13:22.000Z</time>
      </trkpt>
      <trkpt lat="48.04021" lon="7.01085">
        <ele>1291</ele>
        <time>2022-10-09T10:13:25.000Z</time>
      </trkpt>
      <trkpt lat="48.0401" lon="7.01085">
        <ele>1291</ele>
        <time>2022-10-09T10:13:34.000Z</time>
      </trkpt>
      <trkpt lat="48.03993" lon="7.01088">
        <ele>1290.8000488281</ele>
        <time>2022-10-09T10:13:49.000Z</time>
      </trkpt>
      <trkpt lat="48.03987" lon="7.01089">
        <ele>1290.8000488281</ele>
        <time>2022-10-09T10:13:56.000Z</time>
      </trkpt>
      <trkpt lat="48.03986" lon="7.01088">
        <ele>1290.8000488281</ele>
        <time>2022-10-09T10:13:57.000Z</time>
      </trkpt>
      <trkpt lat="48.03986" lon="7.01088">
        <ele>1291</ele>
        <time>2022-10-09T10:14:00.000Z</time>
      </trkpt>
      <trkpt lat="48.03986" lon="7.01088">
        <ele>1291.1999511719</ele>
        <time>2022-10-09T10:14:07.000Z</time>
      </trkpt>
      <trkpt lat="48.0398" lon="7.01089">
        <ele>1290.8000488281</ele>
        <time>2022-10-09T10:14:17.000Z</time>
      </trkpt>
      <trkpt lat="48.03972" lon="7.01089">
        <ele>1290.5999755859</ele>
        <time>2022-10-09T10:14:22.000Z</time>
      </trkpt>
      <trkpt lat="48.03968" lon="7.0109">
        <ele>1290.8000488281</ele>
        <time>2022-10-09T10:14:26.000Z</time>
      </trkpt>
      <trkpt lat="48.03966" lon="7.0109">
        <ele>1290.8000488281</ele>
        <time>2022-10-09T10:14:28.000Z</time>
      </trkpt>
      <trkpt lat="48.03958" lon="7.01092">
        <ele>1290.8000488281</ele>
        <time>2022-10-09T10:14:35.000Z</time>
      </trkpt>
      <trkpt lat="48.03941" lon="7.01092">
        <ele>1291.5999755859</ele>
        <time>2022-10-09T10:14:49.000Z</time>
      </trkpt>
      <trkpt lat="48.0394" lon="7.01092">
        <ele>1291.5999755859</ele>
        <time>2022-10-09T10:14:50.000Z</time>
      </trkpt>
      <trkpt lat="48.03939" lon="7.01092">
        <ele>1291.5999755859</ele>
        <time>2022-10-09T10:14:51.000Z</time>
      </trkpt>
      <trkpt lat="48.03934" lon="7.01091">
        <ele>1291.4000244141</ele>
        <time>2022-10-09T10:14:56.000Z</time>
      </trkpt>
      <trkpt lat="48.03927" lon="7.01091">
        <ele>1291.4000244141</ele>
        <time>2022-10-09T10:15:01.000Z</time>
      </trkpt>
      <trkpt lat="48.03919" lon="7.01093">
        <ele>1291.4000244141</ele>
        <time>2022-10-09T10:15:10.000Z</time>
      </trkpt>
      <trkpt lat="48.03914" lon="7.01092">
        <ele>1291.5999755859</ele>
        <time>2022-10-09T10:15:15.000Z</time>
      </trkpt>
      <trkpt lat="48.03904" lon="7.01092">
        <ele>1292</ele>
        <time>2022-10-09T10:15:23.000Z</time>
      </trkpt>
      <trkpt lat="48.03903" lon="7.01092">
        <ele>1292.1999511719</ele>
        <time>2022-10-09T10:15:24.000Z</time>
      </trkpt>
      <trkpt lat="48.03897" lon="7.0109">
        <ele>1291.8000488281</ele>
        <time>2022-10-09T10:15:29.000Z</time>
      </trkpt>
      <trkpt lat="48.0389" lon="7.0109">
        <ele>1291.5999755859</ele>
        <time>2022-10-09T10:15:35.000Z</time>
      </trkpt>
      <trkpt lat="48.03888" lon="7.0109">
        <ele>1291.5999755859</ele>
        <time>2022-10-09T10:15:36.000Z</time>
      </trkpt>
      <trkpt lat="48.03887" lon="7.0109">
        <ele>1291.5999755859</ele>
        <time>2022-10-09T10:15:37.000Z</time>
      </trkpt>
      <trkpt lat="48.03878" lon="7.01086">
        <ele>1291.4000244141</ele>
        <time>2022-10-09T10:15:46.000Z</time>
      </trkpt>
      <trkpt lat="48.0387" lon="7.01086">
        <ele>1291</ele>
        <time>2022-10-09T10:15:53.000Z</time>
      </trkpt>
      <trkpt lat="48.03868" lon="7.01086">
        <ele>1290.8000488281</ele>
        <time>2022-10-09T10:15:55.000Z</time>
      </trkpt>
      <trkpt lat="48.03864" lon="7.01086">
        <ele>1290.5999755859</ele>
        <time>2022-10-09T10:15:58.000Z</time>
      </trkpt>
      <trkpt lat="48.03864" lon="7.01086">
        <ele>1290.8000488281</ele>
        <time>2022-10-09T10:16:01.000Z</time>
      </trkpt>
      <trkpt lat="48.03861" lon="7.01085">
        <ele>1290.8000488281</ele>
        <time>2022-10-09T10:16:08.000Z</time>
      </trkpt>
      <trkpt lat="48.03859" lon="7.01085">
        <ele>1290.4000244141</ele>
        <time>2022-10-09T10:16:17.000Z</time>
      </trkpt>
      <trkpt lat="48.03855" lon="7.01084">
        <ele>1290</ele>
        <time>2022-10-09T10:16:19.000Z</time>
      </trkpt>
      <trkpt lat="48.03843" lon="7.01085">
        <ele>1289.5999755859</ele>
        <time>2022-10-09T10:16:27.000Z</time>
      </trkpt>
      <trkpt lat="48.03834" lon="7.01086">
        <ele>1289.1999511719</ele>
        <time>2022-10-09T10:16:34.000Z</time>
      </trkpt>
      <trkpt lat="48.03827" lon="7.01087">
        <ele>1289.8000488281</ele>
        <time>2022-10-09T10:16:40.000Z</time>
      </trkpt>
      <trkpt lat="48.03811" lon="7.0109">
        <ele>1289.1999511719</ele>
        <time>2022-10-09T10:16:53.000Z</time>
      </trkpt>
      <trkpt lat="48.0381" lon="7.0109">
        <ele>1289.1999511719</ele>
        <time>2022-10-09T10:16:54.000Z</time>
      </trkpt>
      <trkpt lat="48.03797" lon="7.01088">
        <ele>1289</ele>
        <time>2022-10-09T10:17:05.000Z</time>
      </trkpt>
      <trkpt lat="48.03792" lon="7.01088">
        <ele>1288.8000488281</ele>
        <time>2022-10-09T10:17:09.000Z</time>
      </trkpt>
      <trkpt lat="48.03784" lon="7.01087">
        <ele>1288.5999755859</ele>
        <time>2022-10-09T10:17:16.000Z</time>
      </trkpt>
      <trkpt lat="48.03784" lon="7.01086">
        <ele>1289</ele>
        <time>2022-10-09T10:17:21.000Z</time>
      </trkpt>
      <trkpt lat="48.03785" lon="7.01085">
        <ele>1289</ele>
        <time>2022-10-09T10:17:29.000Z</time>
      </trkpt>
      <trkpt lat="48.03784" lon="7.01085">
        <ele>1289</ele>
        <time>2022-10-09T10:17:39.000Z</time>
      </trkpt>
      <trkpt lat="48.03778" lon="7.01087">
        <ele>1289</ele>
        <time>2022-10-09T10:17:43.000Z</time>
      </trkpt>
      <trkpt lat="48.03765" lon="7.01085">
        <ele>1288</ele>
        <time>2022-10-09T10:17:53.000Z</time>
      </trkpt>
      <trkpt lat="48.03755" lon="7.01084">
        <ele>1287.5999755859</ele>
        <time>2022-10-09T10:18:02.000Z</time>
      </trkpt>
      <trkpt lat="48.03754" lon="7.01084">
        <ele>1287.5999755859</ele>
        <time>2022-10-09T10:18:03.000Z</time>
      </trkpt>
      <trkpt lat="48.03751" lon="7.01084">
        <ele>1287.4000244141</ele>
        <time>2022-10-09T10:18:06.000Z</time>
      </trkpt>
      <trkpt lat="48.03746" lon="7.01083">
        <ele>1287.4000244141</ele>
        <time>2022-10-09T10:18:10.000Z</time>
      </trkpt>
      <trkpt lat="48.03738" lon="7.01083">
        <ele>1287.8000488281</ele>
        <time>2022-10-09T10:18:17.000Z</time>
      </trkpt>
      <trkpt lat="48.03724" lon="7.01083">
        <ele>1288.1999511719</ele>
        <time>2022-10-09T10:18:29.000Z</time>
      </trkpt>
      <trkpt lat="48.0372" lon="7.01084">
        <ele>1288.4000244141</ele>
        <time>2022-10-09T10:18:32.000Z</time>
      </trkpt>
      <trkpt lat="48.03719" lon="7.01084">
        <ele>1288.5999755859</ele>
        <time>2022-10-09T10:18:33.000Z</time>
      </trkpt>
      <trkpt lat="48.03714" lon="7.01083">
        <ele>1288.4000244141</ele>
        <time>2022-10-09T10:18:37.000Z</time>
      </trkpt>
      <trkpt lat="48.0371" lon="7.01081">
        <ele>1288</ele>
        <time>2022-10-09T10:18:41.000Z</time>
      </trkpt>
      <trkpt lat="48.03703" lon="7.0108">
        <ele>1287.4000244141</ele>
        <time>2022-10-09T10:18:47.000Z</time>
      </trkpt>
      <trkpt lat="48.03695" lon="7.01079">
        <ele>1286.5999755859</ele>
        <time>2022-10-09T10:18:54.000Z</time>
      </trkpt>
      <trkpt lat="48.03693" lon="7.01079">
        <ele>1286.5999755859</ele>
        <time>2022-10-09T10:18:56.000Z</time>
      </trkpt>
      <trkpt lat="48.03686" lon="7.01076">
        <ele>1285.5999755859</ele>
        <time>2022-10-09T10:19:03.000Z</time>
      </trkpt>
      <trkpt lat="48.03683" lon="7.01075">
        <ele>1285.5999755859</ele>
        <time>2022-10-09T10:19:06.000Z</time>
      </trkpt>
      <trkpt lat="48.03668" lon="7.01073">
        <ele>1285.1999511719</ele>
        <time>2022-10-09T10:19:20.000Z</time>
      </trkpt>
      <trkpt lat="48.03664" lon="7.01074">
        <ele>1284.5999755859</ele>
        <time>2022-10-09T10:19:24.000Z</time>
      </trkpt>
      <trkpt lat="48.03659" lon="7.01074">
        <ele>1284.4000244141</ele>
        <time>2022-10-09T10:19:29.000Z</time>
      </trkpt>
      <trkpt lat="48.03659" lon="7.01075">
        <ele>1284.4000244141</ele>
        <time>2022-10-09T10:19:30.000Z</time>
      </trkpt>
      <trkpt lat="48.03658" lon="7.01075">
        <ele>1284.4000244141</ele>
        <time>2022-10-09T10:19:31.000Z</time>
      </trkpt>
      <trkpt lat="48.03657" lon="7.01075">
        <ele>1284.4000244141</ele>
        <time>2022-10-09T10:19:32.000Z</time>
      </trkpt>
      <trkpt lat="48.03653" lon="7.01077">
        <ele>1283.8000488281</ele>
        <time>2022-10-09T10:19:39.000Z</time>
      </trkpt>
      <trkpt lat="48.0365" lon="7.01076">
        <ele>1283.5999755859</ele>
        <time>2022-10-09T10:19:47.000Z</time>
      </trkpt>
      <trkpt lat="48.03649" lon="7.01076">
        <ele>1283.4000244141</ele>
        <time>2022-10-09T10:19:48.000Z</time>
      </trkpt>
      <trkpt lat="48.03645" lon="7.01079">
        <ele>1283.4000244141</ele>
        <time>2022-10-09T10:19:53.000Z</time>
      </trkpt>
      <trkpt lat="48.03637" lon="7.01085">
        <ele>1283.4000244141</ele>
        <time>2022-10-09T10:20:01.000Z</time>
      </trkpt>
      <trkpt lat="48.03629" lon="7.01089">
        <ele>1284.4000244141</ele>
        <time>2022-10-09T10:20:10.000Z</time>
      </trkpt>
      <trkpt lat="48.03619" lon="7.01093">
        <ele>1284.4000244141</ele>
        <time>2022-10-09T10:20:19.000Z</time>
      </trkpt>
      <trkpt lat="48.03611" lon="7.01099">
        <ele>1283.5999755859</ele>
        <time>2022-10-09T10:20:29.000Z</time>
      </trkpt>
      <trkpt lat="48.03607" lon="7.01102">
        <ele>1283.8000488281</ele>
        <time>2022-10-09T10:20:33.000Z</time>
      </trkpt>
      <trkpt lat="48.03602" lon="7.01105">
        <ele>1285.5999755859</ele>
        <time>2022-10-09T10:20:38.000Z</time>
      </trkpt>
      <trkpt lat="48.03602" lon="7.01105">
        <ele>1286</ele>
        <time>2022-10-09T10:20:39.000Z</time>
      </trkpt>
      <trkpt lat="48.036" lon="7.01105">
        <ele>1286.5999755859</ele>
        <time>2022-10-09T10:20:42.000Z</time>
      </trkpt>
      <trkpt lat="48.03598" lon="7.01104">
        <ele>1286.5999755859</ele>
        <time>2022-10-09T10:20:46.000Z</time>
      </trkpt>
      <trkpt lat="48.03596" lon="7.01103">
        <ele>1286</ele>
        <time>2022-10-09T10:20:51.000Z</time>
      </trkpt>
      <trkpt lat="48.03593" lon="7.01102">
        <ele>1285.4000244141</ele>
        <time>2022-10-09T10:20:55.000Z</time>
      </trkpt>
      <trkpt lat="48.03593" lon="7.01101">
        <ele>1286.1999511719</ele>
        <time>2022-10-09T10:21:01.000Z</time>
      </trkpt>
      <trkpt lat="48.03592" lon="7.01102">
        <ele>1286</ele>
        <time>2022-10-09T10:21:13.000Z</time>
      </trkpt>
      <trkpt lat="48.03591" lon="7.01102">
        <ele>1284.4000244141</ele>
        <time>2022-10-09T10:21:17.000Z</time>
      </trkpt>
      <trkpt lat="48.03586" lon="7.01099">
        <ele>1283.8000488281</ele>
        <time>2022-10-09T10:21:23.000Z</time>
      </trkpt>
      <trkpt lat="48.03578" lon="7.01096">
        <ele>1283.1999511719</ele>
        <time>2022-10-09T10:21:30.000Z</time>
      </trkpt>
      <trkpt lat="48.03573" lon="7.01094">
        <ele>1282.1999511719</ele>
        <time>2022-10-09T10:21:34.000Z</time>
      </trkpt>
      <trkpt lat="48.03571" lon="7.01093">
        <ele>1282.1999511719</ele>
        <time>2022-10-09T10:21:36.000Z</time>
      </trkpt>
      <trkpt lat="48.03569" lon="7.01092">
        <ele>1281.8000488281</ele>
        <time>2022-10-09T10:21:38.000Z</time>
      </trkpt>
      <trkpt lat="48.03558" lon="7.01092">
        <ele>1281.1999511719</ele>
        <time>2022-10-09T10:21:47.000Z</time>
      </trkpt>
      <trkpt lat="48.03557" lon="7.01092">
        <ele>1281.1999511719</ele>
        <time>2022-10-09T10:21:48.000Z</time>
      </trkpt>
      <trkpt lat="48.03547" lon="7.01092">
        <ele>1281</ele>
        <time>2022-10-09T10:21:56.000Z</time>
      </trkpt>
      <trkpt lat="48.03543" lon="7.01091">
        <ele>1280.8000488281</ele>
        <time>2022-10-09T10:21:59.000Z</time>
      </trkpt>
      <trkpt lat="48.03536" lon="7.01089">
        <ele>1280</ele>
        <time>2022-10-09T10:22:06.000Z</time>
      </trkpt>
      <trkpt lat="48.03535" lon="7.01088">
        <ele>1280</ele>
        <time>2022-10-09T10:22:07.000Z</time>
      </trkpt>
      <trkpt lat="48.03533" lon="7.01088">
        <ele>1279.5999755859</ele>
        <time>2022-10-09T10:22:09.000Z</time>
      </trkpt>
      <trkpt lat="48.03527" lon="7.01088">
        <ele>1279.4000244141</ele>
        <time>2022-10-09T10:22:14.000Z</time>
      </trkpt>
      <trkpt lat="48.03524" lon="7.01087">
        <ele>1279.5999755859</ele>
        <time>2022-10-09T10:22:17.000Z</time>
      </trkpt>
      <trkpt lat="48.03521" lon="7.01086">
        <ele>1279.5999755859</ele>
        <time>2022-10-09T10:22:20.000Z</time>
      </trkpt>
      <trkpt lat="48.03521" lon="7.01086">
        <ele>1279.5999755859</ele>
        <time>2022-10-09T10:22:21.000Z</time>
      </trkpt>
      <trkpt lat="48.0352" lon="7.01085">
        <ele>1279.5999755859</ele>
        <time>2022-10-09T10:22:23.000Z</time>
      </trkpt>
      <trkpt lat="48.0352" lon="7.01085">
        <ele>1279.5999755859</ele>
        <time>2022-10-09T10:22:27.000Z</time>
      </trkpt>
      <trkpt lat="48.0352" lon="7.01085">
        <ele>1279.5999755859</ele>
        <time>2022-10-09T10:22:30.000Z</time>
      </trkpt>
      <trkpt lat="48.0352" lon="7.01087">
        <ele>1279.4000244141</ele>
        <time>2022-10-09T10:22:39.000Z</time>
      </trkpt>
      <trkpt lat="48.03517" lon="7.01085">
        <ele>1279.1999511719</ele>
        <time>2022-10-09T10:22:47.000Z</time>
      </trkpt>
      <trkpt lat="48.0351" lon="7.01078">
        <ele>1279.4000244141</ele>
        <time>2022-10-09T10:22:55.000Z</time>
      </trkpt>
      <trkpt lat="48.03506" lon="7.01075">
        <ele>1279.5999755859</ele>
        <time>2022-10-09T10:22:59.000Z</time>
      </trkpt>
      <trkpt lat="48.03503" lon="7.01071">
        <ele>1279.4000244141</ele>
        <time>2022-10-09T10:23:03.000Z</time>
      </trkpt>
      <trkpt lat="48.03496" lon="7.01062">
        <ele>1279.1999511719</ele>
        <time>2022-10-09T10:23:11.000Z</time>
      </trkpt>
      <trkpt lat="48.03495" lon="7.01061">
        <ele>1279.1999511719</ele>
        <time>2022-10-09T10:23:12.000Z</time>
      </trkpt>
      <trkpt lat="48.03491" lon="7.01058">
        <ele>1278.8000488281</ele>
        <time>2022-10-09T10:23:17.000Z</time>
      </trkpt>
      <trkpt lat="48.0349" lon="7.01057">
        <ele>1278.5999755859</ele>
        <time>2022-10-09T10:23:18.000Z</time>
      </trkpt>
      <trkpt lat="48.0349" lon="7.01057">
        <ele>1278.4000244141</ele>
        <time>2022-10-09T10:23:20.000Z</time>
      </trkpt>
      <trkpt lat="48.03488" lon="7.01059">
        <ele>1277.5999755859</ele>
        <time>2022-10-09T10:23:24.000Z</time>
      </trkpt>
      <trkpt lat="48.03487" lon="7.01065">
        <ele>1277.4000244141</ele>
        <time>2022-10-09T10:23:29.000Z</time>
      </trkpt>
      <trkpt lat="48.03485" lon="7.01068">
        <ele>1277.5999755859</ele>
        <time>2022-10-09T10:23:31.000Z</time>
      </trkpt>
      <trkpt lat="48.03485" lon="7.01069">
        <ele>1277.8000488281</ele>
        <time>2022-10-09T10:23:32.000Z</time>
      </trkpt>
      <trkpt lat="48.0348" lon="7.01074">
        <ele>1278.4000244141</ele>
        <time>2022-10-09T10:23:39.000Z</time>
      </trkpt>
      <trkpt lat="48.03476" lon="7.01082">
        <ele>1278.4000244141</ele>
        <time>2022-10-09T10:23:44.000Z</time>
      </trkpt>
      <trkpt lat="48.03475" lon="7.01083">
        <ele>1278.1999511719</ele>
        <time>2022-10-09T10:23:45.000Z</time>
      </trkpt>
      <trkpt lat="48.03473" lon="7.01086">
        <ele>1277.5999755859</ele>
        <time>2022-10-09T10:23:47.000Z</time>
      </trkpt>
      <trkpt lat="48.03472" lon="7.0109">
        <ele>1276.1999511719</ele>
        <time>2022-10-09T10:23:50.000Z</time>
      </trkpt>
      <trkpt lat="48.03471" lon="7.01092">
        <ele>1275.8000488281</ele>
        <time>2022-10-09T10:23:52.000Z</time>
      </trkpt>
      <trkpt lat="48.03468" lon="7.011">
        <ele>1275.5999755859</ele>
        <time>2022-10-09T10:23:58.000Z</time>
      </trkpt>
      <trkpt lat="48.03466" lon="7.01102">
        <ele>1275.8000488281</ele>
        <time>2022-10-09T10:24:05.000Z</time>
      </trkpt>
      <trkpt lat="48.03466" lon="7.01102">
        <ele>1275.5999755859</ele>
        <time>2022-10-09T10:24:07.000Z</time>
      </trkpt>
      <trkpt lat="48.03466" lon="7.01101">
        <ele>1275.5999755859</ele>
        <time>2022-10-09T10:24:08.000Z</time>
      </trkpt>
      <trkpt lat="48.03467" lon="7.01102">
        <ele>1276.1999511719</ele>
        <time>2022-10-09T10:24:15.000Z</time>
      </trkpt>
      <trkpt lat="48.03466" lon="7.01102">
        <ele>1275.1999511719</ele>
        <time>2022-10-09T10:24:24.000Z</time>
      </trkpt>
      <trkpt lat="48.03466" lon="7.01103">
        <ele>1276.5999755859</ele>
        <time>2022-10-09T10:24:30.000Z</time>
      </trkpt>
      <trkpt lat="48.03466" lon="7.01103">
        <ele>1277.8000488281</ele>
        <time>2022-10-09T10:24:32.000Z</time>
      </trkpt>
      <trkpt lat="48.03466" lon="7.01103">
        <ele>1278.8000488281</ele>
        <time>2022-10-09T10:24:34.000Z</time>
      </trkpt>
      <trkpt lat="48.03466" lon="7.01104">
        <ele>1280</ele>
        <time>2022-10-09T10:24:47.000Z</time>
      </trkpt>
      <trkpt lat="48.03466" lon="7.01104">
        <ele>1282.1999511719</ele>
        <time>2022-10-09T10:24:52.000Z</time>
      </trkpt>
      <trkpt lat="48.03466" lon="7.01103">
        <ele>1281.4000244141</ele>
        <time>2022-10-09T10:25:13.000Z</time>
      </trkpt>
      <trkpt lat="48.03466" lon="7.01103">
        <ele>1281.8000488281</ele>
        <time>2022-10-09T10:25:18.000Z</time>
      </trkpt>
      <trkpt lat="48.03466" lon="7.01101">
        <ele>1281.1999511719</ele>
        <time>2022-10-09T10:25:22.000Z</time>
      </trkpt>
      <trkpt lat="48.03467" lon="7.01094">
        <ele>1281.5999755859</ele>
        <time>2022-10-09T10:25:26.000Z</time>
      </trkpt>
      <trkpt lat="48.03469" lon="7.01085">
        <ele>1281.8000488281</ele>
        <time>2022-10-09T10:25:32.000Z</time>
      </trkpt>
      <trkpt lat="48.03469" lon="7.01084">
        <ele>1282</ele>
        <time>2022-10-09T10:25:37.000Z</time>
      </trkpt>
      <trkpt lat="48.0347" lon="7.01083">
        <ele>1281.8000488281</ele>
        <time>2022-10-09T10:25:38.000Z</time>
      </trkpt>
      <trkpt lat="48.03474" lon="7.01075">
        <ele>1280.8000488281</ele>
        <time>2022-10-09T10:25:44.000Z</time>
      </trkpt>
      <trkpt lat="48.03475" lon="7.01073">
        <ele>1280.8000488281</ele>
        <time>2022-10-09T10:25:46.000Z</time>
      </trkpt>
      <trkpt lat="48.03478" lon="7.0107">
        <ele>1280.5999755859</ele>
        <time>2022-10-09T10:25:49.000Z</time>
      </trkpt>
      <trkpt lat="48.03481" lon="7.01067">
        <ele>1280</ele>
        <time>2022-10-09T10:25:52.000Z</time>
      </trkpt>
      <trkpt lat="48.03483" lon="7.01064">
        <ele>1279.5999755859</ele>
        <time>2022-10-09T10:25:55.000Z</time>
      </trkpt>
      <trkpt lat="48.03486" lon="7.01061">
        <ele>1279.4000244141</ele>
        <time>2022-10-09T10:25:59.000Z</time>
      </trkpt>
      <trkpt lat="48.03487" lon="7.01059">
        <ele>1279</ele>
        <time>2022-10-09T10:26:01.000Z</time>
      </trkpt>
      <trkpt lat="48.03488" lon="7.01056">
        <ele>1278.5999755859</ele>
        <time>2022-10-09T10:26:05.000Z</time>
      </trkpt>
      <trkpt lat="48.03489" lon="7.01055">
        <ele>1278.5999755859</ele>
        <time>2022-10-09T10:26:06.000Z</time>
      </trkpt>
      <trkpt lat="48.03491" lon="7.01046">
        <ele>1278.4000244141</ele>
        <time>2022-10-09T10:26:13.000Z</time>
      </trkpt>
      <trkpt lat="48.03493" lon="7.01043">
        <ele>1278.1999511719</ele>
        <time>2022-10-09T10:26:16.000Z</time>
      </trkpt>
      <trkpt lat="48.03495" lon="7.0104">
        <ele>1277.8000488281</ele>
        <time>2022-10-09T10:26:18.000Z</time>
      </trkpt>
      <trkpt lat="48.03496" lon="7.01039">
        <ele>1277.8000488281</ele>
        <time>2022-10-09T10:26:19.000Z</time>
      </trkpt>
      <trkpt lat="48.03499" lon="7.01038">
        <ele>1277.5999755859</ele>
        <time>2022-10-09T10:26:23.000Z</time>
      </trkpt>
      <trkpt lat="48.03501" lon="7.01035">
        <ele>1277.4000244141</ele>
        <time>2022-10-09T10:26:26.000Z</time>
      </trkpt>
      <trkpt lat="48.03503" lon="7.01032">
        <ele>1276.8000488281</ele>
        <time>2022-10-09T10:26:29.000Z</time>
      </trkpt>
      <trkpt lat="48.03507" lon="7.01027">
        <ele>1276.4000244141</ele>
        <time>2022-10-09T10:26:34.000Z</time>
      </trkpt>
      <trkpt lat="48.0351" lon="7.01022">
        <ele>1275.5999755859</ele>
        <time>2022-10-09T10:26:38.000Z</time>
      </trkpt>
      <trkpt lat="48.03513" lon="7.01014">
        <ele>1274.5999755859</ele>
        <time>2022-10-09T10:26:44.000Z</time>
      </trkpt>
      <trkpt lat="48.03514" lon="7.01013">
        <ele>1274.5999755859</ele>
        <time>2022-10-09T10:26:45.000Z</time>
      </trkpt>
      <trkpt lat="48.03518" lon="7.01006">
        <ele>1273.5999755859</ele>
        <time>2022-10-09T10:26:50.000Z</time>
      </trkpt>
      <trkpt lat="48.03518" lon="7.01005">
        <ele>1273.4000244141</ele>
        <time>2022-10-09T10:26:51.000Z</time>
      </trkpt>
      <trkpt lat="48.03523" lon="7.00997">
        <ele>1272.4000244141</ele>
        <time>2022-10-09T10:26:58.000Z</time>
      </trkpt>
      <trkpt lat="48.03525" lon="7.00994">
        <ele>1272</ele>
        <time>2022-10-09T10:27:01.000Z</time>
      </trkpt>
      <trkpt lat="48.03525" lon="7.00993">
        <ele>1271.8000488281</ele>
        <time>2022-10-09T10:27:04.000Z</time>
      </trkpt>
      <trkpt lat="48.03525" lon="7.00993">
        <ele>1271.8000488281</ele>
        <time>2022-10-09T10:27:05.000Z</time>
      </trkpt>
      <trkpt lat="48.03525" lon="7.00993">
        <ele>1271.8000488281</ele>
        <time>2022-10-09T10:27:06.000Z</time>
      </trkpt>
      <trkpt lat="48.03525" lon="7.00993">
        <ele>1271.5999755859</ele>
        <time>2022-10-09T10:27:10.000Z</time>
      </trkpt>
      <trkpt lat="48.03526" lon="7.00992">
        <ele>1271.4000244141</ele>
        <time>2022-10-09T10:27:14.000Z</time>
      </trkpt>
      <trkpt lat="48.03527" lon="7.00989">
        <ele>1271.1999511719</ele>
        <time>2022-10-09T10:27:16.000Z</time>
      </trkpt>
      <trkpt lat="48.03531" lon="7.00982">
        <ele>1270.1999511719</ele>
        <time>2022-10-09T10:27:22.000Z</time>
      </trkpt>
      <trkpt lat="48.03534" lon="7.00979">
        <ele>1270</ele>
        <time>2022-10-09T10:27:25.000Z</time>
      </trkpt>
      <trkpt lat="48.03535" lon="7.00978">
        <ele>1269.8000488281</ele>
        <time>2022-10-09T10:27:27.000Z</time>
      </trkpt>
      <trkpt lat="48.03539" lon="7.00971">
        <ele>1269.1999511719</ele>
        <time>2022-10-09T10:27:33.000Z</time>
      </trkpt>
      <trkpt lat="48.0354" lon="7.00968">
        <ele>1268.5999755859</ele>
        <time>2022-10-09T10:27:35.000Z</time>
      </trkpt>
      <trkpt lat="48.03542" lon="7.00964">
        <ele>1268</ele>
        <time>2022-10-09T10:27:38.000Z</time>
      </trkpt>
      <trkpt lat="48.03544" lon="7.0096">
        <ele>1267.5999755859</ele>
        <time>2022-10-09T10:27:41.000Z</time>
      </trkpt>
      <trkpt lat="48.03546" lon="7.00957">
        <ele>1267</ele>
        <time>2022-10-09T10:27:44.000Z</time>
      </trkpt>
      <trkpt lat="48.03547" lon="7.00954">
        <ele>1266.5999755859</ele>
        <time>2022-10-09T10:27:47.000Z</time>
      </trkpt>
      <trkpt lat="48.03549" lon="7.00949">
        <ele>1265.8000488281</ele>
        <time>2022-10-09T10:27:51.000Z</time>
      </trkpt>
      <trkpt lat="48.0355" lon="7.00948">
        <ele>1265.5999755859</ele>
        <time>2022-10-09T10:27:52.000Z</time>
      </trkpt>
      <trkpt lat="48.03552" lon="7.00942">
        <ele>1264.8000488281</ele>
        <time>2022-10-09T10:27:56.000Z</time>
      </trkpt>
      <trkpt lat="48.03554" lon="7.0094">
        <ele>1264.4000244141</ele>
        <time>2022-10-09T10:27:58.000Z</time>
      </trkpt>
      <trkpt lat="48.03556" lon="7.00935">
        <ele>1264</ele>
        <time>2022-10-09T10:28:02.000Z</time>
      </trkpt>
      <trkpt lat="48.03558" lon="7.00933">
        <ele>1263.5999755859</ele>
        <time>2022-10-09T10:28:04.000Z</time>
      </trkpt>
      <trkpt lat="48.03561" lon="7.00929">
        <ele>1263.1999511719</ele>
        <time>2022-10-09T10:28:08.000Z</time>
      </trkpt>
      <trkpt lat="48.03562" lon="7.00929">
        <ele>1263</ele>
        <time>2022-10-09T10:28:09.000Z</time>
      </trkpt>
      <trkpt lat="48.03564" lon="7.00927">
        <ele>1262.5999755859</ele>
        <time>2022-10-09T10:28:12.000Z</time>
      </trkpt>
      <trkpt lat="48.03565" lon="7.00925">
        <ele>1262.4000244141</ele>
        <time>2022-10-09T10:28:14.000Z</time>
      </trkpt>
      <trkpt lat="48.03566" lon="7.00925">
        <ele>1262.4000244141</ele>
        <time>2022-10-09T10:28:15.000Z</time>
      </trkpt>
      <trkpt lat="48.03572" lon="7.00919">
        <ele>1261.8000488281</ele>
        <time>2022-10-09T10:28:21.000Z</time>
      </trkpt>
      <trkpt lat="48.03573" lon="7.00917">
        <ele>1261.5999755859</ele>
        <time>2022-10-09T10:28:22.000Z</time>
      </trkpt>
      <trkpt lat="48.0358" lon="7.0091">
        <ele>1260.5999755859</ele>
        <time>2022-10-09T10:28:29.000Z</time>
      </trkpt>
      <trkpt lat="48.03581" lon="7.00909">
        <ele>1260.4000244141</ele>
        <time>2022-10-09T10:28:30.000Z</time>
      </trkpt>
      <trkpt lat="48.03589" lon="7.00902">
        <ele>1259.4000244141</ele>
        <time>2022-10-09T10:28:38.000Z</time>
      </trkpt>
      <trkpt lat="48.03591" lon="7.00899">
        <ele>1259</ele>
        <time>2022-10-09T10:28:41.000Z</time>
      </trkpt>
      <trkpt lat="48.03596" lon="7.00895">
        <ele>1258.4000244141</ele>
        <time>2022-10-09T10:28:46.000Z</time>
      </trkpt>
      <trkpt lat="48.03602" lon="7.0089">
        <ele>1257.5999755859</ele>
        <time>2022-10-09T10:28:53.000Z</time>
      </trkpt>
      <trkpt lat="48.03602" lon="7.00889">
        <ele>1257.4000244141</ele>
        <time>2022-10-09T10:28:54.000Z</time>
      </trkpt>
      <trkpt lat="48.03605" lon="7.00886">
        <ele>1256.8000488281</ele>
        <time>2022-10-09T10:28:58.000Z</time>
      </trkpt>
      <trkpt lat="48.03606" lon="7.00884">
        <ele>1256.1999511719</ele>
        <time>2022-10-09T10:29:00.000Z</time>
      </trkpt>
      <trkpt lat="48.03606" lon="7.00882">
        <ele>1256</ele>
        <time>2022-10-09T10:29:01.000Z</time>
      </trkpt>
      <trkpt lat="48.03606" lon="7.00879">
        <ele>1255.8000488281</ele>
        <time>2022-10-09T10:29:03.000Z</time>
      </trkpt>
      <trkpt lat="48.03604" lon="7.00873">
        <ele>1255</ele>
        <time>2022-10-09T10:29:08.000Z</time>
      </trkpt>
      <trkpt lat="48.03604" lon="7.0087">
        <ele>1254</ele>
        <time>2022-10-09T10:29:10.000Z</time>
      </trkpt>
      <trkpt lat="48.03605" lon="7.00869">
        <ele>1253.8000488281</ele>
        <time>2022-10-09T10:29:11.000Z</time>
      </trkpt>
      <trkpt lat="48.03606" lon="7.00868">
        <ele>1253.4000244141</ele>
        <time>2022-10-09T10:29:12.000Z</time>
      </trkpt>
      <trkpt lat="48.03616" lon="7.00864">
        <ele>1253</ele>
        <time>2022-10-09T10:29:19.000Z</time>
      </trkpt>
      <trkpt lat="48.0362" lon="7.00862">
        <ele>1253</ele>
        <time>2022-10-09T10:29:22.000Z</time>
      </trkpt>
      <trkpt lat="48.03625" lon="7.00861">
        <ele>1252.8000488281</ele>
        <time>2022-10-09T10:29:26.000Z</time>
      </trkpt>
      <trkpt lat="48.03626" lon="7.0086">
        <ele>1252.8000488281</ele>
        <time>2022-10-09T10:29:27.000Z</time>
      </trkpt>
      <trkpt lat="48.03627" lon="7.0086">
        <ele>1252.8000488281</ele>
        <time>2022-10-09T10:29:28.000Z</time>
      </trkpt>
      <trkpt lat="48.03631" lon="7.0086">
        <ele>1252.4000244141</ele>
        <time>2022-10-09T10:29:32.000Z</time>
      </trkpt>
      <trkpt lat="48.03631" lon="7.0086">
        <ele>1252.4000244141</ele>
        <time>2022-10-09T10:29:33.000Z</time>
      </trkpt>
      <trkpt lat="48.03632" lon="7.0086">
        <ele>1252.4000244141</ele>
        <time>2022-10-09T10:29:35.000Z</time>
      </trkpt>
      <trkpt lat="48.03632" lon="7.00857">
        <ele>1252</ele>
        <time>2022-10-09T10:29:39.000Z</time>
      </trkpt>
      <trkpt lat="48.03631" lon="7.00856">
        <ele>1251.8000488281</ele>
        <time>2022-10-09T10:29:40.000Z</time>
      </trkpt>
      <trkpt lat="48.03629" lon="7.00855">
        <ele>1251.1999511719</ele>
        <time>2022-10-09T10:29:42.000Z</time>
      </trkpt>
      <trkpt lat="48.03626" lon="7.00854">
        <ele>1250.8000488281</ele>
        <time>2022-10-09T10:29:45.000Z</time>
      </trkpt>
      <trkpt lat="48.0362" lon="7.0085">
        <ele>1250.4000244141</ele>
        <time>2022-10-09T10:29:52.000Z</time>
      </trkpt>
      <trkpt lat="48.03619" lon="7.00848">
        <ele>1250.1999511719</ele>
        <time>2022-10-09T10:29:54.000Z</time>
      </trkpt>
      <trkpt lat="48.03619" lon="7.00847">
        <ele>1250.1999511719</ele>
        <time>2022-10-09T10:29:55.000Z</time>
      </trkpt>
      <trkpt lat="48.03616" lon="7.00845">
        <ele>1249.5999755859</ele>
        <time>2022-10-09T10:29:58.000Z</time>
      </trkpt>
      <trkpt lat="48.03612" lon="7.00843">
        <ele>1249.4000244141</ele>
        <time>2022-10-09T10:30:01.000Z</time>
      </trkpt>
      <trkpt lat="48.03607" lon="7.00841">
        <ele>1248.8000488281</ele>
        <time>2022-10-09T10:30:06.000Z</time>
      </trkpt>
      <trkpt lat="48.03605" lon="7.0084">
        <ele>1248.5999755859</ele>
        <time>2022-10-09T10:30:08.000Z</time>
      </trkpt>
      <trkpt lat="48.03602" lon="7.00837">
        <ele>1248.1999511719</ele>
        <time>2022-10-09T10:30:11.000Z</time>
      </trkpt>
      <trkpt lat="48.03599" lon="7.00835">
        <ele>1248.1999511719</ele>
        <time>2022-10-09T10:30:18.000Z</time>
      </trkpt>
      <trkpt lat="48.03596" lon="7.00833">
        <ele>1248</ele>
        <time>2022-10-09T10:30:21.000Z</time>
      </trkpt>
      <trkpt lat="48.03593" lon="7.00831">
        <ele>1247.4000244141</ele>
        <time>2022-10-09T10:30:24.000Z</time>
      </trkpt>
      <trkpt lat="48.03592" lon="7.00831">
        <ele>1247.4000244141</ele>
        <time>2022-10-09T10:30:25.000Z</time>
      </trkpt>
      <trkpt lat="48.03585" lon="7.00824">
        <ele>1247</ele>
        <time>2022-10-09T10:30:33.000Z</time>
      </trkpt>
      <trkpt lat="48.03585" lon="7.00822">
        <ele>1247</ele>
        <time>2022-10-09T10:30:37.000Z</time>
      </trkpt>
      <trkpt lat="48.03586" lon="7.00816">
        <ele>1247.4000244141</ele>
        <time>2022-10-09T10:32:29.000Z</time>
      </trkpt>
      <trkpt lat="48.03587" lon="7.00814">
        <ele>1246.4000244141</ele>
        <time>2022-10-09T10:32:37.000Z</time>
      </trkpt>
      <trkpt lat="48.03587" lon="7.00809">
        <ele>1246</ele>
        <time>2022-10-09T10:32:40.000Z</time>
      </trkpt>
      <trkpt lat="48.03583" lon="7.00806">
        <ele>1245.5999755859</ele>
        <time>2022-10-09T10:32:48.000Z</time>
      </trkpt>
      <trkpt lat="48.03578" lon="7.00799">
        <ele>1246.1999511719</ele>
        <time>2022-10-09T10:32:56.000Z</time>
      </trkpt>
      <trkpt lat="48.03573" lon="7.0079">
        <ele>1245.4000244141</ele>
        <time>2022-10-09T10:33:04.000Z</time>
      </trkpt>
      <trkpt lat="48.03573" lon="7.00788">
        <ele>1245.4000244141</ele>
        <time>2022-10-09T10:33:05.000Z</time>
      </trkpt>
      <trkpt lat="48.03569" lon="7.00782">
        <ele>1245.5999755859</ele>
        <time>2022-10-09T10:33:11.000Z</time>
      </trkpt>
      <trkpt lat="48.03566" lon="7.00776">
        <ele>1246</ele>
        <time>2022-10-09T10:33:16.000Z</time>
      </trkpt>
      <trkpt lat="48.03562" lon="7.00769">
        <ele>1246.4000244141</ele>
        <time>2022-10-09T10:33:22.000Z</time>
      </trkpt>
      <trkpt lat="48.0356" lon="7.00764">
        <ele>1246.8000488281</ele>
        <time>2022-10-09T10:33:26.000Z</time>
      </trkpt>
      <trkpt lat="48.03558" lon="7.00762">
        <ele>1247</ele>
        <time>2022-10-09T10:33:28.000Z</time>
      </trkpt>
      <trkpt lat="48.03556" lon="7.00758">
        <ele>1247.1999511719</ele>
        <time>2022-10-09T10:33:31.000Z</time>
      </trkpt>
      <trkpt lat="48.03551" lon="7.00748">
        <ele>1247.4000244141</ele>
        <time>2022-10-09T10:33:40.000Z</time>
      </trkpt>
      <trkpt lat="48.0355" lon="7.00747">
        <ele>1247.4000244141</ele>
        <time>2022-10-09T10:33:41.000Z</time>
      </trkpt>
      <trkpt lat="48.03545" lon="7.00737">
        <ele>1248</ele>
        <time>2022-10-09T10:33:51.000Z</time>
      </trkpt>
      <trkpt lat="48.03543" lon="7.00734">
        <ele>1248</ele>
        <time>2022-10-09T10:33:57.000Z</time>
      </trkpt>
      <trkpt lat="48.0354" lon="7.00729">
        <ele>1248.4000244141</ele>
        <time>2022-10-09T10:34:01.000Z</time>
      </trkpt>
      <trkpt lat="48.03539" lon="7.00726">
        <ele>1248.5999755859</ele>
        <time>2022-10-09T10:34:04.000Z</time>
      </trkpt>
      <trkpt lat="48.03534" lon="7.00717">
        <ele>1249</ele>
        <time>2022-10-09T10:34:11.000Z</time>
      </trkpt>
      <trkpt lat="48.03528" lon="7.00706">
        <ele>1249.5999755859</ele>
        <time>2022-10-09T10:34:19.000Z</time>
      </trkpt>
      <trkpt lat="48.03526" lon="7.00703">
        <ele>1249.8000488281</ele>
        <time>2022-10-09T10:34:22.000Z</time>
      </trkpt>
      <trkpt lat="48.03524" lon="7.00699">
        <ele>1249.8000488281</ele>
        <time>2022-10-09T10:34:27.000Z</time>
      </trkpt>
      <trkpt lat="48.03523" lon="7.00696">
        <ele>1250</ele>
        <time>2022-10-09T10:34:30.000Z</time>
      </trkpt>
      <trkpt lat="48.03519" lon="7.00689">
        <ele>1250</ele>
        <time>2022-10-09T10:34:36.000Z</time>
      </trkpt>
      <trkpt lat="48.03514" lon="7.0068">
        <ele>1250.1999511719</ele>
        <time>2022-10-09T10:34:44.000Z</time>
      </trkpt>
      <trkpt lat="48.03508" lon="7.00671">
        <ele>1250</ele>
        <time>2022-10-09T10:34:51.000Z</time>
      </trkpt>
      <trkpt lat="48.03506" lon="7.00667">
        <ele>1250</ele>
        <time>2022-10-09T10:34:54.000Z</time>
      </trkpt>
      <trkpt lat="48.035" lon="7.00655">
        <ele>1250.1999511719</ele>
        <time>2022-10-09T10:35:03.000Z</time>
      </trkpt>
      <trkpt lat="48.03499" lon="7.00655">
        <ele>1250.1999511719</ele>
        <time>2022-10-09T10:35:08.000Z</time>
      </trkpt>
      <trkpt lat="48.03495" lon="7.00648">
        <ele>1250.4000244141</ele>
        <time>2022-10-09T10:35:20.000Z</time>
      </trkpt>
      <trkpt lat="48.03491" lon="7.0064">
        <ele>1250.4000244141</ele>
        <time>2022-10-09T10:35:26.000Z</time>
      </trkpt>
      <trkpt lat="48.03488" lon="7.00635">
        <ele>1250.4000244141</ele>
        <time>2022-10-09T10:35:33.000Z</time>
      </trkpt>
      <trkpt lat="48.03487" lon="7.0063">
        <ele>1250.4000244141</ele>
        <time>2022-10-09T10:35:43.000Z</time>
      </trkpt>
      <trkpt lat="48.03486" lon="7.00624">
        <ele>1250.4000244141</ele>
        <time>2022-10-09T10:35:48.000Z</time>
      </trkpt>
      <trkpt lat="48.03486" lon="7.00622">
        <ele>1250.4000244141</ele>
        <time>2022-10-09T10:35:49.000Z</time>
      </trkpt>
      <trkpt lat="48.03484" lon="7.00615">
        <ele>1250.4000244141</ele>
        <time>2022-10-09T10:35:54.000Z</time>
      </trkpt>
      <trkpt lat="48.03483" lon="7.00615">
        <ele>1250.4000244141</ele>
        <time>2022-10-09T10:35:55.000Z</time>
      </trkpt>
      <trkpt lat="48.03479" lon="7.00613">
        <ele>1250.1999511719</ele>
        <time>2022-10-09T10:35:58.000Z</time>
      </trkpt>
      <trkpt lat="48.03479" lon="7.00609">
        <ele>1250.1999511719</ele>
        <time>2022-10-09T10:36:00.000Z</time>
      </trkpt>
      <trkpt lat="48.03475" lon="7.00596">
        <ele>1250</ele>
        <time>2022-10-09T10:36:09.000Z</time>
      </trkpt>
      <trkpt lat="48.03468" lon="7.0058">
        <ele>1248.8000488281</ele>
        <time>2022-10-09T10:36:21.000Z</time>
      </trkpt>
      <trkpt lat="48.03468" lon="7.00578">
        <ele>1248.8000488281</ele>
        <time>2022-10-09T10:36:22.000Z</time>
      </trkpt>
      <trkpt lat="48.03467" lon="7.00577">
        <ele>1248.8000488281</ele>
        <time>2022-10-09T10:36:23.000Z</time>
      </trkpt>
      <trkpt lat="48.03466" lon="7.00574">
        <ele>1248.5999755859</ele>
        <time>2022-10-09T10:36:25.000Z</time>
      </trkpt>
      <trkpt lat="48.03464" lon="7.00567">
        <ele>1248.4000244141</ele>
        <time>2022-10-09T10:36:29.000Z</time>
      </trkpt>
      <trkpt lat="48.03461" lon="7.00558">
        <ele>1248.1999511719</ele>
        <time>2022-10-09T10:36:35.000Z</time>
      </trkpt>
      <trkpt lat="48.03459" lon="7.00554">
        <ele>1248.1999511719</ele>
        <time>2022-10-09T10:36:37.000Z</time>
      </trkpt>
      <trkpt lat="48.03455" lon="7.00545">
        <ele>1247.5999755859</ele>
        <time>2022-10-09T10:36:43.000Z</time>
      </trkpt>
      <trkpt lat="48.03454" lon="7.0054">
        <ele>1247.5999755859</ele>
        <time>2022-10-09T10:36:46.000Z</time>
      </trkpt>
      <trkpt lat="48.03453" lon="7.00535">
        <ele>1247.4000244141</ele>
        <time>2022-10-09T10:36:49.000Z</time>
      </trkpt>
      <trkpt lat="48.0345" lon="7.00529">
        <ele>1247.4000244141</ele>
        <time>2022-10-09T10:36:53.000Z</time>
      </trkpt>
      <trkpt lat="48.03447" lon="7.00518">
        <ele>1247.1999511719</ele>
        <time>2022-10-09T10:36:59.000Z</time>
      </trkpt>
      <trkpt lat="48.03447" lon="7.00513">
        <ele>1247.1999511719</ele>
        <time>2022-10-09T10:37:01.000Z</time>
      </trkpt>
      <trkpt lat="48.03446" lon="7.00505">
        <ele>1246.8000488281</ele>
        <time>2022-10-09T10:37:05.000Z</time>
      </trkpt>
      <trkpt lat="48.03445" lon="7.00498">
        <ele>1246.5999755859</ele>
        <time>2022-10-09T10:37:09.000Z</time>
      </trkpt>
      <trkpt lat="48.03445" lon="7.00496">
        <ele>1246.5999755859</ele>
        <time>2022-10-09T10:37:10.000Z</time>
      </trkpt>
      <trkpt lat="48.03443" lon="7.00486">
        <ele>1246.1999511719</ele>
        <time>2022-10-09T10:37:15.000Z</time>
      </trkpt>
      <trkpt lat="48.03443" lon="7.00484">
        <ele>1246.1999511719</ele>
        <time>2022-10-09T10:37:16.000Z</time>
      </trkpt>
      <trkpt lat="48.03442" lon="7.00482">
        <ele>1246.1999511719</ele>
        <time>2022-10-09T10:37:18.000Z</time>
      </trkpt>
      <trkpt lat="48.03442" lon="7.0048">
        <ele>1246.1999511719</ele>
        <time>2022-10-09T10:37:19.000Z</time>
      </trkpt>
      <trkpt lat="48.03442" lon="7.00477">
        <ele>1246.1999511719</ele>
        <time>2022-10-09T10:37:22.000Z</time>
      </trkpt>
      <trkpt lat="48.0344" lon="7.00461">
        <ele>1245.8000488281</ele>
        <time>2022-10-09T10:37:31.000Z</time>
      </trkpt>
      <trkpt lat="48.0344" lon="7.00457">
        <ele>1245.8000488281</ele>
        <time>2022-10-09T10:37:33.000Z</time>
      </trkpt>
      <trkpt lat="48.03438" lon="7.00456">
        <ele>1245.5999755859</ele>
        <time>2022-10-09T10:37:35.000Z</time>
      </trkpt>
      <trkpt lat="48.03438" lon="7.00454">
        <ele>1245.5999755859</ele>
        <time>2022-10-09T10:37:37.000Z</time>
      </trkpt>
      <trkpt lat="48.03438" lon="7.00454">
        <ele>1245.4000244141</ele>
        <time>2022-10-09T10:37:38.000Z</time>
      </trkpt>
      <trkpt lat="48.03439" lon="7.00448">
        <ele>1245.1999511719</ele>
        <time>2022-10-09T10:37:43.000Z</time>
      </trkpt>
      <trkpt lat="48.03439" lon="7.00438">
        <ele>1245</ele>
        <time>2022-10-09T10:37:48.000Z</time>
      </trkpt>
      <trkpt lat="48.03439" lon="7.00435">
        <ele>1245</ele>
        <time>2022-10-09T10:37:50.000Z</time>
      </trkpt>
      <trkpt lat="48.0344" lon="7.00434">
        <ele>1245</ele>
        <time>2022-10-09T10:37:52.000Z</time>
      </trkpt>
      <trkpt lat="48.0344" lon="7.00434">
        <ele>1244.8000488281</ele>
        <time>2022-10-09T10:37:54.000Z</time>
      </trkpt>
      <trkpt lat="48.0344" lon="7.00434">
        <ele>1244.8000488281</ele>
        <time>2022-10-09T10:37:56.000Z</time>
      </trkpt>
      <trkpt lat="48.0344" lon="7.00434">
        <ele>1244.5999755859</ele>
        <time>2022-10-09T10:37:58.000Z</time>
      </trkpt>
      <trkpt lat="48.0344" lon="7.00434">
        <ele>1244.5999755859</ele>
        <time>2022-10-09T10:37:59.000Z</time>
      </trkpt>
      <trkpt lat="48.0344" lon="7.00434">
        <ele>1244.4000244141</ele>
        <time>2022-10-09T10:38:01.000Z</time>
      </trkpt>
      <trkpt lat="48.03441" lon="7.00432">
        <ele>1244.4000244141</ele>
        <time>2022-10-09T10:38:08.000Z</time>
      </trkpt>
      <trkpt lat="48.0344" lon="7.00433">
        <ele>1244.1999511719</ele>
        <time>2022-10-09T10:38:26.000Z</time>
      </trkpt>
      <trkpt lat="48.03439" lon="7.00433">
        <ele>1244.1999511719</ele>
        <time>2022-10-09T10:38:36.000Z</time>
      </trkpt>
      <trkpt lat="48.03438" lon="7.00433">
        <ele>1244.1999511719</ele>
        <time>2022-10-09T10:38:49.000Z</time>
      </trkpt>
      <trkpt lat="48.03438" lon="7.00434">
        <ele>1244.8000488281</ele>
        <time>2022-10-09T10:38:55.000Z</time>
      </trkpt>
      <trkpt lat="48.03438" lon="7.00434">
        <ele>1245</ele>
        <time>2022-10-09T10:38:57.000Z</time>
      </trkpt>
      <trkpt lat="48.03437" lon="7.00442">
        <ele>1244.8000488281</ele>
        <time>2022-10-09T10:39:21.000Z</time>
      </trkpt>
      <trkpt lat="48.03437" lon="7.00442">
        <ele>1244.8000488281</ele>
        <time>2022-10-09T10:39:27.000Z</time>
      </trkpt>
      <trkpt lat="48.03437" lon="7.00442">
        <ele>1244.8000488281</ele>
        <time>2022-10-09T10:39:30.000Z</time>
      </trkpt>
      <trkpt lat="48.03437" lon="7.00442">
        <ele>1244.5999755859</ele>
        <time>2022-10-09T10:39:36.000Z</time>
      </trkpt>
      <trkpt lat="48.0344" lon="7.00442">
        <ele>1244.8000488281</ele>
        <time>2022-10-09T10:40:08.000Z</time>
      </trkpt>
      <trkpt lat="48.03441" lon="7.00442">
        <ele>1245</ele>
        <time>2022-10-09T10:40:14.000Z</time>
      </trkpt>
      <trkpt lat="48.03442" lon="7.00443">
        <ele>1244.8000488281</ele>
        <time>2022-10-09T10:40:22.000Z</time>
      </trkpt>
      <trkpt lat="48.03442" lon="7.00444">
        <ele>1244.5999755859</ele>
        <time>2022-10-09T10:40:24.000Z</time>
      </trkpt>
      <trkpt lat="48.03442" lon="7.00445">
        <ele>1244.5999755859</ele>
        <time>2022-10-09T10:40:28.000Z</time>
      </trkpt>
      <trkpt lat="48.03447" lon="7.00441">
        <ele>1245</ele>
        <time>2022-10-09T10:41:17.000Z</time>
      </trkpt>
      <trkpt lat="48.03447" lon="7.00434">
        <ele>1244.8000488281</ele>
        <time>2022-10-09T10:41:25.000Z</time>
      </trkpt>
      <trkpt lat="48.03444" lon="7.00423">
        <ele>1244.5999755859</ele>
        <time>2022-10-09T10:41:31.000Z</time>
      </trkpt>
      <trkpt lat="48.03444" lon="7.00416">
        <ele>1244.5999755859</ele>
        <time>2022-10-09T10:41:34.000Z</time>
      </trkpt>
      <trkpt lat="48.03443" lon="7.00409">
        <ele>1244.4000244141</ele>
        <time>2022-10-09T10:41:38.000Z</time>
      </trkpt>
      <trkpt lat="48.03442" lon="7.00406">
        <ele>1244.4000244141</ele>
        <time>2022-10-09T10:41:40.000Z</time>
      </trkpt>
      <trkpt lat="48.0344" lon="7.00399">
        <ele>1244.4000244141</ele>
        <time>2022-10-09T10:41:43.000Z</time>
      </trkpt>
      <trkpt lat="48.0344" lon="7.00396">
        <ele>1244.1999511719</ele>
        <time>2022-10-09T10:41:45.000Z</time>
      </trkpt>
      <trkpt lat="48.03439" lon="7.00392">
        <ele>1244.1999511719</ele>
        <time>2022-10-09T10:41:47.000Z</time>
      </trkpt>
      <trkpt lat="48.03438" lon="7.00388">
        <ele>1244.1999511719</ele>
        <time>2022-10-09T10:41:49.000Z</time>
      </trkpt>
      <trkpt lat="48.03438" lon="7.00375">
        <ele>1244</ele>
        <time>2022-10-09T10:41:56.000Z</time>
      </trkpt>
      <trkpt lat="48.03438" lon="7.00372">
        <ele>1244</ele>
        <time>2022-10-09T10:41:58.000Z</time>
      </trkpt>
      <trkpt lat="48.03437" lon="7.00359">
        <ele>1243.5999755859</ele>
        <time>2022-10-09T10:42:05.000Z</time>
      </trkpt>
      <trkpt lat="48.03436" lon="7.00355">
        <ele>1243.4000244141</ele>
        <time>2022-10-09T10:42:07.000Z</time>
      </trkpt>
      <trkpt lat="48.03436" lon="7.00353">
        <ele>1243.4000244141</ele>
        <time>2022-10-09T10:42:08.000Z</time>
      </trkpt>
      <trkpt lat="48.03436" lon="7.00344">
        <ele>1243</ele>
        <time>2022-10-09T10:42:13.000Z</time>
      </trkpt>
      <trkpt lat="48.03435" lon="7.00342">
        <ele>1243</ele>
        <time>2022-10-09T10:42:14.000Z</time>
      </trkpt>
      <trkpt lat="48.03434" lon="7.0034">
        <ele>1243</ele>
        <time>2022-10-09T10:42:15.000Z</time>
      </trkpt>
      <trkpt lat="48.03432" lon="7.00338">
        <ele>1242.8000488281</ele>
        <time>2022-10-09T10:42:17.000Z</time>
      </trkpt>
      <trkpt lat="48.03431" lon="7.00335">
        <ele>1242.8000488281</ele>
        <time>2022-10-09T10:42:19.000Z</time>
      </trkpt>
      <trkpt lat="48.03431" lon="7.00333">
        <ele>1242.8000488281</ele>
        <time>2022-10-09T10:42:20.000Z</time>
      </trkpt>
      <trkpt lat="48.0343" lon="7.00327">
        <ele>1242.5999755859</ele>
        <time>2022-10-09T10:42:24.000Z</time>
      </trkpt>
      <trkpt lat="48.03429" lon="7.00323">
        <ele>1242.4000244141</ele>
        <time>2022-10-09T10:42:26.000Z</time>
      </trkpt>
      <trkpt lat="48.03429" lon="7.00321">
        <ele>1242.4000244141</ele>
        <time>2022-10-09T10:42:27.000Z</time>
      </trkpt>
      <trkpt lat="48.03427" lon="7.00311">
        <ele>1242.1999511719</ele>
        <time>2022-10-09T10:42:32.000Z</time>
      </trkpt>
      <trkpt lat="48.03425" lon="7.00307">
        <ele>1242.1999511719</ele>
        <time>2022-10-09T10:42:34.000Z</time>
      </trkpt>
      <trkpt lat="48.03425" lon="7.00306">
        <ele>1242.1999511719</ele>
        <time>2022-10-09T10:42:35.000Z</time>
      </trkpt>
      <trkpt lat="48.03425" lon="7.00296">
        <ele>1241.8000488281</ele>
        <time>2022-10-09T10:42:41.000Z</time>
      </trkpt>
      <trkpt lat="48.03428" lon="7.00287">
        <ele>1241.8000488281</ele>
        <time>2022-10-09T10:42:46.000Z</time>
      </trkpt>
      <trkpt lat="48.03429" lon="7.00284">
        <ele>1241.8000488281</ele>
        <time>2022-10-09T10:42:47.000Z</time>
      </trkpt>
      <trkpt lat="48.03429" lon="7.00282">
        <ele>1241.8000488281</ele>
        <time>2022-10-09T10:42:48.000Z</time>
      </trkpt>
      <trkpt lat="48.03429" lon="7.00276">
        <ele>1241.8000488281</ele>
        <time>2022-10-09T10:42:51.000Z</time>
      </trkpt>
      <trkpt lat="48.03429" lon="7.00272">
        <ele>1241.5999755859</ele>
        <time>2022-10-09T10:42:53.000Z</time>
      </trkpt>
      <trkpt lat="48.03429" lon="7.00261">
        <ele>1241.4000244141</ele>
        <time>2022-10-09T10:42:58.000Z</time>
      </trkpt>
      <trkpt lat="48.03429" lon="7.00257">
        <ele>1241.4000244141</ele>
        <time>2022-10-09T10:43:00.000Z</time>
      </trkpt>
      <trkpt lat="48.03429" lon="7.00255">
        <ele>1241.1999511719</ele>
        <time>2022-10-09T10:43:04.000Z</time>
      </trkpt>
      <trkpt lat="48.03429" lon="7.00254">
        <ele>1241.1999511719</ele>
        <time>2022-10-09T10:43:06.000Z</time>
      </trkpt>
      <trkpt lat="48.0343" lon="7.00253">
        <ele>1241.1999511719</ele>
        <time>2022-10-09T10:43:11.000Z</time>
      </trkpt>
      <trkpt lat="48.0343" lon="7.00253">
        <ele>1241.1999511719</ele>
        <time>2022-10-09T10:43:12.000Z</time>
      </trkpt>
      <trkpt lat="48.0343" lon="7.00258">
        <ele>1241.1999511719</ele>
        <time>2022-10-09T10:43:17.000Z</time>
      </trkpt>
      <trkpt lat="48.0343" lon="7.00258">
        <ele>1241.4000244141</ele>
        <time>2022-10-09T10:43:29.000Z</time>
      </trkpt>
      <trkpt lat="48.0343" lon="7.0026">
        <ele>1241.5999755859</ele>
        <time>2022-10-09T10:43:38.000Z</time>
      </trkpt>
      <trkpt lat="48.0343" lon="7.00261">
        <ele>1241.4000244141</ele>
        <time>2022-10-09T10:43:39.000Z</time>
      </trkpt>
      <trkpt lat="48.0343" lon="7.00263">
        <ele>1241.4000244141</ele>
        <time>2022-10-09T10:43:49.000Z</time>
      </trkpt>
      <trkpt lat="48.03431" lon="7.00258">
        <ele>1241</ele>
        <time>2022-10-09T10:44:00.000Z</time>
      </trkpt>
      <trkpt lat="48.0343" lon="7.00248">
        <ele>1240.5999755859</ele>
        <time>2022-10-09T10:44:07.000Z</time>
      </trkpt>
      <trkpt lat="48.03429" lon="7.00246">
        <ele>1240.4000244141</ele>
        <time>2022-10-09T10:44:11.000Z</time>
      </trkpt>
      <trkpt lat="48.03428" lon="7.00244">
        <ele>1240.4000244141</ele>
        <time>2022-10-09T10:44:12.000Z</time>
      </trkpt>
      <trkpt lat="48.03429" lon="7.0024">
        <ele>1240.5999755859</ele>
        <time>2022-10-09T10:44:17.000Z</time>
      </trkpt>
      <trkpt lat="48.03428" lon="7.00243">
        <ele>1240.8000488281</ele>
        <time>2022-10-09T10:44:22.000Z</time>
      </trkpt>
      <trkpt lat="48.03427" lon="7.0024">
        <ele>1240.5999755859</ele>
        <time>2022-10-09T10:44:26.000Z</time>
      </trkpt>
      <trkpt lat="48.03426" lon="7.00238">
        <ele>1240.4000244141</ele>
        <time>2022-10-09T10:44:28.000Z</time>
      </trkpt>
      <trkpt lat="48.03423" lon="7.00232">
        <ele>1240</ele>
        <time>2022-10-09T10:44:33.000Z</time>
      </trkpt>
      <trkpt lat="48.0342" lon="7.00227">
        <ele>1239.8000488281</ele>
        <time>2022-10-09T10:44:36.000Z</time>
      </trkpt>
      <trkpt lat="48.03422" lon="7.00216">
        <ele>1239.8000488281</ele>
        <time>2022-10-09T10:44:41.000Z</time>
      </trkpt>
      <trkpt lat="48.03422" lon="7.00215">
        <ele>1239.8000488281</ele>
        <time>2022-10-09T10:44:43.000Z</time>
      </trkpt>
      <trkpt lat="48.03424" lon="7.00205">
        <ele>1239.8000488281</ele>
        <time>2022-10-09T10:44:48.000Z</time>
      </trkpt>
      <trkpt lat="48.03425" lon="7.00199">
        <ele>1239.8000488281</ele>
        <time>2022-10-09T10:44:51.000Z</time>
      </trkpt>
      <trkpt lat="48.03424" lon="7.00197">
        <ele>1239.8000488281</ele>
        <time>2022-10-09T10:44:52.000Z</time>
      </trkpt>
      <trkpt lat="48.03424" lon="7.00193">
        <ele>1239.8000488281</ele>
        <time>2022-10-09T10:44:54.000Z</time>
      </trkpt>
      <trkpt lat="48.03425" lon="7.0019">
        <ele>1239.5999755859</ele>
        <time>2022-10-09T10:44:56.000Z</time>
      </trkpt>
      <trkpt lat="48.03426" lon="7.00187">
        <ele>1239.4000244141</ele>
        <time>2022-10-09T10:44:58.000Z</time>
      </trkpt>
      <trkpt lat="48.03427" lon="7.00183">
        <ele>1239.4000244141</ele>
        <time>2022-10-09T10:45:00.000Z</time>
      </trkpt>
      <trkpt lat="48.03428" lon="7.00167">
        <ele>1239</ele>
        <time>2022-10-09T10:45:09.000Z</time>
      </trkpt>
      <trkpt lat="48.03426" lon="7.00158">
        <ele>1238.8000488281</ele>
        <time>2022-10-09T10:45:15.000Z</time>
      </trkpt>
      <trkpt lat="48.03425" lon="7.00156">
        <ele>1238.5999755859</ele>
        <time>2022-10-09T10:45:17.000Z</time>
      </trkpt>
      <trkpt lat="48.03425" lon="7.0015">
        <ele>1238.5999755859</ele>
        <time>2022-10-09T10:45:20.000Z</time>
      </trkpt>
      <trkpt lat="48.03425" lon="7.00147">
        <ele>1238.4000244141</ele>
        <time>2022-10-09T10:45:23.000Z</time>
      </trkpt>
      <trkpt lat="48.03425" lon="7.00146">
        <ele>1238.4000244141</ele>
        <time>2022-10-09T10:45:24.000Z</time>
      </trkpt>
      <trkpt lat="48.03426" lon="7.00141">
        <ele>1238.1999511719</ele>
        <time>2022-10-09T10:45:27.000Z</time>
      </trkpt>
      <trkpt lat="48.03425" lon="7.00134">
        <ele>1238.1999511719</ele>
        <time>2022-10-09T10:45:30.000Z</time>
      </trkpt>
      <trkpt lat="48.03425" lon="7.00131">
        <ele>1238</ele>
        <time>2022-10-09T10:45:32.000Z</time>
      </trkpt>
      <trkpt lat="48.03424" lon="7.00129">
        <ele>1238</ele>
        <time>2022-10-09T10:45:33.000Z</time>
      </trkpt>
      <trkpt lat="48.03424" lon="7.00126">
        <ele>1238</ele>
        <time>2022-10-09T10:45:36.000Z</time>
      </trkpt>
      <trkpt lat="48.03424" lon="7.00126">
        <ele>1238</ele>
        <time>2022-10-09T10:45:37.000Z</time>
      </trkpt>
      <trkpt lat="48.03424" lon="7.00124">
        <ele>1238</ele>
        <time>2022-10-09T10:45:38.000Z</time>
      </trkpt>
      <trkpt lat="48.03422" lon="7.00117">
        <ele>1237.8000488281</ele>
        <time>2022-10-09T10:45:43.000Z</time>
      </trkpt>
      <trkpt lat="48.03421" lon="7.00115">
        <ele>1237.8000488281</ele>
        <time>2022-10-09T10:45:44.000Z</time>
      </trkpt>
      <trkpt lat="48.0342" lon="7.00107">
        <ele>1237.4000244141</ele>
        <time>2022-10-09T10:45:49.000Z</time>
      </trkpt>
      <trkpt lat="48.0342" lon="7.00106">
        <ele>1237.4000244141</ele>
        <time>2022-10-09T10:45:50.000Z</time>
      </trkpt>
      <trkpt lat="48.0342" lon="7.00093">
        <ele>1237.4000244141</ele>
        <time>2022-10-09T10:45:56.000Z</time>
      </trkpt>
      <trkpt lat="48.03419" lon="7.00089">
        <ele>1237.4000244141</ele>
        <time>2022-10-09T10:45:58.000Z</time>
      </trkpt>
      <trkpt lat="48.03417" lon="7.00074">
        <ele>1237</ele>
        <time>2022-10-09T10:46:06.000Z</time>
      </trkpt>
      <trkpt lat="48.03418" lon="7.00055">
        <ele>1236.1999511719</ele>
        <time>2022-10-09T10:46:16.000Z</time>
      </trkpt>
      <trkpt lat="48.03418" lon="7.00054">
        <ele>1236.1999511719</ele>
        <time>2022-10-09T10:46:17.000Z</time>
      </trkpt>
      <trkpt lat="48.03416" lon="7.00037">
        <ele>1235.5999755859</ele>
        <time>2022-10-09T10:46:27.000Z</time>
      </trkpt>
      <trkpt lat="48.03414" lon="7.00027">
        <ele>1235.1999511719</ele>
        <time>2022-10-09T10:46:33.000Z</time>
      </trkpt>
      <trkpt lat="48.03414" lon="7.00026">
        <ele>1235.1999511719</ele>
        <time>2022-10-09T10:46:34.000Z</time>
      </trkpt>
      <trkpt lat="48.03413" lon="7.00024">
        <ele>1235</ele>
        <time>2022-10-09T10:46:35.000Z</time>
      </trkpt>
      <trkpt lat="48.03412" lon="7.0002">
        <ele>1234.8000488281</ele>
        <time>2022-10-09T10:46:37.000Z</time>
      </trkpt>
      <trkpt lat="48.03411" lon="7.00001">
        <ele>1234</ele>
        <time>2022-10-09T10:46:48.000Z</time>
      </trkpt>
      <trkpt lat="48.03412" lon="6.99992">
        <ele>1233.8000488281</ele>
        <time>2022-10-09T10:46:53.000Z</time>
      </trkpt>
      <trkpt lat="48.03412" lon="6.99988">
        <ele>1234</ele>
        <time>2022-10-09T10:46:55.000Z</time>
      </trkpt>
      <trkpt lat="48.03417" lon="6.99978">
        <ele>1234.5999755859</ele>
        <time>2022-10-09T10:47:02.000Z</time>
      </trkpt>
      <trkpt lat="48.03418" lon="6.99973">
        <ele>1234.5999755859</ele>
        <time>2022-10-09T10:47:05.000Z</time>
      </trkpt>
      <trkpt lat="48.03419" lon="6.99967">
        <ele>1234.5999755859</ele>
        <time>2022-10-09T10:47:07.000Z</time>
      </trkpt>
      <trkpt lat="48.03419" lon="6.99964">
        <ele>1234.5999755859</ele>
        <time>2022-10-09T10:47:08.000Z</time>
      </trkpt>
      <trkpt lat="48.03423" lon="6.99959">
        <ele>1234.8000488281</ele>
        <time>2022-10-09T10:47:12.000Z</time>
      </trkpt>
      <trkpt lat="48.03425" lon="6.99955">
        <ele>1234.5999755859</ele>
        <time>2022-10-09T10:47:15.000Z</time>
      </trkpt>
      <trkpt lat="48.03425" lon="6.99954">
        <ele>1234.8000488281</ele>
        <time>2022-10-09T10:47:16.000Z</time>
      </trkpt>
      <trkpt lat="48.03426" lon="6.99948">
        <ele>1234.5999755859</ele>
        <time>2022-10-09T10:47:20.000Z</time>
      </trkpt>
      <trkpt lat="48.03426" lon="6.99946">
        <ele>1234.5999755859</ele>
        <time>2022-10-09T10:47:21.000Z</time>
      </trkpt>
      <trkpt lat="48.03427" lon="6.99933">
        <ele>1234.1999511719</ele>
        <time>2022-10-09T10:47:29.000Z</time>
      </trkpt>
      <trkpt lat="48.03427" lon="6.99931">
        <ele>1234.4000244141</ele>
        <time>2022-10-09T10:47:30.000Z</time>
      </trkpt>
      <trkpt lat="48.03425" lon="6.99925">
        <ele>1234.4000244141</ele>
        <time>2022-10-09T10:47:34.000Z</time>
      </trkpt>
      <trkpt lat="48.03425" lon="6.99923">
        <ele>1234.5999755859</ele>
        <time>2022-10-09T10:47:35.000Z</time>
      </trkpt>
      <trkpt lat="48.03424" lon="6.99922">
        <ele>1234.5999755859</ele>
        <time>2022-10-09T10:47:36.000Z</time>
      </trkpt>
      <trkpt lat="48.03424" lon="6.9992">
        <ele>1234.5999755859</ele>
        <time>2022-10-09T10:47:37.000Z</time>
      </trkpt>
      <trkpt lat="48.03422" lon="6.9991">
        <ele>1234.5999755859</ele>
        <time>2022-10-09T10:47:44.000Z</time>
      </trkpt>
      <trkpt lat="48.03421" lon="6.99906">
        <ele>1234.5999755859</ele>
        <time>2022-10-09T10:47:46.000Z</time>
      </trkpt>
      <trkpt lat="48.0342" lon="6.99904">
        <ele>1234.5999755859</ele>
        <time>2022-10-09T10:47:48.000Z</time>
      </trkpt>
      <trkpt lat="48.0342" lon="6.99902">
        <ele>1234.5999755859</ele>
        <time>2022-10-09T10:47:49.000Z</time>
      </trkpt>
      <trkpt lat="48.03419" lon="6.99901">
        <ele>1234.5999755859</ele>
        <time>2022-10-09T10:47:50.000Z</time>
      </trkpt>
      <trkpt lat="48.03419" lon="6.99896">
        <ele>1234.4000244141</ele>
        <time>2022-10-09T10:47:53.000Z</time>
      </trkpt>
      <trkpt lat="48.03418" lon="6.99892">
        <ele>1234.4000244141</ele>
        <time>2022-10-09T10:47:55.000Z</time>
      </trkpt>
      <trkpt lat="48.03416" lon="6.99887">
        <ele>1234.4000244141</ele>
        <time>2022-10-09T10:47:58.000Z</time>
      </trkpt>
      <trkpt lat="48.03415" lon="6.99885">
        <ele>1234.5999755859</ele>
        <time>2022-10-09T10:47:59.000Z</time>
      </trkpt>
      <trkpt lat="48.03414" lon="6.99885">
        <ele>1234.5999755859</ele>
        <time>2022-10-09T10:48:00.000Z</time>
      </trkpt>
      <trkpt lat="48.03414" lon="6.9988">
        <ele>1235</ele>
        <time>2022-10-09T10:48:04.000Z</time>
      </trkpt>
      <trkpt lat="48.03414" lon="6.99875">
        <ele>1235.1999511719</ele>
        <time>2022-10-09T10:48:07.000Z</time>
      </trkpt>
      <trkpt lat="48.03415" lon="6.99865">
        <ele>1235</ele>
        <time>2022-10-09T10:48:12.000Z</time>
      </trkpt>
      <trkpt lat="48.03417" lon="6.99846">
        <ele>1235</ele>
        <time>2022-10-09T10:48:22.000Z</time>
      </trkpt>
      <trkpt lat="48.03416" lon="6.99832">
        <ele>1235.4000244141</ele>
        <time>2022-10-09T10:48:30.000Z</time>
      </trkpt>
      <trkpt lat="48.03417" lon="6.99812">
        <ele>1235</ele>
        <time>2022-10-09T10:48:40.000Z</time>
      </trkpt>
      <trkpt lat="48.03416" lon="6.9981">
        <ele>1234.8000488281</ele>
        <time>2022-10-09T10:48:42.000Z</time>
      </trkpt>
      <trkpt lat="48.03415" lon="6.99805">
        <ele>1234.8000488281</ele>
        <time>2022-10-09T10:48:45.000Z</time>
      </trkpt>
      <trkpt lat="48.03415" lon="6.99802">
        <ele>1234.8000488281</ele>
        <time>2022-10-09T10:48:47.000Z</time>
      </trkpt>
      <trkpt lat="48.03413" lon="6.99789">
        <ele>1234.4000244141</ele>
        <time>2022-10-09T10:48:55.000Z</time>
      </trkpt>
      <trkpt lat="48.03412" lon="6.99774">
        <ele>1234</ele>
        <time>2022-10-09T10:49:03.000Z</time>
      </trkpt>
      <trkpt lat="48.03411" lon="6.99773">
        <ele>1234</ele>
        <time>2022-10-09T10:49:04.000Z</time>
      </trkpt>
      <trkpt lat="48.0341" lon="6.99761">
        <ele>1233.1999511719</ele>
        <time>2022-10-09T10:49:11.000Z</time>
      </trkpt>
      <trkpt lat="48.0341" lon="6.9976">
        <ele>1233.1999511719</ele>
        <time>2022-10-09T10:49:12.000Z</time>
      </trkpt>
      <trkpt lat="48.03407" lon="6.99756">
        <ele>1233</ele>
        <time>2022-10-09T10:49:15.000Z</time>
      </trkpt>
      <trkpt lat="48.03407" lon="6.99749">
        <ele>1232.5999755859</ele>
        <time>2022-10-09T10:49:19.000Z</time>
      </trkpt>
      <trkpt lat="48.03405" lon="6.99744">
        <ele>1232.4000244141</ele>
        <time>2022-10-09T10:49:22.000Z</time>
      </trkpt>
      <trkpt lat="48.03404" lon="6.99739">
        <ele>1232.1999511719</ele>
        <time>2022-10-09T10:49:25.000Z</time>
      </trkpt>
      <trkpt lat="48.03404" lon="6.99738">
        <ele>1232.1999511719</ele>
        <time>2022-10-09T10:49:26.000Z</time>
      </trkpt>
      <trkpt lat="48.03402" lon="6.99733">
        <ele>1231.8000488281</ele>
        <time>2022-10-09T10:49:29.000Z</time>
      </trkpt>
      <trkpt lat="48.03402" lon="6.99731">
        <ele>1231.8000488281</ele>
        <time>2022-10-09T10:49:30.000Z</time>
      </trkpt>
      <trkpt lat="48.03401" lon="6.99726">
        <ele>1231.5999755859</ele>
        <time>2022-10-09T10:49:33.000Z</time>
      </trkpt>
      <trkpt lat="48.03401" lon="6.99724">
        <ele>1231.4000244141</ele>
        <time>2022-10-09T10:49:34.000Z</time>
      </trkpt>
      <trkpt lat="48.03399" lon="6.99719">
        <ele>1231.1999511719</ele>
        <time>2022-10-09T10:49:38.000Z</time>
      </trkpt>
      <trkpt lat="48.034" lon="6.99713">
        <ele>1230.8000488281</ele>
        <time>2022-10-09T10:49:42.000Z</time>
      </trkpt>
      <trkpt lat="48.03398" lon="6.99709">
        <ele>1230.8000488281</ele>
        <time>2022-10-09T10:49:44.000Z</time>
      </trkpt>
      <trkpt lat="48.03396" lon="6.99707">
        <ele>1230.4000244141</ele>
        <time>2022-10-09T10:49:46.000Z</time>
      </trkpt>
      <trkpt lat="48.03396" lon="6.99706">
        <ele>1230.4000244141</ele>
        <time>2022-10-09T10:49:47.000Z</time>
      </trkpt>
      <trkpt lat="48.03395" lon="6.99705">
        <ele>1230.1999511719</ele>
        <time>2022-10-09T10:49:48.000Z</time>
      </trkpt>
      <trkpt lat="48.03394" lon="6.997">
        <ele>1229.8000488281</ele>
        <time>2022-10-09T10:49:51.000Z</time>
      </trkpt>
      <trkpt lat="48.03393" lon="6.99698">
        <ele>1229.8000488281</ele>
        <time>2022-10-09T10:49:52.000Z</time>
      </trkpt>
      <trkpt lat="48.03393" lon="6.99689">
        <ele>1229.4000244141</ele>
        <time>2022-10-09T10:49:57.000Z</time>
      </trkpt>
      <trkpt lat="48.03392" lon="6.99687">
        <ele>1229.1999511719</ele>
        <time>2022-10-09T10:49:59.000Z</time>
      </trkpt>
      <trkpt lat="48.0339" lon="6.99684">
        <ele>1229</ele>
        <time>2022-10-09T10:50:01.000Z</time>
      </trkpt>
      <trkpt lat="48.03389" lon="6.9968">
        <ele>1228.5999755859</ele>
        <time>2022-10-09T10:50:04.000Z</time>
      </trkpt>
      <trkpt lat="48.03388" lon="6.99671">
        <ele>1228.1999511719</ele>
        <time>2022-10-09T10:50:09.000Z</time>
      </trkpt>
      <trkpt lat="48.03388" lon="6.99662">
        <ele>1227.8000488281</ele>
        <time>2022-10-09T10:50:14.000Z</time>
      </trkpt>
      <trkpt lat="48.03388" lon="6.99661">
        <ele>1227.5999755859</ele>
        <time>2022-10-09T10:50:15.000Z</time>
      </trkpt>
      <trkpt lat="48.03387" lon="6.99653">
        <ele>1227</ele>
        <time>2022-10-09T10:50:20.000Z</time>
      </trkpt>
      <trkpt lat="48.03387" lon="6.9965">
        <ele>1226.5999755859</ele>
        <time>2022-10-09T10:50:22.000Z</time>
      </trkpt>
      <trkpt lat="48.03383" lon="6.99635">
        <ele>1225.8000488281</ele>
        <time>2022-10-09T10:50:30.000Z</time>
      </trkpt>
      <trkpt lat="48.03381" lon="6.99632">
        <ele>1225.5999755859</ele>
        <time>2022-10-09T10:50:32.000Z</time>
      </trkpt>
      <trkpt lat="48.03381" lon="6.9963">
        <ele>1225.5999755859</ele>
        <time>2022-10-09T10:50:33.000Z</time>
      </trkpt>
      <trkpt lat="48.0338" lon="6.99623">
        <ele>1225</ele>
        <time>2022-10-09T10:50:38.000Z</time>
      </trkpt>
      <trkpt lat="48.03378" lon="6.99615">
        <ele>1224.5999755859</ele>
        <time>2022-10-09T10:50:43.000Z</time>
      </trkpt>
      <trkpt lat="48.03377" lon="6.99612">
        <ele>1224.4000244141</ele>
        <time>2022-10-09T10:50:45.000Z</time>
      </trkpt>
      <trkpt lat="48.03374" lon="6.99602">
        <ele>1223.4000244141</ele>
        <time>2022-10-09T10:50:52.000Z</time>
      </trkpt>
      <trkpt lat="48.03374" lon="6.996">
        <ele>1223.1999511719</ele>
        <time>2022-10-09T10:50:53.000Z</time>
      </trkpt>
      <trkpt lat="48.03374" lon="6.99599">
        <ele>1223.1999511719</ele>
        <time>2022-10-09T10:50:54.000Z</time>
      </trkpt>
      <trkpt lat="48.03371" lon="6.99589">
        <ele>1222.5999755859</ele>
        <time>2022-10-09T10:51:01.000Z</time>
      </trkpt>
      <trkpt lat="48.03371" lon="6.99586">
        <ele>1222.4000244141</ele>
        <time>2022-10-09T10:51:03.000Z</time>
      </trkpt>
      <trkpt lat="48.03368" lon="6.9957">
        <ele>1221.4000244141</ele>
        <time>2022-10-09T10:51:13.000Z</time>
      </trkpt>
      <trkpt lat="48.03368" lon="6.9957">
        <ele>1221.4000244141</ele>
        <time>2022-10-09T10:51:14.000Z</time>
      </trkpt>
      <trkpt lat="48.03365" lon="6.9956">
        <ele>1221</ele>
        <time>2022-10-09T10:51:20.000Z</time>
      </trkpt>
      <trkpt lat="48.03364" lon="6.99559">
        <ele>1220.8000488281</ele>
        <time>2022-10-09T10:51:21.000Z</time>
      </trkpt>
      <trkpt lat="48.03364" lon="6.99558">
        <ele>1220.8000488281</ele>
        <time>2022-10-09T10:51:22.000Z</time>
      </trkpt>
      <trkpt lat="48.03364" lon="6.99556">
        <ele>1220.8000488281</ele>
        <time>2022-10-09T10:51:23.000Z</time>
      </trkpt>
      <trkpt lat="48.03362" lon="6.99552">
        <ele>1220.1999511719</ele>
        <time>2022-10-09T10:51:27.000Z</time>
      </trkpt>
      <trkpt lat="48.03362" lon="6.9955">
        <ele>1220.1999511719</ele>
        <time>2022-10-09T10:51:28.000Z</time>
      </trkpt>
      <trkpt lat="48.03363" lon="6.99549">
        <ele>1220</ele>
        <time>2022-10-09T10:51:31.000Z</time>
      </trkpt>
      <trkpt lat="48.03361" lon="6.99545">
        <ele>1219.8000488281</ele>
        <time>2022-10-09T10:51:34.000Z</time>
      </trkpt>
      <trkpt lat="48.0336" lon="6.99541">
        <ele>1219.4000244141</ele>
        <time>2022-10-09T10:51:37.000Z</time>
      </trkpt>
      <trkpt lat="48.03358" lon="6.99539">
        <ele>1219.1999511719</ele>
        <time>2022-10-09T10:51:39.000Z</time>
      </trkpt>
      <trkpt lat="48.03358" lon="6.99538">
        <ele>1219</ele>
        <time>2022-10-09T10:51:40.000Z</time>
      </trkpt>
      <trkpt lat="48.03353" lon="6.99526">
        <ele>1218</ele>
        <time>2022-10-09T10:51:49.000Z</time>
      </trkpt>
      <trkpt lat="48.03353" lon="6.99525">
        <ele>1218</ele>
        <time>2022-10-09T10:51:50.000Z</time>
      </trkpt>
      <trkpt lat="48.03352" lon="6.99523">
        <ele>1217.8000488281</ele>
        <time>2022-10-09T10:51:51.000Z</time>
      </trkpt>
      <trkpt lat="48.03349" lon="6.99516">
        <ele>1217.8000488281</ele>
        <time>2022-10-09T10:51:56.000Z</time>
      </trkpt>
      <trkpt lat="48.03347" lon="6.99514">
        <ele>1217.5999755859</ele>
        <time>2022-10-09T10:51:58.000Z</time>
      </trkpt>
      <trkpt lat="48.03346" lon="6.99513">
        <ele>1217.5999755859</ele>
        <time>2022-10-09T10:51:59.000Z</time>
      </trkpt>
      <trkpt lat="48.03342" lon="6.99508">
        <ele>1217</ele>
        <time>2022-10-09T10:52:03.000Z</time>
      </trkpt>
      <trkpt lat="48.03336" lon="6.99501">
        <ele>1216.1999511719</ele>
        <time>2022-10-09T10:52:08.000Z</time>
      </trkpt>
      <trkpt lat="48.03335" lon="6.99498">
        <ele>1216</ele>
        <time>2022-10-09T10:52:11.000Z</time>
      </trkpt>
      <trkpt lat="48.03334" lon="6.99498">
        <ele>1216</ele>
        <time>2022-10-09T10:52:12.000Z</time>
      </trkpt>
      <trkpt lat="48.03332" lon="6.99495">
        <ele>1215.8000488281</ele>
        <time>2022-10-09T10:52:14.000Z</time>
      </trkpt>
      <trkpt lat="48.03327" lon="6.99488">
        <ele>1215.4000244141</ele>
        <time>2022-10-09T10:52:22.000Z</time>
      </trkpt>
      <trkpt lat="48.03326" lon="6.99487">
        <ele>1215.4000244141</ele>
        <time>2022-10-09T10:52:23.000Z</time>
      </trkpt>
      <trkpt lat="48.03323" lon="6.99483">
        <ele>1215.1999511719</ele>
        <time>2022-10-09T10:52:27.000Z</time>
      </trkpt>
      <trkpt lat="48.03319" lon="6.99479">
        <ele>1214.8000488281</ele>
        <time>2022-10-09T10:52:31.000Z</time>
      </trkpt>
      <trkpt lat="48.03314" lon="6.99475">
        <ele>1214.8000488281</ele>
        <time>2022-10-09T10:52:36.000Z</time>
      </trkpt>
      <trkpt lat="48.03305" lon="6.9947">
        <ele>1214</ele>
        <time>2022-10-09T10:52:44.000Z</time>
      </trkpt>
      <trkpt lat="48.03304" lon="6.9947">
        <ele>1213.5999755859</ele>
        <time>2022-10-09T10:52:45.000Z</time>
      </trkpt>
      <trkpt lat="48.03299" lon="6.99467">
        <ele>1212.5999755859</ele>
        <time>2022-10-09T10:52:50.000Z</time>
      </trkpt>
      <trkpt lat="48.03298" lon="6.99467">
        <ele>1212.5999755859</ele>
        <time>2022-10-09T10:52:51.000Z</time>
      </trkpt>
      <trkpt lat="48.03292" lon="6.99464">
        <ele>1212.5999755859</ele>
        <time>2022-10-09T10:52:57.000Z</time>
      </trkpt>
      <trkpt lat="48.03289" lon="6.99462">
        <ele>1212.4000244141</ele>
        <time>2022-10-09T10:53:00.000Z</time>
      </trkpt>
      <trkpt lat="48.03286" lon="6.99461">
        <ele>1212</ele>
        <time>2022-10-09T10:53:03.000Z</time>
      </trkpt>
      <trkpt lat="48.03283" lon="6.9946">
        <ele>1211.5999755859</ele>
        <time>2022-10-09T10:53:06.000Z</time>
      </trkpt>
      <trkpt lat="48.03282" lon="6.9946">
        <ele>1211.4000244141</ele>
        <time>2022-10-09T10:53:07.000Z</time>
      </trkpt>
      <trkpt lat="48.0328" lon="6.99459">
        <ele>1211.4000244141</ele>
        <time>2022-10-09T10:53:09.000Z</time>
      </trkpt>
      <trkpt lat="48.03279" lon="6.99458">
        <ele>1211.1999511719</ele>
        <time>2022-10-09T10:53:10.000Z</time>
      </trkpt>
      <trkpt lat="48.03278" lon="6.99457">
        <ele>1211</ele>
        <time>2022-10-09T10:53:12.000Z</time>
      </trkpt>
      <trkpt lat="48.03272" lon="6.99454">
        <ele>1210.4000244141</ele>
        <time>2022-10-09T10:53:18.000Z</time>
      </trkpt>
      <trkpt lat="48.0327" lon="6.99454">
        <ele>1210.1999511719</ele>
        <time>2022-10-09T10:53:20.000Z</time>
      </trkpt>
      <trkpt lat="48.03267" lon="6.99453">
        <ele>1210.1999511719</ele>
        <time>2022-10-09T10:53:23.000Z</time>
      </trkpt>
      <trkpt lat="48.03263" lon="6.99451">
        <ele>1210</ele>
        <time>2022-10-09T10:53:28.000Z</time>
      </trkpt>
      <trkpt lat="48.03261" lon="6.9945">
        <ele>1209.8000488281</ele>
        <time>2022-10-09T10:53:30.000Z</time>
      </trkpt>
      <trkpt lat="48.03256" lon="6.99448">
        <ele>1209.4000244141</ele>
        <time>2022-10-09T10:53:35.000Z</time>
      </trkpt>
      <trkpt lat="48.03249" lon="6.99445">
        <ele>1209</ele>
        <time>2022-10-09T10:53:43.000Z</time>
      </trkpt>
      <trkpt lat="48.03246" lon="6.99444">
        <ele>1208.8000488281</ele>
        <time>2022-10-09T10:53:46.000Z</time>
      </trkpt>
      <trkpt lat="48.03243" lon="6.99443">
        <ele>1208.4000244141</ele>
        <time>2022-10-09T10:53:49.000Z</time>
      </trkpt>
      <trkpt lat="48.03242" lon="6.99443">
        <ele>1208.4000244141</ele>
        <time>2022-10-09T10:53:50.000Z</time>
      </trkpt>
      <trkpt lat="48.0324" lon="6.99442">
        <ele>1208.1999511719</ele>
        <time>2022-10-09T10:53:52.000Z</time>
      </trkpt>
      <trkpt lat="48.03238" lon="6.99441">
        <ele>1208</ele>
        <time>2022-10-09T10:53:54.000Z</time>
      </trkpt>
      <trkpt lat="48.03231" lon="6.99438">
        <ele>1207.4000244141</ele>
        <time>2022-10-09T10:54:01.000Z</time>
      </trkpt>
      <trkpt lat="48.03224" lon="6.99434">
        <ele>1206.8000488281</ele>
        <time>2022-10-09T10:54:10.000Z</time>
      </trkpt>
      <trkpt lat="48.03224" lon="6.99433">
        <ele>1206.8000488281</ele>
        <time>2022-10-09T10:54:17.000Z</time>
      </trkpt>
      <trkpt lat="48.0322" lon="6.99433">
        <ele>1206.5999755859</ele>
        <time>2022-10-09T10:54:21.000Z</time>
      </trkpt>
      <trkpt lat="48.03213" lon="6.9943">
        <ele>1206.4000244141</ele>
        <time>2022-10-09T10:54:26.000Z</time>
      </trkpt>
      <trkpt lat="48.03209" lon="6.9943">
        <ele>1206.1999511719</ele>
        <time>2022-10-09T10:54:30.000Z</time>
      </trkpt>
      <trkpt lat="48.03204" lon="6.99428">
        <ele>1205.5999755859</ele>
        <time>2022-10-09T10:54:34.000Z</time>
      </trkpt>
      <trkpt lat="48.03203" lon="6.99428">
        <ele>1205.4000244141</ele>
        <time>2022-10-09T10:54:35.000Z</time>
      </trkpt>
      <trkpt lat="48.03202" lon="6.99428">
        <ele>1205.1999511719</ele>
        <time>2022-10-09T10:54:36.000Z</time>
      </trkpt>
      <trkpt lat="48.03194" lon="6.99427">
        <ele>1204.8000488281</ele>
        <time>2022-10-09T10:54:42.000Z</time>
      </trkpt>
      <trkpt lat="48.03189" lon="6.99426">
        <ele>1204.1999511719</ele>
        <time>2022-10-09T10:54:47.000Z</time>
      </trkpt>
      <trkpt lat="48.03184" lon="6.99424">
        <ele>1204.4000244141</ele>
        <time>2022-10-09T10:54:52.000Z</time>
      </trkpt>
      <trkpt lat="48.03183" lon="6.99423">
        <ele>1204.4000244141</ele>
        <time>2022-10-09T10:54:53.000Z</time>
      </trkpt>
      <trkpt lat="48.0318" lon="6.99422">
        <ele>1204.1999511719</ele>
        <time>2022-10-09T10:54:56.000Z</time>
      </trkpt>
      <trkpt lat="48.03176" lon="6.99421">
        <ele>1203.5999755859</ele>
        <time>2022-10-09T10:55:00.000Z</time>
      </trkpt>
      <trkpt lat="48.03173" lon="6.9942">
        <ele>1203.1999511719</ele>
        <time>2022-10-09T10:55:03.000Z</time>
      </trkpt>
      <trkpt lat="48.03168" lon="6.99418">
        <ele>1202.5999755859</ele>
        <time>2022-10-09T10:55:08.000Z</time>
      </trkpt>
      <trkpt lat="48.03166" lon="6.99417">
        <ele>1202.5999755859</ele>
        <time>2022-10-09T10:55:10.000Z</time>
      </trkpt>
      <trkpt lat="48.03163" lon="6.99417">
        <ele>1202.5999755859</ele>
        <time>2022-10-09T10:55:12.000Z</time>
      </trkpt>
      <trkpt lat="48.0316" lon="6.9942">
        <ele>1202.4000244141</ele>
        <time>2022-10-09T10:55:17.000Z</time>
      </trkpt>
      <trkpt lat="48.0316" lon="6.99421">
        <ele>1202.5999755859</ele>
        <time>2022-10-09T10:55:18.000Z</time>
      </trkpt>
      <trkpt lat="48.0316" lon="6.99424">
        <ele>1202.8000488281</ele>
        <time>2022-10-09T10:55:24.000Z</time>
      </trkpt>
      <trkpt lat="48.0316" lon="6.99425">
        <ele>1203.4000244141</ele>
        <time>2022-10-09T10:55:30.000Z</time>
      </trkpt>
      <trkpt lat="48.0316" lon="6.99425">
        <ele>1203</ele>
        <time>2022-10-09T10:55:39.000Z</time>
      </trkpt>
      <trkpt lat="48.03161" lon="6.99423">
        <ele>1203.1999511719</ele>
        <time>2022-10-09T10:56:02.000Z</time>
      </trkpt>
      <trkpt lat="48.03161" lon="6.99423">
        <ele>1203.1999511719</ele>
        <time>2022-10-09T10:56:05.000Z</time>
      </trkpt>
      <trkpt lat="48.03161" lon="6.99423">
        <ele>1203.1999511719</ele>
        <time>2022-10-09T10:56:13.000Z</time>
      </trkpt>
      <trkpt lat="48.03161" lon="6.99423">
        <ele>1203</ele>
        <time>2022-10-09T10:56:15.000Z</time>
      </trkpt>
      <trkpt lat="48.03162" lon="6.99421">
        <ele>1202.1999511719</ele>
        <time>2022-10-09T10:56:22.000Z</time>
      </trkpt>
      <trkpt lat="48.03162" lon="6.99411">
        <ele>1201.5999755859</ele>
        <time>2022-10-09T10:56:27.000Z</time>
      </trkpt>
      <trkpt lat="48.0316" lon="6.99394">
        <ele>1201.4000244141</ele>
        <time>2022-10-09T10:56:38.000Z</time>
      </trkpt>
      <trkpt lat="48.03159" lon="6.99391">
        <ele>1201</ele>
        <time>2022-10-09T10:56:44.000Z</time>
      </trkpt>
      <trkpt lat="48.03159" lon="6.99388">
        <ele>1201</ele>
        <time>2022-10-09T10:56:46.000Z</time>
      </trkpt>
      <trkpt lat="48.03159" lon="6.99387">
        <ele>1201</ele>
        <time>2022-10-09T10:56:47.000Z</time>
      </trkpt>
      <trkpt lat="48.03157" lon="6.99388">
        <ele>1201</ele>
        <time>2022-10-09T10:56:50.000Z</time>
      </trkpt>
      <trkpt lat="48.03155" lon="6.99388">
        <ele>1200.8000488281</ele>
        <time>2022-10-09T10:56:54.000Z</time>
      </trkpt>
      <trkpt lat="48.03153" lon="6.99388">
        <ele>1200.4000244141</ele>
        <time>2022-10-09T10:56:57.000Z</time>
      </trkpt>
      <trkpt lat="48.03153" lon="6.99386">
        <ele>1200.1999511719</ele>
        <time>2022-10-09T10:56:59.000Z</time>
      </trkpt>
      <trkpt lat="48.03152" lon="6.99385">
        <ele>1200.1999511719</ele>
        <time>2022-10-09T10:57:00.000Z</time>
      </trkpt>
      <trkpt lat="48.03152" lon="6.99384">
        <ele>1200</ele>
        <time>2022-10-09T10:57:01.000Z</time>
      </trkpt>
      <trkpt lat="48.03148" lon="6.99386">
        <ele>1199.4000244141</ele>
        <time>2022-10-09T10:57:05.000Z</time>
      </trkpt>
      <trkpt lat="48.03146" lon="6.99387">
        <ele>1199.4000244141</ele>
        <time>2022-10-09T10:57:07.000Z</time>
      </trkpt>
      <trkpt lat="48.03144" lon="6.99388">
        <ele>1199.4000244141</ele>
        <time>2022-10-09T10:57:08.000Z</time>
      </trkpt>
      <trkpt lat="48.03142" lon="6.99388">
        <ele>1199.4000244141</ele>
        <time>2022-10-09T10:57:10.000Z</time>
      </trkpt>
      <trkpt lat="48.03141" lon="6.9939">
        <ele>1199</ele>
        <time>2022-10-09T10:57:13.000Z</time>
      </trkpt>
      <trkpt lat="48.0314" lon="6.9939">
        <ele>1199</ele>
        <time>2022-10-09T10:57:14.000Z</time>
      </trkpt>
      <trkpt lat="48.03133" lon="6.99391">
        <ele>1198.4000244141</ele>
        <time>2022-10-09T10:57:20.000Z</time>
      </trkpt>
      <trkpt lat="48.03132" lon="6.99391">
        <ele>1198.1999511719</ele>
        <time>2022-10-09T10:57:21.000Z</time>
      </trkpt>
      <trkpt lat="48.03126" lon="6.99391">
        <ele>1198</ele>
        <time>2022-10-09T10:57:27.000Z</time>
      </trkpt>
      <trkpt lat="48.03123" lon="6.99392">
        <ele>1197.8000488281</ele>
        <time>2022-10-09T10:57:30.000Z</time>
      </trkpt>
      <trkpt lat="48.03122" lon="6.99392">
        <ele>1197.8000488281</ele>
        <time>2022-10-09T10:57:31.000Z</time>
      </trkpt>
      <trkpt lat="48.03121" lon="6.99393">
        <ele>1197.5999755859</ele>
        <time>2022-10-09T10:57:32.000Z</time>
      </trkpt>
      <trkpt lat="48.0312" lon="6.99393">
        <ele>1197.5999755859</ele>
        <time>2022-10-09T10:57:33.000Z</time>
      </trkpt>
      <trkpt lat="48.03119" lon="6.99394">
        <ele>1197.5999755859</ele>
        <time>2022-10-09T10:57:34.000Z</time>
      </trkpt>
      <trkpt lat="48.03116" lon="6.99395">
        <ele>1197.4000244141</ele>
        <time>2022-10-09T10:57:37.000Z</time>
      </trkpt>
      <trkpt lat="48.03115" lon="6.99391">
        <ele>1197.5999755859</ele>
        <time>2022-10-09T10:57:42.000Z</time>
      </trkpt>
      <trkpt lat="48.03115" lon="6.9939">
        <ele>1197.5999755859</ele>
        <time>2022-10-09T10:57:44.000Z</time>
      </trkpt>
      <trkpt lat="48.03113" lon="6.99389">
        <ele>1197.5999755859</ele>
        <time>2022-10-09T10:57:52.000Z</time>
      </trkpt>
      <trkpt lat="48.03113" lon="6.99389">
        <ele>1196.8000488281</ele>
        <time>2022-10-09T10:58:08.000Z</time>
      </trkpt>
      <trkpt lat="48.03109" lon="6.99394">
        <ele>1196.8000488281</ele>
        <time>2022-10-09T10:58:16.000Z</time>
      </trkpt>
      <trkpt lat="48.03108" lon="6.99396">
        <ele>1197</ele>
        <time>2022-10-09T10:58:17.000Z</time>
      </trkpt>
      <trkpt lat="48.03104" lon="6.99403">
        <ele>1196.8000488281</ele>
        <time>2022-10-09T10:58:21.000Z</time>
      </trkpt>
      <trkpt lat="48.03102" lon="6.99406">
        <ele>1196.8000488281</ele>
        <time>2022-10-09T10:58:23.000Z</time>
      </trkpt>
      <trkpt lat="48.03101" lon="6.99407">
        <ele>1196.8000488281</ele>
        <time>2022-10-09T10:58:24.000Z</time>
      </trkpt>
      <trkpt lat="48.03099" lon="6.99408">
        <ele>1196.5999755859</ele>
        <time>2022-10-09T10:58:26.000Z</time>
      </trkpt>
      <trkpt lat="48.03098" lon="6.9941">
        <ele>1196.5999755859</ele>
        <time>2022-10-09T10:58:28.000Z</time>
      </trkpt>
      <trkpt lat="48.03098" lon="6.99412">
        <ele>1196.5999755859</ele>
        <time>2022-10-09T10:58:30.000Z</time>
      </trkpt>
      <trkpt lat="48.03096" lon="6.99417">
        <ele>1196.5999755859</ele>
        <time>2022-10-09T10:58:33.000Z</time>
      </trkpt>
      <trkpt lat="48.03094" lon="6.99424">
        <ele>1196.4000244141</ele>
        <time>2022-10-09T10:58:37.000Z</time>
      </trkpt>
      <trkpt lat="48.03094" lon="6.9943">
        <ele>1196.5999755859</ele>
        <time>2022-10-09T10:58:40.000Z</time>
      </trkpt>
      <trkpt lat="48.03094" lon="6.99435">
        <ele>1196.8000488281</ele>
        <time>2022-10-09T10:58:43.000Z</time>
      </trkpt>
      <trkpt lat="48.03095" lon="6.99439">
        <ele>1197</ele>
        <time>2022-10-09T10:58:45.000Z</time>
      </trkpt>
      <trkpt lat="48.03094" lon="6.99441">
        <ele>1197</ele>
        <time>2022-10-09T10:58:46.000Z</time>
      </trkpt>
      <trkpt lat="48.03092" lon="6.9945">
        <ele>1197</ele>
        <time>2022-10-09T10:58:54.000Z</time>
      </trkpt>
      <trkpt lat="48.03092" lon="6.99453">
        <ele>1197</ele>
        <time>2022-10-09T10:58:56.000Z</time>
      </trkpt>
      <trkpt lat="48.03091" lon="6.99456">
        <ele>1197</ele>
        <time>2022-10-09T10:58:58.000Z</time>
      </trkpt>
      <trkpt lat="48.03089" lon="6.99458">
        <ele>1197</ele>
        <time>2022-10-09T10:59:00.000Z</time>
      </trkpt>
      <trkpt lat="48.03089" lon="6.99461">
        <ele>1197</ele>
        <time>2022-10-09T10:59:02.000Z</time>
      </trkpt>
      <trkpt lat="48.03088" lon="6.99463">
        <ele>1197</ele>
        <time>2022-10-09T10:59:04.000Z</time>
      </trkpt>
      <trkpt lat="48.03087" lon="6.99465">
        <ele>1197.1999511719</ele>
        <time>2022-10-09T10:59:05.000Z</time>
      </trkpt>
      <trkpt lat="48.03085" lon="6.99476">
        <ele>1197.1999511719</ele>
        <time>2022-10-09T10:59:11.000Z</time>
      </trkpt>
      <trkpt lat="48.03085" lon="6.99479">
        <ele>1197.1999511719</ele>
        <time>2022-10-09T10:59:13.000Z</time>
      </trkpt>
      <trkpt lat="48.03081" lon="6.99488">
        <ele>1197.4000244141</ele>
        <time>2022-10-09T10:59:19.000Z</time>
      </trkpt>
      <trkpt lat="48.03081" lon="6.9949">
        <ele>1197.5999755859</ele>
        <time>2022-10-09T10:59:20.000Z</time>
      </trkpt>
      <trkpt lat="48.03081" lon="6.99495">
        <ele>1197.8000488281</ele>
        <time>2022-10-09T10:59:26.000Z</time>
      </trkpt>
      <trkpt lat="48.03079" lon="6.99499">
        <ele>1197.5999755859</ele>
        <time>2022-10-09T10:59:31.000Z</time>
      </trkpt>
      <trkpt lat="48.03078" lon="6.99504">
        <ele>1197.5999755859</ele>
        <time>2022-10-09T10:59:33.000Z</time>
      </trkpt>
      <trkpt lat="48.03077" lon="6.99507">
        <ele>1197.5999755859</ele>
        <time>2022-10-09T10:59:34.000Z</time>
      </trkpt>
      <trkpt lat="48.03077" lon="6.99509">
        <ele>1197.5999755859</ele>
        <time>2022-10-09T10:59:35.000Z</time>
      </trkpt>
      <trkpt lat="48.03076" lon="6.99511">
        <ele>1197.5999755859</ele>
        <time>2022-10-09T10:59:36.000Z</time>
      </trkpt>
      <trkpt lat="48.03075" lon="6.99516">
        <ele>1197.5999755859</ele>
        <time>2022-10-09T10:59:39.000Z</time>
      </trkpt>
      <trkpt lat="48.03072" lon="6.99521">
        <ele>1197.8000488281</ele>
        <time>2022-10-09T10:59:43.000Z</time>
      </trkpt>
      <trkpt lat="48.03072" lon="6.99523">
        <ele>1197.8000488281</ele>
        <time>2022-10-09T10:59:44.000Z</time>
      </trkpt>
      <trkpt lat="48.03072" lon="6.99524">
        <ele>1197.8000488281</ele>
        <time>2022-10-09T10:59:45.000Z</time>
      </trkpt>
      <trkpt lat="48.03069" lon="6.99531">
        <ele>1198</ele>
        <time>2022-10-09T10:59:49.000Z</time>
      </trkpt>
      <trkpt lat="48.03067" lon="6.99535">
        <ele>1198</ele>
        <time>2022-10-09T10:59:51.000Z</time>
      </trkpt>
      <trkpt lat="48.03066" lon="6.99543">
        <ele>1198</ele>
        <time>2022-10-09T10:59:56.000Z</time>
      </trkpt>
      <trkpt lat="48.03066" lon="6.99547">
        <ele>1198</ele>
        <time>2022-10-09T10:59:58.000Z</time>
      </trkpt>
      <trkpt lat="48.03065" lon="6.99555">
        <ele>1198.1999511719</ele>
        <time>2022-10-09T11:00:02.000Z</time>
      </trkpt>
      <trkpt lat="48.03063" lon="6.99558">
        <ele>1198.4000244141</ele>
        <time>2022-10-09T11:00:04.000Z</time>
      </trkpt>
      <trkpt lat="48.03061" lon="6.99562">
        <ele>1198.5999755859</ele>
        <time>2022-10-09T11:00:07.000Z</time>
      </trkpt>
      <trkpt lat="48.03062" lon="6.99567">
        <ele>1198.5999755859</ele>
        <time>2022-10-09T11:00:10.000Z</time>
      </trkpt>
      <trkpt lat="48.03061" lon="6.99571">
        <ele>1198.4000244141</ele>
        <time>2022-10-09T11:00:12.000Z</time>
      </trkpt>
      <trkpt lat="48.03059" lon="6.99574">
        <ele>1198.5999755859</ele>
        <time>2022-10-09T11:00:15.000Z</time>
      </trkpt>
      <trkpt lat="48.03059" lon="6.99575">
        <ele>1198.5999755859</ele>
        <time>2022-10-09T11:00:16.000Z</time>
      </trkpt>
      <trkpt lat="48.03059" lon="6.99578">
        <ele>1198.8000488281</ele>
        <time>2022-10-09T11:00:18.000Z</time>
      </trkpt>
      <trkpt lat="48.03059" lon="6.99581">
        <ele>1199</ele>
        <time>2022-10-09T11:00:20.000Z</time>
      </trkpt>
      <trkpt lat="48.03058" lon="6.99588">
        <ele>1199</ele>
        <time>2022-10-09T11:00:24.000Z</time>
      </trkpt>
      <trkpt lat="48.03057" lon="6.99591">
        <ele>1199</ele>
        <time>2022-10-09T11:00:26.000Z</time>
      </trkpt>
      <trkpt lat="48.03055" lon="6.99595">
        <ele>1199</ele>
        <time>2022-10-09T11:00:28.000Z</time>
      </trkpt>
      <trkpt lat="48.03055" lon="6.99597">
        <ele>1199</ele>
        <time>2022-10-09T11:00:29.000Z</time>
      </trkpt>
      <trkpt lat="48.03055" lon="6.99603">
        <ele>1199</ele>
        <time>2022-10-09T11:00:33.000Z</time>
      </trkpt>
      <trkpt lat="48.03053" lon="6.99606">
        <ele>1199</ele>
        <time>2022-10-09T11:00:35.000Z</time>
      </trkpt>
      <trkpt lat="48.03052" lon="6.99607">
        <ele>1199</ele>
        <time>2022-10-09T11:00:36.000Z</time>
      </trkpt>
      <trkpt lat="48.03052" lon="6.99609">
        <ele>1199.1999511719</ele>
        <time>2022-10-09T11:00:37.000Z</time>
      </trkpt>
      <trkpt lat="48.03051" lon="6.99614">
        <ele>1199</ele>
        <time>2022-10-09T11:00:40.000Z</time>
      </trkpt>
      <trkpt lat="48.03052" lon="6.99617">
        <ele>1199</ele>
        <time>2022-10-09T11:00:42.000Z</time>
      </trkpt>
      <trkpt lat="48.03047" lon="6.9963">
        <ele>1199</ele>
        <time>2022-10-09T11:00:50.000Z</time>
      </trkpt>
      <trkpt lat="48.03046" lon="6.99632">
        <ele>1199.1999511719</ele>
        <time>2022-10-09T11:00:52.000Z</time>
      </trkpt>
      <trkpt lat="48.03045" lon="6.99635">
        <ele>1199.4000244141</ele>
        <time>2022-10-09T11:00:54.000Z</time>
      </trkpt>
      <trkpt lat="48.03045" lon="6.99639">
        <ele>1199.4000244141</ele>
        <time>2022-10-09T11:00:56.000Z</time>
      </trkpt>
      <trkpt lat="48.03045" lon="6.99641">
        <ele>1199.4000244141</ele>
        <time>2022-10-09T11:00:57.000Z</time>
      </trkpt>
      <trkpt lat="48.03045" lon="6.99643">
        <ele>1199.1999511719</ele>
        <time>2022-10-09T11:00:58.000Z</time>
      </trkpt>
      <trkpt lat="48.03043" lon="6.99651">
        <ele>1199</ele>
        <time>2022-10-09T11:01:03.000Z</time>
      </trkpt>
      <trkpt lat="48.03041" lon="6.99657">
        <ele>1198.8000488281</ele>
        <time>2022-10-09T11:01:07.000Z</time>
      </trkpt>
      <trkpt lat="48.03041" lon="6.99658">
        <ele>1198.8000488281</ele>
        <time>2022-10-09T11:01:08.000Z</time>
      </trkpt>
      <trkpt lat="48.03037" lon="6.9967">
        <ele>1198.1999511719</ele>
        <time>2022-10-09T11:01:15.000Z</time>
      </trkpt>
      <trkpt lat="48.03037" lon="6.99674">
        <ele>1197.8000488281</ele>
        <time>2022-10-09T11:01:18.000Z</time>
      </trkpt>
      <trkpt lat="48.03035" lon="6.9968">
        <ele>1197.5999755859</ele>
        <time>2022-10-09T11:01:22.000Z</time>
      </trkpt>
      <trkpt lat="48.03033" lon="6.99692">
        <ele>1197.4000244141</ele>
        <time>2022-10-09T11:01:29.000Z</time>
      </trkpt>
      <trkpt lat="48.03033" lon="6.99694">
        <ele>1197.5999755859</ele>
        <time>2022-10-09T11:01:30.000Z</time>
      </trkpt>
      <trkpt lat="48.03032" lon="6.99698">
        <ele>1197.4000244141</ele>
        <time>2022-10-09T11:01:32.000Z</time>
      </trkpt>
      <trkpt lat="48.03031" lon="6.99699">
        <ele>1197.1999511719</ele>
        <time>2022-10-09T11:01:33.000Z</time>
      </trkpt>
      <trkpt lat="48.03031" lon="6.99701">
        <ele>1197.1999511719</ele>
        <time>2022-10-09T11:01:34.000Z</time>
      </trkpt>
      <trkpt lat="48.03032" lon="6.99711">
        <ele>1196.8000488281</ele>
        <time>2022-10-09T11:01:39.000Z</time>
      </trkpt>
      <trkpt lat="48.03032" lon="6.99716">
        <ele>1196.8000488281</ele>
        <time>2022-10-09T11:01:42.000Z</time>
      </trkpt>
      <trkpt lat="48.03031" lon="6.99723">
        <ele>1196.8000488281</ele>
        <time>2022-10-09T11:01:46.000Z</time>
      </trkpt>
      <trkpt lat="48.0303" lon="6.99727">
        <ele>1197</ele>
        <time>2022-10-09T11:01:48.000Z</time>
      </trkpt>
      <trkpt lat="48.03031" lon="6.99743">
        <ele>1196.4000244141</ele>
        <time>2022-10-09T11:01:56.000Z</time>
      </trkpt>
      <trkpt lat="48.03028" lon="6.99749">
        <ele>1196.4000244141</ele>
        <time>2022-10-09T11:02:00.000Z</time>
      </trkpt>
      <trkpt lat="48.03027" lon="6.99754">
        <ele>1196.1999511719</ele>
        <time>2022-10-09T11:02:03.000Z</time>
      </trkpt>
      <trkpt lat="48.03028" lon="6.99756">
        <ele>1196.1999511719</ele>
        <time>2022-10-09T11:02:04.000Z</time>
      </trkpt>
      <trkpt lat="48.03028" lon="6.99762">
        <ele>1195.8000488281</ele>
        <time>2022-10-09T11:02:08.000Z</time>
      </trkpt>
      <trkpt lat="48.03027" lon="6.99763">
        <ele>1195.8000488281</ele>
        <time>2022-10-09T11:02:09.000Z</time>
      </trkpt>
      <trkpt lat="48.03027" lon="6.99769">
        <ele>1195.5999755859</ele>
        <time>2022-10-09T11:02:12.000Z</time>
      </trkpt>
      <trkpt lat="48.03026" lon="6.99775">
        <ele>1195.5999755859</ele>
        <time>2022-10-09T11:02:16.000Z</time>
      </trkpt>
      <trkpt lat="48.03024" lon="6.9978">
        <ele>1195</ele>
        <time>2022-10-09T11:02:19.000Z</time>
      </trkpt>
      <trkpt lat="48.03022" lon="6.99783">
        <ele>1194.8000488281</ele>
        <time>2022-10-09T11:02:21.000Z</time>
      </trkpt>
      <trkpt lat="48.0302" lon="6.9979">
        <ele>1194.4000244141</ele>
        <time>2022-10-09T11:02:25.000Z</time>
      </trkpt>
      <trkpt lat="48.03014" lon="6.99808">
        <ele>1194</ele>
        <time>2022-10-09T11:02:35.000Z</time>
      </trkpt>
      <trkpt lat="48.03013" lon="6.99813">
        <ele>1193.5999755859</ele>
        <time>2022-10-09T11:02:38.000Z</time>
      </trkpt>
      <trkpt lat="48.03012" lon="6.99815">
        <ele>1193.8000488281</ele>
        <time>2022-10-09T11:02:41.000Z</time>
      </trkpt>
      <trkpt lat="48.03011" lon="6.99818">
        <ele>1193.5999755859</ele>
        <time>2022-10-09T11:02:43.000Z</time>
      </trkpt>
      <trkpt lat="48.03011" lon="6.99826">
        <ele>1193.5999755859</ele>
        <time>2022-10-09T11:02:47.000Z</time>
      </trkpt>
      <trkpt lat="48.03011" lon="6.99833">
        <ele>1193.4000244141</ele>
        <time>2022-10-09T11:02:52.000Z</time>
      </trkpt>
      <trkpt lat="48.0301" lon="6.99834">
        <ele>1193.4000244141</ele>
        <time>2022-10-09T11:02:53.000Z</time>
      </trkpt>
      <trkpt lat="48.03008" lon="6.9984">
        <ele>1193.5999755859</ele>
        <time>2022-10-09T11:02:57.000Z</time>
      </trkpt>
      <trkpt lat="48.03008" lon="6.99844">
        <ele>1193.4000244141</ele>
        <time>2022-10-09T11:02:59.000Z</time>
      </trkpt>
      <trkpt lat="48.03006" lon="6.99848">
        <ele>1192.8000488281</ele>
        <time>2022-10-09T11:03:02.000Z</time>
      </trkpt>
      <trkpt lat="48.03006" lon="6.99856">
        <ele>1192.5999755859</ele>
        <time>2022-10-09T11:03:07.000Z</time>
      </trkpt>
      <trkpt lat="48.03006" lon="6.99856">
        <ele>1192.4000244141</ele>
        <time>2022-10-09T11:03:08.000Z</time>
      </trkpt>
      <trkpt lat="48.03005" lon="6.99858">
        <ele>1192.4000244141</ele>
        <time>2022-10-09T11:03:09.000Z</time>
      </trkpt>
      <trkpt lat="48.03005" lon="6.99868">
        <ele>1192.5999755859</ele>
        <time>2022-10-09T11:03:16.000Z</time>
      </trkpt>
      <trkpt lat="48.03004" lon="6.99882">
        <ele>1192</ele>
        <time>2022-10-09T11:03:25.000Z</time>
      </trkpt>
      <trkpt lat="48.02999" lon="6.99897">
        <ele>1191.4000244141</ele>
        <time>2022-10-09T11:03:34.000Z</time>
      </trkpt>
      <trkpt lat="48.02998" lon="6.99898">
        <ele>1191</ele>
        <time>2022-10-09T11:03:35.000Z</time>
      </trkpt>
      <trkpt lat="48.02998" lon="6.99899">
        <ele>1190.8000488281</ele>
        <time>2022-10-09T11:03:36.000Z</time>
      </trkpt>
      <trkpt lat="48.02994" lon="6.999">
        <ele>1190.8000488281</ele>
        <time>2022-10-09T11:03:41.000Z</time>
      </trkpt>
      <trkpt lat="48.0299" lon="6.99896">
        <ele>1190.5999755859</ele>
        <time>2022-10-09T11:03:45.000Z</time>
      </trkpt>
      <trkpt lat="48.02989" lon="6.99893">
        <ele>1190.4000244141</ele>
        <time>2022-10-09T11:03:47.000Z</time>
      </trkpt>
      <trkpt lat="48.02989" lon="6.99891">
        <ele>1190.1999511719</ele>
        <time>2022-10-09T11:03:48.000Z</time>
      </trkpt>
      <trkpt lat="48.02988" lon="6.99889">
        <ele>1190.1999511719</ele>
        <time>2022-10-09T11:03:49.000Z</time>
      </trkpt>
      <trkpt lat="48.02988" lon="6.99883">
        <ele>1189.8000488281</ele>
        <time>2022-10-09T11:03:52.000Z</time>
      </trkpt>
      <trkpt lat="48.02984" lon="6.99869">
        <ele>1189.1999511719</ele>
        <time>2022-10-09T11:04:00.000Z</time>
      </trkpt>
      <trkpt lat="48.02984" lon="6.99867">
        <ele>1189</ele>
        <time>2022-10-09T11:04:01.000Z</time>
      </trkpt>
      <trkpt lat="48.02984" lon="6.99859">
        <ele>1188.8000488281</ele>
        <time>2022-10-09T11:04:06.000Z</time>
      </trkpt>
      <trkpt lat="48.02984" lon="6.99857">
        <ele>1188.8000488281</ele>
        <time>2022-10-09T11:04:07.000Z</time>
      </trkpt>
      <trkpt lat="48.02983" lon="6.99853">
        <ele>1188.4000244141</ele>
        <time>2022-10-09T11:04:10.000Z</time>
      </trkpt>
      <trkpt lat="48.02982" lon="6.99844">
        <ele>1188</ele>
        <time>2022-10-09T11:04:15.000Z</time>
      </trkpt>
      <trkpt lat="48.0298" lon="6.99833">
        <ele>1187.1999511719</ele>
        <time>2022-10-09T11:04:22.000Z</time>
      </trkpt>
      <trkpt lat="48.0298" lon="6.99828">
        <ele>1187</ele>
        <time>2022-10-09T11:04:25.000Z</time>
      </trkpt>
      <trkpt lat="48.02979" lon="6.99825">
        <ele>1187</ele>
        <time>2022-10-09T11:04:27.000Z</time>
      </trkpt>
      <trkpt lat="48.02978" lon="6.99818">
        <ele>1186.5999755859</ele>
        <time>2022-10-09T11:04:31.000Z</time>
      </trkpt>
      <trkpt lat="48.02976" lon="6.9981">
        <ele>1186.1999511719</ele>
        <time>2022-10-09T11:04:36.000Z</time>
      </trkpt>
      <trkpt lat="48.02975" lon="6.99806">
        <ele>1185.8000488281</ele>
        <time>2022-10-09T11:04:39.000Z</time>
      </trkpt>
      <trkpt lat="48.02974" lon="6.998">
        <ele>1185.4000244141</ele>
        <time>2022-10-09T11:04:43.000Z</time>
      </trkpt>
      <trkpt lat="48.02974" lon="6.99798">
        <ele>1185.1999511719</ele>
        <time>2022-10-09T11:04:44.000Z</time>
      </trkpt>
      <trkpt lat="48.02973" lon="6.99796">
        <ele>1185.1999511719</ele>
        <time>2022-10-09T11:04:45.000Z</time>
      </trkpt>
      <trkpt lat="48.02972" lon="6.99794">
        <ele>1185</ele>
        <time>2022-10-09T11:04:47.000Z</time>
      </trkpt>
      <trkpt lat="48.02971" lon="6.99793">
        <ele>1185</ele>
        <time>2022-10-09T11:04:48.000Z</time>
      </trkpt>
      <trkpt lat="48.0297" lon="6.99792">
        <ele>1184.8000488281</ele>
        <time>2022-10-09T11:04:50.000Z</time>
      </trkpt>
      <trkpt lat="48.02968" lon="6.99788">
        <ele>1184.4000244141</ele>
        <time>2022-10-09T11:04:54.000Z</time>
      </trkpt>
      <trkpt lat="48.02967" lon="6.99782">
        <ele>1184</ele>
        <time>2022-10-09T11:04:57.000Z</time>
      </trkpt>
      <trkpt lat="48.02966" lon="6.9978">
        <ele>1183.8000488281</ele>
        <time>2022-10-09T11:04:59.000Z</time>
      </trkpt>
      <trkpt lat="48.02964" lon="6.99773">
        <ele>1183.1999511719</ele>
        <time>2022-10-09T11:05:03.000Z</time>
      </trkpt>
      <trkpt lat="48.02964" lon="6.9977">
        <ele>1183</ele>
        <time>2022-10-09T11:05:05.000Z</time>
      </trkpt>
      <trkpt lat="48.02964" lon="6.99768">
        <ele>1183</ele>
        <time>2022-10-09T11:05:06.000Z</time>
      </trkpt>
      <trkpt lat="48.02964" lon="6.99767">
        <ele>1183</ele>
        <time>2022-10-09T11:05:07.000Z</time>
      </trkpt>
      <trkpt lat="48.02964" lon="6.99763">
        <ele>1182.5999755859</ele>
        <time>2022-10-09T11:05:10.000Z</time>
      </trkpt>
      <trkpt lat="48.02964" lon="6.99762">
        <ele>1182.4000244141</ele>
        <time>2022-10-09T11:05:11.000Z</time>
      </trkpt>
      <trkpt lat="48.02964" lon="6.99759">
        <ele>1182.4000244141</ele>
        <time>2022-10-09T11:05:13.000Z</time>
      </trkpt>
      <trkpt lat="48.02962" lon="6.9975">
        <ele>1181.5999755859</ele>
        <time>2022-10-09T11:05:20.000Z</time>
      </trkpt>
      <trkpt lat="48.02961" lon="6.99747">
        <ele>1181.4000244141</ele>
        <time>2022-10-09T11:05:22.000Z</time>
      </trkpt>
      <trkpt lat="48.02961" lon="6.9974">
        <ele>1181.1999511719</ele>
        <time>2022-10-09T11:05:27.000Z</time>
      </trkpt>
      <trkpt lat="48.02961" lon="6.99736">
        <ele>1181</ele>
        <time>2022-10-09T11:05:30.000Z</time>
      </trkpt>
      <trkpt lat="48.02962" lon="6.99733">
        <ele>1180.5999755859</ele>
        <time>2022-10-09T11:05:32.000Z</time>
      </trkpt>
      <trkpt lat="48.02961" lon="6.99732">
        <ele>1180.4000244141</ele>
        <time>2022-10-09T11:05:33.000Z</time>
      </trkpt>
      <trkpt lat="48.02962" lon="6.99728">
        <ele>1180.1999511719</ele>
        <time>2022-10-09T11:05:37.000Z</time>
      </trkpt>
      <trkpt lat="48.02964" lon="6.9972">
        <ele>1179.5999755859</ele>
        <time>2022-10-09T11:05:44.000Z</time>
      </trkpt>
      <trkpt lat="48.02964" lon="6.99712">
        <ele>1179.4000244141</ele>
        <time>2022-10-09T11:05:48.000Z</time>
      </trkpt>
      <trkpt lat="48.02964" lon="6.99708">
        <ele>1179.1999511719</ele>
        <time>2022-10-09T11:05:50.000Z</time>
      </trkpt>
      <trkpt lat="48.02963" lon="6.99704">
        <ele>1179</ele>
        <time>2022-10-09T11:05:52.000Z</time>
      </trkpt>
      <trkpt lat="48.02963" lon="6.99697">
        <ele>1178.8000488281</ele>
        <time>2022-10-09T11:05:56.000Z</time>
      </trkpt>
      <trkpt lat="48.02962" lon="6.99692">
        <ele>1178.4000244141</ele>
        <time>2022-10-09T11:05:59.000Z</time>
      </trkpt>
      <trkpt lat="48.02963" lon="6.99689">
        <ele>1178.1999511719</ele>
        <time>2022-10-09T11:06:01.000Z</time>
      </trkpt>
      <trkpt lat="48.02964" lon="6.99685">
        <ele>1177.8000488281</ele>
        <time>2022-10-09T11:06:05.000Z</time>
      </trkpt>
      <trkpt lat="48.02964" lon="6.99676">
        <ele>1177.4000244141</ele>
        <time>2022-10-09T11:06:09.000Z</time>
      </trkpt>
      <trkpt lat="48.02963" lon="6.99674">
        <ele>1177.4000244141</ele>
        <time>2022-10-09T11:06:10.000Z</time>
      </trkpt>
      <trkpt lat="48.02962" lon="6.99672">
        <ele>1177.1999511719</ele>
        <time>2022-10-09T11:06:11.000Z</time>
      </trkpt>
      <trkpt lat="48.02962" lon="6.99666">
        <ele>1176.8000488281</ele>
        <time>2022-10-09T11:06:16.000Z</time>
      </trkpt>
      <trkpt lat="48.02962" lon="6.99661">
        <ele>1176.5999755859</ele>
        <time>2022-10-09T11:06:19.000Z</time>
      </trkpt>
      <trkpt lat="48.02962" lon="6.99657">
        <ele>1176.1999511719</ele>
        <time>2022-10-09T11:06:23.000Z</time>
      </trkpt>
      <trkpt lat="48.02961" lon="6.99649">
        <ele>1175.5999755859</ele>
        <time>2022-10-09T11:06:27.000Z</time>
      </trkpt>
      <trkpt lat="48.02962" lon="6.99647">
        <ele>1175.4000244141</ele>
        <time>2022-10-09T11:06:28.000Z</time>
      </trkpt>
      <trkpt lat="48.02962" lon="6.99643">
        <ele>1175</ele>
        <time>2022-10-09T11:06:31.000Z</time>
      </trkpt>
      <trkpt lat="48.02961" lon="6.99639">
        <ele>1174.8000488281</ele>
        <time>2022-10-09T11:06:33.000Z</time>
      </trkpt>
      <trkpt lat="48.0296" lon="6.99634">
        <ele>1174.5999755859</ele>
        <time>2022-10-09T11:06:35.000Z</time>
      </trkpt>
      <trkpt lat="48.0296" lon="6.99627">
        <ele>1174</ele>
        <time>2022-10-09T11:06:39.000Z</time>
      </trkpt>
      <trkpt lat="48.0296" lon="6.99625">
        <ele>1174</ele>
        <time>2022-10-09T11:06:40.000Z</time>
      </trkpt>
      <trkpt lat="48.02961" lon="6.99622">
        <ele>1173.8000488281</ele>
        <time>2022-10-09T11:06:42.000Z</time>
      </trkpt>
      <trkpt lat="48.02961" lon="6.99616">
        <ele>1173.4000244141</ele>
        <time>2022-10-09T11:06:45.000Z</time>
      </trkpt>
      <trkpt lat="48.02962" lon="6.99611">
        <ele>1173</ele>
        <time>2022-10-09T11:06:49.000Z</time>
      </trkpt>
      <trkpt lat="48.02963" lon="6.99608">
        <ele>1172.8000488281</ele>
        <time>2022-10-09T11:06:51.000Z</time>
      </trkpt>
      <trkpt lat="48.02962" lon="6.99595">
        <ele>1171.8000488281</ele>
        <time>2022-10-09T11:06:58.000Z</time>
      </trkpt>
      <trkpt lat="48.02959" lon="6.99587">
        <ele>1171</ele>
        <time>2022-10-09T11:07:03.000Z</time>
      </trkpt>
      <trkpt lat="48.02958" lon="6.99585">
        <ele>1171</ele>
        <time>2022-10-09T11:07:04.000Z</time>
      </trkpt>
      <trkpt lat="48.02958" lon="6.99584">
        <ele>1170.8000488281</ele>
        <time>2022-10-09T11:07:05.000Z</time>
      </trkpt>
      <trkpt lat="48.02959" lon="6.99581">
        <ele>1170.4000244141</ele>
        <time>2022-10-09T11:07:09.000Z</time>
      </trkpt>
      <trkpt lat="48.02958" lon="6.9958">
        <ele>1170.1999511719</ele>
        <time>2022-10-09T11:07:10.000Z</time>
      </trkpt>
      <trkpt lat="48.02958" lon="6.99579">
        <ele>1170</ele>
        <time>2022-10-09T11:07:11.000Z</time>
      </trkpt>
      <trkpt lat="48.02959" lon="6.99578">
        <ele>1170</ele>
        <time>2022-10-09T11:07:12.000Z</time>
      </trkpt>
      <trkpt lat="48.02959" lon="6.99576">
        <ele>1169.8000488281</ele>
        <time>2022-10-09T11:07:13.000Z</time>
      </trkpt>
      <trkpt lat="48.02959" lon="6.99575">
        <ele>1169.5999755859</ele>
        <time>2022-10-09T11:07:14.000Z</time>
      </trkpt>
      <trkpt lat="48.02959" lon="6.99573">
        <ele>1169.4000244141</ele>
        <time>2022-10-09T11:07:16.000Z</time>
      </trkpt>
      <trkpt lat="48.0296" lon="6.99569">
        <ele>1169</ele>
        <time>2022-10-09T11:07:20.000Z</time>
      </trkpt>
      <trkpt lat="48.0296" lon="6.99566">
        <ele>1168.5999755859</ele>
        <time>2022-10-09T11:07:24.000Z</time>
      </trkpt>
      <trkpt lat="48.0296" lon="6.99565">
        <ele>1168.5999755859</ele>
        <time>2022-10-09T11:07:25.000Z</time>
      </trkpt>
      <trkpt lat="48.0296" lon="6.99558">
        <ele>1168</ele>
        <time>2022-10-09T11:07:29.000Z</time>
      </trkpt>
      <trkpt lat="48.02961" lon="6.99554">
        <ele>1167.5999755859</ele>
        <time>2022-10-09T11:07:33.000Z</time>
      </trkpt>
      <trkpt lat="48.02961" lon="6.99547">
        <ele>1166.8000488281</ele>
        <time>2022-10-09T11:07:39.000Z</time>
      </trkpt>
      <trkpt lat="48.02961" lon="6.99544">
        <ele>1166.5999755859</ele>
        <time>2022-10-09T11:07:41.000Z</time>
      </trkpt>
      <trkpt lat="48.02961" lon="6.99543">
        <ele>1166.4000244141</ele>
        <time>2022-10-09T11:07:42.000Z</time>
      </trkpt>
      <trkpt lat="48.0296" lon="6.99542">
        <ele>1166.4000244141</ele>
        <time>2022-10-09T11:07:43.000Z</time>
      </trkpt>
      <trkpt lat="48.0296" lon="6.99536">
        <ele>1166</ele>
        <time>2022-10-09T11:07:46.000Z</time>
      </trkpt>
      <trkpt lat="48.0296" lon="6.99531">
        <ele>1165.5999755859</ele>
        <time>2022-10-09T11:07:49.000Z</time>
      </trkpt>
      <trkpt lat="48.0296" lon="6.99524">
        <ele>1164.8000488281</ele>
        <time>2022-10-09T11:07:55.000Z</time>
      </trkpt>
      <trkpt lat="48.02959" lon="6.99521">
        <ele>1164.5999755859</ele>
        <time>2022-10-09T11:07:57.000Z</time>
      </trkpt>
      <trkpt lat="48.0296" lon="6.99511">
        <ele>1163.8000488281</ele>
        <time>2022-10-09T11:08:02.000Z</time>
      </trkpt>
      <trkpt lat="48.02959" lon="6.99506">
        <ele>1163.4000244141</ele>
        <time>2022-10-09T11:08:05.000Z</time>
      </trkpt>
      <trkpt lat="48.02959" lon="6.995">
        <ele>1162.8000488281</ele>
        <time>2022-10-09T11:08:09.000Z</time>
      </trkpt>
      <trkpt lat="48.02959" lon="6.99494">
        <ele>1162.4000244141</ele>
        <time>2022-10-09T11:08:12.000Z</time>
      </trkpt>
      <trkpt lat="48.02959" lon="6.99492">
        <ele>1162.4000244141</ele>
        <time>2022-10-09T11:08:13.000Z</time>
      </trkpt>
      <trkpt lat="48.02961" lon="6.99485">
        <ele>1161.5999755859</ele>
        <time>2022-10-09T11:08:18.000Z</time>
      </trkpt>
      <trkpt lat="48.02964" lon="6.99482">
        <ele>1161.4000244141</ele>
        <time>2022-10-09T11:08:21.000Z</time>
      </trkpt>
      <trkpt lat="48.02964" lon="6.99481">
        <ele>1161.4000244141</ele>
        <time>2022-10-09T11:08:22.000Z</time>
      </trkpt>
      <trkpt lat="48.02965" lon="6.99477">
        <ele>1161.1999511719</ele>
        <time>2022-10-09T11:08:24.000Z</time>
      </trkpt>
      <trkpt lat="48.02967" lon="6.99471">
        <ele>1160.4000244141</ele>
        <time>2022-10-09T11:08:30.000Z</time>
      </trkpt>
      <trkpt lat="48.02968" lon="6.99469">
        <ele>1160.1999511719</ele>
        <time>2022-10-09T11:08:31.000Z</time>
      </trkpt>
      <trkpt lat="48.02971" lon="6.9946">
        <ele>1159.1999511719</ele>
        <time>2022-10-09T11:08:38.000Z</time>
      </trkpt>
      <trkpt lat="48.02971" lon="6.99458">
        <ele>1159</ele>
        <time>2022-10-09T11:08:40.000Z</time>
      </trkpt>
      <trkpt lat="48.02972" lon="6.99455">
        <ele>1158.5999755859</ele>
        <time>2022-10-09T11:08:42.000Z</time>
      </trkpt>
      <trkpt lat="48.02972" lon="6.9945">
        <ele>1158.1999511719</ele>
        <time>2022-10-09T11:08:45.000Z</time>
      </trkpt>
      <trkpt lat="48.02971" lon="6.99447">
        <ele>1157.5999755859</ele>
        <time>2022-10-09T11:08:48.000Z</time>
      </trkpt>
      <trkpt lat="48.02973" lon="6.99443">
        <ele>1157.1999511719</ele>
        <time>2022-10-09T11:08:51.000Z</time>
      </trkpt>
      <trkpt lat="48.02973" lon="6.99442">
        <ele>1157</ele>
        <time>2022-10-09T11:08:52.000Z</time>
      </trkpt>
      <trkpt lat="48.02973" lon="6.99439">
        <ele>1156.8000488281</ele>
        <time>2022-10-09T11:08:54.000Z</time>
      </trkpt>
      <trkpt lat="48.02973" lon="6.99437">
        <ele>1156.5999755859</ele>
        <time>2022-10-09T11:08:56.000Z</time>
      </trkpt>
      <trkpt lat="48.02973" lon="6.99436">
        <ele>1156.4000244141</ele>
        <time>2022-10-09T11:08:57.000Z</time>
      </trkpt>
      <trkpt lat="48.02971" lon="6.99429">
        <ele>1156</ele>
        <time>2022-10-09T11:09:04.000Z</time>
      </trkpt>
      <trkpt lat="48.0297" lon="6.99428">
        <ele>1156</ele>
        <time>2022-10-09T11:09:05.000Z</time>
      </trkpt>
      <trkpt lat="48.02969" lon="6.99414">
        <ele>1155.4000244141</ele>
        <time>2022-10-09T11:09:15.000Z</time>
      </trkpt>
      <trkpt lat="48.02971" lon="6.99397">
        <ele>1155</ele>
        <time>2022-10-09T11:09:25.000Z</time>
      </trkpt>
      <trkpt lat="48.02973" lon="6.99389">
        <ele>1154.5999755859</ele>
        <time>2022-10-09T11:09:31.000Z</time>
      </trkpt>
      <trkpt lat="48.02973" lon="6.99383">
        <ele>1154.5999755859</ele>
        <time>2022-10-09T11:09:34.000Z</time>
      </trkpt>
      <trkpt lat="48.02973" lon="6.9938">
        <ele>1154.5999755859</ele>
        <time>2022-10-09T11:09:36.000Z</time>
      </trkpt>
      <trkpt lat="48.02974" lon="6.99376">
        <ele>1154.5999755859</ele>
        <time>2022-10-09T11:09:38.000Z</time>
      </trkpt>
      <trkpt lat="48.02974" lon="6.99375">
        <ele>1154.4000244141</ele>
        <time>2022-10-09T11:09:39.000Z</time>
      </trkpt>
      <trkpt lat="48.02975" lon="6.99374">
        <ele>1154.4000244141</ele>
        <time>2022-10-09T11:09:40.000Z</time>
      </trkpt>
      <trkpt lat="48.02976" lon="6.9937">
        <ele>1154</ele>
        <time>2022-10-09T11:09:42.000Z</time>
      </trkpt>
      <trkpt lat="48.02977" lon="6.99369">
        <ele>1153.8000488281</ele>
        <time>2022-10-09T11:09:43.000Z</time>
      </trkpt>
      <trkpt lat="48.02978" lon="6.99368">
        <ele>1153.8000488281</ele>
        <time>2022-10-09T11:09:44.000Z</time>
      </trkpt>
      <trkpt lat="48.02978" lon="6.99367">
        <ele>1153.5999755859</ele>
        <time>2022-10-09T11:09:45.000Z</time>
      </trkpt>
      <trkpt lat="48.02979" lon="6.99366">
        <ele>1153.5999755859</ele>
        <time>2022-10-09T11:09:46.000Z</time>
      </trkpt>
      <trkpt lat="48.02978" lon="6.99364">
        <ele>1153.1999511719</ele>
        <time>2022-10-09T11:09:49.000Z</time>
      </trkpt>
      <trkpt lat="48.02978" lon="6.99362">
        <ele>1153.1999511719</ele>
        <time>2022-10-09T11:09:51.000Z</time>
      </trkpt>
      <trkpt lat="48.02979" lon="6.9936">
        <ele>1153</ele>
        <time>2022-10-09T11:09:53.000Z</time>
      </trkpt>
      <trkpt lat="48.02981" lon="6.99357">
        <ele>1152.8000488281</ele>
        <time>2022-10-09T11:09:55.000Z</time>
      </trkpt>
      <trkpt lat="48.0298" lon="6.99356">
        <ele>1152.5999755859</ele>
        <time>2022-10-09T11:09:57.000Z</time>
      </trkpt>
      <trkpt lat="48.02981" lon="6.99354">
        <ele>1152.4000244141</ele>
        <time>2022-10-09T11:09:59.000Z</time>
      </trkpt>
      <trkpt lat="48.0298" lon="6.99347">
        <ele>1151.8000488281</ele>
        <time>2022-10-09T11:10:05.000Z</time>
      </trkpt>
      <trkpt lat="48.02979" lon="6.99341">
        <ele>1151.4000244141</ele>
        <time>2022-10-09T11:10:09.000Z</time>
      </trkpt>
      <trkpt lat="48.02978" lon="6.99339">
        <ele>1151.4000244141</ele>
        <time>2022-10-09T11:10:11.000Z</time>
      </trkpt>
      <trkpt lat="48.02978" lon="6.99336">
        <ele>1151.1999511719</ele>
        <time>2022-10-09T11:10:13.000Z</time>
      </trkpt>
      <trkpt lat="48.02978" lon="6.99335">
        <ele>1151.1999511719</ele>
        <time>2022-10-09T11:10:14.000Z</time>
      </trkpt>
      <trkpt lat="48.02976" lon="6.99331">
        <ele>1150.8000488281</ele>
        <time>2022-10-09T11:10:18.000Z</time>
      </trkpt>
      <trkpt lat="48.02977" lon="6.9933">
        <ele>1150.8000488281</ele>
        <time>2022-10-09T11:10:19.000Z</time>
      </trkpt>
      <trkpt lat="48.02977" lon="6.99328">
        <ele>1150.5999755859</ele>
        <time>2022-10-09T11:10:20.000Z</time>
      </trkpt>
      <trkpt lat="48.02979" lon="6.99323">
        <ele>1150.4000244141</ele>
        <time>2022-10-09T11:10:23.000Z</time>
      </trkpt>
      <trkpt lat="48.02976" lon="6.99318">
        <ele>1150.1999511719</ele>
        <time>2022-10-09T11:10:27.000Z</time>
      </trkpt>
      <trkpt lat="48.02976" lon="6.99315">
        <ele>1149.8000488281</ele>
        <time>2022-10-09T11:10:30.000Z</time>
      </trkpt>
      <trkpt lat="48.02977" lon="6.9931">
        <ele>1149.4000244141</ele>
        <time>2022-10-09T11:10:34.000Z</time>
      </trkpt>
      <trkpt lat="48.02977" lon="6.99305">
        <ele>1149</ele>
        <time>2022-10-09T11:10:37.000Z</time>
      </trkpt>
      <trkpt lat="48.02977" lon="6.99304">
        <ele>1148.8000488281</ele>
        <time>2022-10-09T11:10:39.000Z</time>
      </trkpt>
      <trkpt lat="48.02976" lon="6.99303">
        <ele>1148.8000488281</ele>
        <time>2022-10-09T11:10:40.000Z</time>
      </trkpt>
      <trkpt lat="48.02977" lon="6.99302">
        <ele>1148.5999755859</ele>
        <time>2022-10-09T11:10:41.000Z</time>
      </trkpt>
      <trkpt lat="48.02977" lon="6.993">
        <ele>1148.5999755859</ele>
        <time>2022-10-09T11:10:42.000Z</time>
      </trkpt>
      <trkpt lat="48.02978" lon="6.99299">
        <ele>1148.5999755859</ele>
        <time>2022-10-09T11:10:43.000Z</time>
      </trkpt>
      <trkpt lat="48.0298" lon="6.99295">
        <ele>1148.1999511719</ele>
        <time>2022-10-09T11:10:48.000Z</time>
      </trkpt>
      <trkpt lat="48.02982" lon="6.99287">
        <ele>1147.8000488281</ele>
        <time>2022-10-09T11:10:55.000Z</time>
      </trkpt>
      <trkpt lat="48.02982" lon="6.99285">
        <ele>1147.5999755859</ele>
        <time>2022-10-09T11:10:56.000Z</time>
      </trkpt>
      <trkpt lat="48.02982" lon="6.99279">
        <ele>1147.1999511719</ele>
        <time>2022-10-09T11:11:01.000Z</time>
      </trkpt>
      <trkpt lat="48.02984" lon="6.99275">
        <ele>1147</ele>
        <time>2022-10-09T11:11:04.000Z</time>
      </trkpt>
      <trkpt lat="48.02985" lon="6.99271">
        <ele>1146.5999755859</ele>
        <time>2022-10-09T11:11:06.000Z</time>
      </trkpt>
      <trkpt lat="48.02984" lon="6.99262">
        <ele>1145.8000488281</ele>
        <time>2022-10-09T11:11:13.000Z</time>
      </trkpt>
      <trkpt lat="48.02983" lon="6.99256">
        <ele>1145.5999755859</ele>
        <time>2022-10-09T11:11:17.000Z</time>
      </trkpt>
      <trkpt lat="48.02984" lon="6.99253">
        <ele>1145.4000244141</ele>
        <time>2022-10-09T11:11:19.000Z</time>
      </trkpt>
      <trkpt lat="48.02984" lon="6.99239">
        <ele>1144.8000488281</ele>
        <time>2022-10-09T11:11:27.000Z</time>
      </trkpt>
      <trkpt lat="48.02984" lon="6.99238">
        <ele>1144.5999755859</ele>
        <time>2022-10-09T11:11:28.000Z</time>
      </trkpt>
      <trkpt lat="48.02983" lon="6.99235">
        <ele>1144.4000244141</ele>
        <time>2022-10-09T11:11:30.000Z</time>
      </trkpt>
      <trkpt lat="48.02983" lon="6.99232">
        <ele>1143.8000488281</ele>
        <time>2022-10-09T11:11:33.000Z</time>
      </trkpt>
      <trkpt lat="48.02983" lon="6.99231">
        <ele>1143.4000244141</ele>
        <time>2022-10-09T11:11:35.000Z</time>
      </trkpt>
      <trkpt lat="48.02981" lon="6.99221">
        <ele>1142.5999755859</ele>
        <time>2022-10-09T11:11:42.000Z</time>
      </trkpt>
      <trkpt lat="48.02981" lon="6.99219">
        <ele>1142.4000244141</ele>
        <time>2022-10-09T11:11:44.000Z</time>
      </trkpt>
      <trkpt lat="48.02978" lon="6.9921">
        <ele>1141.5999755859</ele>
        <time>2022-10-09T11:11:51.000Z</time>
      </trkpt>
      <trkpt lat="48.02977" lon="6.99208">
        <ele>1141.4000244141</ele>
        <time>2022-10-09T11:11:53.000Z</time>
      </trkpt>
      <trkpt lat="48.02977" lon="6.99202">
        <ele>1141</ele>
        <time>2022-10-09T11:11:57.000Z</time>
      </trkpt>
      <trkpt lat="48.02975" lon="6.99195">
        <ele>1140.1999511719</ele>
        <time>2022-10-09T11:12:02.000Z</time>
      </trkpt>
      <trkpt lat="48.02975" lon="6.99195">
        <ele>1140</ele>
        <time>2022-10-09T11:12:03.000Z</time>
      </trkpt>
      <trkpt lat="48.02974" lon="6.99189">
        <ele>1139.5999755859</ele>
        <time>2022-10-09T11:12:07.000Z</time>
      </trkpt>
      <trkpt lat="48.02975" lon="6.99188">
        <ele>1139.1999511719</ele>
        <time>2022-10-09T11:12:09.000Z</time>
      </trkpt>
      <trkpt lat="48.02974" lon="6.99188">
        <ele>1139.1999511719</ele>
        <time>2022-10-09T11:12:10.000Z</time>
      </trkpt>
      <trkpt lat="48.0297" lon="6.99179">
        <ele>1138.8000488281</ele>
        <time>2022-10-09T11:12:16.000Z</time>
      </trkpt>
      <trkpt lat="48.02967" lon="6.99171">
        <ele>1138.1999511719</ele>
        <time>2022-10-09T11:12:22.000Z</time>
      </trkpt>
      <trkpt lat="48.02967" lon="6.9917">
        <ele>1138</ele>
        <time>2022-10-09T11:12:23.000Z</time>
      </trkpt>
      <trkpt lat="48.02966" lon="6.99163">
        <ele>1137.5999755859</ele>
        <time>2022-10-09T11:12:29.000Z</time>
      </trkpt>
      <trkpt lat="48.02964" lon="6.99158">
        <ele>1137</ele>
        <time>2022-10-09T11:12:33.000Z</time>
      </trkpt>
      <trkpt lat="48.02962" lon="6.99155">
        <ele>1136.8000488281</ele>
        <time>2022-10-09T11:12:36.000Z</time>
      </trkpt>
      <trkpt lat="48.02962" lon="6.99152">
        <ele>1136.1999511719</ele>
        <time>2022-10-09T11:12:42.000Z</time>
      </trkpt>
      <trkpt lat="48.02962" lon="6.99151">
        <ele>1136</ele>
        <time>2022-10-09T11:12:43.000Z</time>
      </trkpt>
      <trkpt lat="48.02962" lon="6.9915">
        <ele>1136</ele>
        <time>2022-10-09T11:12:44.000Z</time>
      </trkpt>
      <trkpt lat="48.02962" lon="6.99142">
        <ele>1135.4000244141</ele>
        <time>2022-10-09T11:12:49.000Z</time>
      </trkpt>
      <trkpt lat="48.02962" lon="6.99137">
        <ele>1135</ele>
        <time>2022-10-09T11:12:53.000Z</time>
      </trkpt>
      <trkpt lat="48.02959" lon="6.99129">
        <ele>1134.5999755859</ele>
        <time>2022-10-09T11:12:57.000Z</time>
      </trkpt>
      <trkpt lat="48.02959" lon="6.99124">
        <ele>1134.1999511719</ele>
        <time>2022-10-09T11:13:00.000Z</time>
      </trkpt>
      <trkpt lat="48.02957" lon="6.9912">
        <ele>1134</ele>
        <time>2022-10-09T11:13:04.000Z</time>
      </trkpt>
      <trkpt lat="48.02957" lon="6.99115">
        <ele>1133.5999755859</ele>
        <time>2022-10-09T11:13:07.000Z</time>
      </trkpt>
      <trkpt lat="48.02959" lon="6.99107">
        <ele>1133.1999511719</ele>
        <time>2022-10-09T11:13:13.000Z</time>
      </trkpt>
      <trkpt lat="48.02959" lon="6.99104">
        <ele>1133</ele>
        <time>2022-10-09T11:13:15.000Z</time>
      </trkpt>
      <trkpt lat="48.0296" lon="6.99096">
        <ele>1132.5999755859</ele>
        <time>2022-10-09T11:13:19.000Z</time>
      </trkpt>
      <trkpt lat="48.02963" lon="6.99087">
        <ele>1132</ele>
        <time>2022-10-09T11:13:25.000Z</time>
      </trkpt>
      <trkpt lat="48.02963" lon="6.99086">
        <ele>1132</ele>
        <time>2022-10-09T11:13:26.000Z</time>
      </trkpt>
      <trkpt lat="48.02965" lon="6.99085">
        <ele>1131.5999755859</ele>
        <time>2022-10-09T11:13:29.000Z</time>
      </trkpt>
      <trkpt lat="48.02968" lon="6.99076">
        <ele>1131.4000244141</ele>
        <time>2022-10-09T11:13:33.000Z</time>
      </trkpt>
      <trkpt lat="48.02969" lon="6.99072">
        <ele>1131.1999511719</ele>
        <time>2022-10-09T11:13:36.000Z</time>
      </trkpt>
      <trkpt lat="48.02972" lon="6.99068">
        <ele>1130.8000488281</ele>
        <time>2022-10-09T11:13:39.000Z</time>
      </trkpt>
      <trkpt lat="48.02973" lon="6.99067">
        <ele>1130.8000488281</ele>
        <time>2022-10-09T11:13:40.000Z</time>
      </trkpt>
      <trkpt lat="48.02977" lon="6.99064">
        <ele>1130.5999755859</ele>
        <time>2022-10-09T11:13:44.000Z</time>
      </trkpt>
      <trkpt lat="48.02978" lon="6.99061">
        <ele>1130.4000244141</ele>
        <time>2022-10-09T11:13:46.000Z</time>
      </trkpt>
      <trkpt lat="48.02984" lon="6.99055">
        <ele>1130.1999511719</ele>
        <time>2022-10-09T11:13:52.000Z</time>
      </trkpt>
      <trkpt lat="48.02992" lon="6.99047">
        <ele>1130.1999511719</ele>
        <time>2022-10-09T11:13:59.000Z</time>
      </trkpt>
      <trkpt lat="48.02996" lon="6.99041">
        <ele>1129.8000488281</ele>
        <time>2022-10-09T11:14:04.000Z</time>
      </trkpt>
      <trkpt lat="48.02996" lon="6.9904">
        <ele>1129.8000488281</ele>
        <time>2022-10-09T11:14:05.000Z</time>
      </trkpt>
      <trkpt lat="48.03" lon="6.99038">
        <ele>1129.5999755859</ele>
        <time>2022-10-09T11:14:10.000Z</time>
      </trkpt>
      <trkpt lat="48.03001" lon="6.99038">
        <ele>1129.5999755859</ele>
        <time>2022-10-09T11:14:11.000Z</time>
      </trkpt>
      <trkpt lat="48.03003" lon="6.99037">
        <ele>1129.5999755859</ele>
        <time>2022-10-09T11:14:13.000Z</time>
      </trkpt>
      <trkpt lat="48.03008" lon="6.99035">
        <ele>1129.4000244141</ele>
        <time>2022-10-09T11:14:18.000Z</time>
      </trkpt>
      <trkpt lat="48.03009" lon="6.99035">
        <ele>1129.1999511719</ele>
        <time>2022-10-09T11:14:19.000Z</time>
      </trkpt>
      <trkpt lat="48.03014" lon="6.99032">
        <ele>1128.8000488281</ele>
        <time>2022-10-09T11:14:23.000Z</time>
      </trkpt>
      <trkpt lat="48.03016" lon="6.99032">
        <ele>1128.8000488281</ele>
        <time>2022-10-09T11:14:25.000Z</time>
      </trkpt>
      <trkpt lat="48.03019" lon="6.99025">
        <ele>1128.4000244141</ele>
        <time>2022-10-09T11:14:30.000Z</time>
      </trkpt>
      <trkpt lat="48.03023" lon="6.99019">
        <ele>1127.8000488281</ele>
        <time>2022-10-09T11:14:36.000Z</time>
      </trkpt>
      <trkpt lat="48.03026" lon="6.9902">
        <ele>1127.5999755859</ele>
        <time>2022-10-09T11:14:42.000Z</time>
      </trkpt>
      <trkpt lat="48.03026" lon="6.99019">
        <ele>1127.4000244141</ele>
        <time>2022-10-09T11:14:46.000Z</time>
      </trkpt>
      <trkpt lat="48.03026" lon="6.99019">
        <ele>1127.1999511719</ele>
        <time>2022-10-09T11:14:48.000Z</time>
      </trkpt>
      <trkpt lat="48.03026" lon="6.99018">
        <ele>1127.4000244141</ele>
        <time>2022-10-09T11:15:02.000Z</time>
      </trkpt>
      <trkpt lat="48.03029" lon="6.99009">
        <ele>1126.8000488281</ele>
        <time>2022-10-09T11:15:26.000Z</time>
      </trkpt>
      <trkpt lat="48.03035" lon="6.99002">
        <ele>1126.5999755859</ele>
        <time>2022-10-09T11:15:32.000Z</time>
      </trkpt>
      <trkpt lat="48.03036" lon="6.99002">
        <ele>1126.5999755859</ele>
        <time>2022-10-09T11:15:33.000Z</time>
      </trkpt>
      <trkpt lat="48.03037" lon="6.99001">
        <ele>1126.4000244141</ele>
        <time>2022-10-09T11:15:35.000Z</time>
      </trkpt>
      <trkpt lat="48.0304" lon="6.98996">
        <ele>1126.1999511719</ele>
        <time>2022-10-09T11:15:38.000Z</time>
      </trkpt>
      <trkpt lat="48.03041" lon="6.98995">
        <ele>1126.1999511719</ele>
        <time>2022-10-09T11:15:39.000Z</time>
      </trkpt>
      <trkpt lat="48.03042" lon="6.98993">
        <ele>1126.1999511719</ele>
        <time>2022-10-09T11:15:40.000Z</time>
      </trkpt>
      <trkpt lat="48.03044" lon="6.98988">
        <ele>1125.5999755859</ele>
        <time>2022-10-09T11:15:43.000Z</time>
      </trkpt>
      <trkpt lat="48.03045" lon="6.98987">
        <ele>1125.4000244141</ele>
        <time>2022-10-09T11:15:44.000Z</time>
      </trkpt>
      <trkpt lat="48.03046" lon="6.98987">
        <ele>1125.1999511719</ele>
        <time>2022-10-09T11:15:45.000Z</time>
      </trkpt>
      <trkpt lat="48.03046" lon="6.98986">
        <ele>1125</ele>
        <time>2022-10-09T11:15:46.000Z</time>
      </trkpt>
      <trkpt lat="48.03049" lon="6.98985">
        <ele>1124.8000488281</ele>
        <time>2022-10-09T11:15:50.000Z</time>
      </trkpt>
      <trkpt lat="48.0305" lon="6.98985">
        <ele>1124.8000488281</ele>
        <time>2022-10-09T11:15:51.000Z</time>
      </trkpt>
      <trkpt lat="48.0305" lon="6.98985">
        <ele>1124.8000488281</ele>
        <time>2022-10-09T11:15:52.000Z</time>
      </trkpt>
      <trkpt lat="48.03054" lon="6.98985">
        <ele>1124.4000244141</ele>
        <time>2022-10-09T11:15:57.000Z</time>
      </trkpt>
      <trkpt lat="48.03055" lon="6.98984">
        <ele>1124.4000244141</ele>
        <time>2022-10-09T11:15:59.000Z</time>
      </trkpt>
      <trkpt lat="48.03061" lon="6.98978">
        <ele>1123.4000244141</ele>
        <time>2022-10-09T11:16:08.000Z</time>
      </trkpt>
      <trkpt lat="48.03063" lon="6.98977">
        <ele>1123.1999511719</ele>
        <time>2022-10-09T11:16:10.000Z</time>
      </trkpt>
      <trkpt lat="48.03071" lon="6.9897">
        <ele>1123</ele>
        <time>2022-10-09T11:16:20.000Z</time>
      </trkpt>
      <trkpt lat="48.03072" lon="6.98969">
        <ele>1122.8000488281</ele>
        <time>2022-10-09T11:16:21.000Z</time>
      </trkpt>
      <trkpt lat="48.03073" lon="6.98968">
        <ele>1122.5999755859</ele>
        <time>2022-10-09T11:16:22.000Z</time>
      </trkpt>
      <trkpt lat="48.03078" lon="6.9896">
        <ele>1122.4000244141</ele>
        <time>2022-10-09T11:16:29.000Z</time>
      </trkpt>
      <trkpt lat="48.0308" lon="6.98955">
        <ele>1122</ele>
        <time>2022-10-09T11:16:33.000Z</time>
      </trkpt>
      <trkpt lat="48.03083" lon="6.98954">
        <ele>1121.8000488281</ele>
        <time>2022-10-09T11:16:36.000Z</time>
      </trkpt>
      <trkpt lat="48.03089" lon="6.9895">
        <ele>1121.5999755859</ele>
        <time>2022-10-09T11:16:44.000Z</time>
      </trkpt>
      <trkpt lat="48.03092" lon="6.98946">
        <ele>1121.4000244141</ele>
        <time>2022-10-09T11:16:47.000Z</time>
      </trkpt>
      <trkpt lat="48.03095" lon="6.98944">
        <ele>1121.1999511719</ele>
        <time>2022-10-09T11:16:50.000Z</time>
      </trkpt>
      <trkpt lat="48.03095" lon="6.98944">
        <ele>1121.1999511719</ele>
        <time>2022-10-09T11:16:51.000Z</time>
      </trkpt>
      <trkpt lat="48.03096" lon="6.98943">
        <ele>1121.1999511719</ele>
        <time>2022-10-09T11:16:52.000Z</time>
      </trkpt>
      <trkpt lat="48.03097" lon="6.98941">
        <ele>1121</ele>
        <time>2022-10-09T11:16:54.000Z</time>
      </trkpt>
      <trkpt lat="48.03098" lon="6.98941">
        <ele>1121</ele>
        <time>2022-10-09T11:16:55.000Z</time>
      </trkpt>
      <trkpt lat="48.031" lon="6.98941">
        <ele>1120.8000488281</ele>
        <time>2022-10-09T11:16:57.000Z</time>
      </trkpt>
      <trkpt lat="48.03103" lon="6.98941">
        <ele>1120.5999755859</ele>
        <time>2022-10-09T11:17:01.000Z</time>
      </trkpt>
      <trkpt lat="48.03104" lon="6.98942">
        <ele>1120.4000244141</ele>
        <time>2022-10-09T11:17:02.000Z</time>
      </trkpt>
      <trkpt lat="48.03105" lon="6.9894">
        <ele>1120.4000244141</ele>
        <time>2022-10-09T11:17:04.000Z</time>
      </trkpt>
      <trkpt lat="48.03107" lon="6.98938">
        <ele>1120</ele>
        <time>2022-10-09T11:17:09.000Z</time>
      </trkpt>
      <trkpt lat="48.03108" lon="6.98937">
        <ele>1119.8000488281</ele>
        <time>2022-10-09T11:17:10.000Z</time>
      </trkpt>
      <trkpt lat="48.03108" lon="6.98936">
        <ele>1119.8000488281</ele>
        <time>2022-10-09T11:17:11.000Z</time>
      </trkpt>
      <trkpt lat="48.03108" lon="6.98933">
        <ele>1119.8000488281</ele>
        <time>2022-10-09T11:17:14.000Z</time>
      </trkpt>
      <trkpt lat="48.03108" lon="6.9893">
        <ele>1119.8000488281</ele>
        <time>2022-10-09T11:17:18.000Z</time>
      </trkpt>
      <trkpt lat="48.03109" lon="6.9893">
        <ele>1119.8000488281</ele>
        <time>2022-10-09T11:17:20.000Z</time>
      </trkpt>
      <trkpt lat="48.03111" lon="6.98926">
        <ele>1119.5999755859</ele>
        <time>2022-10-09T11:17:24.000Z</time>
      </trkpt>
      <trkpt lat="48.03113" lon="6.98923">
        <ele>1119.4000244141</ele>
        <time>2022-10-09T11:17:29.000Z</time>
      </trkpt>
      <trkpt lat="48.03114" lon="6.98922">
        <ele>1119.1999511719</ele>
        <time>2022-10-09T11:17:31.000Z</time>
      </trkpt>
      <trkpt lat="48.03116" lon="6.98916">
        <ele>1118.5999755859</ele>
        <time>2022-10-09T11:17:39.000Z</time>
      </trkpt>
      <trkpt lat="48.03116" lon="6.98916">
        <ele>1118.5999755859</ele>
        <time>2022-10-09T11:17:40.000Z</time>
      </trkpt>
      <trkpt lat="48.03116" lon="6.9891">
        <ele>1118.1999511719</ele>
        <time>2022-10-09T11:17:46.000Z</time>
      </trkpt>
      <trkpt lat="48.03117" lon="6.98906">
        <ele>1118</ele>
        <time>2022-10-09T11:17:52.000Z</time>
      </trkpt>
      <trkpt lat="48.03115" lon="6.98902">
        <ele>1117.8000488281</ele>
        <time>2022-10-09T11:17:59.000Z</time>
      </trkpt>
      <trkpt lat="48.03115" lon="6.98898">
        <ele>1117.4000244141</ele>
        <time>2022-10-09T11:18:04.000Z</time>
      </trkpt>
      <trkpt lat="48.03115" lon="6.98893">
        <ele>1117.1999511719</ele>
        <time>2022-10-09T11:18:09.000Z</time>
      </trkpt>
      <trkpt lat="48.03115" lon="6.98892">
        <ele>1117.1999511719</ele>
        <time>2022-10-09T11:18:10.000Z</time>
      </trkpt>
      <trkpt lat="48.03118" lon="6.9888">
        <ele>1116.4000244141</ele>
        <time>2022-10-09T11:18:19.000Z</time>
      </trkpt>
      <trkpt lat="48.03118" lon="6.98878">
        <ele>1116.1999511719</ele>
        <time>2022-10-09T11:18:21.000Z</time>
      </trkpt>
      <trkpt lat="48.0312" lon="6.98874">
        <ele>1115.8000488281</ele>
        <time>2022-10-09T11:18:26.000Z</time>
      </trkpt>
      <trkpt lat="48.03123" lon="6.98869">
        <ele>1115.1999511719</ele>
        <time>2022-10-09T11:18:31.000Z</time>
      </trkpt>
      <trkpt lat="48.03123" lon="6.98868">
        <ele>1115.1999511719</ele>
        <time>2022-10-09T11:18:32.000Z</time>
      </trkpt>
      <trkpt lat="48.03126" lon="6.98859">
        <ele>1114.8000488281</ele>
        <time>2022-10-09T11:18:37.000Z</time>
      </trkpt>
      <trkpt lat="48.0313" lon="6.98852">
        <ele>1114.1999511719</ele>
        <time>2022-10-09T11:18:44.000Z</time>
      </trkpt>
      <trkpt lat="48.03134" lon="6.98842">
        <ele>1113.5999755859</ele>
        <time>2022-10-09T11:18:51.000Z</time>
      </trkpt>
      <trkpt lat="48.03135" lon="6.98841">
        <ele>1113.4000244141</ele>
        <time>2022-10-09T11:18:53.000Z</time>
      </trkpt>
      <trkpt lat="48.03137" lon="6.98839">
        <ele>1113</ele>
        <time>2022-10-09T11:18:57.000Z</time>
      </trkpt>
      <trkpt lat="48.03138" lon="6.98836">
        <ele>1112.8000488281</ele>
        <time>2022-10-09T11:18:59.000Z</time>
      </trkpt>
      <trkpt lat="48.0314" lon="6.98832">
        <ele>1112.4000244141</ele>
        <time>2022-10-09T11:19:03.000Z</time>
      </trkpt>
      <trkpt lat="48.03142" lon="6.98828">
        <ele>1112.1999511719</ele>
        <time>2022-10-09T11:19:06.000Z</time>
      </trkpt>
      <trkpt lat="48.03142" lon="6.98825">
        <ele>1112</ele>
        <time>2022-10-09T11:19:08.000Z</time>
      </trkpt>
      <trkpt lat="48.03144" lon="6.98825">
        <ele>1111.8000488281</ele>
        <time>2022-10-09T11:19:10.000Z</time>
      </trkpt>
      <trkpt lat="48.03146" lon="6.98822">
        <ele>1111.5999755859</ele>
        <time>2022-10-09T11:19:13.000Z</time>
      </trkpt>
      <trkpt lat="48.03147" lon="6.98816">
        <ele>1111.4000244141</ele>
        <time>2022-10-09T11:19:16.000Z</time>
      </trkpt>
      <trkpt lat="48.03152" lon="6.98806">
        <ele>1111</ele>
        <time>2022-10-09T11:19:23.000Z</time>
      </trkpt>
      <trkpt lat="48.03152" lon="6.98804">
        <ele>1111</ele>
        <time>2022-10-09T11:19:24.000Z</time>
      </trkpt>
      <trkpt lat="48.03155" lon="6.9879">
        <ele>1110.4000244141</ele>
        <time>2022-10-09T11:19:32.000Z</time>
      </trkpt>
      <trkpt lat="48.03156" lon="6.98788">
        <ele>1110.4000244141</ele>
        <time>2022-10-09T11:19:35.000Z</time>
      </trkpt>
      <trkpt lat="48.03157" lon="6.98788">
        <ele>1110.1999511719</ele>
        <time>2022-10-09T11:19:36.000Z</time>
      </trkpt>
      <trkpt lat="48.03158" lon="6.98782">
        <ele>1110</ele>
        <time>2022-10-09T11:19:40.000Z</time>
      </trkpt>
      <trkpt lat="48.03158" lon="6.98777">
        <ele>1109.8000488281</ele>
        <time>2022-10-09T11:19:42.000Z</time>
      </trkpt>
      <trkpt lat="48.03158" lon="6.98775">
        <ele>1109.5999755859</ele>
        <time>2022-10-09T11:19:43.000Z</time>
      </trkpt>
      <trkpt lat="48.03158" lon="6.98774">
        <ele>1109.5999755859</ele>
        <time>2022-10-09T11:19:44.000Z</time>
      </trkpt>
      <trkpt lat="48.03159" lon="6.98768">
        <ele>1109.1999511719</ele>
        <time>2022-10-09T11:19:48.000Z</time>
      </trkpt>
      <trkpt lat="48.0316" lon="6.98765">
        <ele>1109</ele>
        <time>2022-10-09T11:19:51.000Z</time>
      </trkpt>
      <trkpt lat="48.03163" lon="6.98762">
        <ele>1108.5999755859</ele>
        <time>2022-10-09T11:19:56.000Z</time>
      </trkpt>
      <trkpt lat="48.03167" lon="6.98757">
        <ele>1108.1999511719</ele>
        <time>2022-10-09T11:20:02.000Z</time>
      </trkpt>
      <trkpt lat="48.03167" lon="6.98754">
        <ele>1107.8000488281</ele>
        <time>2022-10-09T11:20:05.000Z</time>
      </trkpt>
      <trkpt lat="48.03166" lon="6.98751">
        <ele>1107.8000488281</ele>
        <time>2022-10-09T11:20:07.000Z</time>
      </trkpt>
      <trkpt lat="48.03168" lon="6.98742">
        <ele>1107.4000244141</ele>
        <time>2022-10-09T11:20:14.000Z</time>
      </trkpt>
      <trkpt lat="48.0317" lon="6.98738">
        <ele>1106.8000488281</ele>
        <time>2022-10-09T11:20:19.000Z</time>
      </trkpt>
      <trkpt lat="48.03172" lon="6.98733">
        <ele>1106.5999755859</ele>
        <time>2022-10-09T11:20:23.000Z</time>
      </trkpt>
      <trkpt lat="48.03176" lon="6.98729">
        <ele>1106.1999511719</ele>
        <time>2022-10-09T11:20:30.000Z</time>
      </trkpt>
      <trkpt lat="48.03178" lon="6.98723">
        <ele>1105.8000488281</ele>
        <time>2022-10-09T11:20:35.000Z</time>
      </trkpt>
      <trkpt lat="48.03179" lon="6.98717">
        <ele>1105.4000244141</ele>
        <time>2022-10-09T11:20:39.000Z</time>
      </trkpt>
      <trkpt lat="48.0318" lon="6.98715">
        <ele>1105.4000244141</ele>
        <time>2022-10-09T11:20:40.000Z</time>
      </trkpt>
      <trkpt lat="48.0318" lon="6.98712">
        <ele>1105.1999511719</ele>
        <time>2022-10-09T11:20:42.000Z</time>
      </trkpt>
      <trkpt lat="48.03183" lon="6.98705">
        <ele>1104.8000488281</ele>
        <time>2022-10-09T11:20:47.000Z</time>
      </trkpt>
      <trkpt lat="48.03185" lon="6.98697">
        <ele>1104</ele>
        <time>2022-10-09T11:20:54.000Z</time>
      </trkpt>
      <trkpt lat="48.03187" lon="6.98695">
        <ele>1103.8000488281</ele>
        <time>2022-10-09T11:20:57.000Z</time>
      </trkpt>
      <trkpt lat="48.03187" lon="6.98686">
        <ele>1103.4000244141</ele>
        <time>2022-10-09T11:21:02.000Z</time>
      </trkpt>
      <trkpt lat="48.03189" lon="6.98679">
        <ele>1103.4000244141</ele>
        <time>2022-10-09T11:21:07.000Z</time>
      </trkpt>
      <trkpt lat="48.03191" lon="6.98672">
        <ele>1103</ele>
        <time>2022-10-09T11:21:13.000Z</time>
      </trkpt>
      <trkpt lat="48.03192" lon="6.98669">
        <ele>1102.5999755859</ele>
        <time>2022-10-09T11:21:16.000Z</time>
      </trkpt>
      <trkpt lat="48.03193" lon="6.98664">
        <ele>1102.4000244141</ele>
        <time>2022-10-09T11:21:20.000Z</time>
      </trkpt>
      <trkpt lat="48.03196" lon="6.98652">
        <ele>1101.8000488281</ele>
        <time>2022-10-09T11:21:30.000Z</time>
      </trkpt>
      <trkpt lat="48.03197" lon="6.98649">
        <ele>1101.5999755859</ele>
        <time>2022-10-09T11:21:33.000Z</time>
      </trkpt>
      <trkpt lat="48.03199" lon="6.98644">
        <ele>1101.4000244141</ele>
        <time>2022-10-09T11:21:37.000Z</time>
      </trkpt>
      <trkpt lat="48.03203" lon="6.98638">
        <ele>1101</ele>
        <time>2022-10-09T11:21:43.000Z</time>
      </trkpt>
      <trkpt lat="48.03206" lon="6.98634">
        <ele>1100.5999755859</ele>
        <time>2022-10-09T11:21:48.000Z</time>
      </trkpt>
      <trkpt lat="48.03207" lon="6.98633">
        <ele>1100.4000244141</ele>
        <time>2022-10-09T11:21:49.000Z</time>
      </trkpt>
      <trkpt lat="48.03211" lon="6.98625">
        <ele>1100</ele>
        <time>2022-10-09T11:21:56.000Z</time>
      </trkpt>
      <trkpt lat="48.03215" lon="6.98619">
        <ele>1099.5999755859</ele>
        <time>2022-10-09T11:22:03.000Z</time>
      </trkpt>
      <trkpt lat="48.03215" lon="6.98617">
        <ele>1099.4000244141</ele>
        <time>2022-10-09T11:22:04.000Z</time>
      </trkpt>
      <trkpt lat="48.03218" lon="6.98607">
        <ele>1098.5999755859</ele>
        <time>2022-10-09T11:22:13.000Z</time>
      </trkpt>
      <trkpt lat="48.0322" lon="6.98604">
        <ele>1098.4000244141</ele>
        <time>2022-10-09T11:22:16.000Z</time>
      </trkpt>
      <trkpt lat="48.03222" lon="6.986">
        <ele>1098.1999511719</ele>
        <time>2022-10-09T11:22:19.000Z</time>
      </trkpt>
      <trkpt lat="48.03224" lon="6.98597">
        <ele>1098</ele>
        <time>2022-10-09T11:22:23.000Z</time>
      </trkpt>
      <trkpt lat="48.03226" lon="6.9859">
        <ele>1098</ele>
        <time>2022-10-09T11:22:28.000Z</time>
      </trkpt>
      <trkpt lat="48.0323" lon="6.98577">
        <ele>1097.4000244141</ele>
        <time>2022-10-09T11:22:37.000Z</time>
      </trkpt>
      <trkpt lat="48.03231" lon="6.98576">
        <ele>1097.1999511719</ele>
        <time>2022-10-09T11:22:38.000Z</time>
      </trkpt>
      <trkpt lat="48.03233" lon="6.98571">
        <ele>1096.5999755859</ele>
        <time>2022-10-09T11:22:43.000Z</time>
      </trkpt>
      <trkpt lat="48.03236" lon="6.98565">
        <ele>1096.4000244141</ele>
        <time>2022-10-09T11:22:48.000Z</time>
      </trkpt>
      <trkpt lat="48.03237" lon="6.98563">
        <ele>1096.1999511719</ele>
        <time>2022-10-09T11:22:50.000Z</time>
      </trkpt>
      <trkpt lat="48.03239" lon="6.98557">
        <ele>1095.8000488281</ele>
        <time>2022-10-09T11:22:55.000Z</time>
      </trkpt>
      <trkpt lat="48.03243" lon="6.98552">
        <ele>1095.5999755859</ele>
        <time>2022-10-09T11:23:00.000Z</time>
      </trkpt>
      <trkpt lat="48.03244" lon="6.98551">
        <ele>1095.1999511719</ele>
        <time>2022-10-09T11:23:02.000Z</time>
      </trkpt>
      <trkpt lat="48.03249" lon="6.98541">
        <ele>1094.1999511719</ele>
        <time>2022-10-09T11:23:11.000Z</time>
      </trkpt>
      <trkpt lat="48.03249" lon="6.98539">
        <ele>1094.1999511719</ele>
        <time>2022-10-09T11:23:12.000Z</time>
      </trkpt>
      <trkpt lat="48.03253" lon="6.98536">
        <ele>1093.8000488281</ele>
        <time>2022-10-09T11:23:17.000Z</time>
      </trkpt>
      <trkpt lat="48.03254" lon="6.98534">
        <ele>1093.5999755859</ele>
        <time>2022-10-09T11:23:19.000Z</time>
      </trkpt>
      <trkpt lat="48.03255" lon="6.98533">
        <ele>1093.4000244141</ele>
        <time>2022-10-09T11:23:20.000Z</time>
      </trkpt>
      <trkpt lat="48.03255" lon="6.9853">
        <ele>1093</ele>
        <time>2022-10-09T11:23:23.000Z</time>
      </trkpt>
      <trkpt lat="48.03256" lon="6.9853">
        <ele>1093</ele>
        <time>2022-10-09T11:23:24.000Z</time>
      </trkpt>
      <trkpt lat="48.03257" lon="6.98526">
        <ele>1093.1999511719</ele>
        <time>2022-10-09T11:23:30.000Z</time>
      </trkpt>
      <trkpt lat="48.03258" lon="6.9852">
        <ele>1093</ele>
        <time>2022-10-09T11:23:37.000Z</time>
      </trkpt>
      <trkpt lat="48.03265" lon="6.98509">
        <ele>1092.1999511719</ele>
        <time>2022-10-09T11:23:46.000Z</time>
      </trkpt>
      <trkpt lat="48.03266" lon="6.98508">
        <ele>1092</ele>
        <time>2022-10-09T11:23:47.000Z</time>
      </trkpt>
      <trkpt lat="48.03267" lon="6.98506">
        <ele>1092</ele>
        <time>2022-10-09T11:23:48.000Z</time>
      </trkpt>
      <trkpt lat="48.03268" lon="6.98499">
        <ele>1091.5999755859</ele>
        <time>2022-10-09T11:23:52.000Z</time>
      </trkpt>
      <trkpt lat="48.0327" lon="6.98495">
        <ele>1091.4000244141</ele>
        <time>2022-10-09T11:23:55.000Z</time>
      </trkpt>
      <trkpt lat="48.03271" lon="6.98493">
        <ele>1091.1999511719</ele>
        <time>2022-10-09T11:23:57.000Z</time>
      </trkpt>
      <trkpt lat="48.03272" lon="6.98492">
        <ele>1091.1999511719</ele>
        <time>2022-10-09T11:23:58.000Z</time>
      </trkpt>
      <trkpt lat="48.03272" lon="6.98491">
        <ele>1091</ele>
        <time>2022-10-09T11:23:59.000Z</time>
      </trkpt>
      <trkpt lat="48.03275" lon="6.98485">
        <ele>1090.5999755859</ele>
        <time>2022-10-09T11:24:04.000Z</time>
      </trkpt>
      <trkpt lat="48.03277" lon="6.98473">
        <ele>1090</ele>
        <time>2022-10-09T11:24:11.000Z</time>
      </trkpt>
      <trkpt lat="48.03278" lon="6.98471">
        <ele>1090</ele>
        <time>2022-10-09T11:24:12.000Z</time>
      </trkpt>
      <trkpt lat="48.03282" lon="6.98467">
        <ele>1089.8000488281</ele>
        <time>2022-10-09T11:24:16.000Z</time>
      </trkpt>
      <trkpt lat="48.03283" lon="6.98466">
        <ele>1089.5999755859</ele>
        <time>2022-10-09T11:24:18.000Z</time>
      </trkpt>
      <trkpt lat="48.03284" lon="6.98465">
        <ele>1089.4000244141</ele>
        <time>2022-10-09T11:24:19.000Z</time>
      </trkpt>
      <trkpt lat="48.03285" lon="6.98455">
        <ele>1089</ele>
        <time>2022-10-09T11:24:24.000Z</time>
      </trkpt>
      <trkpt lat="48.03286" lon="6.98454">
        <ele>1088.8000488281</ele>
        <time>2022-10-09T11:24:25.000Z</time>
      </trkpt>
      <trkpt lat="48.03287" lon="6.98448">
        <ele>1088.8000488281</ele>
        <time>2022-10-09T11:24:29.000Z</time>
      </trkpt>
      <trkpt lat="48.03288" lon="6.98447">
        <ele>1088.5999755859</ele>
        <time>2022-10-09T11:24:30.000Z</time>
      </trkpt>
      <trkpt lat="48.03289" lon="6.98446">
        <ele>1088.4000244141</ele>
        <time>2022-10-09T11:24:31.000Z</time>
      </trkpt>
      <trkpt lat="48.03291" lon="6.98439">
        <ele>1087.8000488281</ele>
        <time>2022-10-09T11:24:36.000Z</time>
      </trkpt>
      <trkpt lat="48.03291" lon="6.98436">
        <ele>1087.5999755859</ele>
        <time>2022-10-09T11:24:38.000Z</time>
      </trkpt>
      <trkpt lat="48.03292" lon="6.98434">
        <ele>1087.5999755859</ele>
        <time>2022-10-09T11:24:39.000Z</time>
      </trkpt>
      <trkpt lat="48.03294" lon="6.98432">
        <ele>1087.4000244141</ele>
        <time>2022-10-09T11:24:41.000Z</time>
      </trkpt>
      <trkpt lat="48.03296" lon="6.98431">
        <ele>1087.4000244141</ele>
        <time>2022-10-09T11:24:43.000Z</time>
      </trkpt>
      <trkpt lat="48.03296" lon="6.98427">
        <ele>1087.1999511719</ele>
        <time>2022-10-09T11:24:46.000Z</time>
      </trkpt>
      <trkpt lat="48.03297" lon="6.98426">
        <ele>1087</ele>
        <time>2022-10-09T11:24:47.000Z</time>
      </trkpt>
      <trkpt lat="48.03297" lon="6.98423">
        <ele>1086.8000488281</ele>
        <time>2022-10-09T11:24:49.000Z</time>
      </trkpt>
      <trkpt lat="48.033" lon="6.98421">
        <ele>1086.5999755859</ele>
        <time>2022-10-09T11:24:52.000Z</time>
      </trkpt>
      <trkpt lat="48.03301" lon="6.98419">
        <ele>1086.1999511719</ele>
        <time>2022-10-09T11:24:55.000Z</time>
      </trkpt>
      <trkpt lat="48.03303" lon="6.98417">
        <ele>1086.1999511719</ele>
        <time>2022-10-09T11:24:57.000Z</time>
      </trkpt>
      <trkpt lat="48.03303" lon="6.98416">
        <ele>1086</ele>
        <time>2022-10-09T11:24:58.000Z</time>
      </trkpt>
      <trkpt lat="48.03304" lon="6.98418">
        <ele>1086</ele>
        <time>2022-10-09T11:25:03.000Z</time>
      </trkpt>
      <trkpt lat="48.03305" lon="6.9842">
        <ele>1086</ele>
        <time>2022-10-09T11:25:08.000Z</time>
      </trkpt>
      <trkpt lat="48.03302" lon="6.98422">
        <ele>1085.8000488281</ele>
        <time>2022-10-09T11:25:14.000Z</time>
      </trkpt>
      <trkpt lat="48.03302" lon="6.98422">
        <ele>1085.8000488281</ele>
        <time>2022-10-09T11:25:15.000Z</time>
      </trkpt>
      <trkpt lat="48.03303" lon="6.98421">
        <ele>1085.5999755859</ele>
        <time>2022-10-09T11:25:27.000Z</time>
      </trkpt>
      <trkpt lat="48.03303" lon="6.98421">
        <ele>1085.5999755859</ele>
        <time>2022-10-09T11:25:28.000Z</time>
      </trkpt>
      <trkpt lat="48.03304" lon="6.98423">
        <ele>1085.8000488281</ele>
        <time>2022-10-09T11:25:42.000Z</time>
      </trkpt>
      <trkpt lat="48.03307" lon="6.98425">
        <ele>1085.4000244141</ele>
        <time>2022-10-09T11:25:58.000Z</time>
      </trkpt>
      <trkpt lat="48.03307" lon="6.98425">
        <ele>1085.4000244141</ele>
        <time>2022-10-09T11:25:59.000Z</time>
      </trkpt>
      <trkpt lat="48.03307" lon="6.98425">
        <ele>1085.4000244141</ele>
        <time>2022-10-09T11:26:01.000Z</time>
      </trkpt>
      <trkpt lat="48.03307" lon="6.98425">
        <ele>1085.1999511719</ele>
        <time>2022-10-09T11:26:02.000Z</time>
      </trkpt>
      <trkpt lat="48.03307" lon="6.98424">
        <ele>1084.8000488281</ele>
        <time>2022-10-09T11:26:05.000Z</time>
      </trkpt>
      <trkpt lat="48.03308" lon="6.98424">
        <ele>1084.8000488281</ele>
        <time>2022-10-09T11:26:06.000Z</time>
      </trkpt>
      <trkpt lat="48.03311" lon="6.98419">
        <ele>1084.4000244141</ele>
        <time>2022-10-09T11:26:12.000Z</time>
      </trkpt>
      <trkpt lat="48.03314" lon="6.98408">
        <ele>1084.1999511719</ele>
        <time>2022-10-09T11:26:15.000Z</time>
      </trkpt>
      <trkpt lat="48.03317" lon="6.98398">
        <ele>1084</ele>
        <time>2022-10-09T11:26:18.000Z</time>
      </trkpt>
      <trkpt lat="48.03319" lon="6.98392">
        <ele>1084</ele>
        <time>2022-10-09T11:26:20.000Z</time>
      </trkpt>
      <trkpt lat="48.03319" lon="6.9839">
        <ele>1083.8000488281</ele>
        <time>2022-10-09T11:26:22.000Z</time>
      </trkpt>
      <trkpt lat="48.03322" lon="6.98385">
        <ele>1083.4000244141</ele>
        <time>2022-10-09T11:26:26.000Z</time>
      </trkpt>
      <trkpt lat="48.03323" lon="6.98384">
        <ele>1083.4000244141</ele>
        <time>2022-10-09T11:26:27.000Z</time>
      </trkpt>
      <trkpt lat="48.03325" lon="6.98379">
        <ele>1083</ele>
        <time>2022-10-09T11:26:30.000Z</time>
      </trkpt>
      <trkpt lat="48.03325" lon="6.98372">
        <ele>1082.8000488281</ele>
        <time>2022-10-09T11:26:33.000Z</time>
      </trkpt>
      <trkpt lat="48.03325" lon="6.98371">
        <ele>1082.5999755859</ele>
        <time>2022-10-09T11:26:34.000Z</time>
      </trkpt>
      <trkpt lat="48.03327" lon="6.98362">
        <ele>1082</ele>
        <time>2022-10-09T11:26:40.000Z</time>
      </trkpt>
      <trkpt lat="48.03328" lon="6.9836">
        <ele>1081.8000488281</ele>
        <time>2022-10-09T11:26:41.000Z</time>
      </trkpt>
      <trkpt lat="48.03328" lon="6.98358">
        <ele>1081.8000488281</ele>
        <time>2022-10-09T11:26:42.000Z</time>
      </trkpt>
      <trkpt lat="48.03329" lon="6.98348">
        <ele>1081</ele>
        <time>2022-10-09T11:26:48.000Z</time>
      </trkpt>
      <trkpt lat="48.0333" lon="6.98344">
        <ele>1080.8000488281</ele>
        <time>2022-10-09T11:26:51.000Z</time>
      </trkpt>
      <trkpt lat="48.03332" lon="6.98338">
        <ele>1080.4000244141</ele>
        <time>2022-10-09T11:26:55.000Z</time>
      </trkpt>
      <trkpt lat="48.03333" lon="6.98337">
        <ele>1080.4000244141</ele>
        <time>2022-10-09T11:26:56.000Z</time>
      </trkpt>
      <trkpt lat="48.03333" lon="6.98337">
        <ele>1080.1999511719</ele>
        <time>2022-10-09T11:26:57.000Z</time>
      </trkpt>
      <trkpt lat="48.03336" lon="6.98328">
        <ele>1079.8000488281</ele>
        <time>2022-10-09T11:27:03.000Z</time>
      </trkpt>
      <trkpt lat="48.03337" lon="6.98326">
        <ele>1079.5999755859</ele>
        <time>2022-10-09T11:27:05.000Z</time>
      </trkpt>
      <trkpt lat="48.03338" lon="6.98324">
        <ele>1079.5999755859</ele>
        <time>2022-10-09T11:27:06.000Z</time>
      </trkpt>
      <trkpt lat="48.03339" lon="6.98323">
        <ele>1079.1999511719</ele>
        <time>2022-10-09T11:27:08.000Z</time>
      </trkpt>
      <trkpt lat="48.0334" lon="6.98323">
        <ele>1079</ele>
        <time>2022-10-09T11:27:09.000Z</time>
      </trkpt>
      <trkpt lat="48.03341" lon="6.98321">
        <ele>1078.8000488281</ele>
        <time>2022-10-09T11:27:12.000Z</time>
      </trkpt>
      <trkpt lat="48.03342" lon="6.9832">
        <ele>1078.5999755859</ele>
        <time>2022-10-09T11:27:13.000Z</time>
      </trkpt>
      <trkpt lat="48.03344" lon="6.98318">
        <ele>1078.4000244141</ele>
        <time>2022-10-09T11:27:16.000Z</time>
      </trkpt>
      <trkpt lat="48.03348" lon="6.98306">
        <ele>1077.5999755859</ele>
        <time>2022-10-09T11:27:24.000Z</time>
      </trkpt>
      <trkpt lat="48.0335" lon="6.98295">
        <ele>1077.1999511719</ele>
        <time>2022-10-09T11:27:30.000Z</time>
      </trkpt>
      <trkpt lat="48.03351" lon="6.98289">
        <ele>1076.8000488281</ele>
        <time>2022-10-09T11:27:34.000Z</time>
      </trkpt>
      <trkpt lat="48.03351" lon="6.98288">
        <ele>1076.5999755859</ele>
        <time>2022-10-09T11:27:35.000Z</time>
      </trkpt>
      <trkpt lat="48.03352" lon="6.98287">
        <ele>1076.4000244141</ele>
        <time>2022-10-09T11:27:36.000Z</time>
      </trkpt>
      <trkpt lat="48.03353" lon="6.98281">
        <ele>1076</ele>
        <time>2022-10-09T11:27:40.000Z</time>
      </trkpt>
      <trkpt lat="48.03355" lon="6.98274">
        <ele>1075.8000488281</ele>
        <time>2022-10-09T11:27:43.000Z</time>
      </trkpt>
      <trkpt lat="48.03356" lon="6.98271">
        <ele>1075.5999755859</ele>
        <time>2022-10-09T11:27:45.000Z</time>
      </trkpt>
      <trkpt lat="48.03357" lon="6.98265">
        <ele>1075.4000244141</ele>
        <time>2022-10-09T11:27:49.000Z</time>
      </trkpt>
      <trkpt lat="48.03357" lon="6.98264">
        <ele>1075.4000244141</ele>
        <time>2022-10-09T11:27:50.000Z</time>
      </trkpt>
      <trkpt lat="48.03357" lon="6.98263">
        <ele>1075.4000244141</ele>
        <time>2022-10-09T11:27:52.000Z</time>
      </trkpt>
      <trkpt lat="48.03358" lon="6.98258">
        <ele>1075.1999511719</ele>
        <time>2022-10-09T11:27:55.000Z</time>
      </trkpt>
      <trkpt lat="48.03358" lon="6.98258">
        <ele>1075</ele>
        <time>2022-10-09T11:27:56.000Z</time>
      </trkpt>
      <trkpt lat="48.03359" lon="6.98258">
        <ele>1075</ele>
        <time>2022-10-09T11:27:57.000Z</time>
      </trkpt>
      <trkpt lat="48.03359" lon="6.98255">
        <ele>1074.5999755859</ele>
        <time>2022-10-09T11:27:59.000Z</time>
      </trkpt>
      <trkpt lat="48.03359" lon="6.98252">
        <ele>1074.4000244141</ele>
        <time>2022-10-09T11:28:01.000Z</time>
      </trkpt>
      <trkpt lat="48.0336" lon="6.98248">
        <ele>1074</ele>
        <time>2022-10-09T11:28:04.000Z</time>
      </trkpt>
      <trkpt lat="48.03361" lon="6.98245">
        <ele>1073.8000488281</ele>
        <time>2022-10-09T11:28:06.000Z</time>
      </trkpt>
      <trkpt lat="48.03363" lon="6.98238">
        <ele>1073.4000244141</ele>
        <time>2022-10-09T11:28:11.000Z</time>
      </trkpt>
      <trkpt lat="48.03363" lon="6.98236">
        <ele>1073.4000244141</ele>
        <time>2022-10-09T11:28:12.000Z</time>
      </trkpt>
      <trkpt lat="48.03364" lon="6.98235">
        <ele>1073.1999511719</ele>
        <time>2022-10-09T11:28:13.000Z</time>
      </trkpt>
      <trkpt lat="48.03365" lon="6.98231">
        <ele>1073</ele>
        <time>2022-10-09T11:28:16.000Z</time>
      </trkpt>
      <trkpt lat="48.03366" lon="6.98229">
        <ele>1072.8000488281</ele>
        <time>2022-10-09T11:28:18.000Z</time>
      </trkpt>
      <trkpt lat="48.03366" lon="6.98225">
        <ele>1072.4000244141</ele>
        <time>2022-10-09T11:28:21.000Z</time>
      </trkpt>
      <trkpt lat="48.03367" lon="6.98222">
        <ele>1072.1999511719</ele>
        <time>2022-10-09T11:28:23.000Z</time>
      </trkpt>
      <trkpt lat="48.03369" lon="6.98211">
        <ele>1071.4000244141</ele>
        <time>2022-10-09T11:28:30.000Z</time>
      </trkpt>
      <trkpt lat="48.03369" lon="6.9821">
        <ele>1071.4000244141</ele>
        <time>2022-10-09T11:28:31.000Z</time>
      </trkpt>
      <trkpt lat="48.0337" lon="6.98208">
        <ele>1071</ele>
        <time>2022-10-09T11:28:32.000Z</time>
      </trkpt>
      <trkpt lat="48.0337" lon="6.98206">
        <ele>1071</ele>
        <time>2022-10-09T11:28:34.000Z</time>
      </trkpt>
      <trkpt lat="48.0337" lon="6.98203">
        <ele>1070.8000488281</ele>
        <time>2022-10-09T11:28:36.000Z</time>
      </trkpt>
      <trkpt lat="48.03372" lon="6.98197">
        <ele>1070</ele>
        <time>2022-10-09T11:28:41.000Z</time>
      </trkpt>
      <trkpt lat="48.03373" lon="6.98196">
        <ele>1070</ele>
        <time>2022-10-09T11:28:42.000Z</time>
      </trkpt>
      <trkpt lat="48.03374" lon="6.98187">
        <ele>1069</ele>
        <time>2022-10-09T11:28:52.000Z</time>
      </trkpt>
      <trkpt lat="48.03374" lon="6.98186">
        <ele>1068.8000488281</ele>
        <time>2022-10-09T11:28:53.000Z</time>
      </trkpt>
      <trkpt lat="48.03373" lon="6.98183">
        <ele>1068.5999755859</ele>
        <time>2022-10-09T11:28:55.000Z</time>
      </trkpt>
      <trkpt lat="48.03371" lon="6.98174">
        <ele>1068</ele>
        <time>2022-10-09T11:29:01.000Z</time>
      </trkpt>
      <trkpt lat="48.03371" lon="6.98173">
        <ele>1067.8000488281</ele>
        <time>2022-10-09T11:29:02.000Z</time>
      </trkpt>
      <trkpt lat="48.0337" lon="6.98163">
        <ele>1066.8000488281</ele>
        <time>2022-10-09T11:29:09.000Z</time>
      </trkpt>
      <trkpt lat="48.03369" lon="6.98162">
        <ele>1066.8000488281</ele>
        <time>2022-10-09T11:29:10.000Z</time>
      </trkpt>
      <trkpt lat="48.03368" lon="6.98157">
        <ele>1066.4000244141</ele>
        <time>2022-10-09T11:29:15.000Z</time>
      </trkpt>
      <trkpt lat="48.03368" lon="6.98156">
        <ele>1066.4000244141</ele>
        <time>2022-10-09T11:29:16.000Z</time>
      </trkpt>
      <trkpt lat="48.03366" lon="6.98149">
        <ele>1065.8000488281</ele>
        <time>2022-10-09T11:29:22.000Z</time>
      </trkpt>
      <trkpt lat="48.03366" lon="6.98145">
        <ele>1065.5999755859</ele>
        <time>2022-10-09T11:29:24.000Z</time>
      </trkpt>
      <trkpt lat="48.03366" lon="6.98142">
        <ele>1065.4000244141</ele>
        <time>2022-10-09T11:29:28.000Z</time>
      </trkpt>
      <trkpt lat="48.03366" lon="6.98139">
        <ele>1065.1999511719</ele>
        <time>2022-10-09T11:29:30.000Z</time>
      </trkpt>
      <trkpt lat="48.03366" lon="6.98138">
        <ele>1065</ele>
        <time>2022-10-09T11:29:31.000Z</time>
      </trkpt>
      <trkpt lat="48.03364" lon="6.98132">
        <ele>1064.8000488281</ele>
        <time>2022-10-09T11:29:34.000Z</time>
      </trkpt>
      <trkpt lat="48.03364" lon="6.98129">
        <ele>1064.5999755859</ele>
        <time>2022-10-09T11:29:36.000Z</time>
      </trkpt>
      <trkpt lat="48.03365" lon="6.98124">
        <ele>1064</ele>
        <time>2022-10-09T11:29:42.000Z</time>
      </trkpt>
      <trkpt lat="48.03366" lon="6.98118">
        <ele>1063.5999755859</ele>
        <time>2022-10-09T11:29:47.000Z</time>
      </trkpt>
      <trkpt lat="48.03365" lon="6.98115">
        <ele>1063.5999755859</ele>
        <time>2022-10-09T11:29:48.000Z</time>
      </trkpt>
      <trkpt lat="48.03364" lon="6.98105">
        <ele>1063.1999511719</ele>
        <time>2022-10-09T11:29:53.000Z</time>
      </trkpt>
      <trkpt lat="48.03364" lon="6.98103">
        <ele>1063.1999511719</ele>
        <time>2022-10-09T11:29:54.000Z</time>
      </trkpt>
      <trkpt lat="48.03365" lon="6.98099">
        <ele>1062.8000488281</ele>
        <time>2022-10-09T11:29:57.000Z</time>
      </trkpt>
      <trkpt lat="48.03366" lon="6.98097">
        <ele>1062.5999755859</ele>
        <time>2022-10-09T11:30:00.000Z</time>
      </trkpt>
      <trkpt lat="48.03366" lon="6.98095">
        <ele>1062.5999755859</ele>
        <time>2022-10-09T11:30:01.000Z</time>
      </trkpt>
      <trkpt lat="48.03368" lon="6.98092">
        <ele>1062.1999511719</ele>
        <time>2022-10-09T11:30:06.000Z</time>
      </trkpt>
      <trkpt lat="48.03368" lon="6.98089">
        <ele>1061.8000488281</ele>
        <time>2022-10-09T11:30:09.000Z</time>
      </trkpt>
      <trkpt lat="48.0337" lon="6.98088">
        <ele>1061.5999755859</ele>
        <time>2022-10-09T11:30:11.000Z</time>
      </trkpt>
      <trkpt lat="48.03371" lon="6.98086">
        <ele>1061.4000244141</ele>
        <time>2022-10-09T11:30:12.000Z</time>
      </trkpt>
      <trkpt lat="48.03374" lon="6.98076">
        <ele>1061</ele>
        <time>2022-10-09T11:30:18.000Z</time>
      </trkpt>
      <trkpt lat="48.03373" lon="6.98071">
        <ele>1060.8000488281</ele>
        <time>2022-10-09T11:30:21.000Z</time>
      </trkpt>
      <trkpt lat="48.03374" lon="6.98071">
        <ele>1060.8000488281</ele>
        <time>2022-10-09T11:30:22.000Z</time>
      </trkpt>
      <trkpt lat="48.03374" lon="6.98069">
        <ele>1060.4000244141</ele>
        <time>2022-10-09T11:30:24.000Z</time>
      </trkpt>
      <trkpt lat="48.03374" lon="6.98068">
        <ele>1060.4000244141</ele>
        <time>2022-10-09T11:30:25.000Z</time>
      </trkpt>
      <trkpt lat="48.03374" lon="6.98065">
        <ele>1060.1999511719</ele>
        <time>2022-10-09T11:30:27.000Z</time>
      </trkpt>
      <trkpt lat="48.03374" lon="6.98058">
        <ele>1059.8000488281</ele>
        <time>2022-10-09T11:30:32.000Z</time>
      </trkpt>
      <trkpt lat="48.03375" lon="6.98056">
        <ele>1059.4000244141</ele>
        <time>2022-10-09T11:30:37.000Z</time>
      </trkpt>
      <trkpt lat="48.03375" lon="6.98054">
        <ele>1059.1999511719</ele>
        <time>2022-10-09T11:30:39.000Z</time>
      </trkpt>
      <trkpt lat="48.03374" lon="6.98047">
        <ele>1058.5999755859</ele>
        <time>2022-10-09T11:30:44.000Z</time>
      </trkpt>
      <trkpt lat="48.03374" lon="6.98045">
        <ele>1058.4000244141</ele>
        <time>2022-10-09T11:30:46.000Z</time>
      </trkpt>
      <trkpt lat="48.03375" lon="6.98041">
        <ele>1058.1999511719</ele>
        <time>2022-10-09T11:30:49.000Z</time>
      </trkpt>
      <trkpt lat="48.03375" lon="6.9804">
        <ele>1058.1999511719</ele>
        <time>2022-10-09T11:30:50.000Z</time>
      </trkpt>
      <trkpt lat="48.03375" lon="6.98039">
        <ele>1058.1999511719</ele>
        <time>2022-10-09T11:30:51.000Z</time>
      </trkpt>
      <trkpt lat="48.03373" lon="6.98034">
        <ele>1057.5999755859</ele>
        <time>2022-10-09T11:30:58.000Z</time>
      </trkpt>
      <trkpt lat="48.03373" lon="6.98034">
        <ele>1057.5999755859</ele>
        <time>2022-10-09T11:30:59.000Z</time>
      </trkpt>
      <trkpt lat="48.03373" lon="6.98025">
        <ele>1057.8000488281</ele>
        <time>2022-10-09T11:31:04.000Z</time>
      </trkpt>
      <trkpt lat="48.03372" lon="6.98022">
        <ele>1057.5999755859</ele>
        <time>2022-10-09T11:31:11.000Z</time>
      </trkpt>
      <trkpt lat="48.03373" lon="6.98024">
        <ele>1057.5999755859</ele>
        <time>2022-10-09T11:31:17.000Z</time>
      </trkpt>
      <trkpt lat="48.03373" lon="6.98024">
        <ele>1058</ele>
        <time>2022-10-09T11:31:25.000Z</time>
      </trkpt>
      <trkpt lat="48.03374" lon="6.98024">
        <ele>1058</ele>
        <time>2022-10-09T11:31:37.000Z</time>
      </trkpt>
      <trkpt lat="48.03376" lon="6.98023">
        <ele>1058.1999511719</ele>
        <time>2022-10-09T11:32:02.000Z</time>
      </trkpt>
      <trkpt lat="48.03379" lon="6.98018">
        <ele>1058.1999511719</ele>
        <time>2022-10-09T11:32:07.000Z</time>
      </trkpt>
      <trkpt lat="48.0338" lon="6.98013">
        <ele>1058.1999511719</ele>
        <time>2022-10-09T11:32:11.000Z</time>
      </trkpt>
      <trkpt lat="48.0338" lon="6.98013">
        <ele>1058.1999511719</ele>
        <time>2022-10-09T11:32:12.000Z</time>
      </trkpt>
      <trkpt lat="48.03379" lon="6.98011">
        <ele>1058.1999511719</ele>
        <time>2022-10-09T11:32:14.000Z</time>
      </trkpt>
      <trkpt lat="48.03378" lon="6.98008">
        <ele>1057.8000488281</ele>
        <time>2022-10-09T11:32:16.000Z</time>
      </trkpt>
      <trkpt lat="48.03379" lon="6.98005">
        <ele>1057.4000244141</ele>
        <time>2022-10-09T11:32:18.000Z</time>
      </trkpt>
      <trkpt lat="48.03379" lon="6.98003">
        <ele>1057.1999511719</ele>
        <time>2022-10-09T11:32:19.000Z</time>
      </trkpt>
      <trkpt lat="48.03381" lon="6.98">
        <ele>1056.8000488281</ele>
        <time>2022-10-09T11:32:23.000Z</time>
      </trkpt>
      <trkpt lat="48.03381" lon="6.97999">
        <ele>1056.5999755859</ele>
        <time>2022-10-09T11:32:25.000Z</time>
      </trkpt>
      <trkpt lat="48.03382" lon="6.97997">
        <ele>1056.4000244141</ele>
        <time>2022-10-09T11:32:28.000Z</time>
      </trkpt>
      <trkpt lat="48.03382" lon="6.97995">
        <ele>1056.1999511719</ele>
        <time>2022-10-09T11:32:30.000Z</time>
      </trkpt>
      <trkpt lat="48.03382" lon="6.97993">
        <ele>1056</ele>
        <time>2022-10-09T11:32:31.000Z</time>
      </trkpt>
      <trkpt lat="48.03383" lon="6.97993">
        <ele>1055.8000488281</ele>
        <time>2022-10-09T11:32:37.000Z</time>
      </trkpt>
      <trkpt lat="48.03383" lon="6.97992">
        <ele>1055.8000488281</ele>
        <time>2022-10-09T11:32:38.000Z</time>
      </trkpt>
      <trkpt lat="48.03381" lon="6.97992">
        <ele>1055.5999755859</ele>
        <time>2022-10-09T11:32:44.000Z</time>
      </trkpt>
      <trkpt lat="48.03381" lon="6.97989">
        <ele>1055.4000244141</ele>
        <time>2022-10-09T11:32:47.000Z</time>
      </trkpt>
      <trkpt lat="48.03381" lon="6.97988">
        <ele>1055.1999511719</ele>
        <time>2022-10-09T11:32:52.000Z</time>
      </trkpt>
      <trkpt lat="48.03382" lon="6.97988">
        <ele>1054.8000488281</ele>
        <time>2022-10-09T11:33:16.000Z</time>
      </trkpt>
      <trkpt lat="48.03382" lon="6.97988">
        <ele>1055.1999511719</ele>
        <time>2022-10-09T11:33:26.000Z</time>
      </trkpt>
      <trkpt lat="48.03382" lon="6.97989">
        <ele>1055.1999511719</ele>
        <time>2022-10-09T11:33:31.000Z</time>
      </trkpt>
      <trkpt lat="48.03382" lon="6.9799">
        <ele>1055.1999511719</ele>
        <time>2022-10-09T11:33:44.000Z</time>
      </trkpt>
      <trkpt lat="48.03381" lon="6.97989">
        <ele>1054.5999755859</ele>
        <time>2022-10-09T11:34:04.000Z</time>
      </trkpt>
      <trkpt lat="48.03382" lon="6.97988">
        <ele>1054.5999755859</ele>
        <time>2022-10-09T11:34:13.000Z</time>
      </trkpt>
      <trkpt lat="48.03381" lon="6.97985">
        <ele>1054.8000488281</ele>
        <time>2022-10-09T11:34:45.000Z</time>
      </trkpt>
      <trkpt lat="48.03381" lon="6.97989">
        <ele>1054.8000488281</ele>
        <time>2022-10-09T11:35:14.000Z</time>
      </trkpt>
      <trkpt lat="48.03381" lon="6.97988">
        <ele>1054.5999755859</ele>
        <time>2022-10-09T11:35:34.000Z</time>
      </trkpt>
      <trkpt lat="48.03381" lon="6.97988">
        <ele>1054.1999511719</ele>
        <time>2022-10-09T11:35:41.000Z</time>
      </trkpt>
      <trkpt lat="48.03381" lon="6.97988">
        <ele>1054.1999511719</ele>
        <time>2022-10-09T11:35:42.000Z</time>
      </trkpt>
      <trkpt lat="48.03394" lon="6.97992">
        <ele>1055.1999511719</ele>
        <time>2022-10-09T12:21:10.000Z</time>
      </trkpt>
      <trkpt lat="48.0339" lon="6.98006">
        <ele>1055.1999511719</ele>
        <time>2022-10-09T12:21:13.000Z</time>
      </trkpt>
      <trkpt lat="48.0339" lon="6.98005">
        <ele>1055.1999511719</ele>
        <time>2022-10-09T12:21:14.000Z</time>
      </trkpt>
      <trkpt lat="48.0339" lon="6.98002">
        <ele>1055.1999511719</ele>
        <time>2022-10-09T12:21:16.000Z</time>
      </trkpt>
      <trkpt lat="48.03389" lon="6.97994">
        <ele>1055</ele>
        <time>2022-10-09T12:21:21.000Z</time>
      </trkpt>
      <trkpt lat="48.03389" lon="6.97975">
        <ele>1055</ele>
        <time>2022-10-09T12:21:32.000Z</time>
      </trkpt>
      <trkpt lat="48.03389" lon="6.97963">
        <ele>1055</ele>
        <time>2022-10-09T12:21:40.000Z</time>
      </trkpt>
      <trkpt lat="48.03392" lon="6.97956">
        <ele>1055.1999511719</ele>
        <time>2022-10-09T12:21:47.000Z</time>
      </trkpt>
      <trkpt lat="48.03393" lon="6.97941">
        <ele>1055</ele>
        <time>2022-10-09T12:21:55.000Z</time>
      </trkpt>
      <trkpt lat="48.03392" lon="6.97933">
        <ele>1054.8000488281</ele>
        <time>2022-10-09T12:22:02.000Z</time>
      </trkpt>
      <trkpt lat="48.03392" lon="6.97933">
        <ele>1054.8000488281</ele>
        <time>2022-10-09T12:22:03.000Z</time>
      </trkpt>
      <trkpt lat="48.03392" lon="6.97919">
        <ele>1054.5999755859</ele>
        <time>2022-10-09T12:22:13.000Z</time>
      </trkpt>
      <trkpt lat="48.03394" lon="6.97917">
        <ele>1055.5999755859</ele>
        <time>2022-10-09T12:22:19.000Z</time>
      </trkpt>
      <trkpt lat="48.03396" lon="6.97909">
        <ele>1055.5999755859</ele>
        <time>2022-10-09T12:22:26.000Z</time>
      </trkpt>
      <trkpt lat="48.03398" lon="6.97901">
        <ele>1055.8000488281</ele>
        <time>2022-10-09T12:22:33.000Z</time>
      </trkpt>
      <trkpt lat="48.03401" lon="6.97893">
        <ele>1055.5999755859</ele>
        <time>2022-10-09T12:22:39.000Z</time>
      </trkpt>
      <trkpt lat="48.03402" lon="6.9789">
        <ele>1055.4000244141</ele>
        <time>2022-10-09T12:22:41.000Z</time>
      </trkpt>
      <trkpt lat="48.03406" lon="6.97879">
        <ele>1055</ele>
        <time>2022-10-09T12:22:50.000Z</time>
      </trkpt>
      <trkpt lat="48.03408" lon="6.97875">
        <ele>1055.4000244141</ele>
        <time>2022-10-09T12:22:54.000Z</time>
      </trkpt>
      <trkpt lat="48.0341" lon="6.9787">
        <ele>1055.5999755859</ele>
        <time>2022-10-09T12:22:57.000Z</time>
      </trkpt>
      <trkpt lat="48.03412" lon="6.97867">
        <ele>1055.5999755859</ele>
        <time>2022-10-09T12:23:02.000Z</time>
      </trkpt>
      <trkpt lat="48.03414" lon="6.97863">
        <ele>1055.5999755859</ele>
        <time>2022-10-09T12:23:05.000Z</time>
      </trkpt>
      <trkpt lat="48.03421" lon="6.97859">
        <ele>1055.4000244141</ele>
        <time>2022-10-09T12:23:14.000Z</time>
      </trkpt>
      <trkpt lat="48.03422" lon="6.97855">
        <ele>1055.4000244141</ele>
        <time>2022-10-09T12:23:20.000Z</time>
      </trkpt>
      <trkpt lat="48.03425" lon="6.97852">
        <ele>1055.4000244141</ele>
        <time>2022-10-09T12:23:27.000Z</time>
      </trkpt>
      <trkpt lat="48.03427" lon="6.97847">
        <ele>1054.4000244141</ele>
        <time>2022-10-09T12:23:34.000Z</time>
      </trkpt>
      <trkpt lat="48.03426" lon="6.97844">
        <ele>1054</ele>
        <time>2022-10-09T12:23:37.000Z</time>
      </trkpt>
      <trkpt lat="48.03426" lon="6.97841">
        <ele>1054</ele>
        <time>2022-10-09T12:23:40.000Z</time>
      </trkpt>
      <trkpt lat="48.03421" lon="6.97836">
        <ele>1053.8000488281</ele>
        <time>2022-10-09T12:23:50.000Z</time>
      </trkpt>
      <trkpt lat="48.0342" lon="6.97834">
        <ele>1054.1999511719</ele>
        <time>2022-10-09T12:23:55.000Z</time>
      </trkpt>
      <trkpt lat="48.0342" lon="6.97834">
        <ele>1054.1999511719</ele>
        <time>2022-10-09T12:23:56.000Z</time>
      </trkpt>
      <trkpt lat="48.0342" lon="6.97834">
        <ele>1054.1999511719</ele>
        <time>2022-10-09T12:24:02.000Z</time>
      </trkpt>
      <trkpt lat="48.03419" lon="6.97833">
        <ele>1054.4000244141</ele>
        <time>2022-10-09T12:24:04.000Z</time>
      </trkpt>
      <trkpt lat="48.03417" lon="6.97831">
        <ele>1055</ele>
        <time>2022-10-09T12:24:08.000Z</time>
      </trkpt>
      <trkpt lat="48.03416" lon="6.9783">
        <ele>1055.1999511719</ele>
        <time>2022-10-09T12:24:09.000Z</time>
      </trkpt>
      <trkpt lat="48.03416" lon="6.9783">
        <ele>1055.1999511719</ele>
        <time>2022-10-09T12:24:10.000Z</time>
      </trkpt>
      <trkpt lat="48.03414" lon="6.97829">
        <ele>1055.5999755859</ele>
        <time>2022-10-09T12:24:16.000Z</time>
      </trkpt>
      <trkpt lat="48.03415" lon="6.97828">
        <ele>1055.4000244141</ele>
        <time>2022-10-09T12:24:19.000Z</time>
      </trkpt>
      <trkpt lat="48.03416" lon="6.97827">
        <ele>1055.4000244141</ele>
        <time>2022-10-09T12:24:21.000Z</time>
      </trkpt>
      <trkpt lat="48.03416" lon="6.97827">
        <ele>1055.4000244141</ele>
        <time>2022-10-09T12:24:22.000Z</time>
      </trkpt>
      <trkpt lat="48.03421" lon="6.97834">
        <ele>1055</ele>
        <time>2022-10-09T12:24:29.000Z</time>
      </trkpt>
      <trkpt lat="48.03425" lon="6.97837">
        <ele>1054.4000244141</ele>
        <time>2022-10-09T12:24:37.000Z</time>
      </trkpt>
      <trkpt lat="48.03426" lon="6.97838">
        <ele>1054</ele>
        <time>2022-10-09T12:24:41.000Z</time>
      </trkpt>
      <trkpt lat="48.03426" lon="6.97838">
        <ele>1054</ele>
        <time>2022-10-09T12:24:42.000Z</time>
      </trkpt>
      <trkpt lat="48.03426" lon="6.97837">
        <ele>1054</ele>
        <time>2022-10-09T12:24:44.000Z</time>
      </trkpt>
      <trkpt lat="48.03428" lon="6.97839">
        <ele>1055</ele>
        <time>2022-10-09T12:24:53.000Z</time>
      </trkpt>
      <trkpt lat="48.03429" lon="6.97839">
        <ele>1055</ele>
        <time>2022-10-09T12:24:55.000Z</time>
      </trkpt>
      <trkpt lat="48.03429" lon="6.97838">
        <ele>1054.4000244141</ele>
        <time>2022-10-09T12:24:59.000Z</time>
      </trkpt>
      <trkpt lat="48.03431" lon="6.97831">
        <ele>1054</ele>
        <time>2022-10-09T12:25:10.000Z</time>
      </trkpt>
      <trkpt lat="48.03434" lon="6.97824">
        <ele>1054.1999511719</ele>
        <time>2022-10-09T12:25:14.000Z</time>
      </trkpt>
      <trkpt lat="48.03434" lon="6.97823">
        <ele>1054.1999511719</ele>
        <time>2022-10-09T12:25:15.000Z</time>
      </trkpt>
      <trkpt lat="48.03435" lon="6.97816">
        <ele>1054.5999755859</ele>
        <time>2022-10-09T12:25:20.000Z</time>
      </trkpt>
      <trkpt lat="48.03435" lon="6.97815">
        <ele>1054.5999755859</ele>
        <time>2022-10-09T12:25:21.000Z</time>
      </trkpt>
      <trkpt lat="48.03436" lon="6.97813">
        <ele>1055.1999511719</ele>
        <time>2022-10-09T12:25:24.000Z</time>
      </trkpt>
      <trkpt lat="48.03437" lon="6.97812">
        <ele>1055.4000244141</ele>
        <time>2022-10-09T12:25:26.000Z</time>
      </trkpt>
      <trkpt lat="48.03437" lon="6.97809">
        <ele>1055.5999755859</ele>
        <time>2022-10-09T12:25:28.000Z</time>
      </trkpt>
      <trkpt lat="48.0344" lon="6.97807">
        <ele>1056</ele>
        <time>2022-10-09T12:25:34.000Z</time>
      </trkpt>
      <trkpt lat="48.03441" lon="6.97799">
        <ele>1056.1999511719</ele>
        <time>2022-10-09T12:25:40.000Z</time>
      </trkpt>
      <trkpt lat="48.0344" lon="6.97797">
        <ele>1056.1999511719</ele>
        <time>2022-10-09T12:25:41.000Z</time>
      </trkpt>
      <trkpt lat="48.03441" lon="6.97791">
        <ele>1056.1999511719</ele>
        <time>2022-10-09T12:25:46.000Z</time>
      </trkpt>
      <trkpt lat="48.03441" lon="6.9779">
        <ele>1056.1999511719</ele>
        <time>2022-10-09T12:25:47.000Z</time>
      </trkpt>
      <trkpt lat="48.03443" lon="6.97786">
        <ele>1056.5999755859</ele>
        <time>2022-10-09T12:25:52.000Z</time>
      </trkpt>
      <trkpt lat="48.03444" lon="6.97783">
        <ele>1056.8000488281</ele>
        <time>2022-10-09T12:25:55.000Z</time>
      </trkpt>
      <trkpt lat="48.03448" lon="6.97779">
        <ele>1056.8000488281</ele>
        <time>2022-10-09T12:26:01.000Z</time>
      </trkpt>
      <trkpt lat="48.03448" lon="6.97778">
        <ele>1056.8000488281</ele>
        <time>2022-10-09T12:26:02.000Z</time>
      </trkpt>
      <trkpt lat="48.03451" lon="6.97769">
        <ele>1057</ele>
        <time>2022-10-09T12:26:08.000Z</time>
      </trkpt>
      <trkpt lat="48.03453" lon="6.97766">
        <ele>1057</ele>
        <time>2022-10-09T12:26:13.000Z</time>
      </trkpt>
      <trkpt lat="48.03455" lon="6.97757">
        <ele>1057.1999511719</ele>
        <time>2022-10-09T12:26:19.000Z</time>
      </trkpt>
      <trkpt lat="48.03461" lon="6.97749">
        <ele>1057</ele>
        <time>2022-10-09T12:26:27.000Z</time>
      </trkpt>
      <trkpt lat="48.03463" lon="6.97745">
        <ele>1057.1999511719</ele>
        <time>2022-10-09T12:26:30.000Z</time>
      </trkpt>
      <trkpt lat="48.03463" lon="6.97742">
        <ele>1057.1999511719</ele>
        <time>2022-10-09T12:26:33.000Z</time>
      </trkpt>
      <trkpt lat="48.03466" lon="6.97738">
        <ele>1057.1999511719</ele>
        <time>2022-10-09T12:26:38.000Z</time>
      </trkpt>
      <trkpt lat="48.03469" lon="6.97736">
        <ele>1058.1999511719</ele>
        <time>2022-10-09T12:26:43.000Z</time>
      </trkpt>
      <trkpt lat="48.03469" lon="6.97735">
        <ele>1058.1999511719</ele>
        <time>2022-10-09T12:26:44.000Z</time>
      </trkpt>
      <trkpt lat="48.03473" lon="6.97732">
        <ele>1058</ele>
        <time>2022-10-09T12:26:48.000Z</time>
      </trkpt>
      <trkpt lat="48.03479" lon="6.97726">
        <ele>1057.5999755859</ele>
        <time>2022-10-09T12:26:55.000Z</time>
      </trkpt>
      <trkpt lat="48.03479" lon="6.97725">
        <ele>1057.5999755859</ele>
        <time>2022-10-09T12:26:56.000Z</time>
      </trkpt>
      <trkpt lat="48.03483" lon="6.9772">
        <ele>1057.8000488281</ele>
        <time>2022-10-09T12:27:02.000Z</time>
      </trkpt>
      <trkpt lat="48.03486" lon="6.97718">
        <ele>1058</ele>
        <time>2022-10-09T12:27:06.000Z</time>
      </trkpt>
      <trkpt lat="48.03487" lon="6.97718">
        <ele>1058.1999511719</ele>
        <time>2022-10-09T12:27:11.000Z</time>
      </trkpt>
      <trkpt lat="48.03487" lon="6.97717">
        <ele>1058.1999511719</ele>
        <time>2022-10-09T12:27:12.000Z</time>
      </trkpt>
      <trkpt lat="48.03493" lon="6.97713">
        <ele>1058</ele>
        <time>2022-10-09T12:27:19.000Z</time>
      </trkpt>
      <trkpt lat="48.03498" lon="6.97707">
        <ele>1058.1999511719</ele>
        <time>2022-10-09T12:27:25.000Z</time>
      </trkpt>
      <trkpt lat="48.03501" lon="6.9771">
        <ele>1058.1999511719</ele>
        <time>2022-10-09T12:27:27.000Z</time>
      </trkpt>
      <trkpt lat="48.03504" lon="6.9771">
        <ele>1058.4000244141</ele>
        <time>2022-10-09T12:27:30.000Z</time>
      </trkpt>
      <trkpt lat="48.03511" lon="6.97706">
        <ele>1058.1999511719</ele>
        <time>2022-10-09T12:27:37.000Z</time>
      </trkpt>
      <trkpt lat="48.03516" lon="6.97702">
        <ele>1058.4000244141</ele>
        <time>2022-10-09T12:27:43.000Z</time>
      </trkpt>
      <trkpt lat="48.03517" lon="6.97701">
        <ele>1058.4000244141</ele>
        <time>2022-10-09T12:27:44.000Z</time>
      </trkpt>
      <trkpt lat="48.03522" lon="6.97697">
        <ele>1058.5999755859</ele>
        <time>2022-10-09T12:27:50.000Z</time>
      </trkpt>
      <trkpt lat="48.03531" lon="6.97699">
        <ele>1059</ele>
        <time>2022-10-09T12:27:59.000Z</time>
      </trkpt>
      <trkpt lat="48.03535" lon="6.97702">
        <ele>1058.8000488281</ele>
        <time>2022-10-09T12:28:04.000Z</time>
      </trkpt>
      <trkpt lat="48.03536" lon="6.97703">
        <ele>1058.8000488281</ele>
        <time>2022-10-09T12:28:05.000Z</time>
      </trkpt>
      <trkpt lat="48.03539" lon="6.97705">
        <ele>1058.8000488281</ele>
        <time>2022-10-09T12:28:10.000Z</time>
      </trkpt>
      <trkpt lat="48.03543" lon="6.97705">
        <ele>1058.5999755859</ele>
        <time>2022-10-09T12:28:17.000Z</time>
      </trkpt>
      <trkpt lat="48.03547" lon="6.97708">
        <ele>1058.5999755859</ele>
        <time>2022-10-09T12:28:22.000Z</time>
      </trkpt>
      <trkpt lat="48.03547" lon="6.97709">
        <ele>1058.5999755859</ele>
        <time>2022-10-09T12:28:23.000Z</time>
      </trkpt>
      <trkpt lat="48.03552" lon="6.97712">
        <ele>1058.8000488281</ele>
        <time>2022-10-09T12:28:28.000Z</time>
      </trkpt>
      <trkpt lat="48.03556" lon="6.97715">
        <ele>1058.8000488281</ele>
        <time>2022-10-09T12:28:31.000Z</time>
      </trkpt>
      <trkpt lat="48.03561" lon="6.97718">
        <ele>1059</ele>
        <time>2022-10-09T12:28:35.000Z</time>
      </trkpt>
      <trkpt lat="48.03562" lon="6.97718">
        <ele>1059</ele>
        <time>2022-10-09T12:28:37.000Z</time>
      </trkpt>
      <trkpt lat="48.03568" lon="6.97722">
        <ele>1059.1999511719</ele>
        <time>2022-10-09T12:28:44.000Z</time>
      </trkpt>
      <trkpt lat="48.03573" lon="6.97726">
        <ele>1059.1999511719</ele>
        <time>2022-10-09T12:28:49.000Z</time>
      </trkpt>
      <trkpt lat="48.03574" lon="6.97727">
        <ele>1059.1999511719</ele>
        <time>2022-10-09T12:28:50.000Z</time>
      </trkpt>
      <trkpt lat="48.03583" lon="6.97737">
        <ele>1059.4000244141</ele>
        <time>2022-10-09T12:28:59.000Z</time>
      </trkpt>
      <trkpt lat="48.03585" lon="6.97735">
        <ele>1059.4000244141</ele>
        <time>2022-10-09T12:29:03.000Z</time>
      </trkpt>
      <trkpt lat="48.03591" lon="6.97741">
        <ele>1059.8000488281</ele>
        <time>2022-10-09T12:29:09.000Z</time>
      </trkpt>
      <trkpt lat="48.03592" lon="6.97742">
        <ele>1060</ele>
        <time>2022-10-09T12:29:10.000Z</time>
      </trkpt>
      <trkpt lat="48.03595" lon="6.97744">
        <ele>1060</ele>
        <time>2022-10-09T12:29:14.000Z</time>
      </trkpt>
      <trkpt lat="48.03596" lon="6.97745">
        <ele>1060</ele>
        <time>2022-10-09T12:29:15.000Z</time>
      </trkpt>
      <trkpt lat="48.03597" lon="6.97748">
        <ele>1060</ele>
        <time>2022-10-09T12:29:19.000Z</time>
      </trkpt>
      <trkpt lat="48.03598" lon="6.9775">
        <ele>1060</ele>
        <time>2022-10-09T12:29:21.000Z</time>
      </trkpt>
      <trkpt lat="48.03603" lon="6.97755">
        <ele>1060.1999511719</ele>
        <time>2022-10-09T12:29:27.000Z</time>
      </trkpt>
      <trkpt lat="48.03605" lon="6.97757">
        <ele>1060</ele>
        <time>2022-10-09T12:29:30.000Z</time>
      </trkpt>
      <trkpt lat="48.03609" lon="6.9776">
        <ele>1060.1999511719</ele>
        <time>2022-10-09T12:29:34.000Z</time>
      </trkpt>
      <trkpt lat="48.03613" lon="6.97765">
        <ele>1060</ele>
        <time>2022-10-09T12:29:40.000Z</time>
      </trkpt>
      <trkpt lat="48.03613" lon="6.97766">
        <ele>1060</ele>
        <time>2022-10-09T12:29:41.000Z</time>
      </trkpt>
      <trkpt lat="48.03615" lon="6.9777">
        <ele>1059.8000488281</ele>
        <time>2022-10-09T12:29:44.000Z</time>
      </trkpt>
      <trkpt lat="48.03617" lon="6.97773">
        <ele>1059.8000488281</ele>
        <time>2022-10-09T12:29:47.000Z</time>
      </trkpt>
      <trkpt lat="48.0362" lon="6.97781">
        <ele>1059.8000488281</ele>
        <time>2022-10-09T12:29:54.000Z</time>
      </trkpt>
      <trkpt lat="48.03624" lon="6.97789">
        <ele>1059.8000488281</ele>
        <time>2022-10-09T12:30:01.000Z</time>
      </trkpt>
      <trkpt lat="48.03631" lon="6.97796">
        <ele>1060.1999511719</ele>
        <time>2022-10-09T12:30:10.000Z</time>
      </trkpt>
      <trkpt lat="48.03632" lon="6.97796">
        <ele>1060.1999511719</ele>
        <time>2022-10-09T12:30:11.000Z</time>
      </trkpt>
      <trkpt lat="48.03633" lon="6.97797">
        <ele>1060.5999755859</ele>
        <time>2022-10-09T12:30:18.000Z</time>
      </trkpt>
      <trkpt lat="48.03634" lon="6.97798">
        <ele>1060.8000488281</ele>
        <time>2022-10-09T12:30:23.000Z</time>
      </trkpt>
      <trkpt lat="48.03635" lon="6.97803">
        <ele>1060.5999755859</ele>
        <time>2022-10-09T12:30:48.000Z</time>
      </trkpt>
      <trkpt lat="48.03636" lon="6.97804">
        <ele>1060.5999755859</ele>
        <time>2022-10-09T12:31:08.000Z</time>
      </trkpt>
      <trkpt lat="48.03638" lon="6.97804">
        <ele>1060.1999511719</ele>
        <time>2022-10-09T12:31:21.000Z</time>
      </trkpt>
      <trkpt lat="48.03639" lon="6.97809">
        <ele>1060.4000244141</ele>
        <time>2022-10-09T12:31:57.000Z</time>
      </trkpt>
      <trkpt lat="48.03643" lon="6.97821">
        <ele>1060.5999755859</ele>
        <time>2022-10-09T12:32:05.000Z</time>
      </trkpt>
      <trkpt lat="48.03644" lon="6.97828">
        <ele>1061.4000244141</ele>
        <time>2022-10-09T12:32:11.000Z</time>
      </trkpt>
      <trkpt lat="48.03644" lon="6.9783">
        <ele>1061.4000244141</ele>
        <time>2022-10-09T12:32:12.000Z</time>
      </trkpt>
      <trkpt lat="48.03647" lon="6.97835">
        <ele>1062.4000244141</ele>
        <time>2022-10-09T12:32:17.000Z</time>
      </trkpt>
      <trkpt lat="48.03649" lon="6.97839">
        <ele>1062.8000488281</ele>
        <time>2022-10-09T12:32:20.000Z</time>
      </trkpt>
      <trkpt lat="48.03651" lon="6.97846">
        <ele>1063.1999511719</ele>
        <time>2022-10-09T12:32:27.000Z</time>
      </trkpt>
      <trkpt lat="48.03651" lon="6.97847">
        <ele>1063.5999755859</ele>
        <time>2022-10-09T12:32:32.000Z</time>
      </trkpt>
      <trkpt lat="48.03651" lon="6.97847">
        <ele>1063.5999755859</ele>
        <time>2022-10-09T12:32:33.000Z</time>
      </trkpt>
      <trkpt lat="48.03653" lon="6.97851">
        <ele>1063.5999755859</ele>
        <time>2022-10-09T12:32:40.000Z</time>
      </trkpt>
      <trkpt lat="48.03653" lon="6.97852">
        <ele>1063.8000488281</ele>
        <time>2022-10-09T12:32:44.000Z</time>
      </trkpt>
      <trkpt lat="48.03653" lon="6.97852">
        <ele>1063.8000488281</ele>
        <time>2022-10-09T12:32:49.000Z</time>
      </trkpt>
      <trkpt lat="48.03653" lon="6.97852">
        <ele>1063.5999755859</ele>
        <time>2022-10-09T12:32:54.000Z</time>
      </trkpt>
      <trkpt lat="48.03653" lon="6.97851">
        <ele>1063.5999755859</ele>
        <time>2022-10-09T12:33:06.000Z</time>
      </trkpt>
      <trkpt lat="48.03653" lon="6.97851">
        <ele>1063.4000244141</ele>
        <time>2022-10-09T12:33:16.000Z</time>
      </trkpt>
      <trkpt lat="48.03653" lon="6.97853">
        <ele>1064.1999511719</ele>
        <time>2022-10-09T12:33:27.000Z</time>
      </trkpt>
      <trkpt lat="48.03654" lon="6.97857">
        <ele>1064.5999755859</ele>
        <time>2022-10-09T12:33:30.000Z</time>
      </trkpt>
      <trkpt lat="48.03655" lon="6.97864">
        <ele>1065</ele>
        <time>2022-10-09T12:33:33.000Z</time>
      </trkpt>
      <trkpt lat="48.03657" lon="6.97878">
        <ele>1065.1999511719</ele>
        <time>2022-10-09T12:33:40.000Z</time>
      </trkpt>
      <trkpt lat="48.03659" lon="6.97882">
        <ele>1065.5999755859</ele>
        <time>2022-10-09T12:33:46.000Z</time>
      </trkpt>
      <trkpt lat="48.03658" lon="6.97883">
        <ele>1065.8000488281</ele>
        <time>2022-10-09T12:33:47.000Z</time>
      </trkpt>
      <trkpt lat="48.03657" lon="6.97879">
        <ele>1065.8000488281</ele>
        <time>2022-10-09T12:33:58.000Z</time>
      </trkpt>
      <trkpt lat="48.0366" lon="6.9789">
        <ele>1065.8000488281</ele>
        <time>2022-10-09T12:34:05.000Z</time>
      </trkpt>
      <trkpt lat="48.03664" lon="6.97897">
        <ele>1066.4000244141</ele>
        <time>2022-10-09T12:34:10.000Z</time>
      </trkpt>
      <trkpt lat="48.03664" lon="6.97902">
        <ele>1066.5999755859</ele>
        <time>2022-10-09T12:34:13.000Z</time>
      </trkpt>
      <trkpt lat="48.03665" lon="6.97903">
        <ele>1066.8000488281</ele>
        <time>2022-10-09T12:34:14.000Z</time>
      </trkpt>
      <trkpt lat="48.03667" lon="6.97907">
        <ele>1067</ele>
        <time>2022-10-09T12:34:17.000Z</time>
      </trkpt>
      <trkpt lat="48.03667" lon="6.9791">
        <ele>1067</ele>
        <time>2022-10-09T12:34:20.000Z</time>
      </trkpt>
      <trkpt lat="48.03668" lon="6.97912">
        <ele>1067</ele>
        <time>2022-10-09T12:34:21.000Z</time>
      </trkpt>
      <trkpt lat="48.03666" lon="6.9791">
        <ele>1067.8000488281</ele>
        <time>2022-10-09T12:34:25.000Z</time>
      </trkpt>
      <trkpt lat="48.03665" lon="6.97908">
        <ele>1068</ele>
        <time>2022-10-09T12:34:32.000Z</time>
      </trkpt>
      <trkpt lat="48.03664" lon="6.97908">
        <ele>1067.8000488281</ele>
        <time>2022-10-09T12:34:35.000Z</time>
      </trkpt>
      <trkpt lat="48.03665" lon="6.97908">
        <ele>1067.8000488281</ele>
        <time>2022-10-09T12:34:49.000Z</time>
      </trkpt>
      <trkpt lat="48.03665" lon="6.97909">
        <ele>1067.8000488281</ele>
        <time>2022-10-09T12:34:53.000Z</time>
      </trkpt>
      <trkpt lat="48.03665" lon="6.97909">
        <ele>1067.5999755859</ele>
        <time>2022-10-09T12:34:56.000Z</time>
      </trkpt>
      <trkpt lat="48.03666" lon="6.97918">
        <ele>1068</ele>
        <time>2022-10-09T12:35:05.000Z</time>
      </trkpt>
      <trkpt lat="48.03667" lon="6.97925">
        <ele>1068.4000244141</ele>
        <time>2022-10-09T12:35:08.000Z</time>
      </trkpt>
      <trkpt lat="48.03668" lon="6.9793">
        <ele>1068.8000488281</ele>
        <time>2022-10-09T12:35:12.000Z</time>
      </trkpt>
      <trkpt lat="48.03668" lon="6.97931">
        <ele>1068.8000488281</ele>
        <time>2022-10-09T12:35:13.000Z</time>
      </trkpt>
      <trkpt lat="48.03669" lon="6.97937">
        <ele>1068.8000488281</ele>
        <time>2022-10-09T12:35:19.000Z</time>
      </trkpt>
      <trkpt lat="48.03668" lon="6.97945">
        <ele>1069.4000244141</ele>
        <time>2022-10-09T12:35:26.000Z</time>
      </trkpt>
      <trkpt lat="48.03669" lon="6.97953">
        <ele>1069.8000488281</ele>
        <time>2022-10-09T12:35:32.000Z</time>
      </trkpt>
      <trkpt lat="48.0367" lon="6.97959">
        <ele>1070</ele>
        <time>2022-10-09T12:35:37.000Z</time>
      </trkpt>
      <trkpt lat="48.03673" lon="6.97965">
        <ele>1070.8000488281</ele>
        <time>2022-10-09T12:35:45.000Z</time>
      </trkpt>
      <trkpt lat="48.03671" lon="6.97968">
        <ele>1070.8000488281</ele>
        <time>2022-10-09T12:35:47.000Z</time>
      </trkpt>
      <trkpt lat="48.03674" lon="6.97976">
        <ele>1071.4000244141</ele>
        <time>2022-10-09T12:35:53.000Z</time>
      </trkpt>
      <trkpt lat="48.03674" lon="6.97977">
        <ele>1071.4000244141</ele>
        <time>2022-10-09T12:35:54.000Z</time>
      </trkpt>
      <trkpt lat="48.03676" lon="6.9798">
        <ele>1072</ele>
        <time>2022-10-09T12:35:57.000Z</time>
      </trkpt>
      <trkpt lat="48.03679" lon="6.97984">
        <ele>1072.4000244141</ele>
        <time>2022-10-09T12:36:01.000Z</time>
      </trkpt>
      <trkpt lat="48.0368" lon="6.97988">
        <ele>1072.8000488281</ele>
        <time>2022-10-09T12:36:07.000Z</time>
      </trkpt>
      <trkpt lat="48.03678" lon="6.97989">
        <ele>1073</ele>
        <time>2022-10-09T12:36:13.000Z</time>
      </trkpt>
      <trkpt lat="48.0368" lon="6.97997">
        <ele>1072.4000244141</ele>
        <time>2022-10-09T12:36:22.000Z</time>
      </trkpt>
      <trkpt lat="48.03681" lon="6.98001">
        <ele>1073</ele>
        <time>2022-10-09T12:36:27.000Z</time>
      </trkpt>
      <trkpt lat="48.03682" lon="6.98004">
        <ele>1073.1999511719</ele>
        <time>2022-10-09T12:36:31.000Z</time>
      </trkpt>
      <trkpt lat="48.03683" lon="6.98016">
        <ele>1073.4000244141</ele>
        <time>2022-10-09T12:36:40.000Z</time>
      </trkpt>
      <trkpt lat="48.03681" lon="6.9802">
        <ele>1073.8000488281</ele>
        <time>2022-10-09T12:36:44.000Z</time>
      </trkpt>
      <trkpt lat="48.0368" lon="6.98023">
        <ele>1073.8000488281</ele>
        <time>2022-10-09T12:36:46.000Z</time>
      </trkpt>
      <trkpt lat="48.0368" lon="6.98026">
        <ele>1074.1999511719</ele>
        <time>2022-10-09T12:36:48.000Z</time>
      </trkpt>
      <trkpt lat="48.03681" lon="6.9803">
        <ele>1074.4000244141</ele>
        <time>2022-10-09T12:36:53.000Z</time>
      </trkpt>
      <trkpt lat="48.0368" lon="6.9803">
        <ele>1075.1999511719</ele>
        <time>2022-10-09T12:36:57.000Z</time>
      </trkpt>
      <trkpt lat="48.03678" lon="6.98034">
        <ele>1075</ele>
        <time>2022-10-09T12:37:02.000Z</time>
      </trkpt>
      <trkpt lat="48.03678" lon="6.98037">
        <ele>1074.5999755859</ele>
        <time>2022-10-09T12:37:10.000Z</time>
      </trkpt>
      <trkpt lat="48.03679" lon="6.98043">
        <ele>1074.5999755859</ele>
        <time>2022-10-09T12:37:16.000Z</time>
      </trkpt>
      <trkpt lat="48.03675" lon="6.98056">
        <ele>1074.4000244141</ele>
        <time>2022-10-09T12:37:25.000Z</time>
      </trkpt>
      <trkpt lat="48.03671" lon="6.98062">
        <ele>1075.1999511719</ele>
        <time>2022-10-09T12:37:32.000Z</time>
      </trkpt>
      <trkpt lat="48.03671" lon="6.98063">
        <ele>1075.1999511719</ele>
        <time>2022-10-09T12:37:33.000Z</time>
      </trkpt>
      <trkpt lat="48.03666" lon="6.98074">
        <ele>1076</ele>
        <time>2022-10-09T12:37:41.000Z</time>
      </trkpt>
      <trkpt lat="48.03666" lon="6.98077">
        <ele>1076.4000244141</ele>
        <time>2022-10-09T12:37:44.000Z</time>
      </trkpt>
      <trkpt lat="48.03662" lon="6.98086">
        <ele>1076.5999755859</ele>
        <time>2022-10-09T12:37:51.000Z</time>
      </trkpt>
      <trkpt lat="48.03661" lon="6.98094">
        <ele>1076</ele>
        <time>2022-10-09T12:37:58.000Z</time>
      </trkpt>
      <trkpt lat="48.03661" lon="6.98094">
        <ele>1075.8000488281</ele>
        <time>2022-10-09T12:38:03.000Z</time>
      </trkpt>
      <trkpt lat="48.03661" lon="6.98098">
        <ele>1075.8000488281</ele>
        <time>2022-10-09T12:38:10.000Z</time>
      </trkpt>
      <trkpt lat="48.03661" lon="6.98102">
        <ele>1075.8000488281</ele>
        <time>2022-10-09T12:38:17.000Z</time>
      </trkpt>
      <trkpt lat="48.03661" lon="6.98103">
        <ele>1076</ele>
        <time>2022-10-09T12:38:26.000Z</time>
      </trkpt>
      <trkpt lat="48.03661" lon="6.98114">
        <ele>1077.1999511719</ele>
        <time>2022-10-09T12:38:32.000Z</time>
      </trkpt>
      <trkpt lat="48.03662" lon="6.98123">
        <ele>1077.4000244141</ele>
        <time>2022-10-09T12:38:35.000Z</time>
      </trkpt>
      <trkpt lat="48.03663" lon="6.98129">
        <ele>1077.5999755859</ele>
        <time>2022-10-09T12:38:40.000Z</time>
      </trkpt>
      <trkpt lat="48.03664" lon="6.98137">
        <ele>1077.5999755859</ele>
        <time>2022-10-09T12:38:47.000Z</time>
      </trkpt>
      <trkpt lat="48.03664" lon="6.98146">
        <ele>1077</ele>
        <time>2022-10-09T12:38:54.000Z</time>
      </trkpt>
      <trkpt lat="48.03665" lon="6.98153">
        <ele>1077</ele>
        <time>2022-10-09T12:39:00.000Z</time>
      </trkpt>
      <trkpt lat="48.03666" lon="6.98159">
        <ele>1077.1999511719</ele>
        <time>2022-10-09T12:39:06.000Z</time>
      </trkpt>
      <trkpt lat="48.03667" lon="6.98166">
        <ele>1078.1999511719</ele>
        <time>2022-10-09T12:39:12.000Z</time>
      </trkpt>
      <trkpt lat="48.03668" lon="6.9817">
        <ele>1078.4000244141</ele>
        <time>2022-10-09T12:39:14.000Z</time>
      </trkpt>
      <trkpt lat="48.0367" lon="6.98174">
        <ele>1078.5999755859</ele>
        <time>2022-10-09T12:39:18.000Z</time>
      </trkpt>
      <trkpt lat="48.03671" lon="6.98179">
        <ele>1078.1999511719</ele>
        <time>2022-10-09T12:39:23.000Z</time>
      </trkpt>
      <trkpt lat="48.0367" lon="6.98181">
        <ele>1078.1999511719</ele>
        <time>2022-10-09T12:39:25.000Z</time>
      </trkpt>
      <trkpt lat="48.03672" lon="6.98197">
        <ele>1078.4000244141</ele>
        <time>2022-10-09T12:39:35.000Z</time>
      </trkpt>
      <trkpt lat="48.03672" lon="6.98198">
        <ele>1078.4000244141</ele>
        <time>2022-10-09T12:39:36.000Z</time>
      </trkpt>
      <trkpt lat="48.03671" lon="6.98199">
        <ele>1078.5999755859</ele>
        <time>2022-10-09T12:39:40.000Z</time>
      </trkpt>
      <trkpt lat="48.03668" lon="6.98196">
        <ele>1078.5999755859</ele>
        <time>2022-10-09T12:39:46.000Z</time>
      </trkpt>
      <trkpt lat="48.03667" lon="6.98209">
        <ele>1078.5999755859</ele>
        <time>2022-10-09T12:39:53.000Z</time>
      </trkpt>
      <trkpt lat="48.03666" lon="6.98212">
        <ele>1079.4000244141</ele>
        <time>2022-10-09T12:40:00.000Z</time>
      </trkpt>
      <trkpt lat="48.03666" lon="6.98216">
        <ele>1079.5999755859</ele>
        <time>2022-10-09T12:40:05.000Z</time>
      </trkpt>
      <trkpt lat="48.03666" lon="6.98222">
        <ele>1080.1999511719</ele>
        <time>2022-10-09T12:40:09.000Z</time>
      </trkpt>
      <trkpt lat="48.03666" lon="6.98224">
        <ele>1080.4000244141</ele>
        <time>2022-10-09T12:40:10.000Z</time>
      </trkpt>
      <trkpt lat="48.03666" lon="6.98225">
        <ele>1080.5999755859</ele>
        <time>2022-10-09T12:40:12.000Z</time>
      </trkpt>
      <trkpt lat="48.03664" lon="6.98228">
        <ele>1080.5999755859</ele>
        <time>2022-10-09T12:40:17.000Z</time>
      </trkpt>
      <trkpt lat="48.03662" lon="6.98231">
        <ele>1080.5999755859</ele>
        <time>2022-10-09T12:40:20.000Z</time>
      </trkpt>
      <trkpt lat="48.0366" lon="6.98235">
        <ele>1080.5999755859</ele>
        <time>2022-10-09T12:40:23.000Z</time>
      </trkpt>
      <trkpt lat="48.0366" lon="6.98239">
        <ele>1080.8000488281</ele>
        <time>2022-10-09T12:40:27.000Z</time>
      </trkpt>
      <trkpt lat="48.03661" lon="6.98241">
        <ele>1080.5999755859</ele>
        <time>2022-10-09T12:40:30.000Z</time>
      </trkpt>
      <trkpt lat="48.03662" lon="6.98244">
        <ele>1080.4000244141</ele>
        <time>2022-10-09T12:40:33.000Z</time>
      </trkpt>
      <trkpt lat="48.03666" lon="6.98252">
        <ele>1080</ele>
        <time>2022-10-09T12:40:40.000Z</time>
      </trkpt>
      <trkpt lat="48.03669" lon="6.98256">
        <ele>1079.5999755859</ele>
        <time>2022-10-09T12:40:46.000Z</time>
      </trkpt>
      <trkpt lat="48.03671" lon="6.98259">
        <ele>1079.4000244141</ele>
        <time>2022-10-09T12:40:48.000Z</time>
      </trkpt>
      <trkpt lat="48.03671" lon="6.9826">
        <ele>1079.4000244141</ele>
        <time>2022-10-09T12:40:49.000Z</time>
      </trkpt>
      <trkpt lat="48.03674" lon="6.98265">
        <ele>1079.1999511719</ele>
        <time>2022-10-09T12:40:53.000Z</time>
      </trkpt>
      <trkpt lat="48.03677" lon="6.98269">
        <ele>1079.1999511719</ele>
        <time>2022-10-09T12:40:56.000Z</time>
      </trkpt>
      <trkpt lat="48.03679" lon="6.98272">
        <ele>1079.1999511719</ele>
        <time>2022-10-09T12:40:59.000Z</time>
      </trkpt>
      <trkpt lat="48.03681" lon="6.9828">
        <ele>1079</ele>
        <time>2022-10-09T12:41:04.000Z</time>
      </trkpt>
      <trkpt lat="48.03682" lon="6.98283">
        <ele>1079</ele>
        <time>2022-10-09T12:41:06.000Z</time>
      </trkpt>
      <trkpt lat="48.03685" lon="6.98293">
        <ele>1079.1999511719</ele>
        <time>2022-10-09T12:41:13.000Z</time>
      </trkpt>
      <trkpt lat="48.03686" lon="6.98297">
        <ele>1079.4000244141</ele>
        <time>2022-10-09T12:41:17.000Z</time>
      </trkpt>
      <trkpt lat="48.03688" lon="6.98302">
        <ele>1079.4000244141</ele>
        <time>2022-10-09T12:41:21.000Z</time>
      </trkpt>
      <trkpt lat="48.0369" lon="6.98309">
        <ele>1079.8000488281</ele>
        <time>2022-10-09T12:41:28.000Z</time>
      </trkpt>
      <trkpt lat="48.03691" lon="6.98313">
        <ele>1080</ele>
        <time>2022-10-09T12:41:34.000Z</time>
      </trkpt>
      <trkpt lat="48.0369" lon="6.98314">
        <ele>1080</ele>
        <time>2022-10-09T12:41:40.000Z</time>
      </trkpt>
      <trkpt lat="48.0369" lon="6.98313">
        <ele>1080</ele>
        <time>2022-10-09T12:41:45.000Z</time>
      </trkpt>
      <trkpt lat="48.0369" lon="6.98313">
        <ele>1080</ele>
        <time>2022-10-09T12:41:48.000Z</time>
      </trkpt>
      <trkpt lat="48.03688" lon="6.98313">
        <ele>1079.8000488281</ele>
        <time>2022-10-09T12:42:25.000Z</time>
      </trkpt>
      <trkpt lat="48.03688" lon="6.98312">
        <ele>1080</ele>
        <time>2022-10-09T12:42:32.000Z</time>
      </trkpt>
      <trkpt lat="48.03687" lon="6.98311">
        <ele>1080</ele>
        <time>2022-10-09T12:42:39.000Z</time>
      </trkpt>
      <trkpt lat="48.03687" lon="6.98311">
        <ele>1080</ele>
        <time>2022-10-09T12:42:42.000Z</time>
      </trkpt>
      <trkpt lat="48.03687" lon="6.98309">
        <ele>1080</ele>
        <time>2022-10-09T12:42:50.000Z</time>
      </trkpt>
      <trkpt lat="48.03689" lon="6.98309">
        <ele>1080</ele>
        <time>2022-10-09T12:42:55.000Z</time>
      </trkpt>
      <trkpt lat="48.03689" lon="6.98309">
        <ele>1080.1999511719</ele>
        <time>2022-10-09T12:43:05.000Z</time>
      </trkpt>
      <trkpt lat="48.03689" lon="6.98309">
        <ele>1080</ele>
        <time>2022-10-09T12:43:06.000Z</time>
      </trkpt>
      <trkpt lat="48.03691" lon="6.98308">
        <ele>1080.1999511719</ele>
        <time>2022-10-09T12:43:17.000Z</time>
      </trkpt>
      <trkpt lat="48.03691" lon="6.98308">
        <ele>1080</ele>
        <time>2022-10-09T12:43:18.000Z</time>
      </trkpt>
      <trkpt lat="48.03691" lon="6.98309">
        <ele>1080.4000244141</ele>
        <time>2022-10-09T12:43:29.000Z</time>
      </trkpt>
      <trkpt lat="48.03691" lon="6.98309">
        <ele>1080.1999511719</ele>
        <time>2022-10-09T12:43:44.000Z</time>
      </trkpt>
      <trkpt lat="48.0369" lon="6.98309">
        <ele>1080.4000244141</ele>
        <time>2022-10-09T12:44:00.000Z</time>
      </trkpt>
      <trkpt lat="48.03696" lon="6.98331">
        <ele>1080.5999755859</ele>
        <time>2022-10-09T12:44:38.000Z</time>
      </trkpt>
      <trkpt lat="48.03704" lon="6.98347">
        <ele>1080.8000488281</ele>
        <time>2022-10-09T12:44:46.000Z</time>
      </trkpt>
      <trkpt lat="48.03705" lon="6.98348">
        <ele>1080.8000488281</ele>
        <time>2022-10-09T12:44:47.000Z</time>
      </trkpt>
      <trkpt lat="48.03707" lon="6.98356">
        <ele>1080.8000488281</ele>
        <time>2022-10-09T12:44:52.000Z</time>
      </trkpt>
      <trkpt lat="48.03708" lon="6.9836">
        <ele>1080.8000488281</ele>
        <time>2022-10-09T12:44:54.000Z</time>
      </trkpt>
      <trkpt lat="48.0371" lon="6.9837">
        <ele>1081.1999511719</ele>
        <time>2022-10-09T12:45:00.000Z</time>
      </trkpt>
      <trkpt lat="48.0371" lon="6.98372">
        <ele>1081.4000244141</ele>
        <time>2022-10-09T12:45:02.000Z</time>
      </trkpt>
      <trkpt lat="48.03711" lon="6.98379">
        <ele>1081.5999755859</ele>
        <time>2022-10-09T12:45:07.000Z</time>
      </trkpt>
      <trkpt lat="48.03712" lon="6.98385">
        <ele>1082</ele>
        <time>2022-10-09T12:45:11.000Z</time>
      </trkpt>
      <trkpt lat="48.03713" lon="6.98388">
        <ele>1082</ele>
        <time>2022-10-09T12:45:13.000Z</time>
      </trkpt>
      <trkpt lat="48.03714" lon="6.98392">
        <ele>1082</ele>
        <time>2022-10-09T12:45:16.000Z</time>
      </trkpt>
      <trkpt lat="48.03714" lon="6.98394">
        <ele>1082</ele>
        <time>2022-10-09T12:45:18.000Z</time>
      </trkpt>
      <trkpt lat="48.03715" lon="6.98396">
        <ele>1082</ele>
        <time>2022-10-09T12:45:19.000Z</time>
      </trkpt>
      <trkpt lat="48.03717" lon="6.98403">
        <ele>1082</ele>
        <time>2022-10-09T12:45:25.000Z</time>
      </trkpt>
      <trkpt lat="48.03717" lon="6.98404">
        <ele>1082</ele>
        <time>2022-10-09T12:45:26.000Z</time>
      </trkpt>
      <trkpt lat="48.03719" lon="6.98411">
        <ele>1081.8000488281</ele>
        <time>2022-10-09T12:45:31.000Z</time>
      </trkpt>
      <trkpt lat="48.0372" lon="6.98414">
        <ele>1081.8000488281</ele>
        <time>2022-10-09T12:45:32.000Z</time>
      </trkpt>
      <trkpt lat="48.03723" lon="6.9842">
        <ele>1081.5999755859</ele>
        <time>2022-10-09T12:45:37.000Z</time>
      </trkpt>
      <trkpt lat="48.03724" lon="6.98422">
        <ele>1081.8000488281</ele>
        <time>2022-10-09T12:45:39.000Z</time>
      </trkpt>
      <trkpt lat="48.03723" lon="6.98425">
        <ele>1081.8000488281</ele>
        <time>2022-10-09T12:45:44.000Z</time>
      </trkpt>
      <trkpt lat="48.03724" lon="6.98429">
        <ele>1081.8000488281</ele>
        <time>2022-10-09T12:45:51.000Z</time>
      </trkpt>
      <trkpt lat="48.03723" lon="6.98431">
        <ele>1082</ele>
        <time>2022-10-09T12:46:01.000Z</time>
      </trkpt>
      <trkpt lat="48.03721" lon="6.98438">
        <ele>1082.1999511719</ele>
        <time>2022-10-09T12:46:05.000Z</time>
      </trkpt>
      <trkpt lat="48.0372" lon="6.98444">
        <ele>1082.4000244141</ele>
        <time>2022-10-09T12:46:08.000Z</time>
      </trkpt>
      <trkpt lat="48.03721" lon="6.98445">
        <ele>1082.5999755859</ele>
        <time>2022-10-09T12:46:09.000Z</time>
      </trkpt>
      <trkpt lat="48.03721" lon="6.98448">
        <ele>1082.5999755859</ele>
        <time>2022-10-09T12:46:11.000Z</time>
      </trkpt>
      <trkpt lat="48.03721" lon="6.9845">
        <ele>1082.8000488281</ele>
        <time>2022-10-09T12:46:13.000Z</time>
      </trkpt>
      <trkpt lat="48.0372" lon="6.98455">
        <ele>1083</ele>
        <time>2022-10-09T12:46:16.000Z</time>
      </trkpt>
      <trkpt lat="48.03718" lon="6.98462">
        <ele>1083.1999511719</ele>
        <time>2022-10-09T12:46:20.000Z</time>
      </trkpt>
      <trkpt lat="48.03721" lon="6.98473">
        <ele>1083.5999755859</ele>
        <time>2022-10-09T12:46:26.000Z</time>
      </trkpt>
      <trkpt lat="48.0372" lon="6.98477">
        <ele>1084</ele>
        <time>2022-10-09T12:46:32.000Z</time>
      </trkpt>
      <trkpt lat="48.03722" lon="6.98486">
        <ele>1084.4000244141</ele>
        <time>2022-10-09T12:46:40.000Z</time>
      </trkpt>
      <trkpt lat="48.03722" lon="6.98488">
        <ele>1084.5999755859</ele>
        <time>2022-10-09T12:46:42.000Z</time>
      </trkpt>
      <trkpt lat="48.03722" lon="6.98489">
        <ele>1084.8000488281</ele>
        <time>2022-10-09T12:46:45.000Z</time>
      </trkpt>
      <trkpt lat="48.03722" lon="6.9849">
        <ele>1084.8000488281</ele>
        <time>2022-10-09T12:46:46.000Z</time>
      </trkpt>
      <trkpt lat="48.03724" lon="6.98494">
        <ele>1085.1999511719</ele>
        <time>2022-10-09T12:46:50.000Z</time>
      </trkpt>
      <trkpt lat="48.03722" lon="6.985">
        <ele>1085.5999755859</ele>
        <time>2022-10-09T12:46:54.000Z</time>
      </trkpt>
      <trkpt lat="48.03722" lon="6.98502">
        <ele>1085.5999755859</ele>
        <time>2022-10-09T12:46:55.000Z</time>
      </trkpt>
      <trkpt lat="48.03722" lon="6.98503">
        <ele>1085.5999755859</ele>
        <time>2022-10-09T12:46:56.000Z</time>
      </trkpt>
      <trkpt lat="48.03721" lon="6.98511">
        <ele>1086</ele>
        <time>2022-10-09T12:47:00.000Z</time>
      </trkpt>
      <trkpt lat="48.03722" lon="6.98512">
        <ele>1086</ele>
        <time>2022-10-09T12:47:01.000Z</time>
      </trkpt>
      <trkpt lat="48.03723" lon="6.98521">
        <ele>1086.1999511719</ele>
        <time>2022-10-09T12:47:08.000Z</time>
      </trkpt>
      <trkpt lat="48.03723" lon="6.98529">
        <ele>1086.4000244141</ele>
        <time>2022-10-09T12:47:14.000Z</time>
      </trkpt>
      <trkpt lat="48.03723" lon="6.98538">
        <ele>1086.5999755859</ele>
        <time>2022-10-09T12:47:19.000Z</time>
      </trkpt>
      <trkpt lat="48.03724" lon="6.98541">
        <ele>1086.8000488281</ele>
        <time>2022-10-09T12:47:20.000Z</time>
      </trkpt>
      <trkpt lat="48.03723" lon="6.98546">
        <ele>1087</ele>
        <time>2022-10-09T12:47:24.000Z</time>
      </trkpt>
      <trkpt lat="48.03724" lon="6.98549">
        <ele>1087</ele>
        <time>2022-10-09T12:47:26.000Z</time>
      </trkpt>
      <trkpt lat="48.03724" lon="6.9855">
        <ele>1087</ele>
        <time>2022-10-09T12:47:27.000Z</time>
      </trkpt>
      <trkpt lat="48.03726" lon="6.98554">
        <ele>1087.5999755859</ele>
        <time>2022-10-09T12:47:32.000Z</time>
      </trkpt>
      <trkpt lat="48.03724" lon="6.9856">
        <ele>1087.8000488281</ele>
        <time>2022-10-09T12:47:36.000Z</time>
      </trkpt>
      <trkpt lat="48.03723" lon="6.98563">
        <ele>1087.8000488281</ele>
        <time>2022-10-09T12:47:38.000Z</time>
      </trkpt>
      <trkpt lat="48.03721" lon="6.98572">
        <ele>1088.1999511719</ele>
        <time>2022-10-09T12:47:44.000Z</time>
      </trkpt>
      <trkpt lat="48.0372" lon="6.98577">
        <ele>1088.4000244141</ele>
        <time>2022-10-09T12:47:49.000Z</time>
      </trkpt>
      <trkpt lat="48.03722" lon="6.98585">
        <ele>1088.5999755859</ele>
        <time>2022-10-09T12:47:55.000Z</time>
      </trkpt>
      <trkpt lat="48.03721" lon="6.98587">
        <ele>1088.8000488281</ele>
        <time>2022-10-09T12:47:56.000Z</time>
      </trkpt>
      <trkpt lat="48.03721" lon="6.98588">
        <ele>1088.8000488281</ele>
        <time>2022-10-09T12:47:57.000Z</time>
      </trkpt>
      <trkpt lat="48.03721" lon="6.98591">
        <ele>1089</ele>
        <time>2022-10-09T12:48:00.000Z</time>
      </trkpt>
      <trkpt lat="48.0372" lon="6.986">
        <ele>1089.8000488281</ele>
        <time>2022-10-09T12:48:06.000Z</time>
      </trkpt>
      <trkpt lat="48.0372" lon="6.98602">
        <ele>1089.8000488281</ele>
        <time>2022-10-09T12:48:07.000Z</time>
      </trkpt>
      <trkpt lat="48.03718" lon="6.98612">
        <ele>1090.5999755859</ele>
        <time>2022-10-09T12:48:14.000Z</time>
      </trkpt>
      <trkpt lat="48.03719" lon="6.98623">
        <ele>1090.5999755859</ele>
        <time>2022-10-09T12:48:22.000Z</time>
      </trkpt>
      <trkpt lat="48.03719" lon="6.98621">
        <ele>1091</ele>
        <time>2022-10-09T12:48:27.000Z</time>
      </trkpt>
      <trkpt lat="48.03719" lon="6.98621">
        <ele>1091</ele>
        <time>2022-10-09T12:48:28.000Z</time>
      </trkpt>
      <trkpt lat="48.03718" lon="6.9862">
        <ele>1091.1999511719</ele>
        <time>2022-10-09T12:48:30.000Z</time>
      </trkpt>
      <trkpt lat="48.03719" lon="6.9862">
        <ele>1091.1999511719</ele>
        <time>2022-10-09T12:48:34.000Z</time>
      </trkpt>
      <trkpt lat="48.03718" lon="6.98618">
        <ele>1091.1999511719</ele>
        <time>2022-10-09T12:48:40.000Z</time>
      </trkpt>
      <trkpt lat="48.03717" lon="6.9862">
        <ele>1091.1999511719</ele>
        <time>2022-10-09T12:48:43.000Z</time>
      </trkpt>
      <trkpt lat="48.03717" lon="6.98625">
        <ele>1091.1999511719</ele>
        <time>2022-10-09T12:48:47.000Z</time>
      </trkpt>
      <trkpt lat="48.03718" lon="6.9863">
        <ele>1092</ele>
        <time>2022-10-09T12:48:54.000Z</time>
      </trkpt>
      <trkpt lat="48.03717" lon="6.98629">
        <ele>1092</ele>
        <time>2022-10-09T12:48:55.000Z</time>
      </trkpt>
      <trkpt lat="48.03715" lon="6.98631">
        <ele>1092</ele>
        <time>2022-10-09T12:49:01.000Z</time>
      </trkpt>
      <trkpt lat="48.03714" lon="6.98631">
        <ele>1092</ele>
        <time>2022-10-09T12:49:03.000Z</time>
      </trkpt>
      <trkpt lat="48.03715" lon="6.98639">
        <ele>1091.8000488281</ele>
        <time>2022-10-09T12:49:10.000Z</time>
      </trkpt>
      <trkpt lat="48.03714" lon="6.9865">
        <ele>1091.8000488281</ele>
        <time>2022-10-09T12:49:17.000Z</time>
      </trkpt>
      <trkpt lat="48.03716" lon="6.98667">
        <ele>1091.8000488281</ele>
        <time>2022-10-09T12:49:25.000Z</time>
      </trkpt>
      <trkpt lat="48.03716" lon="6.98675">
        <ele>1091.8000488281</ele>
        <time>2022-10-09T12:49:31.000Z</time>
      </trkpt>
      <trkpt lat="48.03716" lon="6.98681">
        <ele>1091.8000488281</ele>
        <time>2022-10-09T12:49:36.000Z</time>
      </trkpt>
      <trkpt lat="48.03714" lon="6.98686">
        <ele>1092</ele>
        <time>2022-10-09T12:49:38.000Z</time>
      </trkpt>
      <trkpt lat="48.03715" lon="6.98697">
        <ele>1092.1999511719</ele>
        <time>2022-10-09T12:49:45.000Z</time>
      </trkpt>
      <trkpt lat="48.03715" lon="6.98708">
        <ele>1092.5999755859</ele>
        <time>2022-10-09T12:49:52.000Z</time>
      </trkpt>
      <trkpt lat="48.03715" lon="6.98709">
        <ele>1092.5999755859</ele>
        <time>2022-10-09T12:49:53.000Z</time>
      </trkpt>
      <trkpt lat="48.03714" lon="6.98708">
        <ele>1092.5999755859</ele>
        <time>2022-10-09T12:49:59.000Z</time>
      </trkpt>
      <trkpt lat="48.03714" lon="6.98708">
        <ele>1092.8000488281</ele>
        <time>2022-10-09T12:50:06.000Z</time>
      </trkpt>
      <trkpt lat="48.03714" lon="6.98714">
        <ele>1092.8000488281</ele>
        <time>2022-10-09T12:50:13.000Z</time>
      </trkpt>
      <trkpt lat="48.03714" lon="6.98713">
        <ele>1093</ele>
        <time>2022-10-09T12:50:39.000Z</time>
      </trkpt>
      <trkpt lat="48.03714" lon="6.98713">
        <ele>1093.4000244141</ele>
        <time>2022-10-09T12:50:43.000Z</time>
      </trkpt>
      <trkpt lat="48.03714" lon="6.98722">
        <ele>1093.4000244141</ele>
        <time>2022-10-09T12:50:52.000Z</time>
      </trkpt>
      <trkpt lat="48.03716" lon="6.98737">
        <ele>1092.8000488281</ele>
        <time>2022-10-09T12:51:00.000Z</time>
      </trkpt>
      <trkpt lat="48.03711" lon="6.98745">
        <ele>1093</ele>
        <time>2022-10-09T12:51:06.000Z</time>
      </trkpt>
      <trkpt lat="48.03711" lon="6.98752">
        <ele>1093.1999511719</ele>
        <time>2022-10-09T12:51:11.000Z</time>
      </trkpt>
      <trkpt lat="48.03706" lon="6.98763">
        <ele>1093.4000244141</ele>
        <time>2022-10-09T12:51:18.000Z</time>
      </trkpt>
      <trkpt lat="48.03705" lon="6.98767">
        <ele>1093.8000488281</ele>
        <time>2022-10-09T12:51:22.000Z</time>
      </trkpt>
      <trkpt lat="48.03703" lon="6.98771">
        <ele>1094</ele>
        <time>2022-10-09T12:51:25.000Z</time>
      </trkpt>
      <trkpt lat="48.03702" lon="6.98772">
        <ele>1094</ele>
        <time>2022-10-09T12:51:26.000Z</time>
      </trkpt>
      <trkpt lat="48.03701" lon="6.98783">
        <ele>1094.5999755859</ele>
        <time>2022-10-09T12:51:34.000Z</time>
      </trkpt>
      <trkpt lat="48.03699" lon="6.98791">
        <ele>1095</ele>
        <time>2022-10-09T12:51:40.000Z</time>
      </trkpt>
      <trkpt lat="48.03699" lon="6.98804">
        <ele>1095.8000488281</ele>
        <time>2022-10-09T12:51:48.000Z</time>
      </trkpt>
      <trkpt lat="48.03699" lon="6.98808">
        <ele>1096.1999511719</ele>
        <time>2022-10-09T12:51:52.000Z</time>
      </trkpt>
      <trkpt lat="48.03696" lon="6.98816">
        <ele>1096.4000244141</ele>
        <time>2022-10-09T12:51:58.000Z</time>
      </trkpt>
      <trkpt lat="48.03693" lon="6.9883">
        <ele>1097</ele>
        <time>2022-10-09T12:52:07.000Z</time>
      </trkpt>
      <trkpt lat="48.03694" lon="6.98831">
        <ele>1097.1999511719</ele>
        <time>2022-10-09T12:52:08.000Z</time>
      </trkpt>
      <trkpt lat="48.03689" lon="6.98843">
        <ele>1097.4000244141</ele>
        <time>2022-10-09T12:52:15.000Z</time>
      </trkpt>
      <trkpt lat="48.03686" lon="6.98851">
        <ele>1097.5999755859</ele>
        <time>2022-10-09T12:52:21.000Z</time>
      </trkpt>
      <trkpt lat="48.03683" lon="6.98859">
        <ele>1098.1999511719</ele>
        <time>2022-10-09T12:52:27.000Z</time>
      </trkpt>
      <trkpt lat="48.03682" lon="6.98862">
        <ele>1098.4000244141</ele>
        <time>2022-10-09T12:52:29.000Z</time>
      </trkpt>
      <trkpt lat="48.03682" lon="6.9887">
        <ele>1098.5999755859</ele>
        <time>2022-10-09T12:52:35.000Z</time>
      </trkpt>
      <trkpt lat="48.03682" lon="6.98872">
        <ele>1098.5999755859</ele>
        <time>2022-10-09T12:52:36.000Z</time>
      </trkpt>
      <trkpt lat="48.03681" lon="6.98885">
        <ele>1098.8000488281</ele>
        <time>2022-10-09T12:52:45.000Z</time>
      </trkpt>
      <trkpt lat="48.03681" lon="6.98889">
        <ele>1099</ele>
        <time>2022-10-09T12:52:49.000Z</time>
      </trkpt>
      <trkpt lat="48.0368" lon="6.98893">
        <ele>1099.1999511719</ele>
        <time>2022-10-09T12:52:51.000Z</time>
      </trkpt>
      <trkpt lat="48.03676" lon="6.98895">
        <ele>1099.5999755859</ele>
        <time>2022-10-09T12:52:54.000Z</time>
      </trkpt>
      <trkpt lat="48.03672" lon="6.98898">
        <ele>1100</ele>
        <time>2022-10-09T12:53:00.000Z</time>
      </trkpt>
      <trkpt lat="48.03665" lon="6.98907">
        <ele>1100.1999511719</ele>
        <time>2022-10-09T12:53:07.000Z</time>
      </trkpt>
      <trkpt lat="48.03664" lon="6.98909">
        <ele>1100.4000244141</ele>
        <time>2022-10-09T12:53:08.000Z</time>
      </trkpt>
      <trkpt lat="48.03664" lon="6.9891">
        <ele>1100.4000244141</ele>
        <time>2022-10-09T12:53:09.000Z</time>
      </trkpt>
      <trkpt lat="48.03664" lon="6.98911">
        <ele>1100.4000244141</ele>
        <time>2022-10-09T12:53:10.000Z</time>
      </trkpt>
      <trkpt lat="48.03664" lon="6.98918">
        <ele>1100.4000244141</ele>
        <time>2022-10-09T12:53:14.000Z</time>
      </trkpt>
      <trkpt lat="48.03664" lon="6.9892">
        <ele>1100.4000244141</ele>
        <time>2022-10-09T12:53:20.000Z</time>
      </trkpt>
      <trkpt lat="48.03661" lon="6.98924">
        <ele>1100.4000244141</ele>
        <time>2022-10-09T12:53:26.000Z</time>
      </trkpt>
      <trkpt lat="48.03661" lon="6.98925">
        <ele>1100.4000244141</ele>
        <time>2022-10-09T12:53:27.000Z</time>
      </trkpt>
      <trkpt lat="48.0366" lon="6.9893">
        <ele>1100.5999755859</ele>
        <time>2022-10-09T12:53:32.000Z</time>
      </trkpt>
      <trkpt lat="48.0366" lon="6.98932">
        <ele>1100.5999755859</ele>
        <time>2022-10-09T12:53:34.000Z</time>
      </trkpt>
      <trkpt lat="48.03659" lon="6.98938">
        <ele>1101.1999511719</ele>
        <time>2022-10-09T12:53:38.000Z</time>
      </trkpt>
      <trkpt lat="48.03658" lon="6.98941">
        <ele>1101.1999511719</ele>
        <time>2022-10-09T12:53:40.000Z</time>
      </trkpt>
      <trkpt lat="48.03657" lon="6.98942">
        <ele>1101.4000244141</ele>
        <time>2022-10-09T12:53:41.000Z</time>
      </trkpt>
      <trkpt lat="48.03657" lon="6.98945">
        <ele>1101.5999755859</ele>
        <time>2022-10-09T12:53:43.000Z</time>
      </trkpt>
      <trkpt lat="48.03656" lon="6.98952">
        <ele>1101.8000488281</ele>
        <time>2022-10-09T12:53:47.000Z</time>
      </trkpt>
      <trkpt lat="48.03656" lon="6.98952">
        <ele>1101.8000488281</ele>
        <time>2022-10-09T12:53:48.000Z</time>
      </trkpt>
      <trkpt lat="48.03656" lon="6.98954">
        <ele>1101.8000488281</ele>
        <time>2022-10-09T12:53:49.000Z</time>
      </trkpt>
      <trkpt lat="48.03655" lon="6.98962">
        <ele>1102</ele>
        <time>2022-10-09T12:53:53.000Z</time>
      </trkpt>
      <trkpt lat="48.03656" lon="6.98965">
        <ele>1102</ele>
        <time>2022-10-09T12:53:54.000Z</time>
      </trkpt>
      <trkpt lat="48.03659" lon="6.98974">
        <ele>1101.8000488281</ele>
        <time>2022-10-09T12:54:00.000Z</time>
      </trkpt>
      <trkpt lat="48.03659" lon="6.98977">
        <ele>1101.8000488281</ele>
        <time>2022-10-09T12:54:02.000Z</time>
      </trkpt>
      <trkpt lat="48.0366" lon="6.98979">
        <ele>1102</ele>
        <time>2022-10-09T12:54:06.000Z</time>
      </trkpt>
      <trkpt lat="48.03661" lon="6.98981">
        <ele>1102</ele>
        <time>2022-10-09T12:54:09.000Z</time>
      </trkpt>
      <trkpt lat="48.03662" lon="6.98981">
        <ele>1101.8000488281</ele>
        <time>2022-10-09T12:54:11.000Z</time>
      </trkpt>
      <trkpt lat="48.03666" lon="6.9898">
        <ele>1101.8000488281</ele>
        <time>2022-10-09T12:54:18.000Z</time>
      </trkpt>
      <trkpt lat="48.03665" lon="6.98983">
        <ele>1102.1999511719</ele>
        <time>2022-10-09T12:54:25.000Z</time>
      </trkpt>
      <trkpt lat="48.03664" lon="6.98984">
        <ele>1102.1999511719</ele>
        <time>2022-10-09T12:54:26.000Z</time>
      </trkpt>
      <trkpt lat="48.03669" lon="6.98985">
        <ele>1102.1999511719</ele>
        <time>2022-10-09T12:54:37.000Z</time>
      </trkpt>
      <trkpt lat="48.03674" lon="6.98985">
        <ele>1102.1999511719</ele>
        <time>2022-10-09T12:54:41.000Z</time>
      </trkpt>
      <trkpt lat="48.03677" lon="6.98986">
        <ele>1102.1999511719</ele>
        <time>2022-10-09T12:54:43.000Z</time>
      </trkpt>
      <trkpt lat="48.03677" lon="6.98986">
        <ele>1102.1999511719</ele>
        <time>2022-10-09T12:54:44.000Z</time>
      </trkpt>
      <trkpt lat="48.03684" lon="6.98984">
        <ele>1102</ele>
        <time>2022-10-09T12:54:50.000Z</time>
      </trkpt>
      <trkpt lat="48.0369" lon="6.98989">
        <ele>1101.8000488281</ele>
        <time>2022-10-09T12:54:56.000Z</time>
      </trkpt>
      <trkpt lat="48.037" lon="6.99002">
        <ele>1101.5999755859</ele>
        <time>2022-10-09T12:55:04.000Z</time>
      </trkpt>
      <trkpt lat="48.03707" lon="6.99012">
        <ele>1101.4000244141</ele>
        <time>2022-10-09T12:55:12.000Z</time>
      </trkpt>
      <trkpt lat="48.03707" lon="6.99012">
        <ele>1101.1999511719</ele>
        <time>2022-10-09T12:55:13.000Z</time>
      </trkpt>
      <trkpt lat="48.03715" lon="6.99018">
        <ele>1101.1999511719</ele>
        <time>2022-10-09T12:55:22.000Z</time>
      </trkpt>
      <trkpt lat="48.03721" lon="6.99023">
        <ele>1101.4000244141</ele>
        <time>2022-10-09T12:55:27.000Z</time>
      </trkpt>
      <trkpt lat="48.03723" lon="6.99025">
        <ele>1101.4000244141</ele>
        <time>2022-10-09T12:55:29.000Z</time>
      </trkpt>
      <trkpt lat="48.03725" lon="6.99025">
        <ele>1101.1999511719</ele>
        <time>2022-10-09T12:55:30.000Z</time>
      </trkpt>
      <trkpt lat="48.03725" lon="6.99029">
        <ele>1101.1999511719</ele>
        <time>2022-10-09T12:55:35.000Z</time>
      </trkpt>
      <trkpt lat="48.03726" lon="6.9903">
        <ele>1101</ele>
        <time>2022-10-09T12:55:36.000Z</time>
      </trkpt>
      <trkpt lat="48.0373" lon="6.99042">
        <ele>1100.5999755859</ele>
        <time>2022-10-09T12:55:45.000Z</time>
      </trkpt>
      <trkpt lat="48.03731" lon="6.99043">
        <ele>1100.5999755859</ele>
        <time>2022-10-09T12:55:46.000Z</time>
      </trkpt>
      <trkpt lat="48.03734" lon="6.99048">
        <ele>1100.4000244141</ele>
        <time>2022-10-09T12:55:51.000Z</time>
      </trkpt>
      <trkpt lat="48.03739" lon="6.99053">
        <ele>1100.4000244141</ele>
        <time>2022-10-09T12:55:56.000Z</time>
      </trkpt>
      <trkpt lat="48.0374" lon="6.99054">
        <ele>1100.4000244141</ele>
        <time>2022-10-09T12:55:58.000Z</time>
      </trkpt>
      <trkpt lat="48.03741" lon="6.99055">
        <ele>1100.1999511719</ele>
        <time>2022-10-09T12:55:59.000Z</time>
      </trkpt>
      <trkpt lat="48.03745" lon="6.99062">
        <ele>1099.8000488281</ele>
        <time>2022-10-09T12:56:05.000Z</time>
      </trkpt>
      <trkpt lat="48.03751" lon="6.99068">
        <ele>1099.5999755859</ele>
        <time>2022-10-09T12:56:15.000Z</time>
      </trkpt>
      <trkpt lat="48.03757" lon="6.99075">
        <ele>1099.5999755859</ele>
        <time>2022-10-09T12:56:23.000Z</time>
      </trkpt>
      <trkpt lat="48.03758" lon="6.99077">
        <ele>1099.5999755859</ele>
        <time>2022-10-09T12:56:24.000Z</time>
      </trkpt>
      <trkpt lat="48.03762" lon="6.99085">
        <ele>1099.4000244141</ele>
        <time>2022-10-09T12:56:29.000Z</time>
      </trkpt>
      <trkpt lat="48.03764" lon="6.99086">
        <ele>1099.4000244141</ele>
        <time>2022-10-09T12:56:30.000Z</time>
      </trkpt>
      <trkpt lat="48.03765" lon="6.99087">
        <ele>1099.5999755859</ele>
        <time>2022-10-09T12:56:31.000Z</time>
      </trkpt>
      <trkpt lat="48.03765" lon="6.99089">
        <ele>1099.5999755859</ele>
        <time>2022-10-09T12:56:32.000Z</time>
      </trkpt>
      <trkpt lat="48.03768" lon="6.99096">
        <ele>1099.5999755859</ele>
        <time>2022-10-09T12:56:38.000Z</time>
      </trkpt>
      <trkpt lat="48.03772" lon="6.99107">
        <ele>1099.4000244141</ele>
        <time>2022-10-09T12:56:45.000Z</time>
      </trkpt>
      <trkpt lat="48.03776" lon="6.99114">
        <ele>1099.1999511719</ele>
        <time>2022-10-09T12:56:50.000Z</time>
      </trkpt>
      <trkpt lat="48.03777" lon="6.99115">
        <ele>1099.1999511719</ele>
        <time>2022-10-09T12:56:51.000Z</time>
      </trkpt>
      <trkpt lat="48.0378" lon="6.99127">
        <ele>1098.5999755859</ele>
        <time>2022-10-09T12:56:59.000Z</time>
      </trkpt>
      <trkpt lat="48.03782" lon="6.99136">
        <ele>1098.5999755859</ele>
        <time>2022-10-09T12:57:05.000Z</time>
      </trkpt>
      <trkpt lat="48.03783" lon="6.99139">
        <ele>1098.1999511719</ele>
        <time>2022-10-09T12:57:08.000Z</time>
      </trkpt>
      <trkpt lat="48.03786" lon="6.99151">
        <ele>1098</ele>
        <time>2022-10-09T12:57:14.000Z</time>
      </trkpt>
      <trkpt lat="48.03789" lon="6.99159">
        <ele>1097.5999755859</ele>
        <time>2022-10-09T12:57:21.000Z</time>
      </trkpt>
      <trkpt lat="48.03789" lon="6.99161">
        <ele>1097.5999755859</ele>
        <time>2022-10-09T12:57:22.000Z</time>
      </trkpt>
      <trkpt lat="48.03791" lon="6.99169">
        <ele>1097.8000488281</ele>
        <time>2022-10-09T12:57:27.000Z</time>
      </trkpt>
      <trkpt lat="48.03792" lon="6.99171">
        <ele>1097.8000488281</ele>
        <time>2022-10-09T12:57:29.000Z</time>
      </trkpt>
      <trkpt lat="48.03793" lon="6.99175">
        <ele>1097.8000488281</ele>
        <time>2022-10-09T12:57:32.000Z</time>
      </trkpt>
      <trkpt lat="48.03794" lon="6.99176">
        <ele>1097.8000488281</ele>
        <time>2022-10-09T12:57:34.000Z</time>
      </trkpt>
      <trkpt lat="48.03796" lon="6.99192">
        <ele>1097.4000244141</ele>
        <time>2022-10-09T12:57:43.000Z</time>
      </trkpt>
      <trkpt lat="48.03796" lon="6.99195">
        <ele>1097.1999511719</ele>
        <time>2022-10-09T12:57:45.000Z</time>
      </trkpt>
      <trkpt lat="48.03797" lon="6.99202">
        <ele>1097</ele>
        <time>2022-10-09T12:57:50.000Z</time>
      </trkpt>
      <trkpt lat="48.03803" lon="6.99208">
        <ele>1096.4000244141</ele>
        <time>2022-10-09T12:57:54.000Z</time>
      </trkpt>
      <trkpt lat="48.03805" lon="6.9921">
        <ele>1096.4000244141</ele>
        <time>2022-10-09T12:57:56.000Z</time>
      </trkpt>
      <trkpt lat="48.03804" lon="6.99212">
        <ele>1096.4000244141</ele>
        <time>2022-10-09T12:57:57.000Z</time>
      </trkpt>
      <trkpt lat="48.03805" lon="6.99215">
        <ele>1096.1999511719</ele>
        <time>2022-10-09T12:57:59.000Z</time>
      </trkpt>
      <trkpt lat="48.03805" lon="6.99217">
        <ele>1096</ele>
        <time>2022-10-09T12:58:01.000Z</time>
      </trkpt>
      <trkpt lat="48.03806" lon="6.99219">
        <ele>1095.8000488281</ele>
        <time>2022-10-09T12:58:03.000Z</time>
      </trkpt>
      <trkpt lat="48.03807" lon="6.9922">
        <ele>1095.8000488281</ele>
        <time>2022-10-09T12:58:04.000Z</time>
      </trkpt>
      <trkpt lat="48.03811" lon="6.99231">
        <ele>1095.5999755859</ele>
        <time>2022-10-09T12:58:10.000Z</time>
      </trkpt>
      <trkpt lat="48.03813" lon="6.99239">
        <ele>1095.4000244141</ele>
        <time>2022-10-09T12:58:17.000Z</time>
      </trkpt>
      <trkpt lat="48.03812" lon="6.99242">
        <ele>1095</ele>
        <time>2022-10-09T12:58:19.000Z</time>
      </trkpt>
      <trkpt lat="48.03812" lon="6.99253">
        <ele>1094.5999755859</ele>
        <time>2022-10-09T12:58:26.000Z</time>
      </trkpt>
      <trkpt lat="48.03815" lon="6.99264">
        <ele>1094.4000244141</ele>
        <time>2022-10-09T12:58:35.000Z</time>
      </trkpt>
      <trkpt lat="48.03817" lon="6.99264">
        <ele>1095.1999511719</ele>
        <time>2022-10-09T12:58:40.000Z</time>
      </trkpt>
      <trkpt lat="48.03819" lon="6.9927">
        <ele>1095</ele>
        <time>2022-10-09T12:58:47.000Z</time>
      </trkpt>
      <trkpt lat="48.03818" lon="6.99275">
        <ele>1095.1999511719</ele>
        <time>2022-10-09T12:58:53.000Z</time>
      </trkpt>
      <trkpt lat="48.03819" lon="6.99283">
        <ele>1095</ele>
        <time>2022-10-09T12:58:59.000Z</time>
      </trkpt>
      <trkpt lat="48.03821" lon="6.99285">
        <ele>1094.8000488281</ele>
        <time>2022-10-09T12:59:01.000Z</time>
      </trkpt>
      <trkpt lat="48.03821" lon="6.99294">
        <ele>1094.8000488281</ele>
        <time>2022-10-09T12:59:06.000Z</time>
      </trkpt>
      <trkpt lat="48.03823" lon="6.99301">
        <ele>1095</ele>
        <time>2022-10-09T12:59:13.000Z</time>
      </trkpt>
      <trkpt lat="48.03828" lon="6.99312">
        <ele>1095</ele>
        <time>2022-10-09T12:59:21.000Z</time>
      </trkpt>
      <trkpt lat="48.03827" lon="6.99317">
        <ele>1095</ele>
        <time>2022-10-09T12:59:28.000Z</time>
      </trkpt>
      <trkpt lat="48.0383" lon="6.99321">
        <ele>1095</ele>
        <time>2022-10-09T12:59:35.000Z</time>
      </trkpt>
      <trkpt lat="48.03832" lon="6.99329">
        <ele>1095</ele>
        <time>2022-10-09T12:59:43.000Z</time>
      </trkpt>
      <trkpt lat="48.03835" lon="6.99336">
        <ele>1095</ele>
        <time>2022-10-09T12:59:49.000Z</time>
      </trkpt>
      <trkpt lat="48.0384" lon="6.99348">
        <ele>1095</ele>
        <time>2022-10-09T12:59:58.000Z</time>
      </trkpt>
      <trkpt lat="48.03836" lon="6.99353">
        <ele>1095</ele>
        <time>2022-10-09T13:00:06.000Z</time>
      </trkpt>
      <trkpt lat="48.03839" lon="6.99357">
        <ele>1095</ele>
        <time>2022-10-09T13:00:13.000Z</time>
      </trkpt>
      <trkpt lat="48.03839" lon="6.9937">
        <ele>1094.8000488281</ele>
        <time>2022-10-09T13:00:22.000Z</time>
      </trkpt>
      <trkpt lat="48.03833" lon="6.99378">
        <ele>1094.8000488281</ele>
        <time>2022-10-09T13:00:29.000Z</time>
      </trkpt>
      <trkpt lat="48.0383" lon="6.99382">
        <ele>1095</ele>
        <time>2022-10-09T13:00:35.000Z</time>
      </trkpt>
      <trkpt lat="48.03829" lon="6.99387">
        <ele>1095</ele>
        <time>2022-10-09T13:00:41.000Z</time>
      </trkpt>
      <trkpt lat="48.03828" lon="6.99387">
        <ele>1095</ele>
        <time>2022-10-09T13:00:42.000Z</time>
      </trkpt>
      <trkpt lat="48.03827" lon="6.99389">
        <ele>1094.5999755859</ele>
        <time>2022-10-09T13:00:48.000Z</time>
      </trkpt>
      <trkpt lat="48.03824" lon="6.99395">
        <ele>1094.5999755859</ele>
        <time>2022-10-09T13:00:55.000Z</time>
      </trkpt>
      <trkpt lat="48.03824" lon="6.99396">
        <ele>1094.8000488281</ele>
        <time>2022-10-09T13:00:56.000Z</time>
      </trkpt>
      <trkpt lat="48.03825" lon="6.99403">
        <ele>1094.8000488281</ele>
        <time>2022-10-09T13:01:03.000Z</time>
      </trkpt>
      <trkpt lat="48.03825" lon="6.99402">
        <ele>1094.5999755859</ele>
        <time>2022-10-09T13:01:10.000Z</time>
      </trkpt>
      <trkpt lat="48.03826" lon="6.99412">
        <ele>1094.8000488281</ele>
        <time>2022-10-09T13:01:17.000Z</time>
      </trkpt>
      <trkpt lat="48.03826" lon="6.99415">
        <ele>1095</ele>
        <time>2022-10-09T13:01:19.000Z</time>
      </trkpt>
      <trkpt lat="48.03826" lon="6.9942">
        <ele>1095.4000244141</ele>
        <time>2022-10-09T13:01:23.000Z</time>
      </trkpt>
      <trkpt lat="48.03826" lon="6.99423">
        <ele>1095.4000244141</ele>
        <time>2022-10-09T13:01:25.000Z</time>
      </trkpt>
      <trkpt lat="48.03826" lon="6.99431">
        <ele>1095.1999511719</ele>
        <time>2022-10-09T13:01:32.000Z</time>
      </trkpt>
      <trkpt lat="48.03822" lon="6.99433">
        <ele>1095.4000244141</ele>
        <time>2022-10-09T13:01:40.000Z</time>
      </trkpt>
      <trkpt lat="48.03822" lon="6.99444">
        <ele>1095.4000244141</ele>
        <time>2022-10-09T13:01:47.000Z</time>
      </trkpt>
      <trkpt lat="48.03824" lon="6.99452">
        <ele>1095.5999755859</ele>
        <time>2022-10-09T13:01:53.000Z</time>
      </trkpt>
      <trkpt lat="48.03825" lon="6.99453">
        <ele>1095.5999755859</ele>
        <time>2022-10-09T13:01:54.000Z</time>
      </trkpt>
      <trkpt lat="48.03824" lon="6.99456">
        <ele>1095.8000488281</ele>
        <time>2022-10-09T13:01:56.000Z</time>
      </trkpt>
      <trkpt lat="48.03824" lon="6.99459">
        <ele>1095.8000488281</ele>
        <time>2022-10-09T13:01:58.000Z</time>
      </trkpt>
      <trkpt lat="48.03824" lon="6.9946">
        <ele>1095.5999755859</ele>
        <time>2022-10-09T13:01:59.000Z</time>
      </trkpt>
      <trkpt lat="48.03823" lon="6.99462">
        <ele>1095.4000244141</ele>
        <time>2022-10-09T13:02:01.000Z</time>
      </trkpt>
      <trkpt lat="48.03824" lon="6.99469">
        <ele>1095.8000488281</ele>
        <time>2022-10-09T13:02:08.000Z</time>
      </trkpt>
      <trkpt lat="48.03823" lon="6.99472">
        <ele>1096</ele>
        <time>2022-10-09T13:02:10.000Z</time>
      </trkpt>
      <trkpt lat="48.03822" lon="6.99475">
        <ele>1096.1999511719</ele>
        <time>2022-10-09T13:02:14.000Z</time>
      </trkpt>
      <trkpt lat="48.03822" lon="6.9948">
        <ele>1096.5999755859</ele>
        <time>2022-10-09T13:02:19.000Z</time>
      </trkpt>
      <trkpt lat="48.03817" lon="6.99491">
        <ele>1097</ele>
        <time>2022-10-09T13:02:26.000Z</time>
      </trkpt>
      <trkpt lat="48.03818" lon="6.99499">
        <ele>1097</ele>
        <time>2022-10-09T13:02:32.000Z</time>
      </trkpt>
      <trkpt lat="48.03818" lon="6.99499">
        <ele>1097.1999511719</ele>
        <time>2022-10-09T13:02:33.000Z</time>
      </trkpt>
      <trkpt lat="48.0382" lon="6.99498">
        <ele>1097.1999511719</ele>
        <time>2022-10-09T13:02:37.000Z</time>
      </trkpt>
      <trkpt lat="48.0382" lon="6.99505">
        <ele>1097.4000244141</ele>
        <time>2022-10-09T13:02:40.000Z</time>
      </trkpt>
      <trkpt lat="48.03819" lon="6.99507">
        <ele>1097.4000244141</ele>
        <time>2022-10-09T13:02:43.000Z</time>
      </trkpt>
      <trkpt lat="48.03819" lon="6.9951">
        <ele>1097.4000244141</ele>
        <time>2022-10-09T13:02:48.000Z</time>
      </trkpt>
      <trkpt lat="48.03816" lon="6.99515">
        <ele>1098</ele>
        <time>2022-10-09T13:02:55.000Z</time>
      </trkpt>
      <trkpt lat="48.03816" lon="6.99518">
        <ele>1098.1999511719</ele>
        <time>2022-10-09T13:02:58.000Z</time>
      </trkpt>
      <trkpt lat="48.03816" lon="6.99519">
        <ele>1098.8000488281</ele>
        <time>2022-10-09T13:03:01.000Z</time>
      </trkpt>
      <trkpt lat="48.03814" lon="6.99519">
        <ele>1099.1999511719</ele>
        <time>2022-10-09T13:03:04.000Z</time>
      </trkpt>
      <trkpt lat="48.03809" lon="6.99523">
        <ele>1099.4000244141</ele>
        <time>2022-10-09T13:03:10.000Z</time>
      </trkpt>
      <trkpt lat="48.03809" lon="6.99523">
        <ele>1099.4000244141</ele>
        <time>2022-10-09T13:03:12.000Z</time>
      </trkpt>
      <trkpt lat="48.0381" lon="6.99522">
        <ele>1099</ele>
        <time>2022-10-09T13:03:18.000Z</time>
      </trkpt>
      <trkpt lat="48.03813" lon="6.99526">
        <ele>1098.8000488281</ele>
        <time>2022-10-09T13:03:26.000Z</time>
      </trkpt>
      <trkpt lat="48.03814" lon="6.99533">
        <ele>1098.8000488281</ele>
        <time>2022-10-09T13:03:34.000Z</time>
      </trkpt>
      <trkpt lat="48.03813" lon="6.99541">
        <ele>1099</ele>
        <time>2022-10-09T13:03:41.000Z</time>
      </trkpt>
      <trkpt lat="48.03812" lon="6.99542">
        <ele>1099</ele>
        <time>2022-10-09T13:03:43.000Z</time>
      </trkpt>
      <trkpt lat="48.03812" lon="6.99541">
        <ele>1099</ele>
        <time>2022-10-09T13:03:46.000Z</time>
      </trkpt>
      <trkpt lat="48.03815" lon="6.99538">
        <ele>1099</ele>
        <time>2022-10-09T13:03:53.000Z</time>
      </trkpt>
      <trkpt lat="48.03814" lon="6.99539">
        <ele>1099.5999755859</ele>
        <time>2022-10-09T13:03:59.000Z</time>
      </trkpt>
      <trkpt lat="48.03814" lon="6.99541">
        <ele>1100.1999511719</ele>
        <time>2022-10-09T13:04:02.000Z</time>
      </trkpt>
      <trkpt lat="48.03814" lon="6.99543">
        <ele>1100.4000244141</ele>
        <time>2022-10-09T13:04:05.000Z</time>
      </trkpt>
      <trkpt lat="48.03816" lon="6.99547">
        <ele>1100.4000244141</ele>
        <time>2022-10-09T13:04:11.000Z</time>
      </trkpt>
      <trkpt lat="48.03815" lon="6.99547">
        <ele>1100.5999755859</ele>
        <time>2022-10-09T13:04:24.000Z</time>
      </trkpt>
      <trkpt lat="48.03815" lon="6.99545">
        <ele>1101</ele>
        <time>2022-10-09T13:04:34.000Z</time>
      </trkpt>
      <trkpt lat="48.03816" lon="6.99547">
        <ele>1100.4000244141</ele>
        <time>2022-10-09T13:04:46.000Z</time>
      </trkpt>
      <trkpt lat="48.03816" lon="6.99548">
        <ele>1100.4000244141</ele>
        <time>2022-10-09T13:04:47.000Z</time>
      </trkpt>
      <trkpt lat="48.03816" lon="6.99551">
        <ele>1100.5999755859</ele>
        <time>2022-10-09T13:04:51.000Z</time>
      </trkpt>
      <trkpt lat="48.03816" lon="6.99556">
        <ele>1100.8000488281</ele>
        <time>2022-10-09T13:04:56.000Z</time>
      </trkpt>
      <trkpt lat="48.03818" lon="6.99561">
        <ele>1101.1999511719</ele>
        <time>2022-10-09T13:05:02.000Z</time>
      </trkpt>
      <trkpt lat="48.03813" lon="6.99568">
        <ele>1101.4000244141</ele>
        <time>2022-10-09T13:05:08.000Z</time>
      </trkpt>
      <trkpt lat="48.03812" lon="6.99575">
        <ele>1101.5999755859</ele>
        <time>2022-10-09T13:05:14.000Z</time>
      </trkpt>
      <trkpt lat="48.03809" lon="6.99582">
        <ele>1101.8000488281</ele>
        <time>2022-10-09T13:05:20.000Z</time>
      </trkpt>
      <trkpt lat="48.03808" lon="6.99585">
        <ele>1102</ele>
        <time>2022-10-09T13:05:22.000Z</time>
      </trkpt>
      <trkpt lat="48.03806" lon="6.99589">
        <ele>1102.1999511719</ele>
        <time>2022-10-09T13:05:26.000Z</time>
      </trkpt>
      <trkpt lat="48.03806" lon="6.9959">
        <ele>1102.5999755859</ele>
        <time>2022-10-09T13:05:28.000Z</time>
      </trkpt>
      <trkpt lat="48.03804" lon="6.99594">
        <ele>1102.8000488281</ele>
        <time>2022-10-09T13:05:33.000Z</time>
      </trkpt>
      <trkpt lat="48.03806" lon="6.99601">
        <ele>1103.1999511719</ele>
        <time>2022-10-09T13:05:39.000Z</time>
      </trkpt>
      <trkpt lat="48.03804" lon="6.99607">
        <ele>1103.4000244141</ele>
        <time>2022-10-09T13:05:43.000Z</time>
      </trkpt>
      <trkpt lat="48.03803" lon="6.99609">
        <ele>1103.5999755859</ele>
        <time>2022-10-09T13:05:44.000Z</time>
      </trkpt>
      <trkpt lat="48.03802" lon="6.99611">
        <ele>1103.8000488281</ele>
        <time>2022-10-09T13:05:45.000Z</time>
      </trkpt>
      <trkpt lat="48.03799" lon="6.99623">
        <ele>1104.1999511719</ele>
        <time>2022-10-09T13:05:52.000Z</time>
      </trkpt>
      <trkpt lat="48.03801" lon="6.99637">
        <ele>1103.5999755859</ele>
        <time>2022-10-09T13:05:59.000Z</time>
      </trkpt>
      <trkpt lat="48.03802" lon="6.99643">
        <ele>1103.8000488281</ele>
        <time>2022-10-09T13:06:02.000Z</time>
      </trkpt>
      <trkpt lat="48.03799" lon="6.99652">
        <ele>1103.8000488281</ele>
        <time>2022-10-09T13:06:06.000Z</time>
      </trkpt>
      <trkpt lat="48.03798" lon="6.99663">
        <ele>1103.5999755859</ele>
        <time>2022-10-09T13:06:13.000Z</time>
      </trkpt>
      <trkpt lat="48.03796" lon="6.99666">
        <ele>1104</ele>
        <time>2022-10-09T13:06:16.000Z</time>
      </trkpt>
      <trkpt lat="48.03795" lon="6.99669">
        <ele>1104.5999755859</ele>
        <time>2022-10-09T13:06:18.000Z</time>
      </trkpt>
      <trkpt lat="48.03796" lon="6.9967">
        <ele>1104.8000488281</ele>
        <time>2022-10-09T13:06:19.000Z</time>
      </trkpt>
      <trkpt lat="48.03795" lon="6.99672">
        <ele>1105</ele>
        <time>2022-10-09T13:06:20.000Z</time>
      </trkpt>
      <trkpt lat="48.03789" lon="6.99681">
        <ele>1105.1999511719</ele>
        <time>2022-10-09T13:06:27.000Z</time>
      </trkpt>
      <trkpt lat="48.03789" lon="6.99681">
        <ele>1105.5999755859</ele>
        <time>2022-10-09T13:06:29.000Z</time>
      </trkpt>
      <trkpt lat="48.03787" lon="6.99686">
        <ele>1105.5999755859</ele>
        <time>2022-10-09T13:06:34.000Z</time>
      </trkpt>
      <trkpt lat="48.03789" lon="6.99695">
        <ele>1105.1999511719</ele>
        <time>2022-10-09T13:06:40.000Z</time>
      </trkpt>
      <trkpt lat="48.03789" lon="6.99697">
        <ele>1105.4000244141</ele>
        <time>2022-10-09T13:06:42.000Z</time>
      </trkpt>
      <trkpt lat="48.03791" lon="6.99708">
        <ele>1106.4000244141</ele>
        <time>2022-10-09T13:06:51.000Z</time>
      </trkpt>
      <trkpt lat="48.03791" lon="6.99714">
        <ele>1106.1999511719</ele>
        <time>2022-10-09T13:06:55.000Z</time>
      </trkpt>
      <trkpt lat="48.03791" lon="6.99716">
        <ele>1106.1999511719</ele>
        <time>2022-10-09T13:06:56.000Z</time>
      </trkpt>
      <trkpt lat="48.03792" lon="6.9972">
        <ele>1107</ele>
        <time>2022-10-09T13:06:59.000Z</time>
      </trkpt>
      <trkpt lat="48.03791" lon="6.99729">
        <ele>1107.5999755859</ele>
        <time>2022-10-09T13:07:05.000Z</time>
      </trkpt>
      <trkpt lat="48.03791" lon="6.99731">
        <ele>1107.5999755859</ele>
        <time>2022-10-09T13:07:07.000Z</time>
      </trkpt>
      <trkpt lat="48.03792" lon="6.99734">
        <ele>1108.1999511719</ele>
        <time>2022-10-09T13:07:09.000Z</time>
      </trkpt>
      <trkpt lat="48.03791" lon="6.9974">
        <ele>1109</ele>
        <time>2022-10-09T13:07:13.000Z</time>
      </trkpt>
      <trkpt lat="48.03791" lon="6.99741">
        <ele>1109.1999511719</ele>
        <time>2022-10-09T13:07:14.000Z</time>
      </trkpt>
      <trkpt lat="48.0379" lon="6.99742">
        <ele>1109.1999511719</ele>
        <time>2022-10-09T13:07:15.000Z</time>
      </trkpt>
      <trkpt lat="48.0379" lon="6.99743">
        <ele>1109.4000244141</ele>
        <time>2022-10-09T13:07:16.000Z</time>
      </trkpt>
      <trkpt lat="48.0379" lon="6.99743">
        <ele>1109.4000244141</ele>
        <time>2022-10-09T13:07:17.000Z</time>
      </trkpt>
      <trkpt lat="48.03789" lon="6.99749">
        <ele>1109.4000244141</ele>
        <time>2022-10-09T13:07:21.000Z</time>
      </trkpt>
      <trkpt lat="48.03787" lon="6.99754">
        <ele>1110</ele>
        <time>2022-10-09T13:07:25.000Z</time>
      </trkpt>
      <trkpt lat="48.03787" lon="6.99756">
        <ele>1110.1999511719</ele>
        <time>2022-10-09T13:07:27.000Z</time>
      </trkpt>
      <trkpt lat="48.03787" lon="6.99766">
        <ele>1110</ele>
        <time>2022-10-09T13:07:34.000Z</time>
      </trkpt>
      <trkpt lat="48.03784" lon="6.99766">
        <ele>1110.4000244141</ele>
        <time>2022-10-09T13:07:36.000Z</time>
      </trkpt>
      <trkpt lat="48.0378" lon="6.99772">
        <ele>1110.8000488281</ele>
        <time>2022-10-09T13:07:44.000Z</time>
      </trkpt>
      <trkpt lat="48.03783" lon="6.99779">
        <ele>1110.5999755859</ele>
        <time>2022-10-09T13:07:51.000Z</time>
      </trkpt>
      <trkpt lat="48.03786" lon="6.99786">
        <ele>1111.4000244141</ele>
        <time>2022-10-09T13:07:59.000Z</time>
      </trkpt>
      <trkpt lat="48.03789" lon="6.99799">
        <ele>1111.5999755859</ele>
        <time>2022-10-09T13:08:09.000Z</time>
      </trkpt>
      <trkpt lat="48.03786" lon="6.998">
        <ele>1111.5999755859</ele>
        <time>2022-10-09T13:08:22.000Z</time>
      </trkpt>
      <trkpt lat="48.0379" lon="6.99811">
        <ele>1111</ele>
        <time>2022-10-09T13:08:48.000Z</time>
      </trkpt>
      <trkpt lat="48.03797" lon="6.99824">
        <ele>1111.8000488281</ele>
        <time>2022-10-09T13:08:55.000Z</time>
      </trkpt>
      <trkpt lat="48.038" lon="6.99826">
        <ele>1111.8000488281</ele>
        <time>2022-10-09T13:08:57.000Z</time>
      </trkpt>
      <trkpt lat="48.03804" lon="6.99835">
        <ele>1111.8000488281</ele>
        <time>2022-10-09T13:09:03.000Z</time>
      </trkpt>
      <trkpt lat="48.03805" lon="6.99836">
        <ele>1112</ele>
        <time>2022-10-09T13:09:04.000Z</time>
      </trkpt>
      <trkpt lat="48.03806" lon="6.99838">
        <ele>1112.4000244141</ele>
        <time>2022-10-09T13:09:07.000Z</time>
      </trkpt>
      <trkpt lat="48.03806" lon="6.99839">
        <ele>1112.4000244141</ele>
        <time>2022-10-09T13:09:08.000Z</time>
      </trkpt>
      <trkpt lat="48.03808" lon="6.99841">
        <ele>1112.8000488281</ele>
        <time>2022-10-09T13:09:12.000Z</time>
      </trkpt>
      <trkpt lat="48.03809" lon="6.99842">
        <ele>1113</ele>
        <time>2022-10-09T13:09:15.000Z</time>
      </trkpt>
      <trkpt lat="48.0381" lon="6.99842">
        <ele>1113</ele>
        <time>2022-10-09T13:09:17.000Z</time>
      </trkpt>
      <trkpt lat="48.0381" lon="6.99845">
        <ele>1113.4000244141</ele>
        <time>2022-10-09T13:09:22.000Z</time>
      </trkpt>
      <trkpt lat="48.03812" lon="6.9985">
        <ele>1113.1999511719</ele>
        <time>2022-10-09T13:09:28.000Z</time>
      </trkpt>
      <trkpt lat="48.03813" lon="6.99858">
        <ele>1113.4000244141</ele>
        <time>2022-10-09T13:09:35.000Z</time>
      </trkpt>
      <trkpt lat="48.03815" lon="6.99863">
        <ele>1113.1999511719</ele>
        <time>2022-10-09T13:09:42.000Z</time>
      </trkpt>
      <trkpt lat="48.03818" lon="6.99867">
        <ele>1113</ele>
        <time>2022-10-09T13:09:48.000Z</time>
      </trkpt>
      <trkpt lat="48.03823" lon="6.99874">
        <ele>1113</ele>
        <time>2022-10-09T13:09:57.000Z</time>
      </trkpt>
      <trkpt lat="48.0383" lon="6.99878">
        <ele>1112.8000488281</ele>
        <time>2022-10-09T13:10:05.000Z</time>
      </trkpt>
      <trkpt lat="48.03834" lon="6.99881">
        <ele>1113</ele>
        <time>2022-10-09T13:10:11.000Z</time>
      </trkpt>
      <trkpt lat="48.03835" lon="6.99881">
        <ele>1113.5999755859</ele>
        <time>2022-10-09T13:10:18.000Z</time>
      </trkpt>
      <trkpt lat="48.03833" lon="6.99881">
        <ele>1113.4000244141</ele>
        <time>2022-10-09T13:10:25.000Z</time>
      </trkpt>
      <trkpt lat="48.03838" lon="6.99881">
        <ele>1113.4000244141</ele>
        <time>2022-10-09T13:10:30.000Z</time>
      </trkpt>
      <trkpt lat="48.03837" lon="6.99883">
        <ele>1114</ele>
        <time>2022-10-09T13:10:37.000Z</time>
      </trkpt>
      <trkpt lat="48.03838" lon="6.99889">
        <ele>1114</ele>
        <time>2022-10-09T13:11:02.000Z</time>
      </trkpt>
      <trkpt lat="48.03837" lon="6.99892">
        <ele>1114</ele>
        <time>2022-10-09T13:11:09.000Z</time>
      </trkpt>
      <trkpt lat="48.03841" lon="6.99894">
        <ele>1114</ele>
        <time>2022-10-09T13:11:22.000Z</time>
      </trkpt>
      <trkpt lat="48.03849" lon="6.99898">
        <ele>1114</ele>
        <time>2022-10-09T13:11:29.000Z</time>
      </trkpt>
      <trkpt lat="48.0385" lon="6.99899">
        <ele>1114</ele>
        <time>2022-10-09T13:11:30.000Z</time>
      </trkpt>
      <trkpt lat="48.03851" lon="6.999">
        <ele>1114</ele>
        <time>2022-10-09T13:11:32.000Z</time>
      </trkpt>
      <trkpt lat="48.03855" lon="6.99903">
        <ele>1114.1999511719</ele>
        <time>2022-10-09T13:11:36.000Z</time>
      </trkpt>
      <trkpt lat="48.03858" lon="6.99906">
        <ele>1114.1999511719</ele>
        <time>2022-10-09T13:11:40.000Z</time>
      </trkpt>
      <trkpt lat="48.03863" lon="6.99914">
        <ele>1114</ele>
        <time>2022-10-09T13:11:49.000Z</time>
      </trkpt>
      <trkpt lat="48.03864" lon="6.99922">
        <ele>1114.4000244141</ele>
        <time>2022-10-09T13:11:57.000Z</time>
      </trkpt>
      <trkpt lat="48.03865" lon="6.99925">
        <ele>1114.8000488281</ele>
        <time>2022-10-09T13:12:04.000Z</time>
      </trkpt>
      <trkpt lat="48.03867" lon="6.99929">
        <ele>1114.5999755859</ele>
        <time>2022-10-09T13:12:12.000Z</time>
      </trkpt>
      <trkpt lat="48.03866" lon="6.99933">
        <ele>1114.1999511719</ele>
        <time>2022-10-09T13:12:19.000Z</time>
      </trkpt>
      <trkpt lat="48.03865" lon="6.99932">
        <ele>1114.4000244141</ele>
        <time>2022-10-09T13:12:24.000Z</time>
      </trkpt>
      <trkpt lat="48.03865" lon="6.99933">
        <ele>1114.4000244141</ele>
        <time>2022-10-09T13:12:30.000Z</time>
      </trkpt>
      <trkpt lat="48.03864" lon="6.99935">
        <ele>1114.5999755859</ele>
        <time>2022-10-09T13:12:51.000Z</time>
      </trkpt>
      <trkpt lat="48.03856" lon="6.99936">
        <ele>1114.1999511719</ele>
        <time>2022-10-09T13:13:14.000Z</time>
      </trkpt>
      <trkpt lat="48.0386" lon="6.99931">
        <ele>1113.8000488281</ele>
        <time>2022-10-09T13:13:19.000Z</time>
      </trkpt>
      <trkpt lat="48.03863" lon="6.9993">
        <ele>1113.8000488281</ele>
        <time>2022-10-09T13:13:22.000Z</time>
      </trkpt>
      <trkpt lat="48.03867" lon="6.99929">
        <ele>1114</ele>
        <time>2022-10-09T13:13:26.000Z</time>
      </trkpt>
      <trkpt lat="48.03871" lon="6.99926">
        <ele>1113.8000488281</ele>
        <time>2022-10-09T13:13:32.000Z</time>
      </trkpt>
      <trkpt lat="48.03872" lon="6.99924">
        <ele>1113.5999755859</ele>
        <time>2022-10-09T13:13:35.000Z</time>
      </trkpt>
      <trkpt lat="48.03874" lon="6.99922">
        <ele>1113.5999755859</ele>
        <time>2022-10-09T13:13:39.000Z</time>
      </trkpt>
      <trkpt lat="48.03876" lon="6.99923">
        <ele>1113.8000488281</ele>
        <time>2022-10-09T13:13:46.000Z</time>
      </trkpt>
      <trkpt lat="48.03879" lon="6.99927">
        <ele>1114.1999511719</ele>
        <time>2022-10-09T13:13:51.000Z</time>
      </trkpt>
      <trkpt lat="48.03879" lon="6.99928">
        <ele>1114.1999511719</ele>
        <time>2022-10-09T13:13:52.000Z</time>
      </trkpt>
      <trkpt lat="48.03879" lon="6.99929">
        <ele>1114</ele>
        <time>2022-10-09T13:13:55.000Z</time>
      </trkpt>
      <trkpt lat="48.03878" lon="6.99929">
        <ele>1114</ele>
        <time>2022-10-09T13:13:57.000Z</time>
      </trkpt>
      <trkpt lat="48.03877" lon="6.99927">
        <ele>1114</ele>
        <time>2022-10-09T13:13:58.000Z</time>
      </trkpt>
      <trkpt lat="48.03879" lon="6.99926">
        <ele>1114</ele>
        <time>2022-10-09T13:14:03.000Z</time>
      </trkpt>
      <trkpt lat="48.03881" lon="6.99929">
        <ele>1113.8000488281</ele>
        <time>2022-10-09T13:14:08.000Z</time>
      </trkpt>
      <trkpt lat="48.03882" lon="6.99929">
        <ele>1113.8000488281</ele>
        <time>2022-10-09T13:14:09.000Z</time>
      </trkpt>
      <trkpt lat="48.03882" lon="6.9994">
        <ele>1114</ele>
        <time>2022-10-09T13:14:22.000Z</time>
      </trkpt>
      <trkpt lat="48.03882" lon="6.99946">
        <ele>1114</ele>
        <time>2022-10-09T13:14:25.000Z</time>
      </trkpt>
      <trkpt lat="48.03883" lon="6.9995">
        <ele>1114</ele>
        <time>2022-10-09T13:14:27.000Z</time>
      </trkpt>
      <trkpt lat="48.03885" lon="6.99953">
        <ele>1113.8000488281</ele>
        <time>2022-10-09T13:14:30.000Z</time>
      </trkpt>
      <trkpt lat="48.03885" lon="6.99956">
        <ele>1113.5999755859</ele>
        <time>2022-10-09T13:14:32.000Z</time>
      </trkpt>
      <trkpt lat="48.03886" lon="6.99962">
        <ele>1113.5999755859</ele>
        <time>2022-10-09T13:14:36.000Z</time>
      </trkpt>
      <trkpt lat="48.03888" lon="6.99969">
        <ele>1113.5999755859</ele>
        <time>2022-10-09T13:14:45.000Z</time>
      </trkpt>
      <trkpt lat="48.03891" lon="6.99969">
        <ele>1113.4000244141</ele>
        <time>2022-10-09T13:14:50.000Z</time>
      </trkpt>
      <trkpt lat="48.03893" lon="6.99969">
        <ele>1113.1999511719</ele>
        <time>2022-10-09T13:14:53.000Z</time>
      </trkpt>
      <trkpt lat="48.03897" lon="6.99973">
        <ele>1112.8000488281</ele>
        <time>2022-10-09T13:14:58.000Z</time>
      </trkpt>
      <trkpt lat="48.03897" lon="6.99974">
        <ele>1112.8000488281</ele>
        <time>2022-10-09T13:15:01.000Z</time>
      </trkpt>
      <trkpt lat="48.03897" lon="6.99974">
        <ele>1112.5999755859</ele>
        <time>2022-10-09T13:15:03.000Z</time>
      </trkpt>
      <trkpt lat="48.03896" lon="6.99977">
        <ele>1112.5999755859</ele>
        <time>2022-10-09T13:15:11.000Z</time>
      </trkpt>
      <trkpt lat="48.039" lon="6.99973">
        <ele>1112.4000244141</ele>
        <time>2022-10-09T13:15:17.000Z</time>
      </trkpt>
      <trkpt lat="48.03906" lon="6.99969">
        <ele>1112.4000244141</ele>
        <time>2022-10-09T13:15:25.000Z</time>
      </trkpt>
      <trkpt lat="48.03909" lon="6.99958">
        <ele>1112.1999511719</ele>
        <time>2022-10-09T13:15:32.000Z</time>
      </trkpt>
      <trkpt lat="48.03913" lon="6.99956">
        <ele>1112.1999511719</ele>
        <time>2022-10-09T13:15:36.000Z</time>
      </trkpt>
      <trkpt lat="48.03914" lon="6.99955">
        <ele>1112.1999511719</ele>
        <time>2022-10-09T13:15:37.000Z</time>
      </trkpt>
      <trkpt lat="48.03918" lon="6.99951">
        <ele>1112.1999511719</ele>
        <time>2022-10-09T13:15:42.000Z</time>
      </trkpt>
      <trkpt lat="48.03921" lon="6.9995">
        <ele>1112.1999511719</ele>
        <time>2022-10-09T13:15:45.000Z</time>
      </trkpt>
      <trkpt lat="48.03925" lon="6.99948">
        <ele>1112.4000244141</ele>
        <time>2022-10-09T13:15:49.000Z</time>
      </trkpt>
      <trkpt lat="48.03926" lon="6.99947">
        <ele>1112.4000244141</ele>
        <time>2022-10-09T13:15:52.000Z</time>
      </trkpt>
      <trkpt lat="48.03929" lon="6.99948">
        <ele>1112.4000244141</ele>
        <time>2022-10-09T13:15:58.000Z</time>
      </trkpt>
      <trkpt lat="48.03928" lon="6.99941">
        <ele>1112.5999755859</ele>
        <time>2022-10-09T13:16:07.000Z</time>
      </trkpt>
      <trkpt lat="48.0393" lon="6.9994">
        <ele>1112.5999755859</ele>
        <time>2022-10-09T13:16:13.000Z</time>
      </trkpt>
      <trkpt lat="48.03932" lon="6.99935">
        <ele>1112.8000488281</ele>
        <time>2022-10-09T13:16:20.000Z</time>
      </trkpt>
      <trkpt lat="48.03935" lon="6.99936">
        <ele>1113</ele>
        <time>2022-10-09T13:16:27.000Z</time>
      </trkpt>
      <trkpt lat="48.03935" lon="6.99935">
        <ele>1113.1999511719</ele>
        <time>2022-10-09T13:16:35.000Z</time>
      </trkpt>
      <trkpt lat="48.03937" lon="6.99933">
        <ele>1113</ele>
        <time>2022-10-09T13:16:55.000Z</time>
      </trkpt>
      <trkpt lat="48.0394" lon="6.99928">
        <ele>1113</ele>
        <time>2022-10-09T13:16:58.000Z</time>
      </trkpt>
      <trkpt lat="48.03947" lon="6.99914">
        <ele>1113</ele>
        <time>2022-10-09T13:17:07.000Z</time>
      </trkpt>
      <trkpt lat="48.03949" lon="6.99912">
        <ele>1112.8000488281</ele>
        <time>2022-10-09T13:17:09.000Z</time>
      </trkpt>
      <trkpt lat="48.03951" lon="6.99911">
        <ele>1112.8000488281</ele>
        <time>2022-10-09T13:17:13.000Z</time>
      </trkpt>
      <trkpt lat="48.03955" lon="6.99906">
        <ele>1112.5999755859</ele>
        <time>2022-10-09T13:17:20.000Z</time>
      </trkpt>
      <trkpt lat="48.03956" lon="6.99905">
        <ele>1112.5999755859</ele>
        <time>2022-10-09T13:17:21.000Z</time>
      </trkpt>
      <trkpt lat="48.03961" lon="6.99904">
        <ele>1112.4000244141</ele>
        <time>2022-10-09T13:17:27.000Z</time>
      </trkpt>
      <trkpt lat="48.03963" lon="6.99903">
        <ele>1112.5999755859</ele>
        <time>2022-10-09T13:17:32.000Z</time>
      </trkpt>
      <trkpt lat="48.03968" lon="6.99904">
        <ele>1112.5999755859</ele>
        <time>2022-10-09T13:17:39.000Z</time>
      </trkpt>
      <trkpt lat="48.0397" lon="6.99906">
        <ele>1112.5999755859</ele>
        <time>2022-10-09T13:17:42.000Z</time>
      </trkpt>
      <trkpt lat="48.03972" lon="6.99907">
        <ele>1112.8000488281</ele>
        <time>2022-10-09T13:17:44.000Z</time>
      </trkpt>
      <trkpt lat="48.03973" lon="6.99908">
        <ele>1112.8000488281</ele>
        <time>2022-10-09T13:17:45.000Z</time>
      </trkpt>
      <trkpt lat="48.03979" lon="6.99907">
        <ele>1112.8000488281</ele>
        <time>2022-10-09T13:17:50.000Z</time>
      </trkpt>
      <trkpt lat="48.03982" lon="6.99905">
        <ele>1112.8000488281</ele>
        <time>2022-10-09T13:17:53.000Z</time>
      </trkpt>
      <trkpt lat="48.03984" lon="6.99903">
        <ele>1113</ele>
        <time>2022-10-09T13:17:57.000Z</time>
      </trkpt>
      <trkpt lat="48.03985" lon="6.99903">
        <ele>1113</ele>
        <time>2022-10-09T13:17:58.000Z</time>
      </trkpt>
      <trkpt lat="48.03986" lon="6.99906">
        <ele>1112.5999755859</ele>
        <time>2022-10-09T13:18:06.000Z</time>
      </trkpt>
      <trkpt lat="48.0399" lon="6.99908">
        <ele>1112.5999755859</ele>
        <time>2022-10-09T13:18:14.000Z</time>
      </trkpt>
      <trkpt lat="48.03996" lon="6.99912">
        <ele>1112.4000244141</ele>
        <time>2022-10-09T13:18:20.000Z</time>
      </trkpt>
      <trkpt lat="48.04001" lon="6.99918">
        <ele>1112.5999755859</ele>
        <time>2022-10-09T13:18:26.000Z</time>
      </trkpt>
      <trkpt lat="48.04001" lon="6.99918">
        <ele>1112.5999755859</ele>
        <time>2022-10-09T13:18:27.000Z</time>
      </trkpt>
      <trkpt lat="48.04002" lon="6.99917">
        <ele>1112.8000488281</ele>
        <time>2022-10-09T13:18:31.000Z</time>
      </trkpt>
      <trkpt lat="48.04007" lon="6.99918">
        <ele>1112.8000488281</ele>
        <time>2022-10-09T13:18:37.000Z</time>
      </trkpt>
      <trkpt lat="48.04013" lon="6.99921">
        <ele>1112.8000488281</ele>
        <time>2022-10-09T13:18:43.000Z</time>
      </trkpt>
      <trkpt lat="48.04015" lon="6.99922">
        <ele>1113</ele>
        <time>2022-10-09T13:18:45.000Z</time>
      </trkpt>
      <trkpt lat="48.04021" lon="6.99924">
        <ele>1113.4000244141</ele>
        <time>2022-10-09T13:18:52.000Z</time>
      </trkpt>
      <trkpt lat="48.04026" lon="6.99923">
        <ele>1113.5999755859</ele>
        <time>2022-10-09T13:18:57.000Z</time>
      </trkpt>
      <trkpt lat="48.04026" lon="6.99922">
        <ele>1113.8000488281</ele>
        <time>2022-10-09T13:18:58.000Z</time>
      </trkpt>
      <trkpt lat="48.04033" lon="6.99921">
        <ele>1114.4000244141</ele>
        <time>2022-10-09T13:19:04.000Z</time>
      </trkpt>
      <trkpt lat="48.04038" lon="6.99922">
        <ele>1114.5999755859</ele>
        <time>2022-10-09T13:19:12.000Z</time>
      </trkpt>
      <trkpt lat="48.0404" lon="6.99921">
        <ele>1114.8000488281</ele>
        <time>2022-10-09T13:19:16.000Z</time>
      </trkpt>
      <trkpt lat="48.04042" lon="6.99921">
        <ele>1114.8000488281</ele>
        <time>2022-10-09T13:19:18.000Z</time>
      </trkpt>
      <trkpt lat="48.04047" lon="6.99921">
        <ele>1115.4000244141</ele>
        <time>2022-10-09T13:19:23.000Z</time>
      </trkpt>
      <trkpt lat="48.04049" lon="6.99922">
        <ele>1115.5999755859</ele>
        <time>2022-10-09T13:19:26.000Z</time>
      </trkpt>
      <trkpt lat="48.0405" lon="6.99921">
        <ele>1115.8000488281</ele>
        <time>2022-10-09T13:19:27.000Z</time>
      </trkpt>
      <trkpt lat="48.04051" lon="6.99921">
        <ele>1115.8000488281</ele>
        <time>2022-10-09T13:19:28.000Z</time>
      </trkpt>
      <trkpt lat="48.04052" lon="6.99921">
        <ele>1116.1999511719</ele>
        <time>2022-10-09T13:19:30.000Z</time>
      </trkpt>
      <trkpt lat="48.04054" lon="6.99921">
        <ele>1116.4000244141</ele>
        <time>2022-10-09T13:19:32.000Z</time>
      </trkpt>
      <trkpt lat="48.04056" lon="6.99921">
        <ele>1116.4000244141</ele>
        <time>2022-10-09T13:19:33.000Z</time>
      </trkpt>
      <trkpt lat="48.04058" lon="6.99922">
        <ele>1116.5999755859</ele>
        <time>2022-10-09T13:19:35.000Z</time>
      </trkpt>
      <trkpt lat="48.0406" lon="6.99923">
        <ele>1116.8000488281</ele>
        <time>2022-10-09T13:19:37.000Z</time>
      </trkpt>
      <trkpt lat="48.04063" lon="6.99924">
        <ele>1116.8000488281</ele>
        <time>2022-10-09T13:19:40.000Z</time>
      </trkpt>
      <trkpt lat="48.04065" lon="6.99924">
        <ele>1117</ele>
        <time>2022-10-09T13:19:42.000Z</time>
      </trkpt>
      <trkpt lat="48.04072" lon="6.99925">
        <ele>1117.1999511719</ele>
        <time>2022-10-09T13:19:48.000Z</time>
      </trkpt>
      <trkpt lat="48.04074" lon="6.99926">
        <ele>1117.1999511719</ele>
        <time>2022-10-09T13:19:51.000Z</time>
      </trkpt>
      <trkpt lat="48.04078" lon="6.99925">
        <ele>1117.4000244141</ele>
        <time>2022-10-09T13:19:57.000Z</time>
      </trkpt>
      <trkpt lat="48.04079" lon="6.9992">
        <ele>1117.1999511719</ele>
        <time>2022-10-09T13:20:05.000Z</time>
      </trkpt>
      <trkpt lat="48.04086" lon="6.99918">
        <ele>1117.1999511719</ele>
        <time>2022-10-09T13:20:11.000Z</time>
      </trkpt>
      <trkpt lat="48.04088" lon="6.99917">
        <ele>1117.4000244141</ele>
        <time>2022-10-09T13:20:13.000Z</time>
      </trkpt>
      <trkpt lat="48.04094" lon="6.99916">
        <ele>1117.4000244141</ele>
        <time>2022-10-09T13:20:18.000Z</time>
      </trkpt>
      <trkpt lat="48.04096" lon="6.99915">
        <ele>1117.4000244141</ele>
        <time>2022-10-09T13:20:20.000Z</time>
      </trkpt>
      <trkpt lat="48.04099" lon="6.99912">
        <ele>1117.4000244141</ele>
        <time>2022-10-09T13:20:23.000Z</time>
      </trkpt>
      <trkpt lat="48.04102" lon="6.9991">
        <ele>1117.8000488281</ele>
        <time>2022-10-09T13:20:27.000Z</time>
      </trkpt>
      <trkpt lat="48.04103" lon="6.99911">
        <ele>1118</ele>
        <time>2022-10-09T13:20:28.000Z</time>
      </trkpt>
      <trkpt lat="48.04106" lon="6.99916">
        <ele>1118.4000244141</ele>
        <time>2022-10-09T13:20:33.000Z</time>
      </trkpt>
      <trkpt lat="48.04108" lon="6.99915">
        <ele>1118.5999755859</ele>
        <time>2022-10-09T13:20:39.000Z</time>
      </trkpt>
      <trkpt lat="48.04117" lon="6.99913">
        <ele>1118.8000488281</ele>
        <time>2022-10-09T13:20:50.000Z</time>
      </trkpt>
      <trkpt lat="48.04118" lon="6.99913">
        <ele>1119</ele>
        <time>2022-10-09T13:20:51.000Z</time>
      </trkpt>
      <trkpt lat="48.0412" lon="6.99912">
        <ele>1119</ele>
        <time>2022-10-09T13:20:53.000Z</time>
      </trkpt>
      <trkpt lat="48.04124" lon="6.99907">
        <ele>1119.4000244141</ele>
        <time>2022-10-09T13:20:58.000Z</time>
      </trkpt>
      <trkpt lat="48.04129" lon="6.99904">
        <ele>1120</ele>
        <time>2022-10-09T13:21:05.000Z</time>
      </trkpt>
      <trkpt lat="48.04131" lon="6.99906">
        <ele>1120</ele>
        <time>2022-10-09T13:21:11.000Z</time>
      </trkpt>
      <trkpt lat="48.04129" lon="6.99902">
        <ele>1119.5999755859</ele>
        <time>2022-10-09T13:21:19.000Z</time>
      </trkpt>
      <trkpt lat="48.04127" lon="6.99898">
        <ele>1119.5999755859</ele>
        <time>2022-10-09T13:21:24.000Z</time>
      </trkpt>
      <trkpt lat="48.04128" lon="6.99894">
        <ele>1119.5999755859</ele>
        <time>2022-10-09T13:21:26.000Z</time>
      </trkpt>
      <trkpt lat="48.04128" lon="6.99886">
        <ele>1119.5999755859</ele>
        <time>2022-10-09T13:21:35.000Z</time>
      </trkpt>
      <trkpt lat="48.04129" lon="6.99886">
        <ele>1119.4000244141</ele>
        <time>2022-10-09T13:21:43.000Z</time>
      </trkpt>
      <trkpt lat="48.04128" lon="6.99891">
        <ele>1119.5999755859</ele>
        <time>2022-10-09T13:21:47.000Z</time>
      </trkpt>
      <trkpt lat="48.04129" lon="6.99904">
        <ele>1119.4000244141</ele>
        <time>2022-10-09T13:21:55.000Z</time>
      </trkpt>
      <trkpt lat="48.04133" lon="6.99915">
        <ele>1120.5999755859</ele>
        <time>2022-10-09T13:22:03.000Z</time>
      </trkpt>
      <trkpt lat="48.04134" lon="6.99918">
        <ele>1121</ele>
        <time>2022-10-09T13:22:06.000Z</time>
      </trkpt>
      <trkpt lat="48.04133" lon="6.99916">
        <ele>1121.1999511719</ele>
        <time>2022-10-09T13:22:09.000Z</time>
      </trkpt>
      <trkpt lat="48.04135" lon="6.99917">
        <ele>1121.1999511719</ele>
        <time>2022-10-09T13:22:14.000Z</time>
      </trkpt>
      <trkpt lat="48.0414" lon="6.99913">
        <ele>1120.8000488281</ele>
        <time>2022-10-09T13:22:21.000Z</time>
      </trkpt>
      <trkpt lat="48.04147" lon="6.99909">
        <ele>1120.1999511719</ele>
        <time>2022-10-09T13:22:29.000Z</time>
      </trkpt>
      <trkpt lat="48.04148" lon="6.99908">
        <ele>1120</ele>
        <time>2022-10-09T13:22:30.000Z</time>
      </trkpt>
      <trkpt lat="48.0415" lon="6.99906">
        <ele>1119.8000488281</ele>
        <time>2022-10-09T13:22:32.000Z</time>
      </trkpt>
      <trkpt lat="48.04152" lon="6.99905">
        <ele>1119.5999755859</ele>
        <time>2022-10-09T13:22:34.000Z</time>
      </trkpt>
      <trkpt lat="48.04153" lon="6.99904">
        <ele>1119.5999755859</ele>
        <time>2022-10-09T13:22:35.000Z</time>
      </trkpt>
      <trkpt lat="48.04159" lon="6.999">
        <ele>1119.1999511719</ele>
        <time>2022-10-09T13:22:42.000Z</time>
      </trkpt>
      <trkpt lat="48.0416" lon="6.99898">
        <ele>1119.1999511719</ele>
        <time>2022-10-09T13:22:43.000Z</time>
      </trkpt>
      <trkpt lat="48.04161" lon="6.99895">
        <ele>1119.1999511719</ele>
        <time>2022-10-09T13:22:45.000Z</time>
      </trkpt>
      <trkpt lat="48.04163" lon="6.99892">
        <ele>1119.1999511719</ele>
        <time>2022-10-09T13:22:48.000Z</time>
      </trkpt>
      <trkpt lat="48.04168" lon="6.99887">
        <ele>1119.1999511719</ele>
        <time>2022-10-09T13:22:56.000Z</time>
      </trkpt>
      <trkpt lat="48.04177" lon="6.99881">
        <ele>1119.1999511719</ele>
        <time>2022-10-09T13:23:04.000Z</time>
      </trkpt>
      <trkpt lat="48.04181" lon="6.99875">
        <ele>1119.1999511719</ele>
        <time>2022-10-09T13:23:09.000Z</time>
      </trkpt>
      <trkpt lat="48.04183" lon="6.99879">
        <ele>1119.1999511719</ele>
        <time>2022-10-09T13:23:15.000Z</time>
      </trkpt>
      <trkpt lat="48.04182" lon="6.9988">
        <ele>1119.1999511719</ele>
        <time>2022-10-09T13:23:21.000Z</time>
      </trkpt>
      <trkpt lat="48.04185" lon="6.99878">
        <ele>1119.1999511719</ele>
        <time>2022-10-09T13:23:28.000Z</time>
      </trkpt>
      <trkpt lat="48.04193" lon="6.99873">
        <ele>1115</ele>
        <time>2022-10-09T13:23:37.000Z</time>
      </trkpt>
      <trkpt lat="48.04199" lon="6.99857">
        <ele>1114.5999755859</ele>
        <time>2022-10-09T13:23:45.000Z</time>
      </trkpt>
      <trkpt lat="48.04203" lon="6.99857">
        <ele>1114.4000244141</ele>
        <time>2022-10-09T13:23:49.000Z</time>
      </trkpt>
      <trkpt lat="48.04205" lon="6.99855">
        <ele>1114.1999511719</ele>
        <time>2022-10-09T13:23:52.000Z</time>
      </trkpt>
      <trkpt lat="48.04208" lon="6.99854">
        <ele>1114</ele>
        <time>2022-10-09T13:23:55.000Z</time>
      </trkpt>
      <trkpt lat="48.0421" lon="6.99849">
        <ele>1113.4000244141</ele>
        <time>2022-10-09T13:24:00.000Z</time>
      </trkpt>
      <trkpt lat="48.04214" lon="6.99841">
        <ele>1113.1999511719</ele>
        <time>2022-10-09T13:24:07.000Z</time>
      </trkpt>
      <trkpt lat="48.04218" lon="6.99839">
        <ele>1112.8000488281</ele>
        <time>2022-10-09T13:24:13.000Z</time>
      </trkpt>
      <trkpt lat="48.04223" lon="6.99837">
        <ele>1112.4000244141</ele>
        <time>2022-10-09T13:24:18.000Z</time>
      </trkpt>
      <trkpt lat="48.04226" lon="6.99842">
        <ele>1112.1999511719</ele>
        <time>2022-10-09T13:24:23.000Z</time>
      </trkpt>
      <trkpt lat="48.0423" lon="6.99843">
        <ele>1112</ele>
        <time>2022-10-09T13:24:28.000Z</time>
      </trkpt>
      <trkpt lat="48.0423" lon="6.99843">
        <ele>1111.8000488281</ele>
        <time>2022-10-09T13:24:29.000Z</time>
      </trkpt>
      <trkpt lat="48.04234" lon="6.99844">
        <ele>1111.1999511719</ele>
        <time>2022-10-09T13:24:34.000Z</time>
      </trkpt>
      <trkpt lat="48.04237" lon="6.99843">
        <ele>1110.8000488281</ele>
        <time>2022-10-09T13:24:38.000Z</time>
      </trkpt>
      <trkpt lat="48.04238" lon="6.99843">
        <ele>1110.8000488281</ele>
        <time>2022-10-09T13:24:39.000Z</time>
      </trkpt>
      <trkpt lat="48.0424" lon="6.9984">
        <ele>1110.5999755859</ele>
        <time>2022-10-09T13:24:42.000Z</time>
      </trkpt>
      <trkpt lat="48.04245" lon="6.99842">
        <ele>1110.4000244141</ele>
        <time>2022-10-09T13:24:46.000Z</time>
      </trkpt>
      <trkpt lat="48.04248" lon="6.99842">
        <ele>1110.4000244141</ele>
        <time>2022-10-09T13:24:49.000Z</time>
      </trkpt>
      <trkpt lat="48.04254" lon="6.9984">
        <ele>1110.4000244141</ele>
        <time>2022-10-09T13:24:53.000Z</time>
      </trkpt>
      <trkpt lat="48.04255" lon="6.9984">
        <ele>1110.4000244141</ele>
        <time>2022-10-09T13:24:54.000Z</time>
      </trkpt>
      <trkpt lat="48.04265" lon="6.99835">
        <ele>1110.5999755859</ele>
        <time>2022-10-09T13:25:03.000Z</time>
      </trkpt>
      <trkpt lat="48.0427" lon="6.99833">
        <ele>1110.5999755859</ele>
        <time>2022-10-09T13:25:06.000Z</time>
      </trkpt>
      <trkpt lat="48.04275" lon="6.99831">
        <ele>1110.5999755859</ele>
        <time>2022-10-09T13:25:09.000Z</time>
      </trkpt>
      <trkpt lat="48.04282" lon="6.99829">
        <ele>1110.5999755859</ele>
        <time>2022-10-09T13:25:15.000Z</time>
      </trkpt>
      <trkpt lat="48.04286" lon="6.9983">
        <ele>1110</ele>
        <time>2022-10-09T13:25:22.000Z</time>
      </trkpt>
      <trkpt lat="48.04291" lon="6.9983">
        <ele>1109.8000488281</ele>
        <time>2022-10-09T13:25:28.000Z</time>
      </trkpt>
      <trkpt lat="48.04293" lon="6.99831">
        <ele>1109.8000488281</ele>
        <time>2022-10-09T13:25:30.000Z</time>
      </trkpt>
      <trkpt lat="48.04299" lon="6.99835">
        <ele>1109.4000244141</ele>
        <time>2022-10-09T13:25:37.000Z</time>
      </trkpt>
      <trkpt lat="48.04307" lon="6.99849">
        <ele>1109.1999511719</ele>
        <time>2022-10-09T13:25:44.000Z</time>
      </trkpt>
      <trkpt lat="48.04315" lon="6.99862">
        <ele>1109</ele>
        <time>2022-10-09T13:25:52.000Z</time>
      </trkpt>
      <trkpt lat="48.04317" lon="6.99864">
        <ele>1108.8000488281</ele>
        <time>2022-10-09T13:25:55.000Z</time>
      </trkpt>
      <trkpt lat="48.04319" lon="6.99864">
        <ele>1108.4000244141</ele>
        <time>2022-10-09T13:25:59.000Z</time>
      </trkpt>
      <trkpt lat="48.04324" lon="6.99873">
        <ele>1107.8000488281</ele>
        <time>2022-10-09T13:26:07.000Z</time>
      </trkpt>
      <trkpt lat="48.04328" lon="6.99885">
        <ele>1108</ele>
        <time>2022-10-09T13:26:14.000Z</time>
      </trkpt>
      <trkpt lat="48.04332" lon="6.9989">
        <ele>1108.1999511719</ele>
        <time>2022-10-09T13:26:21.000Z</time>
      </trkpt>
      <trkpt lat="48.04336" lon="6.99894">
        <ele>1108</ele>
        <time>2022-10-09T13:26:27.000Z</time>
      </trkpt>
      <trkpt lat="48.0434" lon="6.99898">
        <ele>1107.8000488281</ele>
        <time>2022-10-09T13:26:34.000Z</time>
      </trkpt>
      <trkpt lat="48.0434" lon="6.99899">
        <ele>1107.5999755859</ele>
        <time>2022-10-09T13:26:35.000Z</time>
      </trkpt>
      <trkpt lat="48.04342" lon="6.99902">
        <ele>1107.5999755859</ele>
        <time>2022-10-09T13:26:37.000Z</time>
      </trkpt>
      <trkpt lat="48.04348" lon="6.99908">
        <ele>1107.5999755859</ele>
        <time>2022-10-09T13:26:43.000Z</time>
      </trkpt>
      <trkpt lat="48.04351" lon="6.9991">
        <ele>1107.1999511719</ele>
        <time>2022-10-09T13:26:49.000Z</time>
      </trkpt>
      <trkpt lat="48.04356" lon="6.99919">
        <ele>1106.5999755859</ele>
        <time>2022-10-09T13:26:56.000Z</time>
      </trkpt>
      <trkpt lat="48.04357" lon="6.99921">
        <ele>1106.5999755859</ele>
        <time>2022-10-09T13:26:57.000Z</time>
      </trkpt>
      <trkpt lat="48.04363" lon="6.99929">
        <ele>1106.4000244141</ele>
        <time>2022-10-09T13:27:03.000Z</time>
      </trkpt>
      <trkpt lat="48.04366" lon="6.99935">
        <ele>1106.1999511719</ele>
        <time>2022-10-09T13:27:09.000Z</time>
      </trkpt>
      <trkpt lat="48.04369" lon="6.99939">
        <ele>1106.4000244141</ele>
        <time>2022-10-09T13:27:14.000Z</time>
      </trkpt>
      <trkpt lat="48.0437" lon="6.9994">
        <ele>1106.4000244141</ele>
        <time>2022-10-09T13:27:15.000Z</time>
      </trkpt>
      <trkpt lat="48.0438" lon="6.99957">
        <ele>1106</ele>
        <time>2022-10-09T13:27:23.000Z</time>
      </trkpt>
      <trkpt lat="48.04381" lon="6.99958">
        <ele>1106</ele>
        <time>2022-10-09T13:27:24.000Z</time>
      </trkpt>
      <trkpt lat="48.04385" lon="6.99963">
        <ele>1106.1999511719</ele>
        <time>2022-10-09T13:27:30.000Z</time>
      </trkpt>
      <trkpt lat="48.04385" lon="6.99964">
        <ele>1106.1999511719</ele>
        <time>2022-10-09T13:27:31.000Z</time>
      </trkpt>
      <trkpt lat="48.04387" lon="6.9997">
        <ele>1106.1999511719</ele>
        <time>2022-10-09T13:27:37.000Z</time>
      </trkpt>
      <trkpt lat="48.04387" lon="6.99971">
        <ele>1106.1999511719</ele>
        <time>2022-10-09T13:27:38.000Z</time>
      </trkpt>
      <trkpt lat="48.04389" lon="6.99975">
        <ele>1106.4000244141</ele>
        <time>2022-10-09T13:27:43.000Z</time>
      </trkpt>
      <trkpt lat="48.04391" lon="6.99975">
        <ele>1106.4000244141</ele>
        <time>2022-10-09T13:27:48.000Z</time>
      </trkpt>
      <trkpt lat="48.04394" lon="6.99978">
        <ele>1106.4000244141</ele>
        <time>2022-10-09T13:27:52.000Z</time>
      </trkpt>
      <trkpt lat="48.04399" lon="6.99983">
        <ele>1106.5999755859</ele>
        <time>2022-10-09T13:27:58.000Z</time>
      </trkpt>
      <trkpt lat="48.04401" lon="6.99986">
        <ele>1106.5999755859</ele>
        <time>2022-10-09T13:28:02.000Z</time>
      </trkpt>
      <trkpt lat="48.04403" lon="6.99988">
        <ele>1106.5999755859</ele>
        <time>2022-10-09T13:28:05.000Z</time>
      </trkpt>
      <trkpt lat="48.04407" lon="6.99998">
        <ele>1106.5999755859</ele>
        <time>2022-10-09T13:28:11.000Z</time>
      </trkpt>
      <trkpt lat="48.04409" lon="7.00001">
        <ele>1106.8000488281</ele>
        <time>2022-10-09T13:28:17.000Z</time>
      </trkpt>
      <trkpt lat="48.04408" lon="7.00003">
        <ele>1107</ele>
        <time>2022-10-09T13:28:24.000Z</time>
      </trkpt>
      <trkpt lat="48.0441" lon="7.00003">
        <ele>1106.5999755859</ele>
        <time>2022-10-09T13:28:35.000Z</time>
      </trkpt>
      <trkpt lat="48.0441" lon="7.00003">
        <ele>1107.5999755859</ele>
        <time>2022-10-09T13:28:44.000Z</time>
      </trkpt>
      <trkpt lat="48.04411" lon="7.00005">
        <ele>1107.5999755859</ele>
        <time>2022-10-09T13:28:47.000Z</time>
      </trkpt>
      <trkpt lat="48.04418" lon="7.00017">
        <ele>1107.8000488281</ele>
        <time>2022-10-09T13:28:51.000Z</time>
      </trkpt>
      <trkpt lat="48.04429" lon="7.00039">
        <ele>1108.5999755859</ele>
        <time>2022-10-09T13:28:59.000Z</time>
      </trkpt>
      <trkpt lat="48.04429" lon="7.0004">
        <ele>1108.5999755859</ele>
        <time>2022-10-09T13:29:00.000Z</time>
      </trkpt>
      <trkpt lat="48.0443" lon="7.00041">
        <ele>1108.5999755859</ele>
        <time>2022-10-09T13:29:01.000Z</time>
      </trkpt>
      <trkpt lat="48.04431" lon="7.00047">
        <ele>1108.5999755859</ele>
        <time>2022-10-09T13:29:04.000Z</time>
      </trkpt>
      <trkpt lat="48.04435" lon="7.00055">
        <ele>1108.8000488281</ele>
        <time>2022-10-09T13:29:08.000Z</time>
      </trkpt>
      <trkpt lat="48.04435" lon="7.00057">
        <ele>1109</ele>
        <time>2022-10-09T13:29:09.000Z</time>
      </trkpt>
      <trkpt lat="48.04436" lon="7.00064">
        <ele>1109.1999511719</ele>
        <time>2022-10-09T13:29:13.000Z</time>
      </trkpt>
      <trkpt lat="48.04437" lon="7.00066">
        <ele>1109.5999755859</ele>
        <time>2022-10-09T13:29:15.000Z</time>
      </trkpt>
      <trkpt lat="48.04437" lon="7.00066">
        <ele>1109.8000488281</ele>
        <time>2022-10-09T13:29:17.000Z</time>
      </trkpt>
      <trkpt lat="48.04439" lon="7.00066">
        <ele>1110.1999511719</ele>
        <time>2022-10-09T13:29:21.000Z</time>
      </trkpt>
      <trkpt lat="48.0444" lon="7.00073">
        <ele>1110.5999755859</ele>
        <time>2022-10-09T13:29:28.000Z</time>
      </trkpt>
      <trkpt lat="48.04443" lon="7.00081">
        <ele>1110.8000488281</ele>
        <time>2022-10-09T13:29:33.000Z</time>
      </trkpt>
      <trkpt lat="48.04443" lon="7.00083">
        <ele>1111</ele>
        <time>2022-10-09T13:29:34.000Z</time>
      </trkpt>
      <trkpt lat="48.04442" lon="7.00095">
        <ele>1111.1999511719</ele>
        <time>2022-10-09T13:29:41.000Z</time>
      </trkpt>
      <trkpt lat="48.04443" lon="7.00105">
        <ele>1111.1999511719</ele>
        <time>2022-10-09T13:29:49.000Z</time>
      </trkpt>
      <trkpt lat="48.04442" lon="7.00105">
        <ele>1111.4000244141</ele>
        <time>2022-10-09T13:29:54.000Z</time>
      </trkpt>
      <trkpt lat="48.04442" lon="7.00104">
        <ele>1111.5999755859</ele>
        <time>2022-10-09T13:29:59.000Z</time>
      </trkpt>
      <trkpt lat="48.04444" lon="7.00114">
        <ele>1111.5999755859</ele>
        <time>2022-10-09T13:30:06.000Z</time>
      </trkpt>
      <trkpt lat="48.04444" lon="7.00122">
        <ele>1111.5999755859</ele>
        <time>2022-10-09T13:30:14.000Z</time>
      </trkpt>
      <trkpt lat="48.04445" lon="7.00126">
        <ele>1112</ele>
        <time>2022-10-09T13:30:17.000Z</time>
      </trkpt>
      <trkpt lat="48.04447" lon="7.00132">
        <ele>1112.1999511719</ele>
        <time>2022-10-09T13:30:21.000Z</time>
      </trkpt>
      <trkpt lat="48.04447" lon="7.00139">
        <ele>1112.1999511719</ele>
        <time>2022-10-09T13:30:23.000Z</time>
      </trkpt>
      <trkpt lat="48.04449" lon="7.00144">
        <ele>1112</ele>
        <time>2022-10-09T13:30:27.000Z</time>
      </trkpt>
      <trkpt lat="48.04449" lon="7.00146">
        <ele>1112</ele>
        <time>2022-10-09T13:30:28.000Z</time>
      </trkpt>
      <trkpt lat="48.04456" lon="7.00166">
        <ele>1111.8000488281</ele>
        <time>2022-10-09T13:30:36.000Z</time>
      </trkpt>
      <trkpt lat="48.04457" lon="7.00175">
        <ele>1111.5999755859</ele>
        <time>2022-10-09T13:30:43.000Z</time>
      </trkpt>
      <trkpt lat="48.04458" lon="7.00186">
        <ele>1111.4000244141</ele>
        <time>2022-10-09T13:30:49.000Z</time>
      </trkpt>
      <trkpt lat="48.0446" lon="7.0019">
        <ele>1111.4000244141</ele>
        <time>2022-10-09T13:30:53.000Z</time>
      </trkpt>
      <trkpt lat="48.04464" lon="7.00195">
        <ele>1111.4000244141</ele>
        <time>2022-10-09T13:30:59.000Z</time>
      </trkpt>
      <trkpt lat="48.04465" lon="7.00201">
        <ele>1111.4000244141</ele>
        <time>2022-10-09T13:31:04.000Z</time>
      </trkpt>
      <trkpt lat="48.04465" lon="7.00207">
        <ele>1111.4000244141</ele>
        <time>2022-10-09T13:31:06.000Z</time>
      </trkpt>
      <trkpt lat="48.04466" lon="7.00215">
        <ele>1111.4000244141</ele>
        <time>2022-10-09T13:31:11.000Z</time>
      </trkpt>
      <trkpt lat="48.04468" lon="7.00221">
        <ele>1111.4000244141</ele>
        <time>2022-10-09T13:31:18.000Z</time>
      </trkpt>
      <trkpt lat="48.04469" lon="7.00222">
        <ele>1111.4000244141</ele>
        <time>2022-10-09T13:31:24.000Z</time>
      </trkpt>
      <trkpt lat="48.04469" lon="7.00228">
        <ele>1111.4000244141</ele>
        <time>2022-10-09T13:31:31.000Z</time>
      </trkpt>
      <trkpt lat="48.04468" lon="7.00229">
        <ele>1111.4000244141</ele>
        <time>2022-10-09T13:31:37.000Z</time>
      </trkpt>
      <trkpt lat="48.04468" lon="7.00229">
        <ele>1111.4000244141</ele>
        <time>2022-10-09T13:31:38.000Z</time>
      </trkpt>
      <trkpt lat="48.04467" lon="7.0023">
        <ele>1111.4000244141</ele>
        <time>2022-10-09T13:31:41.000Z</time>
      </trkpt>
      <trkpt lat="48.04467" lon="7.00231">
        <ele>1111.4000244141</ele>
        <time>2022-10-09T13:31:43.000Z</time>
      </trkpt>
      <trkpt lat="48.04468" lon="7.00235">
        <ele>1111.4000244141</ele>
        <time>2022-10-09T13:31:49.000Z</time>
      </trkpt>
      <trkpt lat="48.04469" lon="7.00241">
        <ele>1111.4000244141</ele>
        <time>2022-10-09T13:31:54.000Z</time>
      </trkpt>
      <trkpt lat="48.0447" lon="7.00241">
        <ele>1111.4000244141</ele>
        <time>2022-10-09T13:31:55.000Z</time>
      </trkpt>
      <trkpt lat="48.04471" lon="7.00244">
        <ele>1111.4000244141</ele>
        <time>2022-10-09T13:31:59.000Z</time>
      </trkpt>
      <trkpt lat="48.04472" lon="7.00245">
        <ele>1111.4000244141</ele>
        <time>2022-10-09T13:32:02.000Z</time>
      </trkpt>
      <trkpt lat="48.04472" lon="7.00246">
        <ele>1111.4000244141</ele>
        <time>2022-10-09T13:32:08.000Z</time>
      </trkpt>
      <trkpt lat="48.04475" lon="7.00253">
        <ele>1111.4000244141</ele>
        <time>2022-10-09T13:32:16.000Z</time>
      </trkpt>
      <trkpt lat="48.04478" lon="7.00256">
        <ele>1111.4000244141</ele>
        <time>2022-10-09T13:32:22.000Z</time>
      </trkpt>
      <trkpt lat="48.0448" lon="7.00258">
        <ele>1111.4000244141</ele>
        <time>2022-10-09T13:32:27.000Z</time>
      </trkpt>
      <trkpt lat="48.04482" lon="7.00256">
        <ele>1111.4000244141</ele>
        <time>2022-10-09T13:32:32.000Z</time>
      </trkpt>
      <trkpt lat="48.04482" lon="7.00259">
        <ele>1111.4000244141</ele>
        <time>2022-10-09T13:32:36.000Z</time>
      </trkpt>
      <trkpt lat="48.04482" lon="7.00261">
        <ele>1111.4000244141</ele>
        <time>2022-10-09T13:32:37.000Z</time>
      </trkpt>
      <trkpt lat="48.04482" lon="7.00263">
        <ele>1111.4000244141</ele>
        <time>2022-10-09T13:32:39.000Z</time>
      </trkpt>
      <trkpt lat="48.04485" lon="7.00274">
        <ele>1111.4000244141</ele>
        <time>2022-10-09T13:32:43.000Z</time>
      </trkpt>
      <trkpt lat="48.04486" lon="7.00275">
        <ele>1111.4000244141</ele>
        <time>2022-10-09T13:32:44.000Z</time>
      </trkpt>
      <trkpt lat="48.04487" lon="7.00278">
        <ele>1115.1999511719</ele>
        <time>2022-10-09T13:32:46.000Z</time>
      </trkpt>
      <trkpt lat="48.04487" lon="7.00279">
        <ele>1115.1999511719</ele>
        <time>2022-10-09T13:32:49.000Z</time>
      </trkpt>
      <trkpt lat="48.04489" lon="7.00286">
        <ele>1115.5999755859</ele>
        <time>2022-10-09T13:32:54.000Z</time>
      </trkpt>
      <trkpt lat="48.04496" lon="7.00293">
        <ele>1116.1999511719</ele>
        <time>2022-10-09T13:33:02.000Z</time>
      </trkpt>
      <trkpt lat="48.04496" lon="7.00295">
        <ele>1116.4000244141</ele>
        <time>2022-10-09T13:33:03.000Z</time>
      </trkpt>
      <trkpt lat="48.04498" lon="7.00298">
        <ele>1116.5999755859</ele>
        <time>2022-10-09T13:33:08.000Z</time>
      </trkpt>
      <trkpt lat="48.045" lon="7.00298">
        <ele>1117.1999511719</ele>
        <time>2022-10-09T13:33:12.000Z</time>
      </trkpt>
      <trkpt lat="48.04501" lon="7.00298">
        <ele>1117.1999511719</ele>
        <time>2022-10-09T13:33:17.000Z</time>
      </trkpt>
      <trkpt lat="48.04502" lon="7.00298">
        <ele>1117.4000244141</ele>
        <time>2022-10-09T13:33:20.000Z</time>
      </trkpt>
      <trkpt lat="48.04504" lon="7.00299">
        <ele>1117.8000488281</ele>
        <time>2022-10-09T13:33:24.000Z</time>
      </trkpt>
      <trkpt lat="48.04505" lon="7.00305">
        <ele>1117.8000488281</ele>
        <time>2022-10-09T13:33:29.000Z</time>
      </trkpt>
      <trkpt lat="48.04505" lon="7.00313">
        <ele>1117.4000244141</ele>
        <time>2022-10-09T13:33:36.000Z</time>
      </trkpt>
      <trkpt lat="48.04504" lon="7.00315">
        <ele>1117.4000244141</ele>
        <time>2022-10-09T13:33:43.000Z</time>
      </trkpt>
      <trkpt lat="48.0451" lon="7.00321">
        <ele>1117.4000244141</ele>
        <time>2022-10-09T13:33:48.000Z</time>
      </trkpt>
      <trkpt lat="48.0451" lon="7.0032">
        <ele>1117.4000244141</ele>
        <time>2022-10-09T13:33:49.000Z</time>
      </trkpt>
      <trkpt lat="48.04513" lon="7.00321">
        <ele>1116.8000488281</ele>
        <time>2022-10-09T13:33:55.000Z</time>
      </trkpt>
      <trkpt lat="48.04516" lon="7.00319">
        <ele>1117</ele>
        <time>2022-10-09T13:33:59.000Z</time>
      </trkpt>
      <trkpt lat="48.04516" lon="7.00318">
        <ele>1117</ele>
        <time>2022-10-09T13:34:04.000Z</time>
      </trkpt>
      <trkpt lat="48.04518" lon="7.0032">
        <ele>1116.5999755859</ele>
        <time>2022-10-09T13:34:09.000Z</time>
      </trkpt>
      <trkpt lat="48.0452" lon="7.00321">
        <ele>1116.1999511719</ele>
        <time>2022-10-09T13:34:13.000Z</time>
      </trkpt>
      <trkpt lat="48.04521" lon="7.00323">
        <ele>1116.1999511719</ele>
        <time>2022-10-09T13:34:15.000Z</time>
      </trkpt>
      <trkpt lat="48.04522" lon="7.00325">
        <ele>1116.1999511719</ele>
        <time>2022-10-09T13:34:17.000Z</time>
      </trkpt>
      <trkpt lat="48.04522" lon="7.00325">
        <ele>1116.4000244141</ele>
        <time>2022-10-09T13:34:20.000Z</time>
      </trkpt>
      <trkpt lat="48.04523" lon="7.00326">
        <ele>1116.5999755859</ele>
        <time>2022-10-09T13:34:22.000Z</time>
      </trkpt>
      <trkpt lat="48.04527" lon="7.00331">
        <ele>1116.8000488281</ele>
        <time>2022-10-09T13:34:29.000Z</time>
      </trkpt>
      <trkpt lat="48.04534" lon="7.00343">
        <ele>1117.4000244141</ele>
        <time>2022-10-09T13:34:35.000Z</time>
      </trkpt>
      <trkpt lat="48.04534" lon="7.00345">
        <ele>1117.4000244141</ele>
        <time>2022-10-09T13:34:36.000Z</time>
      </trkpt>
      <trkpt lat="48.04537" lon="7.0035">
        <ele>1118</ele>
        <time>2022-10-09T13:34:41.000Z</time>
      </trkpt>
      <trkpt lat="48.04538" lon="7.00352">
        <ele>1118</ele>
        <time>2022-10-09T13:34:43.000Z</time>
      </trkpt>
      <trkpt lat="48.04538" lon="7.00353">
        <ele>1118</ele>
        <time>2022-10-09T13:34:44.000Z</time>
      </trkpt>
      <trkpt lat="48.04538" lon="7.00354">
        <ele>1118</ele>
        <time>2022-10-09T13:34:45.000Z</time>
      </trkpt>
      <trkpt lat="48.04538" lon="7.00355">
        <ele>1118.1999511719</ele>
        <time>2022-10-09T13:34:46.000Z</time>
      </trkpt>
      <trkpt lat="48.04539" lon="7.0036">
        <ele>1118</ele>
        <time>2022-10-09T13:34:51.000Z</time>
      </trkpt>
      <trkpt lat="48.04539" lon="7.00363">
        <ele>1118</ele>
        <time>2022-10-09T13:34:53.000Z</time>
      </trkpt>
      <trkpt lat="48.04542" lon="7.00366">
        <ele>1117.5999755859</ele>
        <time>2022-10-09T13:34:58.000Z</time>
      </trkpt>
      <trkpt lat="48.04543" lon="7.00367">
        <ele>1117.4000244141</ele>
        <time>2022-10-09T13:35:04.000Z</time>
      </trkpt>
      <trkpt lat="48.04542" lon="7.00367">
        <ele>1117</ele>
        <time>2022-10-09T13:35:14.000Z</time>
      </trkpt>
      <trkpt lat="48.04544" lon="7.00371">
        <ele>1117.5999755859</ele>
        <time>2022-10-09T13:35:26.000Z</time>
      </trkpt>
      <trkpt lat="48.04545" lon="7.00373">
        <ele>1117.8000488281</ele>
        <time>2022-10-09T13:35:28.000Z</time>
      </trkpt>
      <trkpt lat="48.04547" lon="7.00378">
        <ele>1117.8000488281</ele>
        <time>2022-10-09T13:35:33.000Z</time>
      </trkpt>
      <trkpt lat="48.04548" lon="7.00376">
        <ele>1117.1999511719</ele>
        <time>2022-10-09T13:35:38.000Z</time>
      </trkpt>
      <trkpt lat="48.0455" lon="7.00377">
        <ele>1116.4000244141</ele>
        <time>2022-10-09T13:35:43.000Z</time>
      </trkpt>
      <trkpt lat="48.04551" lon="7.00378">
        <ele>1116.1999511719</ele>
        <time>2022-10-09T13:35:45.000Z</time>
      </trkpt>
      <trkpt lat="48.04556" lon="7.00377">
        <ele>1116.1999511719</ele>
        <time>2022-10-09T13:35:51.000Z</time>
      </trkpt>
      <trkpt lat="48.0456" lon="7.00378">
        <ele>1116.1999511719</ele>
        <time>2022-10-09T13:35:56.000Z</time>
      </trkpt>
      <trkpt lat="48.04561" lon="7.0038">
        <ele>1116.1999511719</ele>
        <time>2022-10-09T13:35:57.000Z</time>
      </trkpt>
      <trkpt lat="48.04561" lon="7.00384">
        <ele>1116.1999511719</ele>
        <time>2022-10-09T13:36:02.000Z</time>
      </trkpt>
      <trkpt lat="48.04561" lon="7.00385">
        <ele>1116.1999511719</ele>
        <time>2022-10-09T13:36:06.000Z</time>
      </trkpt>
      <trkpt lat="48.04563" lon="7.00386">
        <ele>1116.4000244141</ele>
        <time>2022-10-09T13:36:10.000Z</time>
      </trkpt>
      <trkpt lat="48.04565" lon="7.00387">
        <ele>1116.8000488281</ele>
        <time>2022-10-09T13:36:17.000Z</time>
      </trkpt>
      <trkpt lat="48.04571" lon="7.00387">
        <ele>1116.8000488281</ele>
        <time>2022-10-09T13:36:23.000Z</time>
      </trkpt>
      <trkpt lat="48.04576" lon="7.00382">
        <ele>1117</ele>
        <time>2022-10-09T13:36:29.000Z</time>
      </trkpt>
      <trkpt lat="48.04576" lon="7.00382">
        <ele>1117</ele>
        <time>2022-10-09T13:36:30.000Z</time>
      </trkpt>
      <trkpt lat="48.04581" lon="7.00382">
        <ele>1117</ele>
        <time>2022-10-09T13:36:37.000Z</time>
      </trkpt>
      <trkpt lat="48.04587" lon="7.00383">
        <ele>1117.5999755859</ele>
        <time>2022-10-09T13:36:44.000Z</time>
      </trkpt>
      <trkpt lat="48.04588" lon="7.00384">
        <ele>1117.5999755859</ele>
        <time>2022-10-09T13:36:45.000Z</time>
      </trkpt>
      <trkpt lat="48.04593" lon="7.00388">
        <ele>1117.4000244141</ele>
        <time>2022-10-09T13:36:50.000Z</time>
      </trkpt>
      <trkpt lat="48.04594" lon="7.00383">
        <ele>1117.1999511719</ele>
        <time>2022-10-09T13:36:54.000Z</time>
      </trkpt>
      <trkpt lat="48.04595" lon="7.00383">
        <ele>1117.1999511719</ele>
        <time>2022-10-09T13:36:55.000Z</time>
      </trkpt>
      <trkpt lat="48.04597" lon="7.00383">
        <ele>1117.4000244141</ele>
        <time>2022-10-09T13:36:59.000Z</time>
      </trkpt>
      <trkpt lat="48.04599" lon="7.00387">
        <ele>1117.4000244141</ele>
        <time>2022-10-09T13:37:02.000Z</time>
      </trkpt>
      <trkpt lat="48.04601" lon="7.00389">
        <ele>1117.4000244141</ele>
        <time>2022-10-09T13:37:04.000Z</time>
      </trkpt>
      <trkpt lat="48.04602" lon="7.0039">
        <ele>1117.4000244141</ele>
        <time>2022-10-09T13:37:05.000Z</time>
      </trkpt>
      <trkpt lat="48.04605" lon="7.00394">
        <ele>1117.4000244141</ele>
        <time>2022-10-09T13:37:08.000Z</time>
      </trkpt>
      <trkpt lat="48.04607" lon="7.00395">
        <ele>1117.4000244141</ele>
        <time>2022-10-09T13:37:10.000Z</time>
      </trkpt>
      <trkpt lat="48.04614" lon="7.00405">
        <ele>1117.4000244141</ele>
        <time>2022-10-09T13:37:16.000Z</time>
      </trkpt>
      <trkpt lat="48.04617" lon="7.00411">
        <ele>1117.5999755859</ele>
        <time>2022-10-09T13:37:23.000Z</time>
      </trkpt>
      <trkpt lat="48.04619" lon="7.00416">
        <ele>1117.5999755859</ele>
        <time>2022-10-09T13:37:28.000Z</time>
      </trkpt>
      <trkpt lat="48.04619" lon="7.00418">
        <ele>1117.5999755859</ele>
        <time>2022-10-09T13:37:29.000Z</time>
      </trkpt>
      <trkpt lat="48.04622" lon="7.0042">
        <ele>1117.5999755859</ele>
        <time>2022-10-09T13:37:35.000Z</time>
      </trkpt>
      <trkpt lat="48.04628" lon="7.0042">
        <ele>1117.4000244141</ele>
        <time>2022-10-09T13:37:42.000Z</time>
      </trkpt>
      <trkpt lat="48.0463" lon="7.00419">
        <ele>1117.4000244141</ele>
        <time>2022-10-09T13:37:46.000Z</time>
      </trkpt>
      <trkpt lat="48.04632" lon="7.0042">
        <ele>1117.5999755859</ele>
        <time>2022-10-09T13:37:49.000Z</time>
      </trkpt>
      <trkpt lat="48.04632" lon="7.00423">
        <ele>1117.5999755859</ele>
        <time>2022-10-09T13:37:55.000Z</time>
      </trkpt>
      <trkpt lat="48.04635" lon="7.00424">
        <ele>1117.5999755859</ele>
        <time>2022-10-09T13:37:58.000Z</time>
      </trkpt>
      <trkpt lat="48.04638" lon="7.00425">
        <ele>1117.5999755859</ele>
        <time>2022-10-09T13:38:03.000Z</time>
      </trkpt>
      <trkpt lat="48.04643" lon="7.00424">
        <ele>1117.5999755859</ele>
        <time>2022-10-09T13:38:09.000Z</time>
      </trkpt>
      <trkpt lat="48.04644" lon="7.00424">
        <ele>1117.5999755859</ele>
        <time>2022-10-09T13:38:10.000Z</time>
      </trkpt>
      <trkpt lat="48.0465" lon="7.00426">
        <ele>1117.5999755859</ele>
        <time>2022-10-09T13:38:18.000Z</time>
      </trkpt>
      <trkpt lat="48.04657" lon="7.00427">
        <ele>1117.5999755859</ele>
        <time>2022-10-09T13:38:26.000Z</time>
      </trkpt>
      <trkpt lat="48.04662" lon="7.00428">
        <ele>1117.5999755859</ele>
        <time>2022-10-09T13:38:32.000Z</time>
      </trkpt>
      <trkpt lat="48.04668" lon="7.00428">
        <ele>1117.5999755859</ele>
        <time>2022-10-09T13:38:37.000Z</time>
      </trkpt>
      <trkpt lat="48.0467" lon="7.00435">
        <ele>1117.5999755859</ele>
        <time>2022-10-09T13:38:43.000Z</time>
      </trkpt>
      <trkpt lat="48.04673" lon="7.00434">
        <ele>1117.5999755859</ele>
        <time>2022-10-09T13:38:46.000Z</time>
      </trkpt>
      <trkpt lat="48.04677" lon="7.00437">
        <ele>1117.5999755859</ele>
        <time>2022-10-09T13:38:49.000Z</time>
      </trkpt>
      <trkpt lat="48.0468" lon="7.00438">
        <ele>1117.5999755859</ele>
        <time>2022-10-09T13:38:52.000Z</time>
      </trkpt>
      <trkpt lat="48.04682" lon="7.00439">
        <ele>1117.5999755859</ele>
        <time>2022-10-09T13:38:54.000Z</time>
      </trkpt>
      <trkpt lat="48.04681" lon="7.00437">
        <ele>1117.5999755859</ele>
        <time>2022-10-09T13:38:58.000Z</time>
      </trkpt>
      <trkpt lat="48.04684" lon="7.0044">
        <ele>1117.5999755859</ele>
        <time>2022-10-09T13:39:02.000Z</time>
      </trkpt>
      <trkpt lat="48.04684" lon="7.0044">
        <ele>1117.5999755859</ele>
        <time>2022-10-09T13:39:03.000Z</time>
      </trkpt>
      <trkpt lat="48.04685" lon="7.0044">
        <ele>1117.5999755859</ele>
        <time>2022-10-09T13:39:04.000Z</time>
      </trkpt>
      <trkpt lat="48.04686" lon="7.00441">
        <ele>1117.5999755859</ele>
        <time>2022-10-09T13:39:05.000Z</time>
      </trkpt>
      <trkpt lat="48.04687" lon="7.00442">
        <ele>1117.5999755859</ele>
        <time>2022-10-09T13:39:06.000Z</time>
      </trkpt>
      <trkpt lat="48.04688" lon="7.00443">
        <ele>1117.5999755859</ele>
        <time>2022-10-09T13:39:08.000Z</time>
      </trkpt>
      <trkpt lat="48.04691" lon="7.00443">
        <ele>1117.5999755859</ele>
        <time>2022-10-09T13:39:12.000Z</time>
      </trkpt>
      <trkpt lat="48.04696" lon="7.00445">
        <ele>1117.5999755859</ele>
        <time>2022-10-09T13:39:18.000Z</time>
      </trkpt>
      <trkpt lat="48.04699" lon="7.00444">
        <ele>1117.5999755859</ele>
        <time>2022-10-09T13:39:21.000Z</time>
      </trkpt>
      <trkpt lat="48.047" lon="7.00444">
        <ele>1117.5999755859</ele>
        <time>2022-10-09T13:39:23.000Z</time>
      </trkpt>
      <trkpt lat="48.04701" lon="7.00444">
        <ele>1117.5999755859</ele>
        <time>2022-10-09T13:39:24.000Z</time>
      </trkpt>
      <trkpt lat="48.04702" lon="7.00443">
        <ele>1117.5999755859</ele>
        <time>2022-10-09T13:39:25.000Z</time>
      </trkpt>
      <trkpt lat="48.04705" lon="7.00444">
        <ele>1117.5999755859</ele>
        <time>2022-10-09T13:39:28.000Z</time>
      </trkpt>
      <trkpt lat="48.04706" lon="7.00445">
        <ele>1117.5999755859</ele>
        <time>2022-10-09T13:39:29.000Z</time>
      </trkpt>
      <trkpt lat="48.04711" lon="7.00448">
        <ele>1117.5999755859</ele>
        <time>2022-10-09T13:39:33.000Z</time>
      </trkpt>
      <trkpt lat="48.04713" lon="7.00447">
        <ele>1117.5999755859</ele>
        <time>2022-10-09T13:39:35.000Z</time>
      </trkpt>
      <trkpt lat="48.04714" lon="7.00447">
        <ele>1117.5999755859</ele>
        <time>2022-10-09T13:39:36.000Z</time>
      </trkpt>
      <trkpt lat="48.04717" lon="7.00446">
        <ele>1117.5999755859</ele>
        <time>2022-10-09T13:39:39.000Z</time>
      </trkpt>
      <trkpt lat="48.04718" lon="7.00447">
        <ele>1117.5999755859</ele>
        <time>2022-10-09T13:39:40.000Z</time>
      </trkpt>
      <trkpt lat="48.04721" lon="7.00449">
        <ele>1117.5999755859</ele>
        <time>2022-10-09T13:39:43.000Z</time>
      </trkpt>
      <trkpt lat="48.04722" lon="7.00449">
        <ele>1117.5999755859</ele>
        <time>2022-10-09T13:39:45.000Z</time>
      </trkpt>
      <trkpt lat="48.04726" lon="7.00452">
        <ele>1117.5999755859</ele>
        <time>2022-10-09T13:39:49.000Z</time>
      </trkpt>
      <trkpt lat="48.0473" lon="7.00454">
        <ele>1117.5999755859</ele>
        <time>2022-10-09T13:39:53.000Z</time>
      </trkpt>
      <trkpt lat="48.04734" lon="7.00459">
        <ele>1117.5999755859</ele>
        <time>2022-10-09T13:39:59.000Z</time>
      </trkpt>
      <trkpt lat="48.04739" lon="7.0046">
        <ele>1117.5999755859</ele>
        <time>2022-10-09T13:40:06.000Z</time>
      </trkpt>
      <trkpt lat="48.0474" lon="7.00455">
        <ele>1117.5999755859</ele>
        <time>2022-10-09T13:40:10.000Z</time>
      </trkpt>
      <trkpt lat="48.04741" lon="7.00452">
        <ele>1117.5999755859</ele>
        <time>2022-10-09T13:40:12.000Z</time>
      </trkpt>
      <trkpt lat="48.04744" lon="7.00453">
        <ele>1117.5999755859</ele>
        <time>2022-10-09T13:40:17.000Z</time>
      </trkpt>
      <trkpt lat="48.04751" lon="7.00454">
        <ele>1117.5999755859</ele>
        <time>2022-10-09T13:40:24.000Z</time>
      </trkpt>
      <trkpt lat="48.04751" lon="7.00454">
        <ele>1117.5999755859</ele>
        <time>2022-10-09T13:40:25.000Z</time>
      </trkpt>
      <trkpt lat="48.04755" lon="7.00451">
        <ele>1117.5999755859</ele>
        <time>2022-10-09T13:40:31.000Z</time>
      </trkpt>
      <trkpt lat="48.04759" lon="7.00451">
        <ele>1117.5999755859</ele>
        <time>2022-10-09T13:40:36.000Z</time>
      </trkpt>
      <trkpt lat="48.04761" lon="7.00452">
        <ele>1117.5999755859</ele>
        <time>2022-10-09T13:40:39.000Z</time>
      </trkpt>
      <trkpt lat="48.04769" lon="7.00455">
        <ele>1117.5999755859</ele>
        <time>2022-10-09T13:40:46.000Z</time>
      </trkpt>
      <trkpt lat="48.04773" lon="7.00454">
        <ele>1117.5999755859</ele>
        <time>2022-10-09T13:40:49.000Z</time>
      </trkpt>
      <trkpt lat="48.04774" lon="7.00454">
        <ele>1117.5999755859</ele>
        <time>2022-10-09T13:40:52.000Z</time>
      </trkpt>
      <trkpt lat="48.04781" lon="7.00453">
        <ele>1117.5999755859</ele>
        <time>2022-10-09T13:40:58.000Z</time>
      </trkpt>
      <trkpt lat="48.04782" lon="7.00454">
        <ele>1117.5999755859</ele>
        <time>2022-10-09T13:40:59.000Z</time>
      </trkpt>
      <trkpt lat="48.04792" lon="7.00453">
        <ele>1117.5999755859</ele>
        <time>2022-10-09T13:41:06.000Z</time>
      </trkpt>
      <trkpt lat="48.04794" lon="7.00453">
        <ele>1117.5999755859</ele>
        <time>2022-10-09T13:41:08.000Z</time>
      </trkpt>
      <trkpt lat="48.04797" lon="7.00451">
        <ele>1117.5999755859</ele>
        <time>2022-10-09T13:41:11.000Z</time>
      </trkpt>
      <trkpt lat="48.04797" lon="7.00451">
        <ele>1117.5999755859</ele>
        <time>2022-10-09T13:41:12.000Z</time>
      </trkpt>
      <trkpt lat="48.04795" lon="7.00455">
        <ele>1117.5999755859</ele>
        <time>2022-10-09T13:41:17.000Z</time>
      </trkpt>
      <trkpt lat="48.04798" lon="7.00453">
        <ele>1117.5999755859</ele>
        <time>2022-10-09T13:41:22.000Z</time>
      </trkpt>
      <trkpt lat="48.04807" lon="7.00452">
        <ele>1117.5999755859</ele>
        <time>2022-10-09T13:41:28.000Z</time>
      </trkpt>
      <trkpt lat="48.04812" lon="7.00452">
        <ele>1117.5999755859</ele>
        <time>2022-10-09T13:41:33.000Z</time>
      </trkpt>
      <trkpt lat="48.04816" lon="7.00452">
        <ele>1117.5999755859</ele>
        <time>2022-10-09T13:41:36.000Z</time>
      </trkpt>
      <trkpt lat="48.0482" lon="7.00452">
        <ele>1117.5999755859</ele>
        <time>2022-10-09T13:41:39.000Z</time>
      </trkpt>
      <trkpt lat="48.04822" lon="7.00452">
        <ele>1117.5999755859</ele>
        <time>2022-10-09T13:41:41.000Z</time>
      </trkpt>
      <trkpt lat="48.04828" lon="7.00449">
        <ele>1117.5999755859</ele>
        <time>2022-10-09T13:41:45.000Z</time>
      </trkpt>
      <trkpt lat="48.04833" lon="7.00448">
        <ele>1117.5999755859</ele>
        <time>2022-10-09T13:41:52.000Z</time>
      </trkpt>
      <trkpt lat="48.04835" lon="7.00444">
        <ele>1117.5999755859</ele>
        <time>2022-10-09T13:41:58.000Z</time>
      </trkpt>
      <trkpt lat="48.04839" lon="7.0044">
        <ele>1117.5999755859</ele>
        <time>2022-10-09T13:42:03.000Z</time>
      </trkpt>
      <trkpt lat="48.0484" lon="7.0044">
        <ele>1117.5999755859</ele>
        <time>2022-10-09T13:42:04.000Z</time>
      </trkpt>
      <trkpt lat="48.04843" lon="7.00441">
        <ele>1117.5999755859</ele>
        <time>2022-10-09T13:42:11.000Z</time>
      </trkpt>
      <trkpt lat="48.04846" lon="7.00441">
        <ele>1117.5999755859</ele>
        <time>2022-10-09T13:42:19.000Z</time>
      </trkpt>
      <trkpt lat="48.04851" lon="7.00439">
        <ele>1117.5999755859</ele>
        <time>2022-10-09T13:42:24.000Z</time>
      </trkpt>
      <trkpt lat="48.04856" lon="7.00436">
        <ele>1117.5999755859</ele>
        <time>2022-10-09T13:42:31.000Z</time>
      </trkpt>
      <trkpt lat="48.04858" lon="7.00435">
        <ele>1117.5999755859</ele>
        <time>2022-10-09T13:42:37.000Z</time>
      </trkpt>
      <trkpt lat="48.04861" lon="7.00437">
        <ele>1117.5999755859</ele>
        <time>2022-10-09T13:42:43.000Z</time>
      </trkpt>
      <trkpt lat="48.04867" lon="7.0044">
        <ele>1117.5999755859</ele>
        <time>2022-10-09T13:42:50.000Z</time>
      </trkpt>
      <trkpt lat="48.04872" lon="7.00437">
        <ele>1113.8000488281</ele>
        <time>2022-10-09T13:42:56.000Z</time>
      </trkpt>
      <trkpt lat="48.04878" lon="7.00432">
        <ele>1113.8000488281</ele>
        <time>2022-10-09T13:43:02.000Z</time>
      </trkpt>
      <trkpt lat="48.04879" lon="7.00431">
        <ele>1113.5999755859</ele>
        <time>2022-10-09T13:43:04.000Z</time>
      </trkpt>
      <trkpt lat="48.04885" lon="7.00429">
        <ele>1113.8000488281</ele>
        <time>2022-10-09T13:43:09.000Z</time>
      </trkpt>
      <trkpt lat="48.04891" lon="7.0043">
        <ele>1113.8000488281</ele>
        <time>2022-10-09T13:43:15.000Z</time>
      </trkpt>
      <trkpt lat="48.04901" lon="7.00437">
        <ele>1113.4000244141</ele>
        <time>2022-10-09T13:43:22.000Z</time>
      </trkpt>
      <trkpt lat="48.04906" lon="7.00435">
        <ele>1113.1999511719</ele>
        <time>2022-10-09T13:43:30.000Z</time>
      </trkpt>
      <trkpt lat="48.04909" lon="7.00435">
        <ele>1113</ele>
        <time>2022-10-09T13:43:35.000Z</time>
      </trkpt>
      <trkpt lat="48.04909" lon="7.00435">
        <ele>1113</ele>
        <time>2022-10-09T13:43:36.000Z</time>
      </trkpt>
      <trkpt lat="48.0491" lon="7.00434">
        <ele>1113</ele>
        <time>2022-10-09T13:43:37.000Z</time>
      </trkpt>
      <trkpt lat="48.04918" lon="7.00426">
        <ele>1112.8000488281</ele>
        <time>2022-10-09T13:43:45.000Z</time>
      </trkpt>
      <trkpt lat="48.04926" lon="7.00424">
        <ele>1113.4000244141</ele>
        <time>2022-10-09T13:43:52.000Z</time>
      </trkpt>
      <trkpt lat="48.04931" lon="7.00423">
        <ele>1113.5999755859</ele>
        <time>2022-10-09T13:43:56.000Z</time>
      </trkpt>
      <trkpt lat="48.04932" lon="7.00424">
        <ele>1113.4000244141</ele>
        <time>2022-10-09T13:43:58.000Z</time>
      </trkpt>
      <trkpt lat="48.04932" lon="7.00424">
        <ele>1113.4000244141</ele>
        <time>2022-10-09T13:44:00.000Z</time>
      </trkpt>
      <trkpt lat="48.04932" lon="7.00425">
        <ele>1113.4000244141</ele>
        <time>2022-10-09T13:44:07.000Z</time>
      </trkpt>
      <trkpt lat="48.04932" lon="7.00426">
        <ele>1113.4000244141</ele>
        <time>2022-10-09T13:44:09.000Z</time>
      </trkpt>
      <trkpt lat="48.04936" lon="7.00427">
        <ele>1113.4000244141</ele>
        <time>2022-10-09T13:44:27.000Z</time>
      </trkpt>
      <trkpt lat="48.04943" lon="7.00426">
        <ele>1113.4000244141</ele>
        <time>2022-10-09T13:44:34.000Z</time>
      </trkpt>
      <trkpt lat="48.04944" lon="7.00426">
        <ele>1113.4000244141</ele>
        <time>2022-10-09T13:44:35.000Z</time>
      </trkpt>
      <trkpt lat="48.04949" lon="7.00427">
        <ele>1113.4000244141</ele>
        <time>2022-10-09T13:44:41.000Z</time>
      </trkpt>
      <trkpt lat="48.04953" lon="7.00424">
        <ele>1113.4000244141</ele>
        <time>2022-10-09T13:44:47.000Z</time>
      </trkpt>
      <trkpt lat="48.04957" lon="7.00423">
        <ele>1113.4000244141</ele>
        <time>2022-10-09T13:44:51.000Z</time>
      </trkpt>
      <trkpt lat="48.04958" lon="7.00423">
        <ele>1113.4000244141</ele>
        <time>2022-10-09T13:44:52.000Z</time>
      </trkpt>
      <trkpt lat="48.0496" lon="7.00423">
        <ele>1113.4000244141</ele>
        <time>2022-10-09T13:44:54.000Z</time>
      </trkpt>
      <trkpt lat="48.0496" lon="7.00423">
        <ele>1113.4000244141</ele>
        <time>2022-10-09T13:44:56.000Z</time>
      </trkpt>
      <trkpt lat="48.0496" lon="7.00427">
        <ele>1113.4000244141</ele>
        <time>2022-10-09T13:45:03.000Z</time>
      </trkpt>
      <trkpt lat="48.04963" lon="7.00424">
        <ele>1113.4000244141</ele>
        <time>2022-10-09T13:45:11.000Z</time>
      </trkpt>
      <trkpt lat="48.04965" lon="7.00422">
        <ele>1113.4000244141</ele>
        <time>2022-10-09T13:45:17.000Z</time>
      </trkpt>
      <trkpt lat="48.04965" lon="7.00423">
        <ele>1113.4000244141</ele>
        <time>2022-10-09T13:45:22.000Z</time>
      </trkpt>
      <trkpt lat="48.04968" lon="7.00423">
        <ele>1113.4000244141</ele>
        <time>2022-10-09T13:45:27.000Z</time>
      </trkpt>
      <trkpt lat="48.04974" lon="7.00426">
        <ele>1113.4000244141</ele>
        <time>2022-10-09T13:45:34.000Z</time>
      </trkpt>
      <trkpt lat="48.04975" lon="7.00427">
        <ele>1113.4000244141</ele>
        <time>2022-10-09T13:45:35.000Z</time>
      </trkpt>
      <trkpt lat="48.04976" lon="7.00427">
        <ele>1113.4000244141</ele>
        <time>2022-10-09T13:45:39.000Z</time>
      </trkpt>
      <trkpt lat="48.04978" lon="7.00427">
        <ele>1113.4000244141</ele>
        <time>2022-10-09T13:45:40.000Z</time>
      </trkpt>
      <trkpt lat="48.0498" lon="7.00427">
        <ele>1113.4000244141</ele>
        <time>2022-10-09T13:45:43.000Z</time>
      </trkpt>
      <trkpt lat="48.04981" lon="7.00427">
        <ele>1113.4000244141</ele>
        <time>2022-10-09T13:45:44.000Z</time>
      </trkpt>
      <trkpt lat="48.04985" lon="7.00428">
        <ele>1113.4000244141</ele>
        <time>2022-10-09T13:45:51.000Z</time>
      </trkpt>
      <trkpt lat="48.0499" lon="7.0043">
        <ele>1113.4000244141</ele>
        <time>2022-10-09T13:45:56.000Z</time>
      </trkpt>
      <trkpt lat="48.04991" lon="7.00434">
        <ele>1113.4000244141</ele>
        <time>2022-10-09T13:45:59.000Z</time>
      </trkpt>
      <trkpt lat="48.04991" lon="7.00437">
        <ele>1113.4000244141</ele>
        <time>2022-10-09T13:46:06.000Z</time>
      </trkpt>
      <trkpt lat="48.04994" lon="7.00441">
        <ele>1113.4000244141</ele>
        <time>2022-10-09T13:46:13.000Z</time>
      </trkpt>
      <trkpt lat="48.04999" lon="7.00437">
        <ele>1113.4000244141</ele>
        <time>2022-10-09T13:46:21.000Z</time>
      </trkpt>
      <trkpt lat="48.05003" lon="7.00437">
        <ele>1113.4000244141</ele>
        <time>2022-10-09T13:46:28.000Z</time>
      </trkpt>
      <trkpt lat="48.05008" lon="7.00438">
        <ele>1113.4000244141</ele>
        <time>2022-10-09T13:46:36.000Z</time>
      </trkpt>
      <trkpt lat="48.05014" lon="7.00439">
        <ele>1113.4000244141</ele>
        <time>2022-10-09T13:46:43.000Z</time>
      </trkpt>
      <trkpt lat="48.0502" lon="7.00443">
        <ele>1113.4000244141</ele>
        <time>2022-10-09T13:46:51.000Z</time>
      </trkpt>
      <trkpt lat="48.05021" lon="7.00443">
        <ele>1113.4000244141</ele>
        <time>2022-10-09T13:46:58.000Z</time>
      </trkpt>
      <trkpt lat="48.0502" lon="7.00442">
        <ele>1113.4000244141</ele>
        <time>2022-10-09T13:46:59.000Z</time>
      </trkpt>
      <trkpt lat="48.05023" lon="7.00442">
        <ele>1113.4000244141</ele>
        <time>2022-10-09T13:47:05.000Z</time>
      </trkpt>
      <trkpt lat="48.05031" lon="7.00446">
        <ele>1113.4000244141</ele>
        <time>2022-10-09T13:47:13.000Z</time>
      </trkpt>
      <trkpt lat="48.05035" lon="7.00448">
        <ele>1113.4000244141</ele>
        <time>2022-10-09T13:47:19.000Z</time>
      </trkpt>
      <trkpt lat="48.05036" lon="7.00448">
        <ele>1113.4000244141</ele>
        <time>2022-10-09T13:47:20.000Z</time>
      </trkpt>
      <trkpt lat="48.05037" lon="7.00449">
        <ele>1113.4000244141</ele>
        <time>2022-10-09T13:47:22.000Z</time>
      </trkpt>
      <trkpt lat="48.05038" lon="7.0045">
        <ele>1113.4000244141</ele>
        <time>2022-10-09T13:47:23.000Z</time>
      </trkpt>
      <trkpt lat="48.05043" lon="7.00455">
        <ele>1113.4000244141</ele>
        <time>2022-10-09T13:47:29.000Z</time>
      </trkpt>
      <trkpt lat="48.05042" lon="7.00458">
        <ele>1113.4000244141</ele>
        <time>2022-10-09T13:47:33.000Z</time>
      </trkpt>
      <trkpt lat="48.05042" lon="7.0046">
        <ele>1113.4000244141</ele>
        <time>2022-10-09T13:47:40.000Z</time>
      </trkpt>
      <trkpt lat="48.05041" lon="7.0046">
        <ele>1113.4000244141</ele>
        <time>2022-10-09T13:47:49.000Z</time>
      </trkpt>
      <trkpt lat="48.05044" lon="7.00461">
        <ele>1113.4000244141</ele>
        <time>2022-10-09T13:47:58.000Z</time>
      </trkpt>
      <trkpt lat="48.05044" lon="7.00461">
        <ele>1113.4000244141</ele>
        <time>2022-10-09T13:47:59.000Z</time>
      </trkpt>
      <trkpt lat="48.05044" lon="7.00461">
        <ele>1113.4000244141</ele>
        <time>2022-10-09T13:48:00.000Z</time>
      </trkpt>
      <trkpt lat="48.05044" lon="7.00459">
        <ele>1113.4000244141</ele>
        <time>2022-10-09T13:48:02.000Z</time>
      </trkpt>
      <trkpt lat="48.05044" lon="7.00459">
        <ele>1113.4000244141</ele>
        <time>2022-10-09T13:48:03.000Z</time>
      </trkpt>
      <trkpt lat="48.05044" lon="7.00458">
        <ele>1113.4000244141</ele>
        <time>2022-10-09T13:48:04.000Z</time>
      </trkpt>
      <trkpt lat="48.05044" lon="7.00458">
        <ele>1113.4000244141</ele>
        <time>2022-10-09T13:48:05.000Z</time>
      </trkpt>
      <trkpt lat="48.05044" lon="7.0046">
        <ele>1113.4000244141</ele>
        <time>2022-10-09T13:48:08.000Z</time>
      </trkpt>
      <trkpt lat="48.05045" lon="7.0046">
        <ele>1113.4000244141</ele>
        <time>2022-10-09T13:48:09.000Z</time>
      </trkpt>
      <trkpt lat="48.05048" lon="7.00461">
        <ele>1113.4000244141</ele>
        <time>2022-10-09T13:48:13.000Z</time>
      </trkpt>
      <trkpt lat="48.05049" lon="7.0046">
        <ele>1113.4000244141</ele>
        <time>2022-10-09T13:48:14.000Z</time>
      </trkpt>
      <trkpt lat="48.05051" lon="7.00457">
        <ele>1113.4000244141</ele>
        <time>2022-10-09T13:48:18.000Z</time>
      </trkpt>
      <trkpt lat="48.05052" lon="7.00456">
        <ele>1113.4000244141</ele>
        <time>2022-10-09T13:48:19.000Z</time>
      </trkpt>
      <trkpt lat="48.05053" lon="7.00456">
        <ele>1113.4000244141</ele>
        <time>2022-10-09T13:48:20.000Z</time>
      </trkpt>
      <trkpt lat="48.05055" lon="7.00456">
        <ele>1113.4000244141</ele>
        <time>2022-10-09T13:48:23.000Z</time>
      </trkpt>
      <trkpt lat="48.05059" lon="7.00458">
        <ele>1113.4000244141</ele>
        <time>2022-10-09T13:48:28.000Z</time>
      </trkpt>
      <trkpt lat="48.05063" lon="7.00457">
        <ele>1113.4000244141</ele>
        <time>2022-10-09T13:48:35.000Z</time>
      </trkpt>
      <trkpt lat="48.05064" lon="7.00455">
        <ele>1113.4000244141</ele>
        <time>2022-10-09T13:48:39.000Z</time>
      </trkpt>
      <trkpt lat="48.05071" lon="7.00457">
        <ele>1113.4000244141</ele>
        <time>2022-10-09T13:48:45.000Z</time>
      </trkpt>
      <trkpt lat="48.05076" lon="7.00454">
        <ele>1113.4000244141</ele>
        <time>2022-10-09T13:48:50.000Z</time>
      </trkpt>
      <trkpt lat="48.05074" lon="7.00464">
        <ele>1113.4000244141</ele>
        <time>2022-10-09T13:48:56.000Z</time>
      </trkpt>
      <trkpt lat="48.05078" lon="7.00467">
        <ele>1113.4000244141</ele>
        <time>2022-10-09T13:49:02.000Z</time>
      </trkpt>
      <trkpt lat="48.05085" lon="7.00467">
        <ele>1113.4000244141</ele>
        <time>2022-10-09T13:49:09.000Z</time>
      </trkpt>
      <trkpt lat="48.05087" lon="7.00467">
        <ele>1113.4000244141</ele>
        <time>2022-10-09T13:49:12.000Z</time>
      </trkpt>
      <trkpt lat="48.05096" lon="7.00469">
        <ele>1113.4000244141</ele>
        <time>2022-10-09T13:49:16.000Z</time>
      </trkpt>
      <trkpt lat="48.051" lon="7.00468">
        <ele>1113.4000244141</ele>
        <time>2022-10-09T13:49:22.000Z</time>
      </trkpt>
      <trkpt lat="48.05104" lon="7.00464">
        <ele>1113.4000244141</ele>
        <time>2022-10-09T13:49:29.000Z</time>
      </trkpt>
      <trkpt lat="48.05108" lon="7.00467">
        <ele>1113.4000244141</ele>
        <time>2022-10-09T13:49:36.000Z</time>
      </trkpt>
      <trkpt lat="48.05115" lon="7.00464">
        <ele>1113.4000244141</ele>
        <time>2022-10-09T13:49:44.000Z</time>
      </trkpt>
      <trkpt lat="48.05122" lon="7.00461">
        <ele>1113.4000244141</ele>
        <time>2022-10-09T13:49:52.000Z</time>
      </trkpt>
      <trkpt lat="48.05123" lon="7.00461">
        <ele>1113.4000244141</ele>
        <time>2022-10-09T13:49:53.000Z</time>
      </trkpt>
      <trkpt lat="48.05125" lon="7.00462">
        <ele>1113.4000244141</ele>
        <time>2022-10-09T13:49:55.000Z</time>
      </trkpt>
      <trkpt lat="48.05126" lon="7.00462">
        <ele>1113.4000244141</ele>
        <time>2022-10-09T13:49:57.000Z</time>
      </trkpt>
      <trkpt lat="48.05127" lon="7.00463">
        <ele>1113.4000244141</ele>
        <time>2022-10-09T13:49:59.000Z</time>
      </trkpt>
      <trkpt lat="48.05133" lon="7.00464">
        <ele>1113.4000244141</ele>
        <time>2022-10-09T13:50:05.000Z</time>
      </trkpt>
      <trkpt lat="48.05136" lon="7.00462">
        <ele>1113.4000244141</ele>
        <time>2022-10-09T13:50:11.000Z</time>
      </trkpt>
      <trkpt lat="48.05139" lon="7.00459">
        <ele>1113.4000244141</ele>
        <time>2022-10-09T13:50:17.000Z</time>
      </trkpt>
      <trkpt lat="48.05143" lon="7.00462">
        <ele>1113.4000244141</ele>
        <time>2022-10-09T13:50:22.000Z</time>
      </trkpt>
      <trkpt lat="48.05145" lon="7.00466">
        <ele>1113.4000244141</ele>
        <time>2022-10-09T13:50:26.000Z</time>
      </trkpt>
      <trkpt lat="48.05147" lon="7.00465">
        <ele>1113.4000244141</ele>
        <time>2022-10-09T13:50:32.000Z</time>
      </trkpt>
      <trkpt lat="48.05152" lon="7.00464">
        <ele>1113.4000244141</ele>
        <time>2022-10-09T13:50:38.000Z</time>
      </trkpt>
      <trkpt lat="48.05163" lon="7.00468">
        <ele>1113.4000244141</ele>
        <time>2022-10-09T13:50:45.000Z</time>
      </trkpt>
      <trkpt lat="48.05167" lon="7.00467">
        <ele>1113.4000244141</ele>
        <time>2022-10-09T13:50:52.000Z</time>
      </trkpt>
      <trkpt lat="48.05169" lon="7.00466">
        <ele>1113.4000244141</ele>
        <time>2022-10-09T13:50:54.000Z</time>
      </trkpt>
      <trkpt lat="48.05171" lon="7.00466">
        <ele>1113.4000244141</ele>
        <time>2022-10-09T13:50:55.000Z</time>
      </trkpt>
      <trkpt lat="48.05172" lon="7.00467">
        <ele>1113.4000244141</ele>
        <time>2022-10-09T13:50:58.000Z</time>
      </trkpt>
      <trkpt lat="48.05177" lon="7.00465">
        <ele>1113.4000244141</ele>
        <time>2022-10-09T13:51:04.000Z</time>
      </trkpt>
      <trkpt lat="48.05188" lon="7.00464">
        <ele>1113.4000244141</ele>
        <time>2022-10-09T13:51:11.000Z</time>
      </trkpt>
      <trkpt lat="48.05189" lon="7.00465">
        <ele>1113.4000244141</ele>
        <time>2022-10-09T13:51:18.000Z</time>
      </trkpt>
      <trkpt lat="48.05192" lon="7.00467">
        <ele>1113.4000244141</ele>
        <time>2022-10-09T13:51:23.000Z</time>
      </trkpt>
      <trkpt lat="48.05193" lon="7.00467">
        <ele>1113.4000244141</ele>
        <time>2022-10-09T13:51:24.000Z</time>
      </trkpt>
      <trkpt lat="48.05198" lon="7.00467">
        <ele>1113.4000244141</ele>
        <time>2022-10-09T13:51:31.000Z</time>
      </trkpt>
      <trkpt lat="48.05205" lon="7.00471">
        <ele>1113.4000244141</ele>
        <time>2022-10-09T13:51:38.000Z</time>
      </trkpt>
      <trkpt lat="48.0521" lon="7.00476">
        <ele>1113.4000244141</ele>
        <time>2022-10-09T13:51:45.000Z</time>
      </trkpt>
      <trkpt lat="48.05212" lon="7.00478">
        <ele>1113.4000244141</ele>
        <time>2022-10-09T13:51:47.000Z</time>
      </trkpt>
      <trkpt lat="48.05216" lon="7.0048">
        <ele>1113.4000244141</ele>
        <time>2022-10-09T13:51:51.000Z</time>
      </trkpt>
      <trkpt lat="48.05218" lon="7.00484">
        <ele>1113.4000244141</ele>
        <time>2022-10-09T13:51:57.000Z</time>
      </trkpt>
      <trkpt lat="48.05221" lon="7.00489">
        <ele>1113.4000244141</ele>
        <time>2022-10-09T13:52:05.000Z</time>
      </trkpt>
      <trkpt lat="48.05228" lon="7.0049">
        <ele>1113.4000244141</ele>
        <time>2022-10-09T13:52:12.000Z</time>
      </trkpt>
      <trkpt lat="48.05233" lon="7.00492">
        <ele>1113.4000244141</ele>
        <time>2022-10-09T13:52:18.000Z</time>
      </trkpt>
      <trkpt lat="48.0524" lon="7.00492">
        <ele>1113.4000244141</ele>
        <time>2022-10-09T13:52:26.000Z</time>
      </trkpt>
      <trkpt lat="48.05242" lon="7.00493">
        <ele>1113.4000244141</ele>
        <time>2022-10-09T13:52:28.000Z</time>
      </trkpt>
      <trkpt lat="48.05248" lon="7.00495">
        <ele>1113.4000244141</ele>
        <time>2022-10-09T13:52:32.000Z</time>
      </trkpt>
      <trkpt lat="48.05254" lon="7.00502">
        <ele>1113.4000244141</ele>
        <time>2022-10-09T13:52:40.000Z</time>
      </trkpt>
      <trkpt lat="48.05255" lon="7.00502">
        <ele>1113.4000244141</ele>
        <time>2022-10-09T13:52:45.000Z</time>
      </trkpt>
      <trkpt lat="48.05258" lon="7.00504">
        <ele>1113.4000244141</ele>
        <time>2022-10-09T13:52:51.000Z</time>
      </trkpt>
      <trkpt lat="48.05264" lon="7.00504">
        <ele>1113.4000244141</ele>
        <time>2022-10-09T13:52:58.000Z</time>
      </trkpt>
      <trkpt lat="48.05266" lon="7.00504">
        <ele>1113.4000244141</ele>
        <time>2022-10-09T13:52:59.000Z</time>
      </trkpt>
      <trkpt lat="48.05271" lon="7.00504">
        <ele>1113.4000244141</ele>
        <time>2022-10-09T13:53:04.000Z</time>
      </trkpt>
      <trkpt lat="48.05277" lon="7.00508">
        <ele>1113.4000244141</ele>
        <time>2022-10-09T13:53:10.000Z</time>
      </trkpt>
      <trkpt lat="48.05286" lon="7.00512">
        <ele>1113.4000244141</ele>
        <time>2022-10-09T13:53:19.000Z</time>
      </trkpt>
      <trkpt lat="48.05292" lon="7.0051">
        <ele>1113.4000244141</ele>
        <time>2022-10-09T13:53:25.000Z</time>
      </trkpt>
      <trkpt lat="48.05296" lon="7.00512">
        <ele>1113.4000244141</ele>
        <time>2022-10-09T13:53:30.000Z</time>
      </trkpt>
      <trkpt lat="48.05305" lon="7.0052">
        <ele>1113.4000244141</ele>
        <time>2022-10-09T13:53:39.000Z</time>
      </trkpt>
      <trkpt lat="48.0531" lon="7.00524">
        <ele>1113.4000244141</ele>
        <time>2022-10-09T13:53:45.000Z</time>
      </trkpt>
      <trkpt lat="48.05312" lon="7.00524">
        <ele>1113.4000244141</ele>
        <time>2022-10-09T13:53:51.000Z</time>
      </trkpt>
      <trkpt lat="48.05314" lon="7.00529">
        <ele>1113.4000244141</ele>
        <time>2022-10-09T13:53:53.000Z</time>
      </trkpt>
      <trkpt lat="48.05317" lon="7.00532">
        <ele>1113.4000244141</ele>
        <time>2022-10-09T13:53:56.000Z</time>
      </trkpt>
      <trkpt lat="48.05322" lon="7.00537">
        <ele>1113.4000244141</ele>
        <time>2022-10-09T13:54:02.000Z</time>
      </trkpt>
      <trkpt lat="48.05327" lon="7.00545">
        <ele>1113.4000244141</ele>
        <time>2022-10-09T13:54:09.000Z</time>
      </trkpt>
      <trkpt lat="48.05332" lon="7.0055">
        <ele>1113.4000244141</ele>
        <time>2022-10-09T13:54:14.000Z</time>
      </trkpt>
      <trkpt lat="48.05336" lon="7.00555">
        <ele>1113.4000244141</ele>
        <time>2022-10-09T13:54:21.000Z</time>
      </trkpt>
      <trkpt lat="48.05336" lon="7.00555">
        <ele>1113.4000244141</ele>
        <time>2022-10-09T13:54:29.000Z</time>
      </trkpt>
      <trkpt lat="48.05337" lon="7.00558">
        <ele>1113.4000244141</ele>
        <time>2022-10-09T13:54:33.000Z</time>
      </trkpt>
      <trkpt lat="48.0534" lon="7.00562">
        <ele>1113.4000244141</ele>
        <time>2022-10-09T13:54:37.000Z</time>
      </trkpt>
      <trkpt lat="48.05344" lon="7.00562">
        <ele>1113.4000244141</ele>
        <time>2022-10-09T13:54:44.000Z</time>
      </trkpt>
      <trkpt lat="48.05345" lon="7.00564">
        <ele>1113.4000244141</ele>
        <time>2022-10-09T13:54:49.000Z</time>
      </trkpt>
      <trkpt lat="48.05349" lon="7.00567">
        <ele>1113.4000244141</ele>
        <time>2022-10-09T13:54:55.000Z</time>
      </trkpt>
      <trkpt lat="48.05346" lon="7.00564">
        <ele>1113.4000244141</ele>
        <time>2022-10-09T13:55:01.000Z</time>
      </trkpt>
      <trkpt lat="48.05347" lon="7.00561">
        <ele>1113.4000244141</ele>
        <time>2022-10-09T13:55:07.000Z</time>
      </trkpt>
      <trkpt lat="48.05347" lon="7.00561">
        <ele>1117</ele>
        <time>2022-10-09T13:55:08.000Z</time>
      </trkpt>
      <trkpt lat="48.05349" lon="7.00558">
        <ele>1117</ele>
        <time>2022-10-09T13:55:14.000Z</time>
      </trkpt>
      <trkpt lat="48.05348" lon="7.00555">
        <ele>1116.8000488281</ele>
        <time>2022-10-09T13:55:20.000Z</time>
      </trkpt>
      <trkpt lat="48.0535" lon="7.00548">
        <ele>1116.4000244141</ele>
        <time>2022-10-09T13:55:27.000Z</time>
      </trkpt>
      <trkpt lat="48.05351" lon="7.00541">
        <ele>1116.1999511719</ele>
        <time>2022-10-09T13:55:32.000Z</time>
      </trkpt>
      <trkpt lat="48.05356" lon="7.00534">
        <ele>1116.1999511719</ele>
        <time>2022-10-09T13:55:40.000Z</time>
      </trkpt>
      <trkpt lat="48.05355" lon="7.0053">
        <ele>1116.4000244141</ele>
        <time>2022-10-09T13:55:46.000Z</time>
      </trkpt>
      <trkpt lat="48.05357" lon="7.00527">
        <ele>1116.5999755859</ele>
        <time>2022-10-09T13:55:53.000Z</time>
      </trkpt>
      <trkpt lat="48.05358" lon="7.00521">
        <ele>1116.5999755859</ele>
        <time>2022-10-09T13:55:59.000Z</time>
      </trkpt>
      <trkpt lat="48.05358" lon="7.00517">
        <ele>1116.4000244141</ele>
        <time>2022-10-09T13:56:05.000Z</time>
      </trkpt>
      <trkpt lat="48.05361" lon="7.00515">
        <ele>1116.4000244141</ele>
        <time>2022-10-09T13:56:08.000Z</time>
      </trkpt>
      <trkpt lat="48.05366" lon="7.00515">
        <ele>1116.4000244141</ele>
        <time>2022-10-09T13:56:12.000Z</time>
      </trkpt>
      <trkpt lat="48.05378" lon="7.00519">
        <ele>1116.8000488281</ele>
        <time>2022-10-09T13:56:20.000Z</time>
      </trkpt>
      <trkpt lat="48.0538" lon="7.00519">
        <ele>1116.8000488281</ele>
        <time>2022-10-09T13:56:22.000Z</time>
      </trkpt>
      <trkpt lat="48.05381" lon="7.0052">
        <ele>1117.1999511719</ele>
        <time>2022-10-09T13:56:27.000Z</time>
      </trkpt>
      <trkpt lat="48.05384" lon="7.00518">
        <ele>1117.5999755859</ele>
        <time>2022-10-09T13:56:32.000Z</time>
      </trkpt>
      <trkpt lat="48.05387" lon="7.00511">
        <ele>1117.8000488281</ele>
        <time>2022-10-09T13:56:37.000Z</time>
      </trkpt>
      <trkpt lat="48.05388" lon="7.00509">
        <ele>1117.8000488281</ele>
        <time>2022-10-09T13:56:39.000Z</time>
      </trkpt>
      <trkpt lat="48.05394" lon="7.00497">
        <ele>1117.5999755859</ele>
        <time>2022-10-09T13:56:48.000Z</time>
      </trkpt>
      <trkpt lat="48.05395" lon="7.00493">
        <ele>1117.4000244141</ele>
        <time>2022-10-09T13:56:52.000Z</time>
      </trkpt>
      <trkpt lat="48.05398" lon="7.00489">
        <ele>1117.1999511719</ele>
        <time>2022-10-09T13:56:55.000Z</time>
      </trkpt>
      <trkpt lat="48.054" lon="7.00489">
        <ele>1117.1999511719</ele>
        <time>2022-10-09T13:56:56.000Z</time>
      </trkpt>
      <trkpt lat="48.05406" lon="7.0049">
        <ele>1117.4000244141</ele>
        <time>2022-10-09T13:57:01.000Z</time>
      </trkpt>
      <trkpt lat="48.05413" lon="7.00486">
        <ele>1117.4000244141</ele>
        <time>2022-10-09T13:57:09.000Z</time>
      </trkpt>
      <trkpt lat="48.05414" lon="7.00486">
        <ele>1117.4000244141</ele>
        <time>2022-10-09T13:57:10.000Z</time>
      </trkpt>
      <trkpt lat="48.05417" lon="7.00486">
        <ele>1117.4000244141</ele>
        <time>2022-10-09T13:57:14.000Z</time>
      </trkpt>
      <trkpt lat="48.05417" lon="7.00485">
        <ele>1117.4000244141</ele>
        <time>2022-10-09T13:57:16.000Z</time>
      </trkpt>
      <trkpt lat="48.0542" lon="7.00489">
        <ele>1117.5999755859</ele>
        <time>2022-10-09T13:57:23.000Z</time>
      </trkpt>
      <trkpt lat="48.05426" lon="7.00492">
        <ele>1117.8000488281</ele>
        <time>2022-10-09T13:57:30.000Z</time>
      </trkpt>
      <trkpt lat="48.05427" lon="7.00493">
        <ele>1118</ele>
        <time>2022-10-09T13:57:35.000Z</time>
      </trkpt>
      <trkpt lat="48.05425" lon="7.00486">
        <ele>1117.8000488281</ele>
        <time>2022-10-09T13:57:42.000Z</time>
      </trkpt>
      <trkpt lat="48.05425" lon="7.0048">
        <ele>1117.1999511719</ele>
        <time>2022-10-09T13:57:48.000Z</time>
      </trkpt>
      <trkpt lat="48.05428" lon="7.00478">
        <ele>1117.4000244141</ele>
        <time>2022-10-09T13:57:53.000Z</time>
      </trkpt>
      <trkpt lat="48.05431" lon="7.00482">
        <ele>1117.5999755859</ele>
        <time>2022-10-09T13:57:58.000Z</time>
      </trkpt>
      <trkpt lat="48.05431" lon="7.00482">
        <ele>1117.5999755859</ele>
        <time>2022-10-09T13:57:59.000Z</time>
      </trkpt>
      <trkpt lat="48.05431" lon="7.00482">
        <ele>1117.8000488281</ele>
        <time>2022-10-09T13:58:04.000Z</time>
      </trkpt>
      <trkpt lat="48.05432" lon="7.00487">
        <ele>1117.4000244141</ele>
        <time>2022-10-09T13:58:20.000Z</time>
      </trkpt>
      <trkpt lat="48.05437" lon="7.00495">
        <ele>1117.4000244141</ele>
        <time>2022-10-09T13:58:32.000Z</time>
      </trkpt>
      <trkpt lat="48.05439" lon="7.00499">
        <ele>1117.4000244141</ele>
        <time>2022-10-09T13:58:36.000Z</time>
      </trkpt>
      <trkpt lat="48.0544" lon="7.00502">
        <ele>1117.4000244141</ele>
        <time>2022-10-09T13:58:40.000Z</time>
      </trkpt>
      <trkpt lat="48.05441" lon="7.00502">
        <ele>1117.4000244141</ele>
        <time>2022-10-09T13:58:41.000Z</time>
      </trkpt>
      <trkpt lat="48.05441" lon="7.00504">
        <ele>1117.4000244141</ele>
        <time>2022-10-09T13:58:50.000Z</time>
      </trkpt>
      <trkpt lat="48.05446" lon="7.00505">
        <ele>1117.4000244141</ele>
        <time>2022-10-09T13:58:55.000Z</time>
      </trkpt>
      <trkpt lat="48.05448" lon="7.00507">
        <ele>1117.4000244141</ele>
        <time>2022-10-09T13:58:57.000Z</time>
      </trkpt>
      <trkpt lat="48.05451" lon="7.00511">
        <ele>1117.4000244141</ele>
        <time>2022-10-09T13:59:02.000Z</time>
      </trkpt>
      <trkpt lat="48.05454" lon="7.00513">
        <ele>1117.4000244141</ele>
        <time>2022-10-09T13:59:05.000Z</time>
      </trkpt>
      <trkpt lat="48.05459" lon="7.00525">
        <ele>1117.4000244141</ele>
        <time>2022-10-09T13:59:13.000Z</time>
      </trkpt>
      <trkpt lat="48.05465" lon="7.00529">
        <ele>1117.4000244141</ele>
        <time>2022-10-09T13:59:21.000Z</time>
      </trkpt>
      <trkpt lat="48.05466" lon="7.00531">
        <ele>1117.4000244141</ele>
        <time>2022-10-09T13:59:27.000Z</time>
      </trkpt>
      <trkpt lat="48.05468" lon="7.00534">
        <ele>1117.4000244141</ele>
        <time>2022-10-09T13:59:29.000Z</time>
      </trkpt>
      <trkpt lat="48.0547" lon="7.00539">
        <ele>1117.4000244141</ele>
        <time>2022-10-09T13:59:32.000Z</time>
      </trkpt>
      <trkpt lat="48.05471" lon="7.0054">
        <ele>1117.4000244141</ele>
        <time>2022-10-09T13:59:33.000Z</time>
      </trkpt>
      <trkpt lat="48.05472" lon="7.00541">
        <ele>1117.4000244141</ele>
        <time>2022-10-09T13:59:35.000Z</time>
      </trkpt>
      <trkpt lat="48.05473" lon="7.00542">
        <ele>1117.4000244141</ele>
        <time>2022-10-09T13:59:37.000Z</time>
      </trkpt>
      <trkpt lat="48.05476" lon="7.00544">
        <ele>1117.4000244141</ele>
        <time>2022-10-09T13:59:40.000Z</time>
      </trkpt>
      <trkpt lat="48.05479" lon="7.00545">
        <ele>1117.4000244141</ele>
        <time>2022-10-09T13:59:44.000Z</time>
      </trkpt>
      <trkpt lat="48.05487" lon="7.00545">
        <ele>1117.4000244141</ele>
        <time>2022-10-09T13:59:49.000Z</time>
      </trkpt>
      <trkpt lat="48.05488" lon="7.00546">
        <ele>1117.4000244141</ele>
        <time>2022-10-09T13:59:50.000Z</time>
      </trkpt>
      <trkpt lat="48.0549" lon="7.0055">
        <ele>1117.4000244141</ele>
        <time>2022-10-09T13:59:54.000Z</time>
      </trkpt>
      <trkpt lat="48.0549" lon="7.0055">
        <ele>1117.4000244141</ele>
        <time>2022-10-09T13:59:56.000Z</time>
      </trkpt>
      <trkpt lat="48.05489" lon="7.00549">
        <ele>1117.4000244141</ele>
        <time>2022-10-09T14:00:02.000Z</time>
      </trkpt>
      <trkpt lat="48.05494" lon="7.00555">
        <ele>1117.4000244141</ele>
        <time>2022-10-09T14:00:08.000Z</time>
      </trkpt>
      <trkpt lat="48.05495" lon="7.00557">
        <ele>1117.4000244141</ele>
        <time>2022-10-09T14:00:10.000Z</time>
      </trkpt>
      <trkpt lat="48.05501" lon="7.00563">
        <ele>1117.4000244141</ele>
        <time>2022-10-09T14:00:15.000Z</time>
      </trkpt>
      <trkpt lat="48.05503" lon="7.00566">
        <ele>1117.4000244141</ele>
        <time>2022-10-09T14:00:18.000Z</time>
      </trkpt>
      <trkpt lat="48.05503" lon="7.00566">
        <ele>1117.4000244141</ele>
        <time>2022-10-09T14:00:20.000Z</time>
      </trkpt>
      <trkpt lat="48.05501" lon="7.00568">
        <ele>1117.4000244141</ele>
        <time>2022-10-09T14:00:22.000Z</time>
      </trkpt>
      <trkpt lat="48.05503" lon="7.0057">
        <ele>1117.4000244141</ele>
        <time>2022-10-09T14:00:27.000Z</time>
      </trkpt>
      <trkpt lat="48.05504" lon="7.00571">
        <ele>1117.4000244141</ele>
        <time>2022-10-09T14:00:32.000Z</time>
      </trkpt>
      <trkpt lat="48.05508" lon="7.0058">
        <ele>1117.4000244141</ele>
        <time>2022-10-09T14:00:37.000Z</time>
      </trkpt>
      <trkpt lat="48.05509" lon="7.00582">
        <ele>1117.4000244141</ele>
        <time>2022-10-09T14:00:38.000Z</time>
      </trkpt>
      <trkpt lat="48.05508" lon="7.00582">
        <ele>1117.4000244141</ele>
        <time>2022-10-09T14:00:39.000Z</time>
      </trkpt>
      <trkpt lat="48.05508" lon="7.00581">
        <ele>1117.4000244141</ele>
        <time>2022-10-09T14:00:42.000Z</time>
      </trkpt>
      <trkpt lat="48.05509" lon="7.00578">
        <ele>1117.4000244141</ele>
        <time>2022-10-09T14:00:48.000Z</time>
      </trkpt>
      <trkpt lat="48.05513" lon="7.00576">
        <ele>1117.4000244141</ele>
        <time>2022-10-09T14:00:53.000Z</time>
      </trkpt>
      <trkpt lat="48.05516" lon="7.00581">
        <ele>1117.4000244141</ele>
        <time>2022-10-09T14:00:59.000Z</time>
      </trkpt>
      <trkpt lat="48.05518" lon="7.00587">
        <ele>1117.4000244141</ele>
        <time>2022-10-09T14:01:04.000Z</time>
      </trkpt>
      <trkpt lat="48.05522" lon="7.0059">
        <ele>1117.4000244141</ele>
        <time>2022-10-09T14:01:09.000Z</time>
      </trkpt>
      <trkpt lat="48.05527" lon="7.00596">
        <ele>1121.5999755859</ele>
        <time>2022-10-09T14:01:14.000Z</time>
      </trkpt>
      <trkpt lat="48.05529" lon="7.00599">
        <ele>1121.5999755859</ele>
        <time>2022-10-09T14:01:17.000Z</time>
      </trkpt>
      <trkpt lat="48.05532" lon="7.00603">
        <ele>1121.8000488281</ele>
        <time>2022-10-09T14:01:21.000Z</time>
      </trkpt>
      <trkpt lat="48.05535" lon="7.00608">
        <ele>1122</ele>
        <time>2022-10-09T14:01:24.000Z</time>
      </trkpt>
      <trkpt lat="48.05539" lon="7.00613">
        <ele>1122.1999511719</ele>
        <time>2022-10-09T14:01:29.000Z</time>
      </trkpt>
      <trkpt lat="48.05539" lon="7.00618">
        <ele>1122.5999755859</ele>
        <time>2022-10-09T14:01:32.000Z</time>
      </trkpt>
      <trkpt lat="48.05539" lon="7.00623">
        <ele>1122.8000488281</ele>
        <time>2022-10-09T14:01:34.000Z</time>
      </trkpt>
      <trkpt lat="48.05542" lon="7.00628">
        <ele>1122.8000488281</ele>
        <time>2022-10-09T14:01:42.000Z</time>
      </trkpt>
      <trkpt lat="48.05545" lon="7.00633">
        <ele>1123</ele>
        <time>2022-10-09T14:01:48.000Z</time>
      </trkpt>
      <trkpt lat="48.05545" lon="7.00634">
        <ele>1123.4000244141</ele>
        <time>2022-10-09T14:01:52.000Z</time>
      </trkpt>
      <trkpt lat="48.05547" lon="7.00641">
        <ele>1123.8000488281</ele>
        <time>2022-10-09T14:01:57.000Z</time>
      </trkpt>
      <trkpt lat="48.05547" lon="7.00642">
        <ele>1123.8000488281</ele>
        <time>2022-10-09T14:01:58.000Z</time>
      </trkpt>
      <trkpt lat="48.0555" lon="7.00644">
        <ele>1124.4000244141</ele>
        <time>2022-10-09T14:02:05.000Z</time>
      </trkpt>
      <trkpt lat="48.05552" lon="7.00649">
        <ele>1124.8000488281</ele>
        <time>2022-10-09T14:02:10.000Z</time>
      </trkpt>
      <trkpt lat="48.05556" lon="7.00657">
        <ele>1125.4000244141</ele>
        <time>2022-10-09T14:02:17.000Z</time>
      </trkpt>
      <trkpt lat="48.05557" lon="7.00658">
        <ele>1125.4000244141</ele>
        <time>2022-10-09T14:02:18.000Z</time>
      </trkpt>
      <trkpt lat="48.05559" lon="7.00663">
        <ele>1125.8000488281</ele>
        <time>2022-10-09T14:02:22.000Z</time>
      </trkpt>
      <trkpt lat="48.05561" lon="7.00665">
        <ele>1126</ele>
        <time>2022-10-09T14:02:24.000Z</time>
      </trkpt>
      <trkpt lat="48.05567" lon="7.00672">
        <ele>1126.5999755859</ele>
        <time>2022-10-09T14:02:30.000Z</time>
      </trkpt>
      <trkpt lat="48.05571" lon="7.00676">
        <ele>1126.5999755859</ele>
        <time>2022-10-09T14:02:35.000Z</time>
      </trkpt>
      <trkpt lat="48.05572" lon="7.00678">
        <ele>1126.8000488281</ele>
        <time>2022-10-09T14:02:37.000Z</time>
      </trkpt>
      <trkpt lat="48.05575" lon="7.00681">
        <ele>1127.1999511719</ele>
        <time>2022-10-09T14:02:41.000Z</time>
      </trkpt>
      <trkpt lat="48.05576" lon="7.00685">
        <ele>1127.1999511719</ele>
        <time>2022-10-09T14:02:44.000Z</time>
      </trkpt>
      <trkpt lat="48.05577" lon="7.00688">
        <ele>1127.4000244141</ele>
        <time>2022-10-09T14:02:46.000Z</time>
      </trkpt>
      <trkpt lat="48.05579" lon="7.00691">
        <ele>1127.8000488281</ele>
        <time>2022-10-09T14:02:50.000Z</time>
      </trkpt>
      <trkpt lat="48.05579" lon="7.00691">
        <ele>1128</ele>
        <time>2022-10-09T14:02:51.000Z</time>
      </trkpt>
      <trkpt lat="48.05583" lon="7.00698">
        <ele>1128.1999511719</ele>
        <time>2022-10-09T14:02:57.000Z</time>
      </trkpt>
      <trkpt lat="48.05587" lon="7.00705">
        <ele>1128.8000488281</ele>
        <time>2022-10-09T14:03:03.000Z</time>
      </trkpt>
      <trkpt lat="48.05587" lon="7.00707">
        <ele>1129</ele>
        <time>2022-10-09T14:03:04.000Z</time>
      </trkpt>
      <trkpt lat="48.05588" lon="7.00713">
        <ele>1129.4000244141</ele>
        <time>2022-10-09T14:03:10.000Z</time>
      </trkpt>
      <trkpt lat="48.05587" lon="7.00714">
        <ele>1129.5999755859</ele>
        <time>2022-10-09T14:03:17.000Z</time>
      </trkpt>
      <trkpt lat="48.05587" lon="7.00713">
        <ele>1129.5999755859</ele>
        <time>2022-10-09T14:03:22.000Z</time>
      </trkpt>
      <trkpt lat="48.05587" lon="7.00712">
        <ele>1130</ele>
        <time>2022-10-09T14:03:39.000Z</time>
      </trkpt>
      <trkpt lat="48.05587" lon="7.00712">
        <ele>1130.4000244141</ele>
        <time>2022-10-09T14:03:49.000Z</time>
      </trkpt>
      <trkpt lat="48.05595" lon="7.00724">
        <ele>1130.8000488281</ele>
        <time>2022-10-09T14:03:58.000Z</time>
      </trkpt>
      <trkpt lat="48.05599" lon="7.0073">
        <ele>1131</ele>
        <time>2022-10-09T14:04:00.000Z</time>
      </trkpt>
      <trkpt lat="48.05601" lon="7.00733">
        <ele>1131.1999511719</ele>
        <time>2022-10-09T14:04:01.000Z</time>
      </trkpt>
      <trkpt lat="48.05606" lon="7.00743">
        <ele>1131.5999755859</ele>
        <time>2022-10-09T14:04:05.000Z</time>
      </trkpt>
      <trkpt lat="48.05606" lon="7.00745">
        <ele>1131.5999755859</ele>
        <time>2022-10-09T14:04:06.000Z</time>
      </trkpt>
      <trkpt lat="48.05608" lon="7.00751">
        <ele>1132</ele>
        <time>2022-10-09T14:04:12.000Z</time>
      </trkpt>
      <trkpt lat="48.05614" lon="7.0076">
        <ele>1132.4000244141</ele>
        <time>2022-10-09T14:04:18.000Z</time>
      </trkpt>
      <trkpt lat="48.0562" lon="7.00765">
        <ele>1132.8000488281</ele>
        <time>2022-10-09T14:04:23.000Z</time>
      </trkpt>
      <trkpt lat="48.05621" lon="7.0077">
        <ele>1133</ele>
        <time>2022-10-09T14:04:28.000Z</time>
      </trkpt>
      <trkpt lat="48.05623" lon="7.00772">
        <ele>1133.5999755859</ele>
        <time>2022-10-09T14:04:32.000Z</time>
      </trkpt>
      <trkpt lat="48.05629" lon="7.00779">
        <ele>1133.8000488281</ele>
        <time>2022-10-09T14:04:38.000Z</time>
      </trkpt>
      <trkpt lat="48.0563" lon="7.00781">
        <ele>1134</ele>
        <time>2022-10-09T14:04:41.000Z</time>
      </trkpt>
      <trkpt lat="48.05631" lon="7.00782">
        <ele>1134.1999511719</ele>
        <time>2022-10-09T14:04:43.000Z</time>
      </trkpt>
      <trkpt lat="48.05631" lon="7.00786">
        <ele>1134.4000244141</ele>
        <time>2022-10-09T14:04:47.000Z</time>
      </trkpt>
      <trkpt lat="48.05632" lon="7.00787">
        <ele>1134.4000244141</ele>
        <time>2022-10-09T14:04:50.000Z</time>
      </trkpt>
      <trkpt lat="48.05633" lon="7.0079">
        <ele>1134.4000244141</ele>
        <time>2022-10-09T14:04:55.000Z</time>
      </trkpt>
      <trkpt lat="48.05633" lon="7.00789">
        <ele>1134.5999755859</ele>
        <time>2022-10-09T14:05:03.000Z</time>
      </trkpt>
      <trkpt lat="48.05635" lon="7.00792">
        <ele>1134.5999755859</ele>
        <time>2022-10-09T14:05:06.000Z</time>
      </trkpt>
      <trkpt lat="48.05637" lon="7.00797">
        <ele>1134.5999755859</ele>
        <time>2022-10-09T14:05:09.000Z</time>
      </trkpt>
      <trkpt lat="48.05639" lon="7.00803">
        <ele>1135</ele>
        <time>2022-10-09T14:05:14.000Z</time>
      </trkpt>
      <trkpt lat="48.0564" lon="7.00804">
        <ele>1135.1999511719</ele>
        <time>2022-10-09T14:05:15.000Z</time>
      </trkpt>
      <trkpt lat="48.05642" lon="7.00812">
        <ele>1135.4000244141</ele>
        <time>2022-10-09T14:05:21.000Z</time>
      </trkpt>
      <trkpt lat="48.05643" lon="7.0082">
        <ele>1136.1999511719</ele>
        <time>2022-10-09T14:05:27.000Z</time>
      </trkpt>
      <trkpt lat="48.05645" lon="7.00821">
        <ele>1136.4000244141</ele>
        <time>2022-10-09T14:05:28.000Z</time>
      </trkpt>
      <trkpt lat="48.05647" lon="7.00826">
        <ele>1136.8000488281</ele>
        <time>2022-10-09T14:05:31.000Z</time>
      </trkpt>
      <trkpt lat="48.0565" lon="7.00834">
        <ele>1137</ele>
        <time>2022-10-09T14:05:36.000Z</time>
      </trkpt>
      <trkpt lat="48.05648" lon="7.00837">
        <ele>1137.4000244141</ele>
        <time>2022-10-09T14:05:40.000Z</time>
      </trkpt>
      <trkpt lat="48.05648" lon="7.00837">
        <ele>1137.4000244141</ele>
        <time>2022-10-09T14:05:41.000Z</time>
      </trkpt>
      <trkpt lat="48.05652" lon="7.00848">
        <ele>1137.4000244141</ele>
        <time>2022-10-09T14:05:47.000Z</time>
      </trkpt>
      <trkpt lat="48.0565" lon="7.0085">
        <ele>1137.4000244141</ele>
        <time>2022-10-09T14:05:54.000Z</time>
      </trkpt>
      <trkpt lat="48.05648" lon="7.00852">
        <ele>1137.5999755859</ele>
        <time>2022-10-09T14:06:00.000Z</time>
      </trkpt>
      <trkpt lat="48.05649" lon="7.00854">
        <ele>1137.5999755859</ele>
        <time>2022-10-09T14:06:06.000Z</time>
      </trkpt>
      <trkpt lat="48.05653" lon="7.0086">
        <ele>1138</ele>
        <time>2022-10-09T14:06:11.000Z</time>
      </trkpt>
      <trkpt lat="48.05655" lon="7.00866">
        <ele>1138.4000244141</ele>
        <time>2022-10-09T14:06:15.000Z</time>
      </trkpt>
      <trkpt lat="48.05655" lon="7.00868">
        <ele>1138.4000244141</ele>
        <time>2022-10-09T14:06:16.000Z</time>
      </trkpt>
      <trkpt lat="48.05655" lon="7.00869">
        <ele>1138.4000244141</ele>
        <time>2022-10-09T14:06:17.000Z</time>
      </trkpt>
      <trkpt lat="48.05657" lon="7.00874">
        <ele>1138.8000488281</ele>
        <time>2022-10-09T14:06:22.000Z</time>
      </trkpt>
      <trkpt lat="48.0566" lon="7.00883">
        <ele>1139.4000244141</ele>
        <time>2022-10-09T14:06:29.000Z</time>
      </trkpt>
      <trkpt lat="48.05661" lon="7.00884">
        <ele>1139.4000244141</ele>
        <time>2022-10-09T14:06:30.000Z</time>
      </trkpt>
      <trkpt lat="48.05662" lon="7.00886">
        <ele>1139.5999755859</ele>
        <time>2022-10-09T14:06:31.000Z</time>
      </trkpt>
      <trkpt lat="48.0566" lon="7.0089">
        <ele>1140</ele>
        <time>2022-10-09T14:06:36.000Z</time>
      </trkpt>
      <trkpt lat="48.05661" lon="7.00896">
        <ele>1140.5999755859</ele>
        <time>2022-10-09T14:06:41.000Z</time>
      </trkpt>
      <trkpt lat="48.05661" lon="7.00899">
        <ele>1140.5999755859</ele>
        <time>2022-10-09T14:06:44.000Z</time>
      </trkpt>
      <trkpt lat="48.05659" lon="7.00902">
        <ele>1141.1999511719</ele>
        <time>2022-10-09T14:06:49.000Z</time>
      </trkpt>
      <trkpt lat="48.05658" lon="7.00905">
        <ele>1141.1999511719</ele>
        <time>2022-10-09T14:06:54.000Z</time>
      </trkpt>
      <trkpt lat="48.05661" lon="7.0091">
        <ele>1141.1999511719</ele>
        <time>2022-10-09T14:07:01.000Z</time>
      </trkpt>
      <trkpt lat="48.0566" lon="7.00914">
        <ele>1141</ele>
        <time>2022-10-09T14:07:07.000Z</time>
      </trkpt>
      <trkpt lat="48.05656" lon="7.00914">
        <ele>1141</ele>
        <time>2022-10-09T14:07:17.000Z</time>
      </trkpt>
      <trkpt lat="48.05654" lon="7.00915">
        <ele>1141.4000244141</ele>
        <time>2022-10-09T14:07:28.000Z</time>
      </trkpt>
      <trkpt lat="48.05655" lon="7.00915">
        <ele>1141.1999511719</ele>
        <time>2022-10-09T14:07:38.000Z</time>
      </trkpt>
      <trkpt lat="48.05658" lon="7.00912">
        <ele>1141.4000244141</ele>
        <time>2022-10-09T14:08:01.000Z</time>
      </trkpt>
      <trkpt lat="48.05659" lon="7.00912">
        <ele>1141.5999755859</ele>
        <time>2022-10-09T14:08:03.000Z</time>
      </trkpt>
      <trkpt lat="48.05662" lon="7.00915">
        <ele>1141.5999755859</ele>
        <time>2022-10-09T14:08:06.000Z</time>
      </trkpt>
      <trkpt lat="48.05662" lon="7.00918">
        <ele>1141.5999755859</ele>
        <time>2022-10-09T14:08:09.000Z</time>
      </trkpt>
      <trkpt lat="48.05662" lon="7.0092">
        <ele>1141.8000488281</ele>
        <time>2022-10-09T14:08:11.000Z</time>
      </trkpt>
      <trkpt lat="48.05664" lon="7.00923">
        <ele>1142.1999511719</ele>
        <time>2022-10-09T14:08:16.000Z</time>
      </trkpt>
      <trkpt lat="48.05663" lon="7.00929">
        <ele>1142.4000244141</ele>
        <time>2022-10-09T14:08:21.000Z</time>
      </trkpt>
      <trkpt lat="48.05664" lon="7.00932">
        <ele>1142.5999755859</ele>
        <time>2022-10-09T14:08:24.000Z</time>
      </trkpt>
      <trkpt lat="48.05666" lon="7.00942">
        <ele>1143</ele>
        <time>2022-10-09T14:08:30.000Z</time>
      </trkpt>
      <trkpt lat="48.05671" lon="7.00952">
        <ele>1143.5999755859</ele>
        <time>2022-10-09T14:08:37.000Z</time>
      </trkpt>
      <trkpt lat="48.0567" lon="7.00953">
        <ele>1143.8000488281</ele>
        <time>2022-10-09T14:08:40.000Z</time>
      </trkpt>
      <trkpt lat="48.0567" lon="7.00954">
        <ele>1143.8000488281</ele>
        <time>2022-10-09T14:08:41.000Z</time>
      </trkpt>
      <trkpt lat="48.0567" lon="7.00957">
        <ele>1144</ele>
        <time>2022-10-09T14:08:45.000Z</time>
      </trkpt>
      <trkpt lat="48.0567" lon="7.00957">
        <ele>1144.1999511719</ele>
        <time>2022-10-09T14:08:47.000Z</time>
      </trkpt>
      <trkpt lat="48.05669" lon="7.00966">
        <ele>1144.5999755859</ele>
        <time>2022-10-09T14:08:54.000Z</time>
      </trkpt>
      <trkpt lat="48.05669" lon="7.00967">
        <ele>1144.8000488281</ele>
        <time>2022-10-09T14:08:55.000Z</time>
      </trkpt>
      <trkpt lat="48.05668" lon="7.0097">
        <ele>1145</ele>
        <time>2022-10-09T14:08:59.000Z</time>
      </trkpt>
      <trkpt lat="48.05669" lon="7.00981">
        <ele>1145.4000244141</ele>
        <time>2022-10-09T14:09:05.000Z</time>
      </trkpt>
      <trkpt lat="48.05667" lon="7.00982">
        <ele>1145.8000488281</ele>
        <time>2022-10-09T14:09:09.000Z</time>
      </trkpt>
      <trkpt lat="48.05667" lon="7.00982">
        <ele>1145.8000488281</ele>
        <time>2022-10-09T14:09:10.000Z</time>
      </trkpt>
      <trkpt lat="48.05666" lon="7.00986">
        <ele>1145.8000488281</ele>
        <time>2022-10-09T14:09:17.000Z</time>
      </trkpt>
      <trkpt lat="48.05668" lon="7.00991">
        <ele>1146.1999511719</ele>
        <time>2022-10-09T14:09:22.000Z</time>
      </trkpt>
      <trkpt lat="48.05669" lon="7.01">
        <ele>1146.5999755859</ele>
        <time>2022-10-09T14:09:29.000Z</time>
      </trkpt>
      <trkpt lat="48.0567" lon="7.01006">
        <ele>1146.8000488281</ele>
        <time>2022-10-09T14:09:33.000Z</time>
      </trkpt>
      <trkpt lat="48.05671" lon="7.01007">
        <ele>1147</ele>
        <time>2022-10-09T14:09:34.000Z</time>
      </trkpt>
      <trkpt lat="48.05674" lon="7.01017">
        <ele>1147.1999511719</ele>
        <time>2022-10-09T14:09:40.000Z</time>
      </trkpt>
      <trkpt lat="48.05678" lon="7.01021">
        <ele>1147.4000244141</ele>
        <time>2022-10-09T14:09:45.000Z</time>
      </trkpt>
      <trkpt lat="48.05677" lon="7.01028">
        <ele>1147.5999755859</ele>
        <time>2022-10-09T14:09:51.000Z</time>
      </trkpt>
      <trkpt lat="48.05677" lon="7.01031">
        <ele>1148</ele>
        <time>2022-10-09T14:09:54.000Z</time>
      </trkpt>
      <trkpt lat="48.05677" lon="7.01033">
        <ele>1148</ele>
        <time>2022-10-09T14:09:55.000Z</time>
      </trkpt>
      <trkpt lat="48.05677" lon="7.01043">
        <ele>1148.4000244141</ele>
        <time>2022-10-09T14:10:00.000Z</time>
      </trkpt>
      <trkpt lat="48.05677" lon="7.01044">
        <ele>1148.5999755859</ele>
        <time>2022-10-09T14:10:01.000Z</time>
      </trkpt>
      <trkpt lat="48.05677" lon="7.01045">
        <ele>1148.5999755859</ele>
        <time>2022-10-09T14:10:02.000Z</time>
      </trkpt>
      <trkpt lat="48.05677" lon="7.01045">
        <ele>1148.5999755859</ele>
        <time>2022-10-09T14:10:05.000Z</time>
      </trkpt>
      <trkpt lat="48.05678" lon="7.01047">
        <ele>1148.8000488281</ele>
        <time>2022-10-09T14:10:10.000Z</time>
      </trkpt>
      <trkpt lat="48.05678" lon="7.01048">
        <ele>1149</ele>
        <time>2022-10-09T14:10:12.000Z</time>
      </trkpt>
      <trkpt lat="48.05679" lon="7.01052">
        <ele>1149.4000244141</ele>
        <time>2022-10-09T14:10:16.000Z</time>
      </trkpt>
      <trkpt lat="48.05679" lon="7.01055">
        <ele>1149.5999755859</ele>
        <time>2022-10-09T14:10:20.000Z</time>
      </trkpt>
      <trkpt lat="48.05681" lon="7.01057">
        <ele>1149.5999755859</ele>
        <time>2022-10-09T14:10:21.000Z</time>
      </trkpt>
      <trkpt lat="48.0568" lon="7.01062">
        <ele>1150</ele>
        <time>2022-10-09T14:10:26.000Z</time>
      </trkpt>
      <trkpt lat="48.05682" lon="7.01068">
        <ele>1150.4000244141</ele>
        <time>2022-10-09T14:10:30.000Z</time>
      </trkpt>
      <trkpt lat="48.05683" lon="7.01068">
        <ele>1150.4000244141</ele>
        <time>2022-10-09T14:10:31.000Z</time>
      </trkpt>
      <trkpt lat="48.05681" lon="7.01069">
        <ele>1150.5999755859</ele>
        <time>2022-10-09T14:10:35.000Z</time>
      </trkpt>
      <trkpt lat="48.0568" lon="7.01074">
        <ele>1150.8000488281</ele>
        <time>2022-10-09T14:10:40.000Z</time>
      </trkpt>
      <trkpt lat="48.05682" lon="7.01077">
        <ele>1151</ele>
        <time>2022-10-09T14:10:43.000Z</time>
      </trkpt>
      <trkpt lat="48.05681" lon="7.01079">
        <ele>1151.1999511719</ele>
        <time>2022-10-09T14:10:45.000Z</time>
      </trkpt>
      <trkpt lat="48.05684" lon="7.01082">
        <ele>1151.4000244141</ele>
        <time>2022-10-09T14:10:50.000Z</time>
      </trkpt>
      <trkpt lat="48.05684" lon="7.01085">
        <ele>1151.4000244141</ele>
        <time>2022-10-09T14:10:55.000Z</time>
      </trkpt>
      <trkpt lat="48.05685" lon="7.01092">
        <ele>1151.8000488281</ele>
        <time>2022-10-09T14:11:00.000Z</time>
      </trkpt>
      <trkpt lat="48.05686" lon="7.01095">
        <ele>1152</ele>
        <time>2022-10-09T14:11:05.000Z</time>
      </trkpt>
      <trkpt lat="48.05686" lon="7.01095">
        <ele>1152.1999511719</ele>
        <time>2022-10-09T14:11:06.000Z</time>
      </trkpt>
      <trkpt lat="48.05687" lon="7.01102">
        <ele>1152.4000244141</ele>
        <time>2022-10-09T14:11:11.000Z</time>
      </trkpt>
      <trkpt lat="48.05688" lon="7.0111">
        <ele>1152.5999755859</ele>
        <time>2022-10-09T14:11:16.000Z</time>
      </trkpt>
      <trkpt lat="48.05687" lon="7.01113">
        <ele>1152.8000488281</ele>
        <time>2022-10-09T14:11:18.000Z</time>
      </trkpt>
      <trkpt lat="48.05689" lon="7.01117">
        <ele>1153.1999511719</ele>
        <time>2022-10-09T14:11:22.000Z</time>
      </trkpt>
      <trkpt lat="48.05691" lon="7.01119">
        <ele>1153.1999511719</ele>
        <time>2022-10-09T14:11:24.000Z</time>
      </trkpt>
      <trkpt lat="48.0569" lon="7.01119">
        <ele>1153.5999755859</ele>
        <time>2022-10-09T14:11:28.000Z</time>
      </trkpt>
      <trkpt lat="48.05689" lon="7.01118">
        <ele>1153.5999755859</ele>
        <time>2022-10-09T14:11:34.000Z</time>
      </trkpt>
      <trkpt lat="48.0569" lon="7.0112">
        <ele>1153.5999755859</ele>
        <time>2022-10-09T14:11:39.000Z</time>
      </trkpt>
      <trkpt lat="48.05691" lon="7.01126">
        <ele>1153.5999755859</ele>
        <time>2022-10-09T14:11:45.000Z</time>
      </trkpt>
      <trkpt lat="48.05692" lon="7.01128">
        <ele>1153.8000488281</ele>
        <time>2022-10-09T14:11:50.000Z</time>
      </trkpt>
      <trkpt lat="48.05694" lon="7.01129">
        <ele>1154.1999511719</ele>
        <time>2022-10-09T14:11:56.000Z</time>
      </trkpt>
      <trkpt lat="48.05694" lon="7.01131">
        <ele>1154.1999511719</ele>
        <time>2022-10-09T14:11:57.000Z</time>
      </trkpt>
      <trkpt lat="48.05695" lon="7.01137">
        <ele>1154.5999755859</ele>
        <time>2022-10-09T14:12:02.000Z</time>
      </trkpt>
      <trkpt lat="48.05692" lon="7.01145">
        <ele>1155.1999511719</ele>
        <time>2022-10-09T14:12:08.000Z</time>
      </trkpt>
      <trkpt lat="48.05692" lon="7.01147">
        <ele>1155.1999511719</ele>
        <time>2022-10-09T14:12:10.000Z</time>
      </trkpt>
      <trkpt lat="48.05693" lon="7.0115">
        <ele>1155.4000244141</ele>
        <time>2022-10-09T14:12:14.000Z</time>
      </trkpt>
      <trkpt lat="48.05695" lon="7.01155">
        <ele>1155.5999755859</ele>
        <time>2022-10-09T14:12:19.000Z</time>
      </trkpt>
      <trkpt lat="48.05695" lon="7.01158">
        <ele>1156</ele>
        <time>2022-10-09T14:12:24.000Z</time>
      </trkpt>
      <trkpt lat="48.05698" lon="7.01165">
        <ele>1156.1999511719</ele>
        <time>2022-10-09T14:12:30.000Z</time>
      </trkpt>
      <trkpt lat="48.05699" lon="7.01168">
        <ele>1156.1999511719</ele>
        <time>2022-10-09T14:12:32.000Z</time>
      </trkpt>
      <trkpt lat="48.05699" lon="7.01171">
        <ele>1156.4000244141</ele>
        <time>2022-10-09T14:12:36.000Z</time>
      </trkpt>
      <trkpt lat="48.057" lon="7.0117">
        <ele>1156.8000488281</ele>
        <time>2022-10-09T14:12:40.000Z</time>
      </trkpt>
      <trkpt lat="48.057" lon="7.01171">
        <ele>1156.8000488281</ele>
        <time>2022-10-09T14:12:41.000Z</time>
      </trkpt>
      <trkpt lat="48.057" lon="7.01177">
        <ele>1157</ele>
        <time>2022-10-09T14:12:48.000Z</time>
      </trkpt>
      <trkpt lat="48.05701" lon="7.0118">
        <ele>1157.1999511719</ele>
        <time>2022-10-09T14:12:51.000Z</time>
      </trkpt>
      <trkpt lat="48.05701" lon="7.01184">
        <ele>1157.4000244141</ele>
        <time>2022-10-09T14:12:55.000Z</time>
      </trkpt>
      <trkpt lat="48.05703" lon="7.01187">
        <ele>1157.5999755859</ele>
        <time>2022-10-09T14:12:57.000Z</time>
      </trkpt>
      <trkpt lat="48.05704" lon="7.0119">
        <ele>1157.8000488281</ele>
        <time>2022-10-09T14:12:59.000Z</time>
      </trkpt>
      <trkpt lat="48.05705" lon="7.01192">
        <ele>1157.8000488281</ele>
        <time>2022-10-09T14:13:00.000Z</time>
      </trkpt>
      <trkpt lat="48.05706" lon="7.01199">
        <ele>1157.8000488281</ele>
        <time>2022-10-09T14:13:05.000Z</time>
      </trkpt>
      <trkpt lat="48.05708" lon="7.01203">
        <ele>1158.1999511719</ele>
        <time>2022-10-09T14:13:10.000Z</time>
      </trkpt>
      <trkpt lat="48.05708" lon="7.01204">
        <ele>1158.4000244141</ele>
        <time>2022-10-09T14:13:11.000Z</time>
      </trkpt>
      <trkpt lat="48.05711" lon="7.01211">
        <ele>1158.8000488281</ele>
        <time>2022-10-09T14:13:16.000Z</time>
      </trkpt>
      <trkpt lat="48.05715" lon="7.01219">
        <ele>1159.1999511719</ele>
        <time>2022-10-09T14:13:23.000Z</time>
      </trkpt>
      <trkpt lat="48.05715" lon="7.01224">
        <ele>1159.4000244141</ele>
        <time>2022-10-09T14:13:26.000Z</time>
      </trkpt>
      <trkpt lat="48.05713" lon="7.01225">
        <ele>1159.5999755859</ele>
        <time>2022-10-09T14:13:29.000Z</time>
      </trkpt>
      <trkpt lat="48.05714" lon="7.01225">
        <ele>1159.8000488281</ele>
        <time>2022-10-09T14:13:34.000Z</time>
      </trkpt>
      <trkpt lat="48.05715" lon="7.01229">
        <ele>1160.1999511719</ele>
        <time>2022-10-09T14:13:38.000Z</time>
      </trkpt>
      <trkpt lat="48.05715" lon="7.01231">
        <ele>1160.4000244141</ele>
        <time>2022-10-09T14:13:42.000Z</time>
      </trkpt>
      <trkpt lat="48.05717" lon="7.01233">
        <ele>1160.5999755859</ele>
        <time>2022-10-09T14:13:45.000Z</time>
      </trkpt>
      <trkpt lat="48.05719" lon="7.01237">
        <ele>1161.1999511719</ele>
        <time>2022-10-09T14:13:50.000Z</time>
      </trkpt>
      <trkpt lat="48.05718" lon="7.0124">
        <ele>1161.1999511719</ele>
        <time>2022-10-09T14:13:54.000Z</time>
      </trkpt>
      <trkpt lat="48.05716" lon="7.01241">
        <ele>1161.4000244141</ele>
        <time>2022-10-09T14:14:01.000Z</time>
      </trkpt>
      <trkpt lat="48.05716" lon="7.01241">
        <ele>1161.1999511719</ele>
        <time>2022-10-09T14:14:07.000Z</time>
      </trkpt>
      <trkpt lat="48.05719" lon="7.01245">
        <ele>1161.4000244141</ele>
        <time>2022-10-09T14:14:12.000Z</time>
      </trkpt>
      <trkpt lat="48.05721" lon="7.01247">
        <ele>1161.5999755859</ele>
        <time>2022-10-09T14:14:15.000Z</time>
      </trkpt>
      <trkpt lat="48.05723" lon="7.01248">
        <ele>1161.8000488281</ele>
        <time>2022-10-09T14:14:18.000Z</time>
      </trkpt>
      <trkpt lat="48.05729" lon="7.01252">
        <ele>1162</ele>
        <time>2022-10-09T14:14:23.000Z</time>
      </trkpt>
      <trkpt lat="48.05733" lon="7.01256">
        <ele>1162.4000244141</ele>
        <time>2022-10-09T14:14:29.000Z</time>
      </trkpt>
      <trkpt lat="48.05738" lon="7.01263">
        <ele>1162.5999755859</ele>
        <time>2022-10-09T14:14:34.000Z</time>
      </trkpt>
      <trkpt lat="48.05739" lon="7.01264">
        <ele>1162.5999755859</ele>
        <time>2022-10-09T14:14:35.000Z</time>
      </trkpt>
      <trkpt lat="48.0574" lon="7.01264">
        <ele>1162.5999755859</ele>
        <time>2022-10-09T14:14:36.000Z</time>
      </trkpt>
      <trkpt lat="48.0574" lon="7.01264">
        <ele>1162.8000488281</ele>
        <time>2022-10-09T14:14:38.000Z</time>
      </trkpt>
      <trkpt lat="48.05739" lon="7.0127">
        <ele>1162.8000488281</ele>
        <time>2022-10-09T14:14:43.000Z</time>
      </trkpt>
      <trkpt lat="48.0574" lon="7.01272">
        <ele>1162.8000488281</ele>
        <time>2022-10-09T14:14:48.000Z</time>
      </trkpt>
      <trkpt lat="48.05741" lon="7.01272">
        <ele>1162.8000488281</ele>
        <time>2022-10-09T14:14:53.000Z</time>
      </trkpt>
      <trkpt lat="48.05744" lon="7.01273">
        <ele>1162.5999755859</ele>
        <time>2022-10-09T14:15:00.000Z</time>
      </trkpt>
      <trkpt lat="48.05749" lon="7.01274">
        <ele>1162.8000488281</ele>
        <time>2022-10-09T14:15:06.000Z</time>
      </trkpt>
      <trkpt lat="48.05753" lon="7.01275">
        <ele>1163</ele>
        <time>2022-10-09T14:15:12.000Z</time>
      </trkpt>
      <trkpt lat="48.05758" lon="7.01276">
        <ele>1163.1999511719</ele>
        <time>2022-10-09T14:15:19.000Z</time>
      </trkpt>
      <trkpt lat="48.05764" lon="7.0128">
        <ele>1163.4000244141</ele>
        <time>2022-10-09T14:15:27.000Z</time>
      </trkpt>
      <trkpt lat="48.05765" lon="7.01281">
        <ele>1163.4000244141</ele>
        <time>2022-10-09T14:15:28.000Z</time>
      </trkpt>
      <trkpt lat="48.05766" lon="7.01281">
        <ele>1163.4000244141</ele>
        <time>2022-10-09T14:15:29.000Z</time>
      </trkpt>
      <trkpt lat="48.05767" lon="7.01282">
        <ele>1163.4000244141</ele>
        <time>2022-10-09T14:15:32.000Z</time>
      </trkpt>
      <trkpt lat="48.05774" lon="7.01284">
        <ele>1163.5999755859</ele>
        <time>2022-10-09T14:15:38.000Z</time>
      </trkpt>
      <trkpt lat="48.05775" lon="7.01286">
        <ele>1163.8000488281</ele>
        <time>2022-10-09T14:15:42.000Z</time>
      </trkpt>
      <trkpt lat="48.05774" lon="7.01286">
        <ele>1163.8000488281</ele>
        <time>2022-10-09T14:15:43.000Z</time>
      </trkpt>
      <trkpt lat="48.05775" lon="7.01287">
        <ele>1164.1999511719</ele>
        <time>2022-10-09T14:15:48.000Z</time>
      </trkpt>
      <trkpt lat="48.05776" lon="7.01289">
        <ele>1164</ele>
        <time>2022-10-09T14:15:54.000Z</time>
      </trkpt>
      <trkpt lat="48.05781" lon="7.01291">
        <ele>1164.1999511719</ele>
        <time>2022-10-09T14:16:01.000Z</time>
      </trkpt>
      <trkpt lat="48.05787" lon="7.01291">
        <ele>1164</ele>
        <time>2022-10-09T14:16:08.000Z</time>
      </trkpt>
      <trkpt lat="48.05791" lon="7.01293">
        <ele>1164</ele>
        <time>2022-10-09T14:16:13.000Z</time>
      </trkpt>
      <trkpt lat="48.05797" lon="7.01296">
        <ele>1164</ele>
        <time>2022-10-09T14:16:18.000Z</time>
      </trkpt>
      <trkpt lat="48.05799" lon="7.01297">
        <ele>1164</ele>
        <time>2022-10-09T14:16:20.000Z</time>
      </trkpt>
      <trkpt lat="48.05801" lon="7.01297">
        <ele>1164</ele>
        <time>2022-10-09T14:16:22.000Z</time>
      </trkpt>
      <trkpt lat="48.05804" lon="7.01295">
        <ele>1164</ele>
        <time>2022-10-09T14:16:26.000Z</time>
      </trkpt>
      <trkpt lat="48.05806" lon="7.01296">
        <ele>1164</ele>
        <time>2022-10-09T14:16:27.000Z</time>
      </trkpt>
      <trkpt lat="48.0581" lon="7.01297">
        <ele>1163.8000488281</ele>
        <time>2022-10-09T14:16:32.000Z</time>
      </trkpt>
      <trkpt lat="48.05811" lon="7.01298">
        <ele>1163.8000488281</ele>
        <time>2022-10-09T14:16:33.000Z</time>
      </trkpt>
      <trkpt lat="48.05814" lon="7.013">
        <ele>1163.8000488281</ele>
        <time>2022-10-09T14:16:38.000Z</time>
      </trkpt>
      <trkpt lat="48.05816" lon="7.013">
        <ele>1163.8000488281</ele>
        <time>2022-10-09T14:16:43.000Z</time>
      </trkpt>
      <trkpt lat="48.05823" lon="7.01301">
        <ele>1163.8000488281</ele>
        <time>2022-10-09T14:16:50.000Z</time>
      </trkpt>
      <trkpt lat="48.05827" lon="7.01305">
        <ele>1163.8000488281</ele>
        <time>2022-10-09T14:16:55.000Z</time>
      </trkpt>
      <trkpt lat="48.0583" lon="7.01305">
        <ele>1163.8000488281</ele>
        <time>2022-10-09T14:17:00.000Z</time>
      </trkpt>
      <trkpt lat="48.05833" lon="7.01309">
        <ele>1163.8000488281</ele>
        <time>2022-10-09T14:17:06.000Z</time>
      </trkpt>
      <trkpt lat="48.05832" lon="7.01312">
        <ele>1163.5999755859</ele>
        <time>2022-10-09T14:17:12.000Z</time>
      </trkpt>
      <trkpt lat="48.05836" lon="7.01313">
        <ele>1163.5999755859</ele>
        <time>2022-10-09T14:17:17.000Z</time>
      </trkpt>
      <trkpt lat="48.05842" lon="7.01314">
        <ele>1163.8000488281</ele>
        <time>2022-10-09T14:17:23.000Z</time>
      </trkpt>
      <trkpt lat="48.05844" lon="7.01315">
        <ele>1163.5999755859</ele>
        <time>2022-10-09T14:17:27.000Z</time>
      </trkpt>
      <trkpt lat="48.05848" lon="7.01316">
        <ele>1163.4000244141</ele>
        <time>2022-10-09T14:17:33.000Z</time>
      </trkpt>
      <trkpt lat="48.05854" lon="7.01318">
        <ele>1163.4000244141</ele>
        <time>2022-10-09T14:17:40.000Z</time>
      </trkpt>
      <trkpt lat="48.0586" lon="7.01321">
        <ele>1163.4000244141</ele>
        <time>2022-10-09T14:17:46.000Z</time>
      </trkpt>
      <trkpt lat="48.05858" lon="7.01317">
        <ele>1163.4000244141</ele>
        <time>2022-10-09T14:17:50.000Z</time>
      </trkpt>
      <trkpt lat="48.05863" lon="7.01316">
        <ele>1163.4000244141</ele>
        <time>2022-10-09T14:17:57.000Z</time>
      </trkpt>
      <trkpt lat="48.05868" lon="7.01316">
        <ele>1163.4000244141</ele>
        <time>2022-10-09T14:18:03.000Z</time>
      </trkpt>
      <trkpt lat="48.05869" lon="7.01314">
        <ele>1163.4000244141</ele>
        <time>2022-10-09T14:18:06.000Z</time>
      </trkpt>
      <trkpt lat="48.0587" lon="7.01314">
        <ele>1163.4000244141</ele>
        <time>2022-10-09T14:18:07.000Z</time>
      </trkpt>
      <trkpt lat="48.05872" lon="7.01315">
        <ele>1163.4000244141</ele>
        <time>2022-10-09T14:18:09.000Z</time>
      </trkpt>
      <trkpt lat="48.05875" lon="7.01316">
        <ele>1163.4000244141</ele>
        <time>2022-10-09T14:18:13.000Z</time>
      </trkpt>
      <trkpt lat="48.05885" lon="7.01318">
        <ele>1163.4000244141</ele>
        <time>2022-10-09T14:18:20.000Z</time>
      </trkpt>
      <trkpt lat="48.05886" lon="7.01318">
        <ele>1163.4000244141</ele>
        <time>2022-10-09T14:18:22.000Z</time>
      </trkpt>
      <trkpt lat="48.05888" lon="7.01317">
        <ele>1163.4000244141</ele>
        <time>2022-10-09T14:18:24.000Z</time>
      </trkpt>
      <trkpt lat="48.05891" lon="7.01318">
        <ele>1163.4000244141</ele>
        <time>2022-10-09T14:18:26.000Z</time>
      </trkpt>
      <trkpt lat="48.05892" lon="7.01317">
        <ele>1163.4000244141</ele>
        <time>2022-10-09T14:18:27.000Z</time>
      </trkpt>
      <trkpt lat="48.05897" lon="7.01316">
        <ele>1163.4000244141</ele>
        <time>2022-10-09T14:18:31.000Z</time>
      </trkpt>
      <trkpt lat="48.05898" lon="7.01318">
        <ele>1163.4000244141</ele>
        <time>2022-10-09T14:18:36.000Z</time>
      </trkpt>
      <trkpt lat="48.05901" lon="7.01319">
        <ele>1163.4000244141</ele>
        <time>2022-10-09T14:18:41.000Z</time>
      </trkpt>
      <trkpt lat="48.05906" lon="7.0132">
        <ele>1163.4000244141</ele>
        <time>2022-10-09T14:18:48.000Z</time>
      </trkpt>
      <trkpt lat="48.05908" lon="7.0132">
        <ele>1163.4000244141</ele>
        <time>2022-10-09T14:18:54.000Z</time>
      </trkpt>
      <trkpt lat="48.05913" lon="7.01322">
        <ele>1163.4000244141</ele>
        <time>2022-10-09T14:19:01.000Z</time>
      </trkpt>
      <trkpt lat="48.05919" lon="7.01328">
        <ele>1163.4000244141</ele>
        <time>2022-10-09T14:19:08.000Z</time>
      </trkpt>
      <trkpt lat="48.05924" lon="7.0133">
        <ele>1163.4000244141</ele>
        <time>2022-10-09T14:19:15.000Z</time>
      </trkpt>
      <trkpt lat="48.0593" lon="7.01332">
        <ele>1163.4000244141</ele>
        <time>2022-10-09T14:19:22.000Z</time>
      </trkpt>
      <trkpt lat="48.05934" lon="7.01334">
        <ele>1163.4000244141</ele>
        <time>2022-10-09T14:19:28.000Z</time>
      </trkpt>
      <trkpt lat="48.05936" lon="7.01335">
        <ele>1160.8000488281</ele>
        <time>2022-10-09T14:19:32.000Z</time>
      </trkpt>
      <trkpt lat="48.05936" lon="7.01335">
        <ele>1160.8000488281</ele>
        <time>2022-10-09T14:19:33.000Z</time>
      </trkpt>
      <trkpt lat="48.05943" lon="7.01338">
        <ele>1161</ele>
        <time>2022-10-09T14:19:40.000Z</time>
      </trkpt>
      <trkpt lat="48.05947" lon="7.0134">
        <ele>1160.8000488281</ele>
        <time>2022-10-09T14:19:48.000Z</time>
      </trkpt>
      <trkpt lat="48.05948" lon="7.0134">
        <ele>1160.8000488281</ele>
        <time>2022-10-09T14:19:50.000Z</time>
      </trkpt>
      <trkpt lat="48.0595" lon="7.0134">
        <ele>1160.8000488281</ele>
        <time>2022-10-09T14:19:53.000Z</time>
      </trkpt>
      <trkpt lat="48.05953" lon="7.01341">
        <ele>1160.8000488281</ele>
        <time>2022-10-09T14:19:56.000Z</time>
      </trkpt>
      <trkpt lat="48.05954" lon="7.01341">
        <ele>1160.5999755859</ele>
        <time>2022-10-09T14:19:58.000Z</time>
      </trkpt>
      <trkpt lat="48.05959" lon="7.01346">
        <ele>1160.4000244141</ele>
        <time>2022-10-09T14:20:03.000Z</time>
      </trkpt>
      <trkpt lat="48.0596" lon="7.01347">
        <ele>1160.4000244141</ele>
        <time>2022-10-09T14:20:04.000Z</time>
      </trkpt>
      <trkpt lat="48.05961" lon="7.01348">
        <ele>1160.4000244141</ele>
        <time>2022-10-09T14:20:05.000Z</time>
      </trkpt>
      <trkpt lat="48.05963" lon="7.01352">
        <ele>1160.4000244141</ele>
        <time>2022-10-09T14:20:07.000Z</time>
      </trkpt>
      <trkpt lat="48.05964" lon="7.01353">
        <ele>1160.1999511719</ele>
        <time>2022-10-09T14:20:09.000Z</time>
      </trkpt>
      <trkpt lat="48.05969" lon="7.01354">
        <ele>1160.1999511719</ele>
        <time>2022-10-09T14:20:14.000Z</time>
      </trkpt>
      <trkpt lat="48.05973" lon="7.01356">
        <ele>1160</ele>
        <time>2022-10-09T14:20:21.000Z</time>
      </trkpt>
      <trkpt lat="48.05976" lon="7.01357">
        <ele>1159.8000488281</ele>
        <time>2022-10-09T14:20:27.000Z</time>
      </trkpt>
      <trkpt lat="48.05976" lon="7.01359">
        <ele>1159.8000488281</ele>
        <time>2022-10-09T14:20:28.000Z</time>
      </trkpt>
      <trkpt lat="48.0598" lon="7.01361">
        <ele>1159.5999755859</ele>
        <time>2022-10-09T14:20:33.000Z</time>
      </trkpt>
      <trkpt lat="48.05984" lon="7.01366">
        <ele>1159.5999755859</ele>
        <time>2022-10-09T14:20:40.000Z</time>
      </trkpt>
      <trkpt lat="48.05985" lon="7.01366">
        <ele>1159.5999755859</ele>
        <time>2022-10-09T14:20:41.000Z</time>
      </trkpt>
      <trkpt lat="48.05985" lon="7.01367">
        <ele>1159.5999755859</ele>
        <time>2022-10-09T14:20:43.000Z</time>
      </trkpt>
      <trkpt lat="48.05988" lon="7.01369">
        <ele>1159.5999755859</ele>
        <time>2022-10-09T14:20:45.000Z</time>
      </trkpt>
      <trkpt lat="48.0599" lon="7.0137">
        <ele>1159.8000488281</ele>
        <time>2022-10-09T14:20:47.000Z</time>
      </trkpt>
      <trkpt lat="48.05998" lon="7.01375">
        <ele>1159.5999755859</ele>
        <time>2022-10-09T14:20:55.000Z</time>
      </trkpt>
      <trkpt lat="48.06002" lon="7.01376">
        <ele>1159.1999511719</ele>
        <time>2022-10-09T14:21:00.000Z</time>
      </trkpt>
      <trkpt lat="48.06007" lon="7.01379">
        <ele>1159</ele>
        <time>2022-10-09T14:21:06.000Z</time>
      </trkpt>
      <trkpt lat="48.0601" lon="7.01381">
        <ele>1159</ele>
        <time>2022-10-09T14:21:08.000Z</time>
      </trkpt>
      <trkpt lat="48.06014" lon="7.01382">
        <ele>1159</ele>
        <time>2022-10-09T14:21:12.000Z</time>
      </trkpt>
      <trkpt lat="48.06016" lon="7.01385">
        <ele>1159</ele>
        <time>2022-10-09T14:21:19.000Z</time>
      </trkpt>
      <trkpt lat="48.06017" lon="7.01386">
        <ele>1158.8000488281</ele>
        <time>2022-10-09T14:21:22.000Z</time>
      </trkpt>
      <trkpt lat="48.06018" lon="7.01386">
        <ele>1158.8000488281</ele>
        <time>2022-10-09T14:21:24.000Z</time>
      </trkpt>
      <trkpt lat="48.06021" lon="7.01389">
        <ele>1158.5999755859</ele>
        <time>2022-10-09T14:21:29.000Z</time>
      </trkpt>
      <trkpt lat="48.06028" lon="7.01394">
        <ele>1158.1999511719</ele>
        <time>2022-10-09T14:21:36.000Z</time>
      </trkpt>
      <trkpt lat="48.06032" lon="7.01399">
        <ele>1158.1999511719</ele>
        <time>2022-10-09T14:21:41.000Z</time>
      </trkpt>
      <trkpt lat="48.06034" lon="7.01401">
        <ele>1158.1999511719</ele>
        <time>2022-10-09T14:21:43.000Z</time>
      </trkpt>
      <trkpt lat="48.0604" lon="7.01404">
        <ele>1158</ele>
        <time>2022-10-09T14:21:49.000Z</time>
      </trkpt>
      <trkpt lat="48.06044" lon="7.01408">
        <ele>1157.8000488281</ele>
        <time>2022-10-09T14:21:54.000Z</time>
      </trkpt>
      <trkpt lat="48.06048" lon="7.01414">
        <ele>1157.8000488281</ele>
        <time>2022-10-09T14:21:59.000Z</time>
      </trkpt>
      <trkpt lat="48.06051" lon="7.0142">
        <ele>1157.5999755859</ele>
        <time>2022-10-09T14:22:04.000Z</time>
      </trkpt>
      <trkpt lat="48.06053" lon="7.01423">
        <ele>1157.4000244141</ele>
        <time>2022-10-09T14:22:10.000Z</time>
      </trkpt>
      <trkpt lat="48.06054" lon="7.01423">
        <ele>1157.4000244141</ele>
        <time>2022-10-09T14:22:11.000Z</time>
      </trkpt>
      <trkpt lat="48.06055" lon="7.01424">
        <ele>1157.4000244141</ele>
        <time>2022-10-09T14:22:12.000Z</time>
      </trkpt>
      <trkpt lat="48.06057" lon="7.01426">
        <ele>1157.1999511719</ele>
        <time>2022-10-09T14:22:16.000Z</time>
      </trkpt>
      <trkpt lat="48.06062" lon="7.01429">
        <ele>1157</ele>
        <time>2022-10-09T14:22:22.000Z</time>
      </trkpt>
      <trkpt lat="48.06069" lon="7.01434">
        <ele>1156.8000488281</ele>
        <time>2022-10-09T14:22:28.000Z</time>
      </trkpt>
      <trkpt lat="48.0607" lon="7.01441">
        <ele>1156.5999755859</ele>
        <time>2022-10-09T14:22:33.000Z</time>
      </trkpt>
      <trkpt lat="48.06069" lon="7.01443">
        <ele>1156.5999755859</ele>
        <time>2022-10-09T14:22:37.000Z</time>
      </trkpt>
      <trkpt lat="48.06068" lon="7.01444">
        <ele>1156.4000244141</ele>
        <time>2022-10-09T14:22:40.000Z</time>
      </trkpt>
      <trkpt lat="48.06067" lon="7.01449">
        <ele>1156.5999755859</ele>
        <time>2022-10-09T14:22:47.000Z</time>
      </trkpt>
      <trkpt lat="48.06074" lon="7.0145">
        <ele>1156.5999755859</ele>
        <time>2022-10-09T14:22:58.000Z</time>
      </trkpt>
      <trkpt lat="48.06078" lon="7.0145">
        <ele>1156.1999511719</ele>
        <time>2022-10-09T14:23:03.000Z</time>
      </trkpt>
      <trkpt lat="48.06082" lon="7.01449">
        <ele>1156.1999511719</ele>
        <time>2022-10-09T14:23:09.000Z</time>
      </trkpt>
      <trkpt lat="48.06085" lon="7.01451">
        <ele>1156.1999511719</ele>
        <time>2022-10-09T14:23:14.000Z</time>
      </trkpt>
      <trkpt lat="48.0609" lon="7.01457">
        <ele>1156.1999511719</ele>
        <time>2022-10-09T14:23:20.000Z</time>
      </trkpt>
      <trkpt lat="48.06097" lon="7.01461">
        <ele>1155.8000488281</ele>
        <time>2022-10-09T14:23:27.000Z</time>
      </trkpt>
      <trkpt lat="48.06101" lon="7.01462">
        <ele>1155.8000488281</ele>
        <time>2022-10-09T14:23:33.000Z</time>
      </trkpt>
      <trkpt lat="48.06102" lon="7.01461">
        <ele>1155.5999755859</ele>
        <time>2022-10-09T14:23:35.000Z</time>
      </trkpt>
      <trkpt lat="48.06107" lon="7.01469">
        <ele>1155.5999755859</ele>
        <time>2022-10-09T14:23:43.000Z</time>
      </trkpt>
      <trkpt lat="48.06112" lon="7.01476">
        <ele>1155.4000244141</ele>
        <time>2022-10-09T14:23:50.000Z</time>
      </trkpt>
      <trkpt lat="48.06115" lon="7.01482">
        <ele>1155.4000244141</ele>
        <time>2022-10-09T14:23:55.000Z</time>
      </trkpt>
      <trkpt lat="48.06117" lon="7.01484">
        <ele>1155.1999511719</ele>
        <time>2022-10-09T14:24:00.000Z</time>
      </trkpt>
      <trkpt lat="48.0612" lon="7.01489">
        <ele>1155.1999511719</ele>
        <time>2022-10-09T14:24:04.000Z</time>
      </trkpt>
      <trkpt lat="48.06121" lon="7.01491">
        <ele>1155.1999511719</ele>
        <time>2022-10-09T14:24:06.000Z</time>
      </trkpt>
      <trkpt lat="48.06123" lon="7.01493">
        <ele>1155</ele>
        <time>2022-10-09T14:24:08.000Z</time>
      </trkpt>
      <trkpt lat="48.06123" lon="7.01495">
        <ele>1155</ele>
        <time>2022-10-09T14:24:10.000Z</time>
      </trkpt>
      <trkpt lat="48.06124" lon="7.01496">
        <ele>1155</ele>
        <time>2022-10-09T14:24:12.000Z</time>
      </trkpt>
      <trkpt lat="48.06125" lon="7.01498">
        <ele>1155</ele>
        <time>2022-10-09T14:24:14.000Z</time>
      </trkpt>
      <trkpt lat="48.06133" lon="7.0151">
        <ele>1154.8000488281</ele>
        <time>2022-10-09T14:24:21.000Z</time>
      </trkpt>
      <trkpt lat="48.0614" lon="7.01519">
        <ele>1154.5999755859</ele>
        <time>2022-10-09T14:24:30.000Z</time>
      </trkpt>
      <trkpt lat="48.06141" lon="7.0152">
        <ele>1154.5999755859</ele>
        <time>2022-10-09T14:24:31.000Z</time>
      </trkpt>
      <trkpt lat="48.06143" lon="7.01521">
        <ele>1154.5999755859</ele>
        <time>2022-10-09T14:24:33.000Z</time>
      </trkpt>
      <trkpt lat="48.06147" lon="7.01524">
        <ele>1154.4000244141</ele>
        <time>2022-10-09T14:24:37.000Z</time>
      </trkpt>
      <trkpt lat="48.0615" lon="7.01529">
        <ele>1154.4000244141</ele>
        <time>2022-10-09T14:24:41.000Z</time>
      </trkpt>
      <trkpt lat="48.06151" lon="7.01529">
        <ele>1154.4000244141</ele>
        <time>2022-10-09T14:24:43.000Z</time>
      </trkpt>
      <trkpt lat="48.06156" lon="7.01534">
        <ele>1154</ele>
        <time>2022-10-09T14:24:50.000Z</time>
      </trkpt>
      <trkpt lat="48.06158" lon="7.01538">
        <ele>1154</ele>
        <time>2022-10-09T14:24:55.000Z</time>
      </trkpt>
      <trkpt lat="48.0616" lon="7.01538">
        <ele>1154</ele>
        <time>2022-10-09T14:24:59.000Z</time>
      </trkpt>
      <trkpt lat="48.06162" lon="7.0154">
        <ele>1154</ele>
        <time>2022-10-09T14:25:04.000Z</time>
      </trkpt>
      <trkpt lat="48.06162" lon="7.0154">
        <ele>1154</ele>
        <time>2022-10-09T14:25:05.000Z</time>
      </trkpt>
      <trkpt lat="48.06162" lon="7.01541">
        <ele>1153.8000488281</ele>
        <time>2022-10-09T14:25:06.000Z</time>
      </trkpt>
      <trkpt lat="48.06163" lon="7.01544">
        <ele>1153.8000488281</ele>
        <time>2022-10-09T14:25:10.000Z</time>
      </trkpt>
      <trkpt lat="48.06167" lon="7.01552">
        <ele>1153.5999755859</ele>
        <time>2022-10-09T14:25:17.000Z</time>
      </trkpt>
      <trkpt lat="48.06168" lon="7.01556">
        <ele>1153.5999755859</ele>
        <time>2022-10-09T14:25:20.000Z</time>
      </trkpt>
      <trkpt lat="48.06171" lon="7.01561">
        <ele>1153.4000244141</ele>
        <time>2022-10-09T14:25:24.000Z</time>
      </trkpt>
      <trkpt lat="48.06173" lon="7.01568">
        <ele>1153.1999511719</ele>
        <time>2022-10-09T14:25:30.000Z</time>
      </trkpt>
      <trkpt lat="48.06177" lon="7.01569">
        <ele>1153</ele>
        <time>2022-10-09T14:25:35.000Z</time>
      </trkpt>
      <trkpt lat="48.06177" lon="7.0157">
        <ele>1153</ele>
        <time>2022-10-09T14:25:36.000Z</time>
      </trkpt>
      <trkpt lat="48.06179" lon="7.01574">
        <ele>1153</ele>
        <time>2022-10-09T14:25:39.000Z</time>
      </trkpt>
      <trkpt lat="48.06182" lon="7.0158">
        <ele>1153</ele>
        <time>2022-10-09T14:25:44.000Z</time>
      </trkpt>
      <trkpt lat="48.06186" lon="7.01584">
        <ele>1152.8000488281</ele>
        <time>2022-10-09T14:25:50.000Z</time>
      </trkpt>
      <trkpt lat="48.06188" lon="7.01587">
        <ele>1152.8000488281</ele>
        <time>2022-10-09T14:25:53.000Z</time>
      </trkpt>
      <trkpt lat="48.06189" lon="7.01588">
        <ele>1152.8000488281</ele>
        <time>2022-10-09T14:25:54.000Z</time>
      </trkpt>
      <trkpt lat="48.0619" lon="7.01593">
        <ele>1152.8000488281</ele>
        <time>2022-10-09T14:25:58.000Z</time>
      </trkpt>
      <trkpt lat="48.06191" lon="7.01596">
        <ele>1152.5999755859</ele>
        <time>2022-10-09T14:26:00.000Z</time>
      </trkpt>
      <trkpt lat="48.06192" lon="7.01605">
        <ele>1152</ele>
        <time>2022-10-09T14:26:05.000Z</time>
      </trkpt>
      <trkpt lat="48.06192" lon="7.01607">
        <ele>1152</ele>
        <time>2022-10-09T14:26:06.000Z</time>
      </trkpt>
      <trkpt lat="48.06192" lon="7.01615">
        <ele>1152.4000244141</ele>
        <time>2022-10-09T14:26:13.000Z</time>
      </trkpt>
      <trkpt lat="48.06191" lon="7.01617">
        <ele>1152.4000244141</ele>
        <time>2022-10-09T14:26:20.000Z</time>
      </trkpt>
      <trkpt lat="48.06189" lon="7.01615">
        <ele>1152.4000244141</ele>
        <time>2022-10-09T14:26:24.000Z</time>
      </trkpt>
      <trkpt lat="48.06189" lon="7.01616">
        <ele>1152.4000244141</ele>
        <time>2022-10-09T14:26:26.000Z</time>
      </trkpt>
      <trkpt lat="48.06189" lon="7.01617">
        <ele>1152.1999511719</ele>
        <time>2022-10-09T14:26:41.000Z</time>
      </trkpt>
      <trkpt lat="48.06188" lon="7.01619">
        <ele>1152</ele>
        <time>2022-10-09T14:26:45.000Z</time>
      </trkpt>
      <trkpt lat="48.06188" lon="7.01623">
        <ele>1152</ele>
        <time>2022-10-09T14:26:50.000Z</time>
      </trkpt>
      <trkpt lat="48.06189" lon="7.01624">
        <ele>1152</ele>
        <time>2022-10-09T14:26:51.000Z</time>
      </trkpt>
      <trkpt lat="48.0619" lon="7.01629">
        <ele>1151.8000488281</ele>
        <time>2022-10-09T14:26:55.000Z</time>
      </trkpt>
      <trkpt lat="48.06193" lon="7.01634">
        <ele>1151.8000488281</ele>
        <time>2022-10-09T14:26:59.000Z</time>
      </trkpt>
      <trkpt lat="48.06194" lon="7.01635">
        <ele>1151.8000488281</ele>
        <time>2022-10-09T14:27:00.000Z</time>
      </trkpt>
      <trkpt lat="48.06198" lon="7.01638">
        <ele>1151.8000488281</ele>
        <time>2022-10-09T14:27:04.000Z</time>
      </trkpt>
      <trkpt lat="48.06199" lon="7.01638">
        <ele>1151.8000488281</ele>
        <time>2022-10-09T14:27:05.000Z</time>
      </trkpt>
      <trkpt lat="48.06203" lon="7.01643">
        <ele>1151.5999755859</ele>
        <time>2022-10-09T14:27:10.000Z</time>
      </trkpt>
      <trkpt lat="48.06204" lon="7.01645">
        <ele>1151.5999755859</ele>
        <time>2022-10-09T14:27:12.000Z</time>
      </trkpt>
      <trkpt lat="48.06204" lon="7.01647">
        <ele>1151.4000244141</ele>
        <time>2022-10-09T14:27:13.000Z</time>
      </trkpt>
      <trkpt lat="48.06207" lon="7.01652">
        <ele>1151.1999511719</ele>
        <time>2022-10-09T14:27:17.000Z</time>
      </trkpt>
      <trkpt lat="48.06208" lon="7.01656">
        <ele>1151</ele>
        <time>2022-10-09T14:27:22.000Z</time>
      </trkpt>
      <trkpt lat="48.06209" lon="7.0166">
        <ele>1151</ele>
        <time>2022-10-09T14:27:26.000Z</time>
      </trkpt>
      <trkpt lat="48.06211" lon="7.01662">
        <ele>1150.8000488281</ele>
        <time>2022-10-09T14:27:28.000Z</time>
      </trkpt>
      <trkpt lat="48.06212" lon="7.01664">
        <ele>1150.5999755859</ele>
        <time>2022-10-09T14:27:30.000Z</time>
      </trkpt>
      <trkpt lat="48.06215" lon="7.0167">
        <ele>1150.5999755859</ele>
        <time>2022-10-09T14:27:33.000Z</time>
      </trkpt>
      <trkpt lat="48.06218" lon="7.01673">
        <ele>1150.5999755859</ele>
        <time>2022-10-09T14:27:36.000Z</time>
      </trkpt>
      <trkpt lat="48.06218" lon="7.01677">
        <ele>1150.4000244141</ele>
        <time>2022-10-09T14:27:39.000Z</time>
      </trkpt>
      <trkpt lat="48.0622" lon="7.01687">
        <ele>1150.1999511719</ele>
        <time>2022-10-09T14:27:45.000Z</time>
      </trkpt>
      <trkpt lat="48.06221" lon="7.01691">
        <ele>1150.1999511719</ele>
        <time>2022-10-09T14:27:48.000Z</time>
      </trkpt>
      <trkpt lat="48.0622" lon="7.01692">
        <ele>1150.4000244141</ele>
        <time>2022-10-09T14:27:49.000Z</time>
      </trkpt>
      <trkpt lat="48.06219" lon="7.01691">
        <ele>1150.5999755859</ele>
        <time>2022-10-09T14:27:50.000Z</time>
      </trkpt>
      <trkpt lat="48.06215" lon="7.0169">
        <ele>1150.8000488281</ele>
        <time>2022-10-09T14:27:57.000Z</time>
      </trkpt>
      <trkpt lat="48.06215" lon="7.01692">
        <ele>1150.8000488281</ele>
        <time>2022-10-09T14:28:00.000Z</time>
      </trkpt>
      <trkpt lat="48.06218" lon="7.01692">
        <ele>1151</ele>
        <time>2022-10-09T14:28:06.000Z</time>
      </trkpt>
      <trkpt lat="48.06219" lon="7.01697">
        <ele>1151</ele>
        <time>2022-10-09T14:28:12.000Z</time>
      </trkpt>
      <trkpt lat="48.06221" lon="7.01705">
        <ele>1150.1999511719</ele>
        <time>2022-10-09T14:28:17.000Z</time>
      </trkpt>
      <trkpt lat="48.06222" lon="7.01708">
        <ele>1149.8000488281</ele>
        <time>2022-10-09T14:28:19.000Z</time>
      </trkpt>
      <trkpt lat="48.06223" lon="7.01714">
        <ele>1149.5999755859</ele>
        <time>2022-10-09T14:28:23.000Z</time>
      </trkpt>
      <trkpt lat="48.06223" lon="7.01715">
        <ele>1149.5999755859</ele>
        <time>2022-10-09T14:28:25.000Z</time>
      </trkpt>
      <trkpt lat="48.06223" lon="7.01721">
        <ele>1149.5999755859</ele>
        <time>2022-10-09T14:28:31.000Z</time>
      </trkpt>
      <trkpt lat="48.06224" lon="7.01729">
        <ele>1149.1999511719</ele>
        <time>2022-10-09T14:28:40.000Z</time>
      </trkpt>
      <trkpt lat="48.06227" lon="7.01738">
        <ele>1148.8000488281</ele>
        <time>2022-10-09T14:28:47.000Z</time>
      </trkpt>
      <trkpt lat="48.06224" lon="7.01746">
        <ele>1149</ele>
        <time>2022-10-09T14:28:53.000Z</time>
      </trkpt>
      <trkpt lat="48.06226" lon="7.01749">
        <ele>1148.8000488281</ele>
        <time>2022-10-09T14:28:58.000Z</time>
      </trkpt>
      <trkpt lat="48.06228" lon="7.01756">
        <ele>1148.5999755859</ele>
        <time>2022-10-09T14:29:05.000Z</time>
      </trkpt>
      <trkpt lat="48.06228" lon="7.01759">
        <ele>1148.4000244141</ele>
        <time>2022-10-09T14:29:07.000Z</time>
      </trkpt>
      <trkpt lat="48.06228" lon="7.01768">
        <ele>1148.1999511719</ele>
        <time>2022-10-09T14:29:13.000Z</time>
      </trkpt>
      <trkpt lat="48.06231" lon="7.01771">
        <ele>1148.1999511719</ele>
        <time>2022-10-09T14:29:19.000Z</time>
      </trkpt>
      <trkpt lat="48.06235" lon="7.01776">
        <ele>1148.1999511719</ele>
        <time>2022-10-09T14:29:22.000Z</time>
      </trkpt>
      <trkpt lat="48.06237" lon="7.01779">
        <ele>1148</ele>
        <time>2022-10-09T14:29:25.000Z</time>
      </trkpt>
      <trkpt lat="48.06241" lon="7.01786">
        <ele>1147.8000488281</ele>
        <time>2022-10-09T14:29:29.000Z</time>
      </trkpt>
      <trkpt lat="48.06242" lon="7.01789">
        <ele>1147.8000488281</ele>
        <time>2022-10-09T14:29:31.000Z</time>
      </trkpt>
      <trkpt lat="48.06242" lon="7.01792">
        <ele>1147.8000488281</ele>
        <time>2022-10-09T14:29:33.000Z</time>
      </trkpt>
      <trkpt lat="48.06243" lon="7.01793">
        <ele>1147.8000488281</ele>
        <time>2022-10-09T14:29:34.000Z</time>
      </trkpt>
      <trkpt lat="48.06243" lon="7.01794">
        <ele>1147.5999755859</ele>
        <time>2022-10-09T14:29:38.000Z</time>
      </trkpt>
      <trkpt lat="48.06241" lon="7.01801">
        <ele>1147.5999755859</ele>
        <time>2022-10-09T14:29:47.000Z</time>
      </trkpt>
      <trkpt lat="48.06242" lon="7.01804">
        <ele>1147.4000244141</ele>
        <time>2022-10-09T14:29:50.000Z</time>
      </trkpt>
      <trkpt lat="48.06243" lon="7.01807">
        <ele>1147.4000244141</ele>
        <time>2022-10-09T14:29:53.000Z</time>
      </trkpt>
      <trkpt lat="48.06246" lon="7.01821">
        <ele>1147</ele>
        <time>2022-10-09T14:30:01.000Z</time>
      </trkpt>
      <trkpt lat="48.06246" lon="7.01828">
        <ele>1146.8000488281</ele>
        <time>2022-10-09T14:30:06.000Z</time>
      </trkpt>
      <trkpt lat="48.06245" lon="7.01832">
        <ele>1146.5999755859</ele>
        <time>2022-10-09T14:30:09.000Z</time>
      </trkpt>
      <trkpt lat="48.06242" lon="7.01835">
        <ele>1146.4000244141</ele>
        <time>2022-10-09T14:30:14.000Z</time>
      </trkpt>
      <trkpt lat="48.06242" lon="7.01838">
        <ele>1146.5999755859</ele>
        <time>2022-10-09T14:30:17.000Z</time>
      </trkpt>
      <trkpt lat="48.06241" lon="7.01844">
        <ele>1146.1999511719</ele>
        <time>2022-10-09T14:30:22.000Z</time>
      </trkpt>
      <trkpt lat="48.06241" lon="7.01845">
        <ele>1146.1999511719</ele>
        <time>2022-10-09T14:30:23.000Z</time>
      </trkpt>
      <trkpt lat="48.06241" lon="7.0185">
        <ele>1146</ele>
        <time>2022-10-09T14:30:26.000Z</time>
      </trkpt>
      <trkpt lat="48.06244" lon="7.0186">
        <ele>1146</ele>
        <time>2022-10-09T14:30:32.000Z</time>
      </trkpt>
      <trkpt lat="48.06244" lon="7.01865">
        <ele>1145.5999755859</ele>
        <time>2022-10-09T14:30:35.000Z</time>
      </trkpt>
      <trkpt lat="48.06244" lon="7.0187">
        <ele>1145.5999755859</ele>
        <time>2022-10-09T14:30:39.000Z</time>
      </trkpt>
      <trkpt lat="48.06245" lon="7.01873">
        <ele>1145.4000244141</ele>
        <time>2022-10-09T14:30:41.000Z</time>
      </trkpt>
      <trkpt lat="48.06245" lon="7.01875">
        <ele>1145.4000244141</ele>
        <time>2022-10-09T14:30:42.000Z</time>
      </trkpt>
      <trkpt lat="48.06244" lon="7.01876">
        <ele>1145.4000244141</ele>
        <time>2022-10-09T14:30:43.000Z</time>
      </trkpt>
      <trkpt lat="48.06242" lon="7.01876">
        <ele>1145.5999755859</ele>
        <time>2022-10-09T14:30:45.000Z</time>
      </trkpt>
      <trkpt lat="48.06241" lon="7.01875">
        <ele>1145.5999755859</ele>
        <time>2022-10-09T14:30:52.000Z</time>
      </trkpt>
      <trkpt lat="48.06239" lon="7.01871">
        <ele>1145.5999755859</ele>
        <time>2022-10-09T14:31:00.000Z</time>
      </trkpt>
      <trkpt lat="48.06238" lon="7.01879">
        <ele>1145</ele>
        <time>2022-10-09T14:31:11.000Z</time>
      </trkpt>
      <trkpt lat="48.06238" lon="7.01892">
        <ele>1144.5999755859</ele>
        <time>2022-10-09T14:31:18.000Z</time>
      </trkpt>
      <trkpt lat="48.06241" lon="7.01896">
        <ele>1144.4000244141</ele>
        <time>2022-10-09T14:31:20.000Z</time>
      </trkpt>
      <trkpt lat="48.06245" lon="7.01902">
        <ele>1144.4000244141</ele>
        <time>2022-10-09T14:31:24.000Z</time>
      </trkpt>
      <trkpt lat="48.06245" lon="7.0191">
        <ele>1144.1999511719</ele>
        <time>2022-10-09T14:31:28.000Z</time>
      </trkpt>
      <trkpt lat="48.06246" lon="7.01918">
        <ele>1144</ele>
        <time>2022-10-09T14:31:34.000Z</time>
      </trkpt>
      <trkpt lat="48.06248" lon="7.01922">
        <ele>1144</ele>
        <time>2022-10-09T14:31:37.000Z</time>
      </trkpt>
      <trkpt lat="48.06249" lon="7.01924">
        <ele>1144</ele>
        <time>2022-10-09T14:31:39.000Z</time>
      </trkpt>
      <trkpt lat="48.0625" lon="7.01929">
        <ele>1144</ele>
        <time>2022-10-09T14:31:42.000Z</time>
      </trkpt>
      <trkpt lat="48.0625" lon="7.01932">
        <ele>1144</ele>
        <time>2022-10-09T14:31:44.000Z</time>
      </trkpt>
      <trkpt lat="48.06251" lon="7.01937">
        <ele>1143.8000488281</ele>
        <time>2022-10-09T14:31:47.000Z</time>
      </trkpt>
      <trkpt lat="48.06249" lon="7.01943">
        <ele>1143.8000488281</ele>
        <time>2022-10-09T14:31:50.000Z</time>
      </trkpt>
      <trkpt lat="48.0625" lon="7.01952">
        <ele>1143.5999755859</ele>
        <time>2022-10-09T14:31:55.000Z</time>
      </trkpt>
      <trkpt lat="48.0625" lon="7.01956">
        <ele>1143.5999755859</ele>
        <time>2022-10-09T14:31:58.000Z</time>
      </trkpt>
      <trkpt lat="48.0625" lon="7.01962">
        <ele>1143.5999755859</ele>
        <time>2022-10-09T14:32:04.000Z</time>
      </trkpt>
      <trkpt lat="48.06249" lon="7.01963">
        <ele>1143.4000244141</ele>
        <time>2022-10-09T14:32:06.000Z</time>
      </trkpt>
      <trkpt lat="48.06252" lon="7.01968">
        <ele>1143.1999511719</ele>
        <time>2022-10-09T14:32:13.000Z</time>
      </trkpt>
      <trkpt lat="48.0625" lon="7.01964">
        <ele>1143</ele>
        <time>2022-10-09T14:32:19.000Z</time>
      </trkpt>
      <trkpt lat="48.06249" lon="7.01965">
        <ele>1142.8000488281</ele>
        <time>2022-10-09T14:32:25.000Z</time>
      </trkpt>
      <trkpt lat="48.06249" lon="7.01965">
        <ele>1142.8000488281</ele>
        <time>2022-10-09T14:32:27.000Z</time>
      </trkpt>
      <trkpt lat="48.0625" lon="7.01974">
        <ele>1142.5999755859</ele>
        <time>2022-10-09T14:32:36.000Z</time>
      </trkpt>
      <trkpt lat="48.06251" lon="7.01975">
        <ele>1142.5999755859</ele>
        <time>2022-10-09T14:32:37.000Z</time>
      </trkpt>
      <trkpt lat="48.06252" lon="7.01976">
        <ele>1142.5999755859</ele>
        <time>2022-10-09T14:32:38.000Z</time>
      </trkpt>
      <trkpt lat="48.06251" lon="7.01977">
        <ele>1142.5999755859</ele>
        <time>2022-10-09T14:32:39.000Z</time>
      </trkpt>
      <trkpt lat="48.06251" lon="7.01979">
        <ele>1142.5999755859</ele>
        <time>2022-10-09T14:32:42.000Z</time>
      </trkpt>
      <trkpt lat="48.0625" lon="7.01979">
        <ele>1142.5999755859</ele>
        <time>2022-10-09T14:32:43.000Z</time>
      </trkpt>
      <trkpt lat="48.06249" lon="7.01982">
        <ele>1142.4000244141</ele>
        <time>2022-10-09T14:32:49.000Z</time>
      </trkpt>
      <trkpt lat="48.06246" lon="7.01988">
        <ele>1142.4000244141</ele>
        <time>2022-10-09T14:32:57.000Z</time>
      </trkpt>
      <trkpt lat="48.06246" lon="7.02">
        <ele>1142</ele>
        <time>2022-10-09T14:33:06.000Z</time>
      </trkpt>
      <trkpt lat="48.06248" lon="7.02007">
        <ele>1142</ele>
        <time>2022-10-09T14:33:11.000Z</time>
      </trkpt>
      <trkpt lat="48.06247" lon="7.02009">
        <ele>1142</ele>
        <time>2022-10-09T14:33:13.000Z</time>
      </trkpt>
      <trkpt lat="48.06245" lon="7.0201">
        <ele>1142.1999511719</ele>
        <time>2022-10-09T14:33:16.000Z</time>
      </trkpt>
      <trkpt lat="48.06243" lon="7.02011">
        <ele>1142.1999511719</ele>
        <time>2022-10-09T14:33:21.000Z</time>
      </trkpt>
      <trkpt lat="48.06243" lon="7.02012">
        <ele>1142.1999511719</ele>
        <time>2022-10-09T14:33:23.000Z</time>
      </trkpt>
      <trkpt lat="48.06242" lon="7.02018">
        <ele>1141.8000488281</ele>
        <time>2022-10-09T14:33:29.000Z</time>
      </trkpt>
      <trkpt lat="48.06241" lon="7.02025">
        <ele>1141.5999755859</ele>
        <time>2022-10-09T14:33:36.000Z</time>
      </trkpt>
      <trkpt lat="48.0624" lon="7.02027">
        <ele>1141.5999755859</ele>
        <time>2022-10-09T14:33:37.000Z</time>
      </trkpt>
      <trkpt lat="48.06239" lon="7.0203">
        <ele>1141.4000244141</ele>
        <time>2022-10-09T14:33:39.000Z</time>
      </trkpt>
      <trkpt lat="48.06235" lon="7.02034">
        <ele>1141.1999511719</ele>
        <time>2022-10-09T14:33:43.000Z</time>
      </trkpt>
      <trkpt lat="48.06235" lon="7.02034">
        <ele>1141.1999511719</ele>
        <time>2022-10-09T14:33:44.000Z</time>
      </trkpt>
      <trkpt lat="48.06235" lon="7.02034">
        <ele>1141.1999511719</ele>
        <time>2022-10-09T14:33:45.000Z</time>
      </trkpt>
      <trkpt lat="48.06235" lon="7.02037">
        <ele>1141.1999511719</ele>
        <time>2022-10-09T14:33:49.000Z</time>
      </trkpt>
      <trkpt lat="48.06234" lon="7.02041">
        <ele>1141.4000244141</ele>
        <time>2022-10-09T14:33:53.000Z</time>
      </trkpt>
      <trkpt lat="48.06233" lon="7.02043">
        <ele>1141.4000244141</ele>
        <time>2022-10-09T14:33:55.000Z</time>
      </trkpt>
      <trkpt lat="48.06232" lon="7.02047">
        <ele>1141.1999511719</ele>
        <time>2022-10-09T14:33:59.000Z</time>
      </trkpt>
      <trkpt lat="48.06231" lon="7.02048">
        <ele>1141</ele>
        <time>2022-10-09T14:34:00.000Z</time>
      </trkpt>
      <trkpt lat="48.06231" lon="7.02052">
        <ele>1140.8000488281</ele>
        <time>2022-10-09T14:34:03.000Z</time>
      </trkpt>
      <trkpt lat="48.06233" lon="7.02067">
        <ele>1140.5999755859</ele>
        <time>2022-10-09T14:34:11.000Z</time>
      </trkpt>
      <trkpt lat="48.06234" lon="7.02069">
        <ele>1140.5999755859</ele>
        <time>2022-10-09T14:34:12.000Z</time>
      </trkpt>
      <trkpt lat="48.06234" lon="7.02076">
        <ele>1140.5999755859</ele>
        <time>2022-10-09T14:34:17.000Z</time>
      </trkpt>
      <trkpt lat="48.06235" lon="7.02078">
        <ele>1140.5999755859</ele>
        <time>2022-10-09T14:34:19.000Z</time>
      </trkpt>
      <trkpt lat="48.06237" lon="7.02083">
        <ele>1140.5999755859</ele>
        <time>2022-10-09T14:34:23.000Z</time>
      </trkpt>
      <trkpt lat="48.06238" lon="7.02089">
        <ele>1140.4000244141</ele>
        <time>2022-10-09T14:34:28.000Z</time>
      </trkpt>
      <trkpt lat="48.06237" lon="7.02096">
        <ele>1140.5999755859</ele>
        <time>2022-10-09T14:34:35.000Z</time>
      </trkpt>
      <trkpt lat="48.06234" lon="7.02101">
        <ele>1140.5999755859</ele>
        <time>2022-10-09T14:34:45.000Z</time>
      </trkpt>
      <trkpt lat="48.06234" lon="7.021">
        <ele>1140.4000244141</ele>
        <time>2022-10-09T14:35:00.000Z</time>
      </trkpt>
      <trkpt lat="48.06234" lon="7.021">
        <ele>1140.1999511719</ele>
        <time>2022-10-09T14:35:01.000Z</time>
      </trkpt>
      <trkpt lat="48.06244" lon="7.021">
        <ele>1139.4000244141</ele>
        <time>2022-10-09T14:35:10.000Z</time>
      </trkpt>
      <trkpt lat="48.06248" lon="7.021">
        <ele>1139.4000244141</ele>
        <time>2022-10-09T14:35:15.000Z</time>
      </trkpt>
      <trkpt lat="48.06253" lon="7.021">
        <ele>1139.1999511719</ele>
        <time>2022-10-09T14:35:20.000Z</time>
      </trkpt>
      <trkpt lat="48.06258" lon="7.02101">
        <ele>1139.1999511719</ele>
        <time>2022-10-09T14:35:24.000Z</time>
      </trkpt>
      <trkpt lat="48.06259" lon="7.021">
        <ele>1139.4000244141</ele>
        <time>2022-10-09T14:35:25.000Z</time>
      </trkpt>
      <trkpt lat="48.06261" lon="7.021">
        <ele>1139.4000244141</ele>
        <time>2022-10-09T14:35:27.000Z</time>
      </trkpt>
      <trkpt lat="48.06262" lon="7.021">
        <ele>1139.4000244141</ele>
        <time>2022-10-09T14:35:28.000Z</time>
      </trkpt>
      <trkpt lat="48.06263" lon="7.021">
        <ele>1139.4000244141</ele>
        <time>2022-10-09T14:35:29.000Z</time>
      </trkpt>
      <trkpt lat="48.06266" lon="7.02102">
        <ele>1139.5999755859</ele>
        <time>2022-10-09T14:35:31.000Z</time>
      </trkpt>
      <trkpt lat="48.0627" lon="7.02104">
        <ele>1139.5999755859</ele>
        <time>2022-10-09T14:35:35.000Z</time>
      </trkpt>
      <trkpt lat="48.06271" lon="7.02103">
        <ele>1139.5999755859</ele>
        <time>2022-10-09T14:35:36.000Z</time>
      </trkpt>
      <trkpt lat="48.06273" lon="7.02104">
        <ele>1139.5999755859</ele>
        <time>2022-10-09T14:35:38.000Z</time>
      </trkpt>
      <trkpt lat="48.06274" lon="7.02104">
        <ele>1139.4000244141</ele>
        <time>2022-10-09T14:35:40.000Z</time>
      </trkpt>
      <trkpt lat="48.06277" lon="7.02105">
        <ele>1139.5999755859</ele>
        <time>2022-10-09T14:35:43.000Z</time>
      </trkpt>
      <trkpt lat="48.06277" lon="7.02108">
        <ele>1140</ele>
        <time>2022-10-09T14:35:50.000Z</time>
      </trkpt>
      <trkpt lat="48.06281" lon="7.0211">
        <ele>1140</ele>
        <time>2022-10-09T14:35:56.000Z</time>
      </trkpt>
      <trkpt lat="48.06282" lon="7.02111">
        <ele>1140.1999511719</ele>
        <time>2022-10-09T14:35:59.000Z</time>
      </trkpt>
      <trkpt lat="48.06282" lon="7.02111">
        <ele>1140.1999511719</ele>
        <time>2022-10-09T14:36:00.000Z</time>
      </trkpt>
      <trkpt lat="48.06283" lon="7.02112">
        <ele>1140.4000244141</ele>
        <time>2022-10-09T14:36:03.000Z</time>
      </trkpt>
      <trkpt lat="48.06283" lon="7.02112">
        <ele>1140.4000244141</ele>
        <time>2022-10-09T14:36:04.000Z</time>
      </trkpt>
      <trkpt lat="48.06281" lon="7.02113">
        <ele>1140.5999755859</ele>
        <time>2022-10-09T14:36:07.000Z</time>
      </trkpt>
      <trkpt lat="48.06281" lon="7.02114">
        <ele>1140.5999755859</ele>
        <time>2022-10-09T14:36:21.000Z</time>
      </trkpt>
      <trkpt lat="48.06281" lon="7.02115">
        <ele>1140.8000488281</ele>
        <time>2022-10-09T14:36:24.000Z</time>
      </trkpt>
      <trkpt lat="48.06281" lon="7.02116">
        <ele>1140.8000488281</ele>
        <time>2022-10-09T14:36:31.000Z</time>
      </trkpt>
      <trkpt lat="48.06287" lon="7.02125">
        <ele>1140.4000244141</ele>
        <time>2022-10-09T14:36:42.000Z</time>
      </trkpt>
      <trkpt lat="48.06293" lon="7.02137">
        <ele>1141</ele>
        <time>2022-10-09T14:36:49.000Z</time>
      </trkpt>
      <trkpt lat="48.06293" lon="7.0214">
        <ele>1141.1999511719</ele>
        <time>2022-10-09T14:36:51.000Z</time>
      </trkpt>
      <trkpt lat="48.06295" lon="7.02148">
        <ele>1141.4000244141</ele>
        <time>2022-10-09T14:36:57.000Z</time>
      </trkpt>
      <trkpt lat="48.06299" lon="7.02156">
        <ele>1141.4000244141</ele>
        <time>2022-10-09T14:37:07.000Z</time>
      </trkpt>
      <trkpt lat="48.06299" lon="7.02157">
        <ele>1141.5999755859</ele>
        <time>2022-10-09T14:37:13.000Z</time>
      </trkpt>
      <trkpt lat="48.06299" lon="7.02156">
        <ele>1141.5999755859</ele>
        <time>2022-10-09T14:37:14.000Z</time>
      </trkpt>
      <trkpt lat="48.06298" lon="7.02155">
        <ele>1141.5999755859</ele>
        <time>2022-10-09T14:37:16.000Z</time>
      </trkpt>
      <trkpt lat="48.06298" lon="7.02155">
        <ele>1141.5999755859</ele>
        <time>2022-10-09T14:37:18.000Z</time>
      </trkpt>
      <trkpt lat="48.06294" lon="7.02147">
        <ele>1140.5999755859</ele>
        <time>2022-10-09T14:37:28.000Z</time>
      </trkpt>
      <trkpt lat="48.06295" lon="7.02132">
        <ele>1141</ele>
        <time>2022-10-09T14:37:35.000Z</time>
      </trkpt>
      <trkpt lat="48.06296" lon="7.02122">
        <ele>1140.5999755859</ele>
        <time>2022-10-09T14:37:44.000Z</time>
      </trkpt>
      <trkpt lat="48.06296" lon="7.02129">
        <ele>1140.8000488281</ele>
        <time>2022-10-09T14:37:49.000Z</time>
      </trkpt>
      <trkpt lat="48.06299" lon="7.02135">
        <ele>1140.5999755859</ele>
        <time>2022-10-09T14:37:54.000Z</time>
      </trkpt>
      <trkpt lat="48.063" lon="7.02141">
        <ele>1140.1999511719</ele>
        <time>2022-10-09T14:37:58.000Z</time>
      </trkpt>
      <trkpt lat="48.06303" lon="7.02144">
        <ele>1139.8000488281</ele>
        <time>2022-10-09T14:38:03.000Z</time>
      </trkpt>
      <trkpt lat="48.0631" lon="7.02149">
        <ele>1139.8000488281</ele>
        <time>2022-10-09T14:38:11.000Z</time>
      </trkpt>
      <trkpt lat="48.06311" lon="7.02152">
        <ele>1139.8000488281</ele>
        <time>2022-10-09T14:38:13.000Z</time>
      </trkpt>
      <trkpt lat="48.06316" lon="7.02156">
        <ele>1139.8000488281</ele>
        <time>2022-10-09T14:38:18.000Z</time>
      </trkpt>
      <trkpt lat="48.06327" lon="7.02163">
        <ele>1139.1999511719</ele>
        <time>2022-10-09T14:38:28.000Z</time>
      </trkpt>
      <trkpt lat="48.06328" lon="7.02164">
        <ele>1139.1999511719</ele>
        <time>2022-10-09T14:38:29.000Z</time>
      </trkpt>
      <trkpt lat="48.06335" lon="7.02166">
        <ele>1138.8000488281</ele>
        <time>2022-10-09T14:38:37.000Z</time>
      </trkpt>
      <trkpt lat="48.06336" lon="7.02165">
        <ele>1138.5999755859</ele>
        <time>2022-10-09T14:38:39.000Z</time>
      </trkpt>
      <trkpt lat="48.06338" lon="7.02167">
        <ele>1138.4000244141</ele>
        <time>2022-10-09T14:38:47.000Z</time>
      </trkpt>
      <trkpt lat="48.06336" lon="7.02165">
        <ele>1138.4000244141</ele>
        <time>2022-10-09T14:38:56.000Z</time>
      </trkpt>
      <trkpt lat="48.06338" lon="7.02158">
        <ele>1138.1999511719</ele>
        <time>2022-10-09T14:39:12.000Z</time>
      </trkpt>
      <trkpt lat="48.06334" lon="7.02146">
        <ele>1138.1999511719</ele>
        <time>2022-10-09T14:39:21.000Z</time>
      </trkpt>
      <trkpt lat="48.0633" lon="7.0214">
        <ele>1138.1999511719</ele>
        <time>2022-10-09T14:39:27.000Z</time>
      </trkpt>
      <trkpt lat="48.06328" lon="7.02137">
        <ele>1138.1999511719</ele>
        <time>2022-10-09T14:39:31.000Z</time>
      </trkpt>
      <trkpt lat="48.06328" lon="7.02136">
        <ele>1138</ele>
        <time>2022-10-09T14:39:34.000Z</time>
      </trkpt>
      <trkpt lat="48.06327" lon="7.02135">
        <ele>1138</ele>
        <time>2022-10-09T14:39:35.000Z</time>
      </trkpt>
      <trkpt lat="48.06326" lon="7.02134">
        <ele>1137.8000488281</ele>
        <time>2022-10-09T14:39:37.000Z</time>
      </trkpt>
      <trkpt lat="48.06318" lon="7.02124">
        <ele>1137</ele>
        <time>2022-10-09T14:39:48.000Z</time>
      </trkpt>
      <trkpt lat="48.06315" lon="7.0212">
        <ele>1137</ele>
        <time>2022-10-09T14:39:51.000Z</time>
      </trkpt>
      <trkpt lat="48.06308" lon="7.02112">
        <ele>1136.8000488281</ele>
        <time>2022-10-09T14:39:58.000Z</time>
      </trkpt>
      <trkpt lat="48.06306" lon="7.02109">
        <ele>1136.8000488281</ele>
        <time>2022-10-09T14:40:01.000Z</time>
      </trkpt>
      <trkpt lat="48.06307" lon="7.02106">
        <ele>1137</ele>
        <time>2022-10-09T14:40:04.000Z</time>
      </trkpt>
      <trkpt lat="48.06306" lon="7.02106">
        <ele>1137.1999511719</ele>
        <time>2022-10-09T14:40:12.000Z</time>
      </trkpt>
      <trkpt lat="48.06307" lon="7.02105">
        <ele>1137.4000244141</ele>
        <time>2022-10-09T14:40:29.000Z</time>
      </trkpt>
      <trkpt lat="48.06303" lon="7.02102">
        <ele>1137.4000244141</ele>
        <time>2022-10-09T14:40:41.000Z</time>
      </trkpt>
      <trkpt lat="48.06302" lon="7.02102">
        <ele>1137.4000244141</ele>
        <time>2022-10-09T14:40:46.000Z</time>
      </trkpt>
      <trkpt lat="48.06303" lon="7.02103">
        <ele>1137.4000244141</ele>
        <time>2022-10-09T14:40:52.000Z</time>
      </trkpt>
      <trkpt lat="48.06302" lon="7.02102">
        <ele>1137.5999755859</ele>
        <time>2022-10-09T14:41:15.000Z</time>
      </trkpt>
      <trkpt lat="48.06302" lon="7.02101">
        <ele>1137.5999755859</ele>
        <time>2022-10-09T14:41:24.000Z</time>
      </trkpt>
      <trkpt lat="48.06302" lon="7.02099">
        <ele>1137.4000244141</ele>
        <time>2022-10-09T14:41:30.000Z</time>
      </trkpt>
      <trkpt lat="48.06302" lon="7.02099">
        <ele>1137</ele>
        <time>2022-10-09T14:41:32.000Z</time>
      </trkpt>
      <trkpt lat="48.06302" lon="7.02099">
        <ele>1137.1999511719</ele>
        <time>2022-10-09T14:41:51.000Z</time>
      </trkpt>
      <trkpt lat="48.06302" lon="7.02099">
        <ele>1137.1999511719</ele>
        <time>2022-10-09T14:41:52.000Z</time>
      </trkpt>
    </trkseg>
  </trk>
</gpx>